<?xml version="1.0" encoding="UTF-8" standalone="no" ?>
<gpx xmlns="http://www.topografix.com/GPX/1/1" xmlns:xsi="http://www.w3.org/2001/XMLSchema-instance" xsi:schemaLocation="http://www.topografix.com/GPX/1/1 http://www.topografix.com/GPX/1/1/gpx.xsd" version="1.1" creator="VisuGPX - https://www.visugpx.com">
  <metadata>
    <name>La Combe suspendue</name>
    <desc><![CDATA[Combe plein nord au départ de La Chèvrerie.]]></desc>
  </metadata>
  <trk>
    <name><![CDATA[La Combe suspendue_1]]></name>
    <trkseg>
      <trkpt lat="46.20916" lon="6.57618">
        <ele>1153.4</ele>
        <time>2022-02-13T07:47:22Z</time>
      </trkpt>
      <trkpt lat="46.20918" lon="6.57617">
        <ele>1153.2</ele>
        <time>2022-02-13T07:47:28Z</time>
      </trkpt>
      <trkpt lat="46.20919" lon="6.57616">
        <ele>1153.2</ele>
        <time>2022-02-13T07:47:32Z</time>
      </trkpt>
      <trkpt lat="46.20919" lon="6.57615">
        <ele>1152</ele>
        <time>2022-02-13T07:47:44Z</time>
      </trkpt>
      <trkpt lat="46.20919" lon="6.57615">
        <ele>1152.4</ele>
        <time>2022-02-13T07:47:50Z</time>
      </trkpt>
      <trkpt lat="46.20919" lon="6.57615">
        <ele>1152.4</ele>
        <time>2022-02-13T07:47:51Z</time>
      </trkpt>
      <trkpt lat="46.20919" lon="6.57615">
        <ele>1152.4</ele>
        <time>2022-02-13T07:47:52Z</time>
      </trkpt>
      <trkpt lat="46.20918" lon="6.57615">
        <ele>1152.4</ele>
        <time>2022-02-13T07:47:53Z</time>
      </trkpt>
      <trkpt lat="46.20918" lon="6.57615">
        <ele>1152.2</ele>
        <time>2022-02-13T07:47:56Z</time>
      </trkpt>
      <trkpt lat="46.20918" lon="6.57615">
        <ele>1152.2</ele>
        <time>2022-02-13T07:47:57Z</time>
      </trkpt>
      <trkpt lat="46.20918" lon="6.57615">
        <ele>1152.2</ele>
        <time>2022-02-13T07:48:11Z</time>
      </trkpt>
      <trkpt lat="46.20918" lon="6.57615">
        <ele>1152.2</ele>
        <time>2022-02-13T07:48:12Z</time>
      </trkpt>
      <trkpt lat="46.20918" lon="6.57614">
        <ele>1152.4</ele>
        <time>2022-02-13T07:48:24Z</time>
      </trkpt>
      <trkpt lat="46.20918" lon="6.57614">
        <ele>1152.2</ele>
        <time>2022-02-13T07:48:30Z</time>
      </trkpt>
      <trkpt lat="46.20917" lon="6.57614">
        <ele>1152.4</ele>
        <time>2022-02-13T07:48:44Z</time>
      </trkpt>
      <trkpt lat="46.20917" lon="6.57614">
        <ele>1152.4</ele>
        <time>2022-02-13T07:48:46Z</time>
      </trkpt>
      <trkpt lat="46.20917" lon="6.57614">
        <ele>1152.4</ele>
        <time>2022-02-13T07:48:47Z</time>
      </trkpt>
      <trkpt lat="46.20917" lon="6.57613">
        <ele>1152.2</ele>
        <time>2022-02-13T07:48:52Z</time>
      </trkpt>
      <trkpt lat="46.20917" lon="6.57613">
        <ele>1152.4</ele>
        <time>2022-02-13T07:49:00Z</time>
      </trkpt>
      <trkpt lat="46.20917" lon="6.57613">
        <ele>1152.4</ele>
        <time>2022-02-13T07:49:04Z</time>
      </trkpt>
      <trkpt lat="46.20918" lon="6.57613">
        <ele>1152.8</ele>
        <time>2022-02-13T07:49:21Z</time>
      </trkpt>
      <trkpt lat="46.2092" lon="6.57613">
        <ele>1152.2</ele>
        <time>2022-02-13T07:49:29Z</time>
      </trkpt>
      <trkpt lat="46.2092" lon="6.57613">
        <ele>1151.8</ele>
        <time>2022-02-13T07:49:33Z</time>
      </trkpt>
      <trkpt lat="46.20921" lon="6.57615">
        <ele>1151.6</ele>
        <time>2022-02-13T07:49:36Z</time>
      </trkpt>
      <trkpt lat="46.20921" lon="6.57616">
        <ele>1152.8</ele>
        <time>2022-02-13T07:49:38Z</time>
      </trkpt>
      <trkpt lat="46.20921" lon="6.57623">
        <ele>1153</ele>
        <time>2022-02-13T07:49:43Z</time>
      </trkpt>
      <trkpt lat="46.20922" lon="6.57627">
        <ele>1153.2</ele>
        <time>2022-02-13T07:49:45Z</time>
      </trkpt>
      <trkpt lat="46.20922" lon="6.57629">
        <ele>1153.4</ele>
        <time>2022-02-13T07:49:47Z</time>
      </trkpt>
      <trkpt lat="46.20921" lon="6.57634">
        <ele>1153.6</ele>
        <time>2022-02-13T07:49:51Z</time>
      </trkpt>
      <trkpt lat="46.20921" lon="6.57636">
        <ele>1153.6</ele>
        <time>2022-02-13T07:49:52Z</time>
      </trkpt>
      <trkpt lat="46.20921" lon="6.57637">
        <ele>1154</ele>
        <time>2022-02-13T07:49:53Z</time>
      </trkpt>
      <trkpt lat="46.20921" lon="6.57638">
        <ele>1154.4</ele>
        <time>2022-02-13T07:49:56Z</time>
      </trkpt>
      <trkpt lat="46.2092" lon="6.57638">
        <ele>1154.4</ele>
        <time>2022-02-13T07:49:57Z</time>
      </trkpt>
      <trkpt lat="46.2092" lon="6.57638">
        <ele>1154.4</ele>
        <time>2022-02-13T07:49:59Z</time>
      </trkpt>
      <trkpt lat="46.20919" lon="6.57638">
        <ele>1154.2</ele>
        <time>2022-02-13T07:50:13Z</time>
      </trkpt>
      <trkpt lat="46.20918" lon="6.57638">
        <ele>1154.6</ele>
        <time>2022-02-13T07:50:21Z</time>
      </trkpt>
      <trkpt lat="46.20919" lon="6.57638">
        <ele>1154.6</ele>
        <time>2022-02-13T07:50:23Z</time>
      </trkpt>
      <trkpt lat="46.20919" lon="6.57638">
        <ele>1154.6</ele>
        <time>2022-02-13T07:50:24Z</time>
      </trkpt>
      <trkpt lat="46.20919" lon="6.57638">
        <ele>1154.4</ele>
        <time>2022-02-13T07:50:26Z</time>
      </trkpt>
      <trkpt lat="46.20919" lon="6.57638">
        <ele>1154.6</ele>
        <time>2022-02-13T07:50:30Z</time>
      </trkpt>
      <trkpt lat="46.20918" lon="6.57638">
        <ele>1154.6</ele>
        <time>2022-02-13T07:50:33Z</time>
      </trkpt>
      <trkpt lat="46.20918" lon="6.57639">
        <ele>1154</ele>
        <time>2022-02-13T07:50:40Z</time>
      </trkpt>
      <trkpt lat="46.20916" lon="6.57642">
        <ele>1154.8</ele>
        <time>2022-02-13T07:50:46Z</time>
      </trkpt>
      <trkpt lat="46.20915" lon="6.57643">
        <ele>1154.8</ele>
        <time>2022-02-13T07:50:47Z</time>
      </trkpt>
      <trkpt lat="46.20913" lon="6.57644">
        <ele>1154.8</ele>
        <time>2022-02-13T07:50:48Z</time>
      </trkpt>
      <trkpt lat="46.20911" lon="6.57646">
        <ele>1154.6</ele>
        <time>2022-02-13T07:50:50Z</time>
      </trkpt>
      <trkpt lat="46.2091" lon="6.57647">
        <ele>1154.6</ele>
        <time>2022-02-13T07:50:51Z</time>
      </trkpt>
      <trkpt lat="46.20906" lon="6.57654">
        <ele>1154.4</ele>
        <time>2022-02-13T07:50:56Z</time>
      </trkpt>
      <trkpt lat="46.20902" lon="6.57656">
        <ele>1154.4</ele>
        <time>2022-02-13T07:50:59Z</time>
      </trkpt>
      <trkpt lat="46.209" lon="6.5766">
        <ele>1154.4</ele>
        <time>2022-02-13T07:51:03Z</time>
      </trkpt>
      <trkpt lat="46.20899" lon="6.57667">
        <ele>1154.4</ele>
        <time>2022-02-13T07:51:07Z</time>
      </trkpt>
      <trkpt lat="46.20897" lon="6.57671">
        <ele>1154.6</ele>
        <time>2022-02-13T07:51:11Z</time>
      </trkpt>
      <trkpt lat="46.20896" lon="6.57671">
        <ele>1154.8</ele>
        <time>2022-02-13T07:51:12Z</time>
      </trkpt>
      <trkpt lat="46.20895" lon="6.57672">
        <ele>1154.8</ele>
        <time>2022-02-13T07:51:14Z</time>
      </trkpt>
      <trkpt lat="46.20891" lon="6.57674">
        <ele>1154.6</ele>
        <time>2022-02-13T07:51:20Z</time>
      </trkpt>
      <trkpt lat="46.20891" lon="6.57673">
        <ele>1154.6</ele>
        <time>2022-02-13T07:51:21Z</time>
      </trkpt>
      <trkpt lat="46.20892" lon="6.57669">
        <ele>1154.6</ele>
        <time>2022-02-13T07:51:23Z</time>
      </trkpt>
      <trkpt lat="46.20894" lon="6.57665">
        <ele>1154.6</ele>
        <time>2022-02-13T07:51:25Z</time>
      </trkpt>
      <trkpt lat="46.20898" lon="6.57659">
        <ele>1154.6</ele>
        <time>2022-02-13T07:51:28Z</time>
      </trkpt>
      <trkpt lat="46.20906" lon="6.57648">
        <ele>1154</ele>
        <time>2022-02-13T07:51:35Z</time>
      </trkpt>
      <trkpt lat="46.20914" lon="6.57638">
        <ele>1154</ele>
        <time>2022-02-13T07:51:42Z</time>
      </trkpt>
      <trkpt lat="46.2092" lon="6.57628">
        <ele>1154.2</ele>
        <time>2022-02-13T07:51:50Z</time>
      </trkpt>
      <trkpt lat="46.20918" lon="6.57618">
        <ele>1153.4</ele>
        <time>2022-02-13T07:51:56Z</time>
      </trkpt>
      <trkpt lat="46.20917" lon="6.57614">
        <ele>1152.2</ele>
        <time>2022-02-13T07:52:00Z</time>
      </trkpt>
      <trkpt lat="46.20917" lon="6.57613">
        <ele>1152.2</ele>
        <time>2022-02-13T07:52:02Z</time>
      </trkpt>
      <trkpt lat="46.20917" lon="6.57613">
        <ele>1152.2</ele>
        <time>2022-02-13T07:52:03Z</time>
      </trkpt>
      <trkpt lat="46.20917" lon="6.57613">
        <ele>1152</ele>
        <time>2022-02-13T07:52:04Z</time>
      </trkpt>
      <trkpt lat="46.20917" lon="6.57614">
        <ele>1151.6</ele>
        <time>2022-02-13T07:52:10Z</time>
      </trkpt>
      <trkpt lat="46.20917" lon="6.57614">
        <ele>1151.6</ele>
        <time>2022-02-13T07:52:13Z</time>
      </trkpt>
      <trkpt lat="46.20917" lon="6.57614">
        <ele>1151.6</ele>
        <time>2022-02-13T07:52:17Z</time>
      </trkpt>
      <trkpt lat="46.20917" lon="6.57614">
        <ele>1151.6</ele>
        <time>2022-02-13T07:52:20Z</time>
      </trkpt>
      <trkpt lat="46.20917" lon="6.57615">
        <ele>1152</ele>
        <time>2022-02-13T07:52:28Z</time>
      </trkpt>
      <trkpt lat="46.20917" lon="6.57615">
        <ele>1152</ele>
        <time>2022-02-13T07:52:30Z</time>
      </trkpt>
      <trkpt lat="46.20917" lon="6.57615">
        <ele>1152.2</ele>
        <time>2022-02-13T07:52:31Z</time>
      </trkpt>
      <trkpt lat="46.20918" lon="6.57615">
        <ele>1152.2</ele>
        <time>2022-02-13T07:52:35Z</time>
      </trkpt>
      <trkpt lat="46.20919" lon="6.57617">
        <ele>1152.2</ele>
        <time>2022-02-13T07:52:37Z</time>
      </trkpt>
      <trkpt lat="46.20919" lon="6.57618">
        <ele>1153.2</ele>
        <time>2022-02-13T07:52:38Z</time>
      </trkpt>
      <trkpt lat="46.20921" lon="6.57625">
        <ele>1153</ele>
        <time>2022-02-13T07:52:42Z</time>
      </trkpt>
      <trkpt lat="46.20921" lon="6.57634">
        <ele>1153.4</ele>
        <time>2022-02-13T07:52:47Z</time>
      </trkpt>
      <trkpt lat="46.2092" lon="6.57636">
        <ele>1153.6</ele>
        <time>2022-02-13T07:52:48Z</time>
      </trkpt>
      <trkpt lat="46.20916" lon="6.57641">
        <ele>1154.6</ele>
        <time>2022-02-13T07:52:52Z</time>
      </trkpt>
      <trkpt lat="46.20913" lon="6.57644">
        <ele>1154.8</ele>
        <time>2022-02-13T07:52:54Z</time>
      </trkpt>
      <trkpt lat="46.20908" lon="6.57654">
        <ele>1154.4</ele>
        <time>2022-02-13T07:53:00Z</time>
      </trkpt>
      <trkpt lat="46.20901" lon="6.57663">
        <ele>1154.4</ele>
        <time>2022-02-13T07:53:06Z</time>
      </trkpt>
      <trkpt lat="46.20894" lon="6.57671">
        <ele>1154.8</ele>
        <time>2022-02-13T07:53:12Z</time>
      </trkpt>
      <trkpt lat="46.20892" lon="6.57673">
        <ele>1154.8</ele>
        <time>2022-02-13T07:53:14Z</time>
      </trkpt>
      <trkpt lat="46.20891" lon="6.57674">
        <ele>1154.8</ele>
        <time>2022-02-13T07:53:17Z</time>
      </trkpt>
      <trkpt lat="46.2089" lon="6.57675">
        <ele>1154.6</ele>
        <time>2022-02-13T07:53:19Z</time>
      </trkpt>
      <trkpt lat="46.2089" lon="6.57675">
        <ele>1154.6</ele>
        <time>2022-02-13T07:53:20Z</time>
      </trkpt>
      <trkpt lat="46.2089" lon="6.57676">
        <ele>1154.2</ele>
        <time>2022-02-13T07:53:36Z</time>
      </trkpt>
      <trkpt lat="46.2089" lon="6.57676">
        <ele>1154.2</ele>
        <time>2022-02-13T07:53:38Z</time>
      </trkpt>
      <trkpt lat="46.2089" lon="6.57676">
        <ele>1154.4</ele>
        <time>2022-02-13T07:53:40Z</time>
      </trkpt>
      <trkpt lat="46.20889" lon="6.57676">
        <ele>1154.2</ele>
        <time>2022-02-13T07:53:44Z</time>
      </trkpt>
      <trkpt lat="46.20889" lon="6.57676">
        <ele>1154.2</ele>
        <time>2022-02-13T07:53:48Z</time>
      </trkpt>
      <trkpt lat="46.20888" lon="6.57676">
        <ele>1154.2</ele>
        <time>2022-02-13T07:53:58Z</time>
      </trkpt>
      <trkpt lat="46.20888" lon="6.57675">
        <ele>1154.4</ele>
        <time>2022-02-13T07:54:03Z</time>
      </trkpt>
      <trkpt lat="46.20888" lon="6.57675">
        <ele>1154.4</ele>
        <time>2022-02-13T07:54:07Z</time>
      </trkpt>
      <trkpt lat="46.20888" lon="6.57676">
        <ele>1154.4</ele>
        <time>2022-02-13T07:54:10Z</time>
      </trkpt>
      <trkpt lat="46.20888" lon="6.57676">
        <ele>1154.2</ele>
        <time>2022-02-13T07:54:14Z</time>
      </trkpt>
      <trkpt lat="46.20888" lon="6.57676">
        <ele>1154.2</ele>
        <time>2022-02-13T07:54:15Z</time>
      </trkpt>
      <trkpt lat="46.20887" lon="6.57675">
        <ele>1154.6</ele>
        <time>2022-02-13T07:54:30Z</time>
      </trkpt>
      <trkpt lat="46.20887" lon="6.57675">
        <ele>1154.6</ele>
        <time>2022-02-13T07:54:35Z</time>
      </trkpt>
      <trkpt lat="46.20887" lon="6.57675">
        <ele>1154.6</ele>
        <time>2022-02-13T07:54:51Z</time>
      </trkpt>
      <trkpt lat="46.20886" lon="6.57675">
        <ele>1154.6</ele>
        <time>2022-02-13T07:54:56Z</time>
      </trkpt>
      <trkpt lat="46.20886" lon="6.57675">
        <ele>1154.6</ele>
        <time>2022-02-13T07:54:58Z</time>
      </trkpt>
      <trkpt lat="46.20886" lon="6.57675">
        <ele>1154.6</ele>
        <time>2022-02-13T07:55:00Z</time>
      </trkpt>
      <trkpt lat="46.20886" lon="6.57675">
        <ele>1154.6</ele>
        <time>2022-02-13T07:55:03Z</time>
      </trkpt>
      <trkpt lat="46.20885" lon="6.57675">
        <ele>1154.6</ele>
        <time>2022-02-13T07:55:06Z</time>
      </trkpt>
      <trkpt lat="46.20885" lon="6.57675">
        <ele>1154.6</ele>
        <time>2022-02-13T07:55:08Z</time>
      </trkpt>
      <trkpt lat="46.20885" lon="6.57676">
        <ele>1154.6</ele>
        <time>2022-02-13T07:55:15Z</time>
      </trkpt>
      <trkpt lat="46.20885" lon="6.57676">
        <ele>1154.6</ele>
        <time>2022-02-13T07:55:16Z</time>
      </trkpt>
      <trkpt lat="46.20885" lon="6.57676">
        <ele>1154.6</ele>
        <time>2022-02-13T07:55:17Z</time>
      </trkpt>
      <trkpt lat="46.20879" lon="6.57683">
        <ele>1154.6</ele>
        <time>2022-02-13T07:55:26Z</time>
      </trkpt>
      <trkpt lat="46.20875" lon="6.57686">
        <ele>1154.6</ele>
        <time>2022-02-13T07:55:30Z</time>
      </trkpt>
      <trkpt lat="46.20875" lon="6.57687">
        <ele>1154.6</ele>
        <time>2022-02-13T07:55:31Z</time>
      </trkpt>
      <trkpt lat="46.20873" lon="6.5769">
        <ele>1154.6</ele>
        <time>2022-02-13T07:55:33Z</time>
      </trkpt>
      <trkpt lat="46.20871" lon="6.57694">
        <ele>1154.8</ele>
        <time>2022-02-13T07:55:36Z</time>
      </trkpt>
      <trkpt lat="46.2087" lon="6.57697">
        <ele>1155.2</ele>
        <time>2022-02-13T07:55:38Z</time>
      </trkpt>
      <trkpt lat="46.20868" lon="6.57699">
        <ele>1155.2</ele>
        <time>2022-02-13T07:55:40Z</time>
      </trkpt>
      <trkpt lat="46.20864" lon="6.57703">
        <ele>1155.8</ele>
        <time>2022-02-13T07:55:46Z</time>
      </trkpt>
      <trkpt lat="46.20864" lon="6.57702">
        <ele>1156</ele>
        <time>2022-02-13T07:55:47Z</time>
      </trkpt>
      <trkpt lat="46.20862" lon="6.57702">
        <ele>1156.2</ele>
        <time>2022-02-13T07:55:58Z</time>
      </trkpt>
      <trkpt lat="46.20857" lon="6.57703">
        <ele>1157</ele>
        <time>2022-02-13T07:56:04Z</time>
      </trkpt>
      <trkpt lat="46.20853" lon="6.57702">
        <ele>1157.8</ele>
        <time>2022-02-13T07:56:08Z</time>
      </trkpt>
      <trkpt lat="46.20852" lon="6.57701">
        <ele>1158</ele>
        <time>2022-02-13T07:56:09Z</time>
      </trkpt>
      <trkpt lat="46.20848" lon="6.57699">
        <ele>1159</ele>
        <time>2022-02-13T07:56:14Z</time>
      </trkpt>
      <trkpt lat="46.20848" lon="6.57698">
        <ele>1159.2</ele>
        <time>2022-02-13T07:56:15Z</time>
      </trkpt>
      <trkpt lat="46.20845" lon="6.57695">
        <ele>1160.2</ele>
        <time>2022-02-13T07:56:20Z</time>
      </trkpt>
      <trkpt lat="46.20844" lon="6.57694">
        <ele>1160.4</ele>
        <time>2022-02-13T07:56:21Z</time>
      </trkpt>
      <trkpt lat="46.20843" lon="6.57692">
        <ele>1160.8</ele>
        <time>2022-02-13T07:56:23Z</time>
      </trkpt>
      <trkpt lat="46.20839" lon="6.57685">
        <ele>1161.2</ele>
        <time>2022-02-13T07:56:30Z</time>
      </trkpt>
      <trkpt lat="46.20837" lon="6.5768">
        <ele>1161.6</ele>
        <time>2022-02-13T07:56:34Z</time>
      </trkpt>
      <trkpt lat="46.20835" lon="6.57673">
        <ele>1162.4</ele>
        <time>2022-02-13T07:56:40Z</time>
      </trkpt>
      <trkpt lat="46.20833" lon="6.5767">
        <ele>1162.8</ele>
        <time>2022-02-13T07:56:43Z</time>
      </trkpt>
      <trkpt lat="46.20832" lon="6.57668">
        <ele>1163</ele>
        <time>2022-02-13T07:56:45Z</time>
      </trkpt>
      <trkpt lat="46.2083" lon="6.57665">
        <ele>1163.4</ele>
        <time>2022-02-13T07:56:48Z</time>
      </trkpt>
      <trkpt lat="46.20826" lon="6.5766">
        <ele>1164</ele>
        <time>2022-02-13T07:56:53Z</time>
      </trkpt>
      <trkpt lat="46.20824" lon="6.57657">
        <ele>1164.4</ele>
        <time>2022-02-13T07:56:56Z</time>
      </trkpt>
      <trkpt lat="46.20824" lon="6.57656">
        <ele>1164.8</ele>
        <time>2022-02-13T07:56:57Z</time>
      </trkpt>
      <trkpt lat="46.20821" lon="6.57649">
        <ele>1165.2</ele>
        <time>2022-02-13T07:57:03Z</time>
      </trkpt>
      <trkpt lat="46.2082" lon="6.57644">
        <ele>1166</ele>
        <time>2022-02-13T07:57:07Z</time>
      </trkpt>
      <trkpt lat="46.20819" lon="6.57642">
        <ele>1166.2</ele>
        <time>2022-02-13T07:57:09Z</time>
      </trkpt>
      <trkpt lat="46.20817" lon="6.57634">
        <ele>1167</ele>
        <time>2022-02-13T07:57:16Z</time>
      </trkpt>
      <trkpt lat="46.20816" lon="6.57629">
        <ele>1167.4</ele>
        <time>2022-02-13T07:57:20Z</time>
      </trkpt>
      <trkpt lat="46.20815" lon="6.57626">
        <ele>1167.8</ele>
        <time>2022-02-13T07:57:23Z</time>
      </trkpt>
      <trkpt lat="46.20814" lon="6.57625">
        <ele>1168.2</ele>
        <time>2022-02-13T07:57:24Z</time>
      </trkpt>
      <trkpt lat="46.20811" lon="6.57614">
        <ele>1169.2</ele>
        <time>2022-02-13T07:57:33Z</time>
      </trkpt>
      <trkpt lat="46.20807" lon="6.576">
        <ele>1170.6</ele>
        <time>2022-02-13T07:57:44Z</time>
      </trkpt>
      <trkpt lat="46.20806" lon="6.57599">
        <ele>1170.6</ele>
        <time>2022-02-13T07:57:45Z</time>
      </trkpt>
      <trkpt lat="46.20802" lon="6.57594">
        <ele>1171</ele>
        <time>2022-02-13T07:57:51Z</time>
      </trkpt>
      <trkpt lat="46.20797" lon="6.57592">
        <ele>1171.4</ele>
        <time>2022-02-13T07:57:56Z</time>
      </trkpt>
      <trkpt lat="46.20796" lon="6.57592">
        <ele>1171.6</ele>
        <time>2022-02-13T07:57:57Z</time>
      </trkpt>
      <trkpt lat="46.20791" lon="6.57592">
        <ele>1172.2</ele>
        <time>2022-02-13T07:58:03Z</time>
      </trkpt>
      <trkpt lat="46.2079" lon="6.57593">
        <ele>1172.4</ele>
        <time>2022-02-13T07:58:07Z</time>
      </trkpt>
      <trkpt lat="46.2079" lon="6.57593">
        <ele>1172.4</ele>
        <time>2022-02-13T07:58:08Z</time>
      </trkpt>
      <trkpt lat="46.20791" lon="6.57594">
        <ele>1171.8</ele>
        <time>2022-02-13T07:58:15Z</time>
      </trkpt>
      <trkpt lat="46.20791" lon="6.57594">
        <ele>1172</ele>
        <time>2022-02-13T07:58:17Z</time>
      </trkpt>
      <trkpt lat="46.20793" lon="6.57595">
        <ele>1172</ele>
        <time>2022-02-13T07:58:21Z</time>
      </trkpt>
      <trkpt lat="46.20794" lon="6.57595">
        <ele>1172</ele>
        <time>2022-02-13T07:58:23Z</time>
      </trkpt>
      <trkpt lat="46.20795" lon="6.57595">
        <ele>1172</ele>
        <time>2022-02-13T07:58:26Z</time>
      </trkpt>
      <trkpt lat="46.20795" lon="6.57595">
        <ele>1172.2</ele>
        <time>2022-02-13T07:58:28Z</time>
      </trkpt>
      <trkpt lat="46.20794" lon="6.57598">
        <ele>1172.2</ele>
        <time>2022-02-13T07:58:36Z</time>
      </trkpt>
      <trkpt lat="46.20794" lon="6.57598">
        <ele>1172.2</ele>
        <time>2022-02-13T07:58:40Z</time>
      </trkpt>
      <trkpt lat="46.20794" lon="6.57598">
        <ele>1171.8</ele>
        <time>2022-02-13T07:58:47Z</time>
      </trkpt>
      <trkpt lat="46.20794" lon="6.576">
        <ele>1172.6</ele>
        <time>2022-02-13T07:58:53Z</time>
      </trkpt>
      <trkpt lat="46.20793" lon="6.576">
        <ele>1172.6</ele>
        <time>2022-02-13T07:58:54Z</time>
      </trkpt>
      <trkpt lat="46.20793" lon="6.57601">
        <ele>1172.6</ele>
        <time>2022-02-13T07:58:55Z</time>
      </trkpt>
      <trkpt lat="46.20793" lon="6.57601">
        <ele>1172.6</ele>
        <time>2022-02-13T07:58:57Z</time>
      </trkpt>
      <trkpt lat="46.20791" lon="6.57604">
        <ele>1172.8</ele>
        <time>2022-02-13T07:59:01Z</time>
      </trkpt>
      <trkpt lat="46.2079" lon="6.57606">
        <ele>1173</ele>
        <time>2022-02-13T07:59:03Z</time>
      </trkpt>
      <trkpt lat="46.20788" lon="6.5761">
        <ele>1173.4</ele>
        <time>2022-02-13T07:59:07Z</time>
      </trkpt>
      <trkpt lat="46.20788" lon="6.5761">
        <ele>1173.4</ele>
        <time>2022-02-13T07:59:08Z</time>
      </trkpt>
      <trkpt lat="46.20787" lon="6.57612">
        <ele>1173.8</ele>
        <time>2022-02-13T07:59:09Z</time>
      </trkpt>
      <trkpt lat="46.20787" lon="6.57614">
        <ele>1174.2</ele>
        <time>2022-02-13T07:59:11Z</time>
      </trkpt>
      <trkpt lat="46.20786" lon="6.57616">
        <ele>1174.2</ele>
        <time>2022-02-13T07:59:13Z</time>
      </trkpt>
      <trkpt lat="46.20784" lon="6.57622">
        <ele>1174.8</ele>
        <time>2022-02-13T07:59:19Z</time>
      </trkpt>
      <trkpt lat="46.20784" lon="6.57623">
        <ele>1175.2</ele>
        <time>2022-02-13T07:59:20Z</time>
      </trkpt>
      <trkpt lat="46.20782" lon="6.57628">
        <ele>1176</ele>
        <time>2022-02-13T07:59:25Z</time>
      </trkpt>
      <trkpt lat="46.20781" lon="6.57629">
        <ele>1176.2</ele>
        <time>2022-02-13T07:59:27Z</time>
      </trkpt>
      <trkpt lat="46.2078" lon="6.5763">
        <ele>1176.4</ele>
        <time>2022-02-13T07:59:29Z</time>
      </trkpt>
      <trkpt lat="46.20778" lon="6.57631">
        <ele>1176.4</ele>
        <time>2022-02-13T07:59:32Z</time>
      </trkpt>
      <trkpt lat="46.20775" lon="6.57633">
        <ele>1177</ele>
        <time>2022-02-13T07:59:35Z</time>
      </trkpt>
      <trkpt lat="46.2077" lon="6.57637">
        <ele>1177.6</ele>
        <time>2022-02-13T07:59:41Z</time>
      </trkpt>
      <trkpt lat="46.20767" lon="6.57639">
        <ele>1178.2</ele>
        <time>2022-02-13T07:59:44Z</time>
      </trkpt>
      <trkpt lat="46.20762" lon="6.57644">
        <ele>1178.8</ele>
        <time>2022-02-13T07:59:51Z</time>
      </trkpt>
      <trkpt lat="46.2076" lon="6.57646">
        <ele>1179.4</ele>
        <time>2022-02-13T07:59:54Z</time>
      </trkpt>
      <trkpt lat="46.20755" lon="6.57648">
        <ele>1179.8</ele>
        <time>2022-02-13T07:59:59Z</time>
      </trkpt>
      <trkpt lat="46.20751" lon="6.5765">
        <ele>1180.6</ele>
        <time>2022-02-13T08:00:03Z</time>
      </trkpt>
      <trkpt lat="46.20749" lon="6.57651">
        <ele>1181</ele>
        <time>2022-02-13T08:00:06Z</time>
      </trkpt>
      <trkpt lat="46.20743" lon="6.57654">
        <ele>1181.6</ele>
        <time>2022-02-13T08:00:12Z</time>
      </trkpt>
      <trkpt lat="46.20743" lon="6.57654">
        <ele>1181.8</ele>
        <time>2022-02-13T08:00:13Z</time>
      </trkpt>
      <trkpt lat="46.20742" lon="6.57654">
        <ele>1182</ele>
        <time>2022-02-13T08:00:14Z</time>
      </trkpt>
      <trkpt lat="46.20737" lon="6.57657">
        <ele>1182.6</ele>
        <time>2022-02-13T08:00:20Z</time>
      </trkpt>
      <trkpt lat="46.20736" lon="6.57658">
        <ele>1183</ele>
        <time>2022-02-13T08:00:22Z</time>
      </trkpt>
      <trkpt lat="46.20736" lon="6.57659">
        <ele>1183</ele>
        <time>2022-02-13T08:00:23Z</time>
      </trkpt>
      <trkpt lat="46.20733" lon="6.57663">
        <ele>1184</ele>
        <time>2022-02-13T08:00:28Z</time>
      </trkpt>
      <trkpt lat="46.20727" lon="6.57668">
        <ele>1185.2</ele>
        <time>2022-02-13T08:00:36Z</time>
      </trkpt>
      <trkpt lat="46.20726" lon="6.57671">
        <ele>1185.6</ele>
        <time>2022-02-13T08:00:39Z</time>
      </trkpt>
      <trkpt lat="46.20725" lon="6.57672">
        <ele>1185.8</ele>
        <time>2022-02-13T08:00:40Z</time>
      </trkpt>
      <trkpt lat="46.20723" lon="6.57676">
        <ele>1186.2</ele>
        <time>2022-02-13T08:00:44Z</time>
      </trkpt>
      <trkpt lat="46.20721" lon="6.5768">
        <ele>1186.8</ele>
        <time>2022-02-13T08:00:48Z</time>
      </trkpt>
      <trkpt lat="46.2072" lon="6.57684">
        <ele>1187.2</ele>
        <time>2022-02-13T08:00:51Z</time>
      </trkpt>
      <trkpt lat="46.20719" lon="6.57685">
        <ele>1187.2</ele>
        <time>2022-02-13T08:00:52Z</time>
      </trkpt>
      <trkpt lat="46.20719" lon="6.57686">
        <ele>1187.6</ele>
        <time>2022-02-13T08:00:53Z</time>
      </trkpt>
      <trkpt lat="46.20717" lon="6.57693">
        <ele>1188.4</ele>
        <time>2022-02-13T08:00:59Z</time>
      </trkpt>
      <trkpt lat="46.20715" lon="6.57698">
        <ele>1189</ele>
        <time>2022-02-13T08:01:04Z</time>
      </trkpt>
      <trkpt lat="46.20715" lon="6.577">
        <ele>1189.4</ele>
        <time>2022-02-13T08:01:06Z</time>
      </trkpt>
      <trkpt lat="46.20713" lon="6.57709">
        <ele>1190.4</ele>
        <time>2022-02-13T08:01:13Z</time>
      </trkpt>
      <trkpt lat="46.20714" lon="6.57711">
        <ele>1190.6</ele>
        <time>2022-02-13T08:01:15Z</time>
      </trkpt>
      <trkpt lat="46.20712" lon="6.57719">
        <ele>1191.4</ele>
        <time>2022-02-13T08:01:21Z</time>
      </trkpt>
      <trkpt lat="46.20711" lon="6.57724">
        <ele>1191.8</ele>
        <time>2022-02-13T08:01:25Z</time>
      </trkpt>
      <trkpt lat="46.2071" lon="6.57731">
        <ele>1192.6</ele>
        <time>2022-02-13T08:01:31Z</time>
      </trkpt>
      <trkpt lat="46.20709" lon="6.57738">
        <ele>1193.4</ele>
        <time>2022-02-13T08:01:37Z</time>
      </trkpt>
      <trkpt lat="46.20708" lon="6.57742">
        <ele>1193.6</ele>
        <time>2022-02-13T08:01:40Z</time>
      </trkpt>
      <trkpt lat="46.20708" lon="6.57743">
        <ele>1193.8</ele>
        <time>2022-02-13T08:01:41Z</time>
      </trkpt>
      <trkpt lat="46.20707" lon="6.57754">
        <ele>1194.4</ele>
        <time>2022-02-13T08:01:49Z</time>
      </trkpt>
      <trkpt lat="46.20706" lon="6.57757">
        <ele>1194.8</ele>
        <time>2022-02-13T08:01:51Z</time>
      </trkpt>
      <trkpt lat="46.20705" lon="6.57768">
        <ele>1196</ele>
        <time>2022-02-13T08:01:59Z</time>
      </trkpt>
      <trkpt lat="46.20702" lon="6.57778">
        <ele>1197</ele>
        <time>2022-02-13T08:02:08Z</time>
      </trkpt>
      <trkpt lat="46.20701" lon="6.57779">
        <ele>1197.2</ele>
        <time>2022-02-13T08:02:09Z</time>
      </trkpt>
      <trkpt lat="46.20701" lon="6.57781">
        <ele>1197.2</ele>
        <time>2022-02-13T08:02:10Z</time>
      </trkpt>
      <trkpt lat="46.20697" lon="6.57791">
        <ele>1198</ele>
        <time>2022-02-13T08:02:18Z</time>
      </trkpt>
      <trkpt lat="46.20696" lon="6.57797">
        <ele>1198.4</ele>
        <time>2022-02-13T08:02:23Z</time>
      </trkpt>
      <trkpt lat="46.20693" lon="6.57803">
        <ele>1198.8</ele>
        <time>2022-02-13T08:02:29Z</time>
      </trkpt>
      <trkpt lat="46.20692" lon="6.57805">
        <ele>1198.8</ele>
        <time>2022-02-13T08:02:30Z</time>
      </trkpt>
      <trkpt lat="46.20692" lon="6.57807">
        <ele>1199</ele>
        <time>2022-02-13T08:02:32Z</time>
      </trkpt>
      <trkpt lat="46.2069" lon="6.57813">
        <ele>1199.6</ele>
        <time>2022-02-13T08:02:37Z</time>
      </trkpt>
      <trkpt lat="46.20687" lon="6.57819">
        <ele>1199.8</ele>
        <time>2022-02-13T08:02:42Z</time>
      </trkpt>
      <trkpt lat="46.20686" lon="6.57821">
        <ele>1200</ele>
        <time>2022-02-13T08:02:44Z</time>
      </trkpt>
      <trkpt lat="46.20686" lon="6.57822">
        <ele>1200</ele>
        <time>2022-02-13T08:02:45Z</time>
      </trkpt>
      <trkpt lat="46.20685" lon="6.57824">
        <ele>1200.4</ele>
        <time>2022-02-13T08:02:47Z</time>
      </trkpt>
      <trkpt lat="46.20682" lon="6.57829">
        <ele>1200.6</ele>
        <time>2022-02-13T08:02:51Z</time>
      </trkpt>
      <trkpt lat="46.20682" lon="6.5783">
        <ele>1200.6</ele>
        <time>2022-02-13T08:02:52Z</time>
      </trkpt>
      <trkpt lat="46.20679" lon="6.57834">
        <ele>1201.2</ele>
        <time>2022-02-13T08:02:56Z</time>
      </trkpt>
      <trkpt lat="46.20678" lon="6.57836">
        <ele>1201.4</ele>
        <time>2022-02-13T08:02:58Z</time>
      </trkpt>
      <trkpt lat="46.20677" lon="6.57837">
        <ele>1201.4</ele>
        <time>2022-02-13T08:02:59Z</time>
      </trkpt>
      <trkpt lat="46.20673" lon="6.57844">
        <ele>1201.6</ele>
        <time>2022-02-13T08:03:05Z</time>
      </trkpt>
      <trkpt lat="46.20673" lon="6.57845">
        <ele>1201.8</ele>
        <time>2022-02-13T08:03:06Z</time>
      </trkpt>
      <trkpt lat="46.20671" lon="6.57851">
        <ele>1202.4</ele>
        <time>2022-02-13T08:03:11Z</time>
      </trkpt>
      <trkpt lat="46.20671" lon="6.57852">
        <ele>1202.4</ele>
        <time>2022-02-13T08:03:12Z</time>
      </trkpt>
      <trkpt lat="46.2067" lon="6.57856">
        <ele>1202.8</ele>
        <time>2022-02-13T08:03:15Z</time>
      </trkpt>
      <trkpt lat="46.20668" lon="6.57859">
        <ele>1203.2</ele>
        <time>2022-02-13T08:03:18Z</time>
      </trkpt>
      <trkpt lat="46.20666" lon="6.57863">
        <ele>1203.4</ele>
        <time>2022-02-13T08:03:21Z</time>
      </trkpt>
      <trkpt lat="46.20664" lon="6.57867">
        <ele>1204</ele>
        <time>2022-02-13T08:03:25Z</time>
      </trkpt>
      <trkpt lat="46.20662" lon="6.57873">
        <ele>1204.6</ele>
        <time>2022-02-13T08:03:30Z</time>
      </trkpt>
      <trkpt lat="46.20661" lon="6.57874">
        <ele>1204.8</ele>
        <time>2022-02-13T08:03:31Z</time>
      </trkpt>
      <trkpt lat="46.20661" lon="6.57875">
        <ele>1204.8</ele>
        <time>2022-02-13T08:03:32Z</time>
      </trkpt>
      <trkpt lat="46.20658" lon="6.57879">
        <ele>1205</ele>
        <time>2022-02-13T08:03:36Z</time>
      </trkpt>
      <trkpt lat="46.20657" lon="6.57881">
        <ele>1205</ele>
        <time>2022-02-13T08:03:38Z</time>
      </trkpt>
      <trkpt lat="46.20653" lon="6.5789">
        <ele>1205.6</ele>
        <time>2022-02-13T08:03:45Z</time>
      </trkpt>
      <trkpt lat="46.20653" lon="6.57891">
        <ele>1205.8</ele>
        <time>2022-02-13T08:03:46Z</time>
      </trkpt>
      <trkpt lat="46.20652" lon="6.57892">
        <ele>1206</ele>
        <time>2022-02-13T08:03:47Z</time>
      </trkpt>
      <trkpt lat="46.2065" lon="6.57899">
        <ele>1206.6</ele>
        <time>2022-02-13T08:03:52Z</time>
      </trkpt>
      <trkpt lat="46.2065" lon="6.57901">
        <ele>1206.8</ele>
        <time>2022-02-13T08:03:53Z</time>
      </trkpt>
      <trkpt lat="46.20648" lon="6.57908">
        <ele>1207.2</ele>
        <time>2022-02-13T08:03:58Z</time>
      </trkpt>
      <trkpt lat="46.20645" lon="6.57915">
        <ele>1207.6</ele>
        <time>2022-02-13T08:04:04Z</time>
      </trkpt>
      <trkpt lat="46.20644" lon="6.5792">
        <ele>1207.8</ele>
        <time>2022-02-13T08:04:07Z</time>
      </trkpt>
      <trkpt lat="46.20643" lon="6.57925">
        <ele>1208.2</ele>
        <time>2022-02-13T08:04:11Z</time>
      </trkpt>
      <trkpt lat="46.20642" lon="6.57929">
        <ele>1208.6</ele>
        <time>2022-02-13T08:04:14Z</time>
      </trkpt>
      <trkpt lat="46.20641" lon="6.57933">
        <ele>1209</ele>
        <time>2022-02-13T08:04:17Z</time>
      </trkpt>
      <trkpt lat="46.20637" lon="6.5794">
        <ele>1209.6</ele>
        <time>2022-02-13T08:04:24Z</time>
      </trkpt>
      <trkpt lat="46.20635" lon="6.57945">
        <ele>1210.2</ele>
        <time>2022-02-13T08:04:28Z</time>
      </trkpt>
      <trkpt lat="46.20635" lon="6.57947">
        <ele>1210.4</ele>
        <time>2022-02-13T08:04:30Z</time>
      </trkpt>
      <trkpt lat="46.20631" lon="6.57953">
        <ele>1211.2</ele>
        <time>2022-02-13T08:04:37Z</time>
      </trkpt>
      <trkpt lat="46.20628" lon="6.57959">
        <ele>1212.2</ele>
        <time>2022-02-13T08:04:42Z</time>
      </trkpt>
      <trkpt lat="46.20626" lon="6.57961">
        <ele>1212.6</ele>
        <time>2022-02-13T08:04:44Z</time>
      </trkpt>
      <trkpt lat="46.20623" lon="6.57967">
        <ele>1213.2</ele>
        <time>2022-02-13T08:04:50Z</time>
      </trkpt>
      <trkpt lat="46.20623" lon="6.57972">
        <ele>1213.6</ele>
        <time>2022-02-13T08:04:53Z</time>
      </trkpt>
      <trkpt lat="46.20622" lon="6.57976">
        <ele>1214</ele>
        <time>2022-02-13T08:04:56Z</time>
      </trkpt>
      <trkpt lat="46.20622" lon="6.57977">
        <ele>1214.2</ele>
        <time>2022-02-13T08:04:57Z</time>
      </trkpt>
      <trkpt lat="46.20622" lon="6.57981">
        <ele>1214.6</ele>
        <time>2022-02-13T08:05:00Z</time>
      </trkpt>
      <trkpt lat="46.20621" lon="6.57983">
        <ele>1214.8</ele>
        <time>2022-02-13T08:05:01Z</time>
      </trkpt>
      <trkpt lat="46.20621" lon="6.57985">
        <ele>1215</ele>
        <time>2022-02-13T08:05:03Z</time>
      </trkpt>
      <trkpt lat="46.20618" lon="6.57991">
        <ele>1215.8</ele>
        <time>2022-02-13T08:05:09Z</time>
      </trkpt>
      <trkpt lat="46.20617" lon="6.57992">
        <ele>1215.8</ele>
        <time>2022-02-13T08:05:10Z</time>
      </trkpt>
      <trkpt lat="46.20616" lon="6.57994">
        <ele>1216.2</ele>
        <time>2022-02-13T08:05:12Z</time>
      </trkpt>
      <trkpt lat="46.20612" lon="6.57999">
        <ele>1216.8</ele>
        <time>2022-02-13T08:05:17Z</time>
      </trkpt>
      <trkpt lat="46.2061" lon="6.58003">
        <ele>1217.4</ele>
        <time>2022-02-13T08:05:21Z</time>
      </trkpt>
      <trkpt lat="46.2061" lon="6.58005">
        <ele>1217.6</ele>
        <time>2022-02-13T08:05:23Z</time>
      </trkpt>
      <trkpt lat="46.20609" lon="6.58007">
        <ele>1217.8</ele>
        <time>2022-02-13T08:05:25Z</time>
      </trkpt>
      <trkpt lat="46.20608" lon="6.58009">
        <ele>1218</ele>
        <time>2022-02-13T08:05:26Z</time>
      </trkpt>
      <trkpt lat="46.20605" lon="6.58014">
        <ele>1218.6</ele>
        <time>2022-02-13T08:05:32Z</time>
      </trkpt>
      <trkpt lat="46.20604" lon="6.58016">
        <ele>1219</ele>
        <time>2022-02-13T08:05:34Z</time>
      </trkpt>
      <trkpt lat="46.20601" lon="6.58023">
        <ele>1219.6</ele>
        <time>2022-02-13T08:05:39Z</time>
      </trkpt>
      <trkpt lat="46.20599" lon="6.58027">
        <ele>1220.2</ele>
        <time>2022-02-13T08:05:42Z</time>
      </trkpt>
      <trkpt lat="46.20596" lon="6.58031">
        <ele>1220.8</ele>
        <time>2022-02-13T08:05:46Z</time>
      </trkpt>
      <trkpt lat="46.20595" lon="6.58032">
        <ele>1220.8</ele>
        <time>2022-02-13T08:05:47Z</time>
      </trkpt>
      <trkpt lat="46.20593" lon="6.58037">
        <ele>1221</ele>
        <time>2022-02-13T08:05:52Z</time>
      </trkpt>
      <trkpt lat="46.20592" lon="6.5804">
        <ele>1221.2</ele>
        <time>2022-02-13T08:05:54Z</time>
      </trkpt>
      <trkpt lat="46.2059" lon="6.58045">
        <ele>1221.6</ele>
        <time>2022-02-13T08:05:59Z</time>
      </trkpt>
      <trkpt lat="46.20588" lon="6.58048">
        <ele>1221.8</ele>
        <time>2022-02-13T08:06:02Z</time>
      </trkpt>
      <trkpt lat="46.20584" lon="6.58052">
        <ele>1222.4</ele>
        <time>2022-02-13T08:06:07Z</time>
      </trkpt>
      <trkpt lat="46.20584" lon="6.58053">
        <ele>1222.6</ele>
        <time>2022-02-13T08:06:08Z</time>
      </trkpt>
      <trkpt lat="46.20584" lon="6.58054">
        <ele>1222</ele>
        <time>2022-02-13T08:06:16Z</time>
      </trkpt>
      <trkpt lat="46.20585" lon="6.58055">
        <ele>1221.8</ele>
        <time>2022-02-13T08:06:33Z</time>
      </trkpt>
      <trkpt lat="46.20585" lon="6.58055">
        <ele>1221.8</ele>
        <time>2022-02-13T08:06:34Z</time>
      </trkpt>
      <trkpt lat="46.20582" lon="6.58059">
        <ele>1222.6</ele>
        <time>2022-02-13T08:06:42Z</time>
      </trkpt>
      <trkpt lat="46.20581" lon="6.5806">
        <ele>1222.6</ele>
        <time>2022-02-13T08:06:44Z</time>
      </trkpt>
      <trkpt lat="46.2058" lon="6.58061">
        <ele>1222.8</ele>
        <time>2022-02-13T08:06:46Z</time>
      </trkpt>
      <trkpt lat="46.20577" lon="6.58064">
        <ele>1223.2</ele>
        <time>2022-02-13T08:06:51Z</time>
      </trkpt>
      <trkpt lat="46.20576" lon="6.58066">
        <ele>1223.2</ele>
        <time>2022-02-13T08:06:53Z</time>
      </trkpt>
      <trkpt lat="46.20574" lon="6.58069">
        <ele>1223.6</ele>
        <time>2022-02-13T08:06:56Z</time>
      </trkpt>
      <trkpt lat="46.20569" lon="6.58075">
        <ele>1224.6</ele>
        <time>2022-02-13T08:07:04Z</time>
      </trkpt>
      <trkpt lat="46.20563" lon="6.58079">
        <ele>1225.2</ele>
        <time>2022-02-13T08:07:10Z</time>
      </trkpt>
      <trkpt lat="46.2056" lon="6.58081">
        <ele>1225.6</ele>
        <time>2022-02-13T08:07:13Z</time>
      </trkpt>
      <trkpt lat="46.20558" lon="6.58083">
        <ele>1226</ele>
        <time>2022-02-13T08:07:16Z</time>
      </trkpt>
      <trkpt lat="46.20553" lon="6.58087">
        <ele>1226.6</ele>
        <time>2022-02-13T08:07:23Z</time>
      </trkpt>
      <trkpt lat="46.20551" lon="6.58089">
        <ele>1227</ele>
        <time>2022-02-13T08:07:25Z</time>
      </trkpt>
      <trkpt lat="46.20543" lon="6.58093">
        <ele>1227.6</ele>
        <time>2022-02-13T08:07:34Z</time>
      </trkpt>
      <trkpt lat="46.20539" lon="6.58096">
        <ele>1228.2</ele>
        <time>2022-02-13T08:07:38Z</time>
      </trkpt>
      <trkpt lat="46.20535" lon="6.58098">
        <ele>1228.8</ele>
        <time>2022-02-13T08:07:42Z</time>
      </trkpt>
      <trkpt lat="46.20529" lon="6.58101">
        <ele>1229.2</ele>
        <time>2022-02-13T08:07:48Z</time>
      </trkpt>
      <trkpt lat="46.20527" lon="6.58102">
        <ele>1229.6</ele>
        <time>2022-02-13T08:07:50Z</time>
      </trkpt>
      <trkpt lat="46.20526" lon="6.58102">
        <ele>1229.8</ele>
        <time>2022-02-13T08:07:51Z</time>
      </trkpt>
      <trkpt lat="46.20523" lon="6.58103">
        <ele>1230</ele>
        <time>2022-02-13T08:07:54Z</time>
      </trkpt>
      <trkpt lat="46.20522" lon="6.58103">
        <ele>1230</ele>
        <time>2022-02-13T08:07:55Z</time>
      </trkpt>
      <trkpt lat="46.20518" lon="6.58105">
        <ele>1230.8</ele>
        <time>2022-02-13T08:08:01Z</time>
      </trkpt>
      <trkpt lat="46.20507" lon="6.58107">
        <ele>1232</ele>
        <time>2022-02-13T08:08:15Z</time>
      </trkpt>
      <trkpt lat="46.20499" lon="6.58108">
        <ele>1232.6</ele>
        <time>2022-02-13T08:08:22Z</time>
      </trkpt>
      <trkpt lat="46.20494" lon="6.58107">
        <ele>1233</ele>
        <time>2022-02-13T08:08:28Z</time>
      </trkpt>
      <trkpt lat="46.20492" lon="6.58108">
        <ele>1233.2</ele>
        <time>2022-02-13T08:08:30Z</time>
      </trkpt>
      <trkpt lat="46.20488" lon="6.58109">
        <ele>1233.6</ele>
        <time>2022-02-13T08:08:34Z</time>
      </trkpt>
      <trkpt lat="46.20487" lon="6.5811">
        <ele>1233.6</ele>
        <time>2022-02-13T08:08:35Z</time>
      </trkpt>
      <trkpt lat="46.20485" lon="6.58111">
        <ele>1234.2</ele>
        <time>2022-02-13T08:08:38Z</time>
      </trkpt>
      <trkpt lat="46.20478" lon="6.58113">
        <ele>1234.6</ele>
        <time>2022-02-13T08:08:43Z</time>
      </trkpt>
      <trkpt lat="46.20476" lon="6.58113">
        <ele>1234.6</ele>
        <time>2022-02-13T08:08:45Z</time>
      </trkpt>
      <trkpt lat="46.20473" lon="6.58115">
        <ele>1235</ele>
        <time>2022-02-13T08:08:48Z</time>
      </trkpt>
      <trkpt lat="46.20472" lon="6.58115">
        <ele>1235.2</ele>
        <time>2022-02-13T08:08:49Z</time>
      </trkpt>
      <trkpt lat="46.20471" lon="6.58115">
        <ele>1235.2</ele>
        <time>2022-02-13T08:08:50Z</time>
      </trkpt>
      <trkpt lat="46.20462" lon="6.58115">
        <ele>1235.8</ele>
        <time>2022-02-13T08:08:58Z</time>
      </trkpt>
      <trkpt lat="46.20461" lon="6.58116">
        <ele>1236.2</ele>
        <time>2022-02-13T08:09:01Z</time>
      </trkpt>
      <trkpt lat="46.20456" lon="6.58116">
        <ele>1236.8</ele>
        <time>2022-02-13T08:09:07Z</time>
      </trkpt>
      <trkpt lat="46.20453" lon="6.58116">
        <ele>1237</ele>
        <time>2022-02-13T08:09:10Z</time>
      </trkpt>
      <trkpt lat="46.20451" lon="6.58115">
        <ele>1237.2</ele>
        <time>2022-02-13T08:09:12Z</time>
      </trkpt>
      <trkpt lat="46.20438" lon="6.58117">
        <ele>1238</ele>
        <time>2022-02-13T08:09:23Z</time>
      </trkpt>
      <trkpt lat="46.20436" lon="6.58117">
        <ele>1238.4</ele>
        <time>2022-02-13T08:09:25Z</time>
      </trkpt>
      <trkpt lat="46.20434" lon="6.58116">
        <ele>1238.6</ele>
        <time>2022-02-13T08:09:28Z</time>
      </trkpt>
      <trkpt lat="46.20428" lon="6.58115">
        <ele>1239.4</ele>
        <time>2022-02-13T08:09:34Z</time>
      </trkpt>
      <trkpt lat="46.20423" lon="6.58114">
        <ele>1240.4</ele>
        <time>2022-02-13T08:09:39Z</time>
      </trkpt>
      <trkpt lat="46.20422" lon="6.58115">
        <ele>1240.4</ele>
        <time>2022-02-13T08:09:40Z</time>
      </trkpt>
      <trkpt lat="46.20414" lon="6.58117">
        <ele>1240.6</ele>
        <time>2022-02-13T08:09:46Z</time>
      </trkpt>
      <trkpt lat="46.20407" lon="6.5812">
        <ele>1241</ele>
        <time>2022-02-13T08:09:52Z</time>
      </trkpt>
      <trkpt lat="46.20401" lon="6.58126">
        <ele>1241.2</ele>
        <time>2022-02-13T08:10:03Z</time>
      </trkpt>
      <trkpt lat="46.204" lon="6.58128">
        <ele>1241.6</ele>
        <time>2022-02-13T08:10:05Z</time>
      </trkpt>
      <trkpt lat="46.20399" lon="6.58135">
        <ele>1242.6</ele>
        <time>2022-02-13T08:10:12Z</time>
      </trkpt>
      <trkpt lat="46.20398" lon="6.58139">
        <ele>1242.8</ele>
        <time>2022-02-13T08:10:15Z</time>
      </trkpt>
      <trkpt lat="46.20396" lon="6.58149">
        <ele>1243.6</ele>
        <time>2022-02-13T08:10:23Z</time>
      </trkpt>
      <trkpt lat="46.20396" lon="6.58154">
        <ele>1244</ele>
        <time>2022-02-13T08:10:27Z</time>
      </trkpt>
      <trkpt lat="46.20398" lon="6.58164">
        <ele>1244.8</ele>
        <time>2022-02-13T08:10:35Z</time>
      </trkpt>
      <trkpt lat="46.20398" lon="6.58169">
        <ele>1245.2</ele>
        <time>2022-02-13T08:10:39Z</time>
      </trkpt>
      <trkpt lat="46.20398" lon="6.58175">
        <ele>1245.8</ele>
        <time>2022-02-13T08:10:44Z</time>
      </trkpt>
      <trkpt lat="46.20398" lon="6.58177">
        <ele>1246</ele>
        <time>2022-02-13T08:10:45Z</time>
      </trkpt>
      <trkpt lat="46.20397" lon="6.58179">
        <ele>1246</ele>
        <time>2022-02-13T08:10:47Z</time>
      </trkpt>
      <trkpt lat="46.20395" lon="6.58184">
        <ele>1246.4</ele>
        <time>2022-02-13T08:10:51Z</time>
      </trkpt>
      <trkpt lat="46.20394" lon="6.58187">
        <ele>1246.8</ele>
        <time>2022-02-13T08:10:54Z</time>
      </trkpt>
      <trkpt lat="46.20391" lon="6.58195">
        <ele>1247.8</ele>
        <time>2022-02-13T08:11:01Z</time>
      </trkpt>
      <trkpt lat="46.20388" lon="6.582">
        <ele>1248</ele>
        <time>2022-02-13T08:11:08Z</time>
      </trkpt>
      <trkpt lat="46.20388" lon="6.582">
        <ele>1248</ele>
        <time>2022-02-13T08:11:09Z</time>
      </trkpt>
      <trkpt lat="46.20387" lon="6.582">
        <ele>1248</ele>
        <time>2022-02-13T08:11:10Z</time>
      </trkpt>
      <trkpt lat="46.20386" lon="6.58199">
        <ele>1248.2</ele>
        <time>2022-02-13T08:11:11Z</time>
      </trkpt>
      <trkpt lat="46.20385" lon="6.58199">
        <ele>1248.4</ele>
        <time>2022-02-13T08:11:13Z</time>
      </trkpt>
      <trkpt lat="46.20382" lon="6.58197">
        <ele>1249.2</ele>
        <time>2022-02-13T08:11:18Z</time>
      </trkpt>
      <trkpt lat="46.2038" lon="6.58189">
        <ele>1249.8</ele>
        <time>2022-02-13T08:11:25Z</time>
      </trkpt>
      <trkpt lat="46.20379" lon="6.58184">
        <ele>1250.2</ele>
        <time>2022-02-13T08:11:29Z</time>
      </trkpt>
      <trkpt lat="46.20375" lon="6.58174">
        <ele>1250.6</ele>
        <time>2022-02-13T08:11:37Z</time>
      </trkpt>
      <trkpt lat="46.20371" lon="6.58168">
        <ele>1251.2</ele>
        <time>2022-02-13T08:11:43Z</time>
      </trkpt>
      <trkpt lat="46.20366" lon="6.58164">
        <ele>1251.8</ele>
        <time>2022-02-13T08:11:49Z</time>
      </trkpt>
      <trkpt lat="46.20364" lon="6.58161">
        <ele>1252.6</ele>
        <time>2022-02-13T08:11:53Z</time>
      </trkpt>
      <trkpt lat="46.20355" lon="6.58156">
        <ele>1253.4</ele>
        <time>2022-02-13T08:12:02Z</time>
      </trkpt>
      <trkpt lat="46.20354" lon="6.58156">
        <ele>1253.6</ele>
        <time>2022-02-13T08:12:03Z</time>
      </trkpt>
      <trkpt lat="46.20353" lon="6.58156">
        <ele>1253.6</ele>
        <time>2022-02-13T08:12:04Z</time>
      </trkpt>
      <trkpt lat="46.20342" lon="6.58159">
        <ele>1254.6</ele>
        <time>2022-02-13T08:12:15Z</time>
      </trkpt>
      <trkpt lat="46.20341" lon="6.5816">
        <ele>1255</ele>
        <time>2022-02-13T08:12:17Z</time>
      </trkpt>
      <trkpt lat="46.20333" lon="6.58165">
        <ele>1255.8</ele>
        <time>2022-02-13T08:12:28Z</time>
      </trkpt>
      <trkpt lat="46.2033" lon="6.58169">
        <ele>1256.6</ele>
        <time>2022-02-13T08:12:34Z</time>
      </trkpt>
      <trkpt lat="46.20329" lon="6.5817">
        <ele>1256.8</ele>
        <time>2022-02-13T08:12:35Z</time>
      </trkpt>
      <trkpt lat="46.20325" lon="6.58176">
        <ele>1258</ele>
        <time>2022-02-13T08:12:45Z</time>
      </trkpt>
      <trkpt lat="46.20324" lon="6.58179">
        <ele>1258.2</ele>
        <time>2022-02-13T08:12:48Z</time>
      </trkpt>
      <trkpt lat="46.20324" lon="6.58185">
        <ele>1258.8</ele>
        <time>2022-02-13T08:12:53Z</time>
      </trkpt>
      <trkpt lat="46.20323" lon="6.58187">
        <ele>1259</ele>
        <time>2022-02-13T08:12:55Z</time>
      </trkpt>
      <trkpt lat="46.2032" lon="6.58189">
        <ele>1259.2</ele>
        <time>2022-02-13T08:12:58Z</time>
      </trkpt>
      <trkpt lat="46.20318" lon="6.58196">
        <ele>1259.8</ele>
        <time>2022-02-13T08:13:04Z</time>
      </trkpt>
      <trkpt lat="46.20318" lon="6.58197">
        <ele>1260</ele>
        <time>2022-02-13T08:13:05Z</time>
      </trkpt>
      <trkpt lat="46.20318" lon="6.58202">
        <ele>1260.4</ele>
        <time>2022-02-13T08:13:09Z</time>
      </trkpt>
      <trkpt lat="46.20318" lon="6.58209">
        <ele>1261</ele>
        <time>2022-02-13T08:13:14Z</time>
      </trkpt>
      <trkpt lat="46.20318" lon="6.58212">
        <ele>1261.4</ele>
        <time>2022-02-13T08:13:17Z</time>
      </trkpt>
      <trkpt lat="46.20317" lon="6.58219">
        <ele>1262</ele>
        <time>2022-02-13T08:13:22Z</time>
      </trkpt>
      <trkpt lat="46.20318" lon="6.58222">
        <ele>1262.4</ele>
        <time>2022-02-13T08:13:25Z</time>
      </trkpt>
      <trkpt lat="46.20317" lon="6.58233">
        <ele>1263.4</ele>
        <time>2022-02-13T08:13:34Z</time>
      </trkpt>
      <trkpt lat="46.20318" lon="6.58234">
        <ele>1263.4</ele>
        <time>2022-02-13T08:13:35Z</time>
      </trkpt>
      <trkpt lat="46.20318" lon="6.58241">
        <ele>1264.2</ele>
        <time>2022-02-13T08:13:40Z</time>
      </trkpt>
      <trkpt lat="46.2032" lon="6.58245">
        <ele>1264.6</ele>
        <time>2022-02-13T08:13:44Z</time>
      </trkpt>
      <trkpt lat="46.20321" lon="6.58248">
        <ele>1264.8</ele>
        <time>2022-02-13T08:13:47Z</time>
      </trkpt>
      <trkpt lat="46.20323" lon="6.58255">
        <ele>1265.6</ele>
        <time>2022-02-13T08:13:54Z</time>
      </trkpt>
      <trkpt lat="46.20325" lon="6.58258">
        <ele>1266.2</ele>
        <time>2022-02-13T08:13:58Z</time>
      </trkpt>
      <trkpt lat="46.20327" lon="6.5826">
        <ele>1266.8</ele>
        <time>2022-02-13T08:14:01Z</time>
      </trkpt>
      <trkpt lat="46.2033" lon="6.58264">
        <ele>1267.2</ele>
        <time>2022-02-13T08:14:06Z</time>
      </trkpt>
      <trkpt lat="46.20332" lon="6.58265">
        <ele>1267.8</ele>
        <time>2022-02-13T08:14:10Z</time>
      </trkpt>
      <trkpt lat="46.20334" lon="6.58266">
        <ele>1267.8</ele>
        <time>2022-02-13T08:14:12Z</time>
      </trkpt>
      <trkpt lat="46.20337" lon="6.58265">
        <ele>1268.4</ele>
        <time>2022-02-13T08:14:16Z</time>
      </trkpt>
      <trkpt lat="46.20338" lon="6.58266">
        <ele>1268.8</ele>
        <time>2022-02-13T08:14:19Z</time>
      </trkpt>
      <trkpt lat="46.20342" lon="6.58266">
        <ele>1270</ele>
        <time>2022-02-13T08:14:26Z</time>
      </trkpt>
      <trkpt lat="46.20346" lon="6.58267">
        <ele>1271.2</ele>
        <time>2022-02-13T08:14:33Z</time>
      </trkpt>
      <trkpt lat="46.20353" lon="6.58268">
        <ele>1272</ele>
        <time>2022-02-13T08:14:42Z</time>
      </trkpt>
      <trkpt lat="46.20357" lon="6.58269">
        <ele>1272.2</ele>
        <time>2022-02-13T08:14:46Z</time>
      </trkpt>
      <trkpt lat="46.20357" lon="6.58269">
        <ele>1272.2</ele>
        <time>2022-02-13T08:14:47Z</time>
      </trkpt>
      <trkpt lat="46.20359" lon="6.5827">
        <ele>1272.6</ele>
        <time>2022-02-13T08:14:49Z</time>
      </trkpt>
      <trkpt lat="46.2036" lon="6.5827">
        <ele>1272.6</ele>
        <time>2022-02-13T08:14:50Z</time>
      </trkpt>
      <trkpt lat="46.20362" lon="6.58271">
        <ele>1273.2</ele>
        <time>2022-02-13T08:14:53Z</time>
      </trkpt>
      <trkpt lat="46.20367" lon="6.58275">
        <ele>1274</ele>
        <time>2022-02-13T08:15:00Z</time>
      </trkpt>
      <trkpt lat="46.20368" lon="6.58275">
        <ele>1274.2</ele>
        <time>2022-02-13T08:15:01Z</time>
      </trkpt>
      <trkpt lat="46.20376" lon="6.58285">
        <ele>1275.4</ele>
        <time>2022-02-13T08:15:12Z</time>
      </trkpt>
      <trkpt lat="46.20377" lon="6.58287">
        <ele>1275.6</ele>
        <time>2022-02-13T08:15:13Z</time>
      </trkpt>
      <trkpt lat="46.20384" lon="6.58302">
        <ele>1276.4</ele>
        <time>2022-02-13T08:15:23Z</time>
      </trkpt>
      <trkpt lat="46.20385" lon="6.58304">
        <ele>1276.6</ele>
        <time>2022-02-13T08:15:25Z</time>
      </trkpt>
      <trkpt lat="46.20387" lon="6.58309">
        <ele>1277.4</ele>
        <time>2022-02-13T08:15:29Z</time>
      </trkpt>
      <trkpt lat="46.20388" lon="6.5831">
        <ele>1277.6</ele>
        <time>2022-02-13T08:15:30Z</time>
      </trkpt>
      <trkpt lat="46.20388" lon="6.58312">
        <ele>1277.6</ele>
        <time>2022-02-13T08:15:32Z</time>
      </trkpt>
      <trkpt lat="46.20391" lon="6.58323">
        <ele>1278.2</ele>
        <time>2022-02-13T08:15:40Z</time>
      </trkpt>
      <trkpt lat="46.20391" lon="6.58324">
        <ele>1278.6</ele>
        <time>2022-02-13T08:15:41Z</time>
      </trkpt>
      <trkpt lat="46.20386" lon="6.58338">
        <ele>1279.4</ele>
        <time>2022-02-13T08:15:52Z</time>
      </trkpt>
      <trkpt lat="46.20385" lon="6.58339">
        <ele>1279.6</ele>
        <time>2022-02-13T08:15:53Z</time>
      </trkpt>
      <trkpt lat="46.20383" lon="6.5834">
        <ele>1279.8</ele>
        <time>2022-02-13T08:15:55Z</time>
      </trkpt>
      <trkpt lat="46.20373" lon="6.58342">
        <ele>1280</ele>
        <time>2022-02-13T08:16:03Z</time>
      </trkpt>
      <trkpt lat="46.20365" lon="6.58345">
        <ele>1280.4</ele>
        <time>2022-02-13T08:16:11Z</time>
      </trkpt>
      <trkpt lat="46.20364" lon="6.58345">
        <ele>1280.4</ele>
        <time>2022-02-13T08:16:12Z</time>
      </trkpt>
      <trkpt lat="46.20363" lon="6.58346">
        <ele>1280.4</ele>
        <time>2022-02-13T08:16:13Z</time>
      </trkpt>
      <trkpt lat="46.20362" lon="6.58346">
        <ele>1280.6</ele>
        <time>2022-02-13T08:16:14Z</time>
      </trkpt>
      <trkpt lat="46.20359" lon="6.58348">
        <ele>1281</ele>
        <time>2022-02-13T08:16:17Z</time>
      </trkpt>
      <trkpt lat="46.20358" lon="6.58349">
        <ele>1281</ele>
        <time>2022-02-13T08:16:18Z</time>
      </trkpt>
      <trkpt lat="46.20345" lon="6.58356">
        <ele>1281.6</ele>
        <time>2022-02-13T08:16:30Z</time>
      </trkpt>
      <trkpt lat="46.2034" lon="6.58359">
        <ele>1281.6</ele>
        <time>2022-02-13T08:16:35Z</time>
      </trkpt>
      <trkpt lat="46.20338" lon="6.58361">
        <ele>1281.8</ele>
        <time>2022-02-13T08:16:38Z</time>
      </trkpt>
      <trkpt lat="46.20333" lon="6.58366">
        <ele>1282</ele>
        <time>2022-02-13T08:16:43Z</time>
      </trkpt>
      <trkpt lat="46.20329" lon="6.5837">
        <ele>1282</ele>
        <time>2022-02-13T08:16:47Z</time>
      </trkpt>
      <trkpt lat="46.20315" lon="6.58383">
        <ele>1281.6</ele>
        <time>2022-02-13T08:17:01Z</time>
      </trkpt>
      <trkpt lat="46.20314" lon="6.58385">
        <ele>1281.6</ele>
        <time>2022-02-13T08:17:03Z</time>
      </trkpt>
      <trkpt lat="46.20312" lon="6.58388">
        <ele>1281.8</ele>
        <time>2022-02-13T08:17:06Z</time>
      </trkpt>
      <trkpt lat="46.20303" lon="6.58396">
        <ele>1281.6</ele>
        <time>2022-02-13T08:17:14Z</time>
      </trkpt>
      <trkpt lat="46.20297" lon="6.58402">
        <ele>1282</ele>
        <time>2022-02-13T08:17:20Z</time>
      </trkpt>
      <trkpt lat="46.20292" lon="6.58406">
        <ele>1281.8</ele>
        <time>2022-02-13T08:17:27Z</time>
      </trkpt>
      <trkpt lat="46.2029" lon="6.58408">
        <ele>1281.8</ele>
        <time>2022-02-13T08:17:30Z</time>
      </trkpt>
      <trkpt lat="46.20285" lon="6.5841">
        <ele>1281.8</ele>
        <time>2022-02-13T08:17:36Z</time>
      </trkpt>
      <trkpt lat="46.20278" lon="6.58417">
        <ele>1282</ele>
        <time>2022-02-13T08:17:43Z</time>
      </trkpt>
      <trkpt lat="46.20271" lon="6.58421">
        <ele>1282.2</ele>
        <time>2022-02-13T08:17:49Z</time>
      </trkpt>
      <trkpt lat="46.20268" lon="6.58423">
        <ele>1282</ele>
        <time>2022-02-13T08:17:51Z</time>
      </trkpt>
      <trkpt lat="46.20263" lon="6.58425">
        <ele>1282.2</ele>
        <time>2022-02-13T08:17:57Z</time>
      </trkpt>
      <trkpt lat="46.20256" lon="6.58427">
        <ele>1282.2</ele>
        <time>2022-02-13T08:18:02Z</time>
      </trkpt>
      <trkpt lat="46.20254" lon="6.58429">
        <ele>1282.2</ele>
        <time>2022-02-13T08:18:04Z</time>
      </trkpt>
      <trkpt lat="46.20248" lon="6.58433">
        <ele>1282.2</ele>
        <time>2022-02-13T08:18:09Z</time>
      </trkpt>
      <trkpt lat="46.20241" lon="6.58438">
        <ele>1282.6</ele>
        <time>2022-02-13T08:18:16Z</time>
      </trkpt>
      <trkpt lat="46.20239" lon="6.58439">
        <ele>1282.6</ele>
        <time>2022-02-13T08:18:18Z</time>
      </trkpt>
      <trkpt lat="46.20234" lon="6.58441">
        <ele>1282.8</ele>
        <time>2022-02-13T08:18:23Z</time>
      </trkpt>
      <trkpt lat="46.20228" lon="6.58444">
        <ele>1283.2</ele>
        <time>2022-02-13T08:18:29Z</time>
      </trkpt>
      <trkpt lat="46.20221" lon="6.58448">
        <ele>1283.4</ele>
        <time>2022-02-13T08:18:37Z</time>
      </trkpt>
      <trkpt lat="46.20218" lon="6.5845">
        <ele>1283.6</ele>
        <time>2022-02-13T08:18:40Z</time>
      </trkpt>
      <trkpt lat="46.20216" lon="6.58451">
        <ele>1283.6</ele>
        <time>2022-02-13T08:18:43Z</time>
      </trkpt>
      <trkpt lat="46.20216" lon="6.58452">
        <ele>1283.6</ele>
        <time>2022-02-13T08:18:44Z</time>
      </trkpt>
      <trkpt lat="46.20215" lon="6.58452">
        <ele>1283.8</ele>
        <time>2022-02-13T08:18:45Z</time>
      </trkpt>
      <trkpt lat="46.20212" lon="6.58455">
        <ele>1284</ele>
        <time>2022-02-13T08:18:49Z</time>
      </trkpt>
      <trkpt lat="46.20211" lon="6.58455">
        <ele>1284.2</ele>
        <time>2022-02-13T08:18:51Z</time>
      </trkpt>
      <trkpt lat="46.2021" lon="6.58457">
        <ele>1284.2</ele>
        <time>2022-02-13T08:18:52Z</time>
      </trkpt>
      <trkpt lat="46.20209" lon="6.5846">
        <ele>1284.4</ele>
        <time>2022-02-13T08:18:54Z</time>
      </trkpt>
      <trkpt lat="46.20208" lon="6.5846">
        <ele>1284.4</ele>
        <time>2022-02-13T08:18:55Z</time>
      </trkpt>
      <trkpt lat="46.20204" lon="6.58465">
        <ele>1284.6</ele>
        <time>2022-02-13T08:18:59Z</time>
      </trkpt>
      <trkpt lat="46.20204" lon="6.58466">
        <ele>1284.8</ele>
        <time>2022-02-13T08:19:00Z</time>
      </trkpt>
      <trkpt lat="46.20203" lon="6.58468">
        <ele>1285.2</ele>
        <time>2022-02-13T08:19:03Z</time>
      </trkpt>
      <trkpt lat="46.20201" lon="6.58471">
        <ele>1285.8</ele>
        <time>2022-02-13T08:19:07Z</time>
      </trkpt>
      <trkpt lat="46.202" lon="6.58472">
        <ele>1285.8</ele>
        <time>2022-02-13T08:19:08Z</time>
      </trkpt>
      <trkpt lat="46.20199" lon="6.58473">
        <ele>1285.8</ele>
        <time>2022-02-13T08:19:09Z</time>
      </trkpt>
      <trkpt lat="46.20188" lon="6.58484">
        <ele>1286.8</ele>
        <time>2022-02-13T08:19:21Z</time>
      </trkpt>
      <trkpt lat="46.20187" lon="6.58485">
        <ele>1286.8</ele>
        <time>2022-02-13T08:19:22Z</time>
      </trkpt>
      <trkpt lat="46.20186" lon="6.58486">
        <ele>1287</ele>
        <time>2022-02-13T08:19:23Z</time>
      </trkpt>
      <trkpt lat="46.2018" lon="6.58491">
        <ele>1288</ele>
        <time>2022-02-13T08:19:31Z</time>
      </trkpt>
      <trkpt lat="46.20179" lon="6.58493">
        <ele>1288.2</ele>
        <time>2022-02-13T08:19:32Z</time>
      </trkpt>
      <trkpt lat="46.20179" lon="6.58495">
        <ele>1288.4</ele>
        <time>2022-02-13T08:19:34Z</time>
      </trkpt>
      <trkpt lat="46.20177" lon="6.58499">
        <ele>1288.6</ele>
        <time>2022-02-13T08:19:41Z</time>
      </trkpt>
      <trkpt lat="46.20177" lon="6.58499">
        <ele>1288.6</ele>
        <time>2022-02-13T08:19:43Z</time>
      </trkpt>
      <trkpt lat="46.20177" lon="6.585">
        <ele>1288.4</ele>
        <time>2022-02-13T08:19:44Z</time>
      </trkpt>
      <trkpt lat="46.20178" lon="6.585">
        <ele>1288.4</ele>
        <time>2022-02-13T08:19:45Z</time>
      </trkpt>
      <trkpt lat="46.20182" lon="6.58501">
        <ele>1288.2</ele>
        <time>2022-02-13T08:19:53Z</time>
      </trkpt>
      <trkpt lat="46.20182" lon="6.585">
        <ele>1288.2</ele>
        <time>2022-02-13T08:20:00Z</time>
      </trkpt>
      <trkpt lat="46.20181" lon="6.58502">
        <ele>1288.6</ele>
        <time>2022-02-13T08:20:13Z</time>
      </trkpt>
      <trkpt lat="46.2018" lon="6.58502">
        <ele>1288.4</ele>
        <time>2022-02-13T08:20:16Z</time>
      </trkpt>
      <trkpt lat="46.20179" lon="6.585">
        <ele>1288.4</ele>
        <time>2022-02-13T08:20:27Z</time>
      </trkpt>
      <trkpt lat="46.2018" lon="6.585">
        <ele>1288.4</ele>
        <time>2022-02-13T08:20:28Z</time>
      </trkpt>
      <trkpt lat="46.2018" lon="6.58499">
        <ele>1288.4</ele>
        <time>2022-02-13T08:20:33Z</time>
      </trkpt>
      <trkpt lat="46.2018" lon="6.585">
        <ele>1288.2</ele>
        <time>2022-02-13T08:20:37Z</time>
      </trkpt>
      <trkpt lat="46.20179" lon="6.585">
        <ele>1288.2</ele>
        <time>2022-02-13T08:20:44Z</time>
      </trkpt>
      <trkpt lat="46.2018" lon="6.585">
        <ele>1288.2</ele>
        <time>2022-02-13T08:20:47Z</time>
      </trkpt>
      <trkpt lat="46.20179" lon="6.585">
        <ele>1288.2</ele>
        <time>2022-02-13T08:20:48Z</time>
      </trkpt>
      <trkpt lat="46.20179" lon="6.585">
        <ele>1288.2</ele>
        <time>2022-02-13T08:20:50Z</time>
      </trkpt>
      <trkpt lat="46.20181" lon="6.58502">
        <ele>1288.4</ele>
        <time>2022-02-13T08:21:07Z</time>
      </trkpt>
      <trkpt lat="46.20181" lon="6.58501">
        <ele>1288.4</ele>
        <time>2022-02-13T08:21:09Z</time>
      </trkpt>
      <trkpt lat="46.2018" lon="6.58502">
        <ele>1288.4</ele>
        <time>2022-02-13T08:21:12Z</time>
      </trkpt>
      <trkpt lat="46.20179" lon="6.58504">
        <ele>1289</ele>
        <time>2022-02-13T08:21:17Z</time>
      </trkpt>
      <trkpt lat="46.20178" lon="6.58504">
        <ele>1289</ele>
        <time>2022-02-13T08:21:18Z</time>
      </trkpt>
      <trkpt lat="46.20177" lon="6.58507">
        <ele>1289.4</ele>
        <time>2022-02-13T08:21:22Z</time>
      </trkpt>
      <trkpt lat="46.20172" lon="6.58514">
        <ele>1288.8</ele>
        <time>2022-02-13T08:21:31Z</time>
      </trkpt>
      <trkpt lat="46.20169" lon="6.58518">
        <ele>1288.6</ele>
        <time>2022-02-13T08:21:34Z</time>
      </trkpt>
      <trkpt lat="46.20165" lon="6.58522">
        <ele>1288</ele>
        <time>2022-02-13T08:21:37Z</time>
      </trkpt>
      <trkpt lat="46.20159" lon="6.58529">
        <ele>1287.6</ele>
        <time>2022-02-13T08:21:41Z</time>
      </trkpt>
      <trkpt lat="46.20158" lon="6.58531">
        <ele>1287.6</ele>
        <time>2022-02-13T08:21:42Z</time>
      </trkpt>
      <trkpt lat="46.20157" lon="6.58533">
        <ele>1287.6</ele>
        <time>2022-02-13T08:21:43Z</time>
      </trkpt>
      <trkpt lat="46.20148" lon="6.58541">
        <ele>1287.2</ele>
        <time>2022-02-13T08:21:49Z</time>
      </trkpt>
      <trkpt lat="46.20146" lon="6.58544">
        <ele>1287</ele>
        <time>2022-02-13T08:21:51Z</time>
      </trkpt>
      <trkpt lat="46.20141" lon="6.58549">
        <ele>1286.6</ele>
        <time>2022-02-13T08:21:56Z</time>
      </trkpt>
      <trkpt lat="46.20135" lon="6.58555">
        <ele>1286.8</ele>
        <time>2022-02-13T08:22:03Z</time>
      </trkpt>
      <trkpt lat="46.20134" lon="6.58556">
        <ele>1286.8</ele>
        <time>2022-02-13T08:22:04Z</time>
      </trkpt>
      <trkpt lat="46.20127" lon="6.58562">
        <ele>1287</ele>
        <time>2022-02-13T08:22:11Z</time>
      </trkpt>
      <trkpt lat="46.20122" lon="6.58565">
        <ele>1287</ele>
        <time>2022-02-13T08:22:16Z</time>
      </trkpt>
      <trkpt lat="46.20119" lon="6.58568">
        <ele>1287.2</ele>
        <time>2022-02-13T08:22:19Z</time>
      </trkpt>
      <trkpt lat="46.20113" lon="6.58575">
        <ele>1287.8</ele>
        <time>2022-02-13T08:22:26Z</time>
      </trkpt>
      <trkpt lat="46.20113" lon="6.58576">
        <ele>1288</ele>
        <time>2022-02-13T08:22:27Z</time>
      </trkpt>
      <trkpt lat="46.20109" lon="6.58581">
        <ele>1287.6</ele>
        <time>2022-02-13T08:22:33Z</time>
      </trkpt>
      <trkpt lat="46.20107" lon="6.58582">
        <ele>1287.8</ele>
        <time>2022-02-13T08:22:35Z</time>
      </trkpt>
      <trkpt lat="46.20106" lon="6.58583">
        <ele>1288</ele>
        <time>2022-02-13T08:22:36Z</time>
      </trkpt>
      <trkpt lat="46.20104" lon="6.58584">
        <ele>1288.2</ele>
        <time>2022-02-13T08:22:37Z</time>
      </trkpt>
      <trkpt lat="46.20097" lon="6.58591">
        <ele>1288.2</ele>
        <time>2022-02-13T08:22:43Z</time>
      </trkpt>
      <trkpt lat="46.20094" lon="6.58597">
        <ele>1288.2</ele>
        <time>2022-02-13T08:22:47Z</time>
      </trkpt>
      <trkpt lat="46.20092" lon="6.586">
        <ele>1288</ele>
        <time>2022-02-13T08:22:49Z</time>
      </trkpt>
      <trkpt lat="46.20085" lon="6.58608">
        <ele>1287.8</ele>
        <time>2022-02-13T08:22:55Z</time>
      </trkpt>
      <trkpt lat="46.20074" lon="6.58617">
        <ele>1287.2</ele>
        <time>2022-02-13T08:23:03Z</time>
      </trkpt>
      <trkpt lat="46.20073" lon="6.58617">
        <ele>1287</ele>
        <time>2022-02-13T08:23:04Z</time>
      </trkpt>
      <trkpt lat="46.2007" lon="6.5862">
        <ele>1287</ele>
        <time>2022-02-13T08:23:07Z</time>
      </trkpt>
      <trkpt lat="46.20067" lon="6.58622">
        <ele>1286.6</ele>
        <time>2022-02-13T08:23:10Z</time>
      </trkpt>
      <trkpt lat="46.20064" lon="6.58623">
        <ele>1286.4</ele>
        <time>2022-02-13T08:23:12Z</time>
      </trkpt>
      <trkpt lat="46.20062" lon="6.58623">
        <ele>1286.2</ele>
        <time>2022-02-13T08:23:14Z</time>
      </trkpt>
      <trkpt lat="46.20062" lon="6.58623">
        <ele>1286.2</ele>
        <time>2022-02-13T08:23:15Z</time>
      </trkpt>
      <trkpt lat="46.2006" lon="6.58623">
        <ele>1285.8</ele>
        <time>2022-02-13T08:23:17Z</time>
      </trkpt>
      <trkpt lat="46.20056" lon="6.58624">
        <ele>1285.8</ele>
        <time>2022-02-13T08:23:20Z</time>
      </trkpt>
      <trkpt lat="46.20046" lon="6.58624">
        <ele>1285.4</ele>
        <time>2022-02-13T08:23:28Z</time>
      </trkpt>
      <trkpt lat="46.20038" lon="6.58627">
        <ele>1285.2</ele>
        <time>2022-02-13T08:23:34Z</time>
      </trkpt>
      <trkpt lat="46.20034" lon="6.58628">
        <ele>1285.4</ele>
        <time>2022-02-13T08:23:38Z</time>
      </trkpt>
      <trkpt lat="46.20028" lon="6.58629">
        <ele>1285.6</ele>
        <time>2022-02-13T08:23:42Z</time>
      </trkpt>
      <trkpt lat="46.20027" lon="6.58629">
        <ele>1285.6</ele>
        <time>2022-02-13T08:23:43Z</time>
      </trkpt>
      <trkpt lat="46.20026" lon="6.5863">
        <ele>1285.8</ele>
        <time>2022-02-13T08:23:45Z</time>
      </trkpt>
      <trkpt lat="46.20024" lon="6.58631">
        <ele>1285.8</ele>
        <time>2022-02-13T08:23:47Z</time>
      </trkpt>
      <trkpt lat="46.20022" lon="6.58632">
        <ele>1285.8</ele>
        <time>2022-02-13T08:23:50Z</time>
      </trkpt>
      <trkpt lat="46.20019" lon="6.58634">
        <ele>1286</ele>
        <time>2022-02-13T08:23:54Z</time>
      </trkpt>
      <trkpt lat="46.20015" lon="6.58636">
        <ele>1286.4</ele>
        <time>2022-02-13T08:23:59Z</time>
      </trkpt>
      <trkpt lat="46.20011" lon="6.58639">
        <ele>1286.8</ele>
        <time>2022-02-13T08:24:02Z</time>
      </trkpt>
      <trkpt lat="46.2001" lon="6.58639">
        <ele>1287</ele>
        <time>2022-02-13T08:24:03Z</time>
      </trkpt>
      <trkpt lat="46.20006" lon="6.58641">
        <ele>1287.2</ele>
        <time>2022-02-13T08:24:07Z</time>
      </trkpt>
      <trkpt lat="46.20004" lon="6.58642">
        <ele>1287.6</ele>
        <time>2022-02-13T08:24:10Z</time>
      </trkpt>
      <trkpt lat="46.19999" lon="6.58646">
        <ele>1288</ele>
        <time>2022-02-13T08:24:15Z</time>
      </trkpt>
      <trkpt lat="46.19997" lon="6.58649">
        <ele>1288</ele>
        <time>2022-02-13T08:24:17Z</time>
      </trkpt>
      <trkpt lat="46.19988" lon="6.58654">
        <ele>1288.4</ele>
        <time>2022-02-13T08:24:24Z</time>
      </trkpt>
      <trkpt lat="46.19983" lon="6.58659">
        <ele>1288.8</ele>
        <time>2022-02-13T08:24:30Z</time>
      </trkpt>
      <trkpt lat="46.19982" lon="6.5866">
        <ele>1289</ele>
        <time>2022-02-13T08:24:31Z</time>
      </trkpt>
      <trkpt lat="46.19981" lon="6.58662">
        <ele>1289</ele>
        <time>2022-02-13T08:24:32Z</time>
      </trkpt>
      <trkpt lat="46.19978" lon="6.58665">
        <ele>1289</ele>
        <time>2022-02-13T08:24:35Z</time>
      </trkpt>
      <trkpt lat="46.19975" lon="6.58671">
        <ele>1289</ele>
        <time>2022-02-13T08:24:39Z</time>
      </trkpt>
      <trkpt lat="46.19972" lon="6.58679">
        <ele>1289</ele>
        <time>2022-02-13T08:24:45Z</time>
      </trkpt>
      <trkpt lat="46.19971" lon="6.58683">
        <ele>1289.2</ele>
        <time>2022-02-13T08:24:48Z</time>
      </trkpt>
      <trkpt lat="46.1997" lon="6.58687">
        <ele>1289.2</ele>
        <time>2022-02-13T08:24:51Z</time>
      </trkpt>
      <trkpt lat="46.19967" lon="6.58692">
        <ele>1289.4</ele>
        <time>2022-02-13T08:24:55Z</time>
      </trkpt>
      <trkpt lat="46.19967" lon="6.58695">
        <ele>1289.4</ele>
        <time>2022-02-13T08:24:57Z</time>
      </trkpt>
      <trkpt lat="46.19963" lon="6.58705">
        <ele>1290</ele>
        <time>2022-02-13T08:25:04Z</time>
      </trkpt>
      <trkpt lat="46.19962" lon="6.58707">
        <ele>1290</ele>
        <time>2022-02-13T08:25:06Z</time>
      </trkpt>
      <trkpt lat="46.19961" lon="6.5871">
        <ele>1290.2</ele>
        <time>2022-02-13T08:25:08Z</time>
      </trkpt>
      <trkpt lat="46.19961" lon="6.58711">
        <ele>1290.2</ele>
        <time>2022-02-13T08:25:09Z</time>
      </trkpt>
      <trkpt lat="46.1996" lon="6.58712">
        <ele>1290.4</ele>
        <time>2022-02-13T08:25:10Z</time>
      </trkpt>
      <trkpt lat="46.19959" lon="6.58715">
        <ele>1290.6</ele>
        <time>2022-02-13T08:25:13Z</time>
      </trkpt>
      <trkpt lat="46.19958" lon="6.58718">
        <ele>1290.8</ele>
        <time>2022-02-13T08:25:15Z</time>
      </trkpt>
      <trkpt lat="46.19957" lon="6.5872">
        <ele>1291</ele>
        <time>2022-02-13T08:25:17Z</time>
      </trkpt>
      <trkpt lat="46.19952" lon="6.58733">
        <ele>1291.6</ele>
        <time>2022-02-13T08:25:26Z</time>
      </trkpt>
      <trkpt lat="46.19952" lon="6.58742">
        <ele>1292</ele>
        <time>2022-02-13T08:25:32Z</time>
      </trkpt>
      <trkpt lat="46.19951" lon="6.58749">
        <ele>1292.2</ele>
        <time>2022-02-13T08:25:37Z</time>
      </trkpt>
      <trkpt lat="46.1995" lon="6.58754">
        <ele>1292.6</ele>
        <time>2022-02-13T08:25:40Z</time>
      </trkpt>
      <trkpt lat="46.19949" lon="6.58761">
        <ele>1292.8</ele>
        <time>2022-02-13T08:25:46Z</time>
      </trkpt>
      <trkpt lat="46.19947" lon="6.58768">
        <ele>1293</ele>
        <time>2022-02-13T08:25:51Z</time>
      </trkpt>
      <trkpt lat="46.19944" lon="6.58777">
        <ele>1293.4</ele>
        <time>2022-02-13T08:25:58Z</time>
      </trkpt>
      <trkpt lat="46.19942" lon="6.58784">
        <ele>1293.6</ele>
        <time>2022-02-13T08:26:04Z</time>
      </trkpt>
      <trkpt lat="46.19939" lon="6.58788">
        <ele>1294</ele>
        <time>2022-02-13T08:26:07Z</time>
      </trkpt>
      <trkpt lat="46.19937" lon="6.58793">
        <ele>1294.2</ele>
        <time>2022-02-13T08:26:10Z</time>
      </trkpt>
      <trkpt lat="46.19935" lon="6.58796">
        <ele>1294.4</ele>
        <time>2022-02-13T08:26:13Z</time>
      </trkpt>
      <trkpt lat="46.19932" lon="6.58803">
        <ele>1294.8</ele>
        <time>2022-02-13T08:26:19Z</time>
      </trkpt>
      <trkpt lat="46.19931" lon="6.58805">
        <ele>1295</ele>
        <time>2022-02-13T08:26:21Z</time>
      </trkpt>
      <trkpt lat="46.19931" lon="6.58806">
        <ele>1295</ele>
        <time>2022-02-13T08:26:22Z</time>
      </trkpt>
      <trkpt lat="46.19929" lon="6.58811">
        <ele>1295.2</ele>
        <time>2022-02-13T08:26:26Z</time>
      </trkpt>
      <trkpt lat="46.19929" lon="6.58812">
        <ele>1295.4</ele>
        <time>2022-02-13T08:26:27Z</time>
      </trkpt>
      <trkpt lat="46.19927" lon="6.58816">
        <ele>1296</ele>
        <time>2022-02-13T08:26:31Z</time>
      </trkpt>
      <trkpt lat="46.19926" lon="6.58825">
        <ele>1296.2</ele>
        <time>2022-02-13T08:26:37Z</time>
      </trkpt>
      <trkpt lat="46.19926" lon="6.58826">
        <ele>1296</ele>
        <time>2022-02-13T08:26:38Z</time>
      </trkpt>
      <trkpt lat="46.19925" lon="6.58834">
        <ele>1296.4</ele>
        <time>2022-02-13T08:26:44Z</time>
      </trkpt>
      <trkpt lat="46.19923" lon="6.58836">
        <ele>1296.6</ele>
        <time>2022-02-13T08:26:46Z</time>
      </trkpt>
      <trkpt lat="46.1992" lon="6.5884">
        <ele>1296.8</ele>
        <time>2022-02-13T08:26:50Z</time>
      </trkpt>
      <trkpt lat="46.19919" lon="6.58843">
        <ele>1296.8</ele>
        <time>2022-02-13T08:26:52Z</time>
      </trkpt>
      <trkpt lat="46.19917" lon="6.58848">
        <ele>1297</ele>
        <time>2022-02-13T08:26:56Z</time>
      </trkpt>
      <trkpt lat="46.19914" lon="6.58854">
        <ele>1297.6</ele>
        <time>2022-02-13T08:27:01Z</time>
      </trkpt>
      <trkpt lat="46.19913" lon="6.58856">
        <ele>1297.8</ele>
        <time>2022-02-13T08:27:03Z</time>
      </trkpt>
      <trkpt lat="46.19913" lon="6.58858">
        <ele>1297.8</ele>
        <time>2022-02-13T08:27:04Z</time>
      </trkpt>
      <trkpt lat="46.1991" lon="6.58865">
        <ele>1298.2</ele>
        <time>2022-02-13T08:27:10Z</time>
      </trkpt>
      <trkpt lat="46.19907" lon="6.58872">
        <ele>1298.8</ele>
        <time>2022-02-13T08:27:16Z</time>
      </trkpt>
      <trkpt lat="46.19902" lon="6.5888">
        <ele>1299</ele>
        <time>2022-02-13T08:27:23Z</time>
      </trkpt>
      <trkpt lat="46.19899" lon="6.58887">
        <ele>1299.2</ele>
        <time>2022-02-13T08:27:29Z</time>
      </trkpt>
      <trkpt lat="46.19898" lon="6.58892">
        <ele>1299.8</ele>
        <time>2022-02-13T08:27:33Z</time>
      </trkpt>
      <trkpt lat="46.19896" lon="6.58894">
        <ele>1299.8</ele>
        <time>2022-02-13T08:27:35Z</time>
      </trkpt>
      <trkpt lat="46.19895" lon="6.58897">
        <ele>1299.8</ele>
        <time>2022-02-13T08:27:37Z</time>
      </trkpt>
      <trkpt lat="46.19894" lon="6.589">
        <ele>1299.8</ele>
        <time>2022-02-13T08:27:40Z</time>
      </trkpt>
      <trkpt lat="46.19892" lon="6.58903">
        <ele>1300.2</ele>
        <time>2022-02-13T08:27:42Z</time>
      </trkpt>
      <trkpt lat="46.19889" lon="6.58908">
        <ele>1300.2</ele>
        <time>2022-02-13T08:27:47Z</time>
      </trkpt>
      <trkpt lat="46.19888" lon="6.58912">
        <ele>1300.2</ele>
        <time>2022-02-13T08:27:50Z</time>
      </trkpt>
      <trkpt lat="46.19881" lon="6.58923">
        <ele>1300.4</ele>
        <time>2022-02-13T08:27:58Z</time>
      </trkpt>
      <trkpt lat="46.19876" lon="6.5893">
        <ele>1300.2</ele>
        <time>2022-02-13T08:28:04Z</time>
      </trkpt>
      <trkpt lat="46.19875" lon="6.58936">
        <ele>1300</ele>
        <time>2022-02-13T08:28:08Z</time>
      </trkpt>
      <trkpt lat="46.19873" lon="6.58939">
        <ele>1300</ele>
        <time>2022-02-13T08:28:10Z</time>
      </trkpt>
      <trkpt lat="46.19866" lon="6.58948">
        <ele>1299.6</ele>
        <time>2022-02-13T08:28:17Z</time>
      </trkpt>
      <trkpt lat="46.19861" lon="6.58956">
        <ele>1299.4</ele>
        <time>2022-02-13T08:28:24Z</time>
      </trkpt>
      <trkpt lat="46.1986" lon="6.58959">
        <ele>1299.6</ele>
        <time>2022-02-13T08:28:26Z</time>
      </trkpt>
      <trkpt lat="46.19856" lon="6.58965">
        <ele>1299.8</ele>
        <time>2022-02-13T08:28:31Z</time>
      </trkpt>
      <trkpt lat="46.19854" lon="6.58968">
        <ele>1300</ele>
        <time>2022-02-13T08:28:34Z</time>
      </trkpt>
      <trkpt lat="46.19854" lon="6.58969">
        <ele>1300</ele>
        <time>2022-02-13T08:28:35Z</time>
      </trkpt>
      <trkpt lat="46.19852" lon="6.58971">
        <ele>1300.2</ele>
        <time>2022-02-13T08:28:37Z</time>
      </trkpt>
      <trkpt lat="46.19847" lon="6.58979">
        <ele>1300.4</ele>
        <time>2022-02-13T08:28:44Z</time>
      </trkpt>
      <trkpt lat="46.1984" lon="6.58989">
        <ele>1300</ele>
        <time>2022-02-13T08:28:51Z</time>
      </trkpt>
      <trkpt lat="46.19836" lon="6.58999">
        <ele>1299</ele>
        <time>2022-02-13T08:28:57Z</time>
      </trkpt>
      <trkpt lat="46.19835" lon="6.59004">
        <ele>1298.8</ele>
        <time>2022-02-13T08:29:00Z</time>
      </trkpt>
      <trkpt lat="46.19833" lon="6.59009">
        <ele>1298.4</ele>
        <time>2022-02-13T08:29:03Z</time>
      </trkpt>
      <trkpt lat="46.1983" lon="6.5902">
        <ele>1298</ele>
        <time>2022-02-13T08:29:10Z</time>
      </trkpt>
      <trkpt lat="46.19828" lon="6.59027">
        <ele>1297.6</ele>
        <time>2022-02-13T08:29:14Z</time>
      </trkpt>
      <trkpt lat="46.19826" lon="6.5903">
        <ele>1297.4</ele>
        <time>2022-02-13T08:29:16Z</time>
      </trkpt>
      <trkpt lat="46.19825" lon="6.59032">
        <ele>1297.2</ele>
        <time>2022-02-13T08:29:19Z</time>
      </trkpt>
      <trkpt lat="46.19826" lon="6.59033">
        <ele>1296.8</ele>
        <time>2022-02-13T08:29:24Z</time>
      </trkpt>
      <trkpt lat="46.19829" lon="6.59034">
        <ele>1296.6</ele>
        <time>2022-02-13T08:29:29Z</time>
      </trkpt>
      <trkpt lat="46.1983" lon="6.59034">
        <ele>1296.6</ele>
        <time>2022-02-13T08:29:31Z</time>
      </trkpt>
      <trkpt lat="46.1983" lon="6.59035">
        <ele>1296.8</ele>
        <time>2022-02-13T08:29:42Z</time>
      </trkpt>
      <trkpt lat="46.1983" lon="6.59039">
        <ele>1297.2</ele>
        <time>2022-02-13T08:29:57Z</time>
      </trkpt>
      <trkpt lat="46.19828" lon="6.59046">
        <ele>1297.2</ele>
        <time>2022-02-13T08:30:00Z</time>
      </trkpt>
      <trkpt lat="46.19827" lon="6.59053">
        <ele>1297</ele>
        <time>2022-02-13T08:30:03Z</time>
      </trkpt>
      <trkpt lat="46.19828" lon="6.59057">
        <ele>1296.8</ele>
        <time>2022-02-13T08:30:05Z</time>
      </trkpt>
      <trkpt lat="46.19832" lon="6.5906">
        <ele>1296.6</ele>
        <time>2022-02-13T08:30:08Z</time>
      </trkpt>
      <trkpt lat="46.19835" lon="6.5906">
        <ele>1296.8</ele>
        <time>2022-02-13T08:30:10Z</time>
      </trkpt>
      <trkpt lat="46.19842" lon="6.5906">
        <ele>1297.2</ele>
        <time>2022-02-13T08:30:15Z</time>
      </trkpt>
      <trkpt lat="46.19852" lon="6.59058">
        <ele>1297</ele>
        <time>2022-02-13T08:30:22Z</time>
      </trkpt>
      <trkpt lat="46.19857" lon="6.59057">
        <ele>1297.4</ele>
        <time>2022-02-13T08:30:27Z</time>
      </trkpt>
      <trkpt lat="46.19859" lon="6.59057">
        <ele>1297.6</ele>
        <time>2022-02-13T08:30:29Z</time>
      </trkpt>
      <trkpt lat="46.19861" lon="6.59057">
        <ele>1298.2</ele>
        <time>2022-02-13T08:30:31Z</time>
      </trkpt>
      <trkpt lat="46.19865" lon="6.59057">
        <ele>1298.8</ele>
        <time>2022-02-13T08:30:34Z</time>
      </trkpt>
      <trkpt lat="46.1987" lon="6.59057">
        <ele>1299.6</ele>
        <time>2022-02-13T08:30:38Z</time>
      </trkpt>
      <trkpt lat="46.19871" lon="6.59057">
        <ele>1299.6</ele>
        <time>2022-02-13T08:30:40Z</time>
      </trkpt>
      <trkpt lat="46.19874" lon="6.59059">
        <ele>1299.8</ele>
        <time>2022-02-13T08:30:43Z</time>
      </trkpt>
      <trkpt lat="46.19875" lon="6.59059">
        <ele>1300</ele>
        <time>2022-02-13T08:30:44Z</time>
      </trkpt>
      <trkpt lat="46.19877" lon="6.5906">
        <ele>1300.6</ele>
        <time>2022-02-13T08:30:46Z</time>
      </trkpt>
      <trkpt lat="46.19879" lon="6.59061">
        <ele>1300.8</ele>
        <time>2022-02-13T08:30:48Z</time>
      </trkpt>
      <trkpt lat="46.1988" lon="6.59062">
        <ele>1301</ele>
        <time>2022-02-13T08:30:49Z</time>
      </trkpt>
      <trkpt lat="46.19885" lon="6.59065">
        <ele>1301.8</ele>
        <time>2022-02-13T08:30:54Z</time>
      </trkpt>
      <trkpt lat="46.19888" lon="6.59068">
        <ele>1302.4</ele>
        <time>2022-02-13T08:30:58Z</time>
      </trkpt>
      <trkpt lat="46.19894" lon="6.59072">
        <ele>1303.2</ele>
        <time>2022-02-13T08:31:04Z</time>
      </trkpt>
      <trkpt lat="46.19897" lon="6.59073">
        <ele>1303.4</ele>
        <time>2022-02-13T08:31:07Z</time>
      </trkpt>
      <trkpt lat="46.19902" lon="6.59076">
        <ele>1304.2</ele>
        <time>2022-02-13T08:31:12Z</time>
      </trkpt>
      <trkpt lat="46.19906" lon="6.5908">
        <ele>1304.8</ele>
        <time>2022-02-13T08:31:17Z</time>
      </trkpt>
      <trkpt lat="46.19909" lon="6.59084">
        <ele>1305.4</ele>
        <time>2022-02-13T08:31:22Z</time>
      </trkpt>
      <trkpt lat="46.1991" lon="6.59084">
        <ele>1305.6</ele>
        <time>2022-02-13T08:31:23Z</time>
      </trkpt>
      <trkpt lat="46.19913" lon="6.59087">
        <ele>1305.8</ele>
        <time>2022-02-13T08:31:26Z</time>
      </trkpt>
      <trkpt lat="46.19917" lon="6.59091">
        <ele>1306.6</ele>
        <time>2022-02-13T08:31:32Z</time>
      </trkpt>
      <trkpt lat="46.19922" lon="6.59097">
        <ele>1307.4</ele>
        <time>2022-02-13T08:31:39Z</time>
      </trkpt>
      <trkpt lat="46.19923" lon="6.59098">
        <ele>1307.6</ele>
        <time>2022-02-13T08:31:40Z</time>
      </trkpt>
      <trkpt lat="46.19923" lon="6.59099">
        <ele>1307.6</ele>
        <time>2022-02-13T08:31:41Z</time>
      </trkpt>
      <trkpt lat="46.19928" lon="6.59105">
        <ele>1308.8</ele>
        <time>2022-02-13T08:31:48Z</time>
      </trkpt>
      <trkpt lat="46.19932" lon="6.59109">
        <ele>1309.4</ele>
        <time>2022-02-13T08:31:53Z</time>
      </trkpt>
      <trkpt lat="46.19933" lon="6.59111">
        <ele>1309.8</ele>
        <time>2022-02-13T08:31:55Z</time>
      </trkpt>
      <trkpt lat="46.19934" lon="6.59112">
        <ele>1309.8</ele>
        <time>2022-02-13T08:31:56Z</time>
      </trkpt>
      <trkpt lat="46.19938" lon="6.59121">
        <ele>1311</ele>
        <time>2022-02-13T08:32:04Z</time>
      </trkpt>
      <trkpt lat="46.1994" lon="6.59125">
        <ele>1311.4</ele>
        <time>2022-02-13T08:32:07Z</time>
      </trkpt>
      <trkpt lat="46.19944" lon="6.59131">
        <ele>1311.8</ele>
        <time>2022-02-13T08:32:13Z</time>
      </trkpt>
      <trkpt lat="46.19944" lon="6.59132">
        <ele>1312</ele>
        <time>2022-02-13T08:32:14Z</time>
      </trkpt>
      <trkpt lat="46.19945" lon="6.59133">
        <ele>1312.4</ele>
        <time>2022-02-13T08:32:16Z</time>
      </trkpt>
      <trkpt lat="46.19949" lon="6.59137">
        <ele>1313.2</ele>
        <time>2022-02-13T08:32:21Z</time>
      </trkpt>
      <trkpt lat="46.1995" lon="6.59137">
        <ele>1313.4</ele>
        <time>2022-02-13T08:32:22Z</time>
      </trkpt>
      <trkpt lat="46.19953" lon="6.59142">
        <ele>1314</ele>
        <time>2022-02-13T08:32:27Z</time>
      </trkpt>
      <trkpt lat="46.19954" lon="6.59143">
        <ele>1314.4</ele>
        <time>2022-02-13T08:32:29Z</time>
      </trkpt>
      <trkpt lat="46.19956" lon="6.59146">
        <ele>1314.6</ele>
        <time>2022-02-13T08:32:32Z</time>
      </trkpt>
      <trkpt lat="46.19957" lon="6.59147">
        <ele>1315.2</ele>
        <time>2022-02-13T08:32:34Z</time>
      </trkpt>
      <trkpt lat="46.19958" lon="6.59148">
        <ele>1315.4</ele>
        <time>2022-02-13T08:32:35Z</time>
      </trkpt>
      <trkpt lat="46.1996" lon="6.5915">
        <ele>1316</ele>
        <time>2022-02-13T08:32:38Z</time>
      </trkpt>
      <trkpt lat="46.19962" lon="6.59151">
        <ele>1316.2</ele>
        <time>2022-02-13T08:32:41Z</time>
      </trkpt>
      <trkpt lat="46.19964" lon="6.59155">
        <ele>1316.6</ele>
        <time>2022-02-13T08:32:45Z</time>
      </trkpt>
      <trkpt lat="46.19967" lon="6.5916">
        <ele>1317.4</ele>
        <time>2022-02-13T08:32:50Z</time>
      </trkpt>
      <trkpt lat="46.19967" lon="6.59161">
        <ele>1317.6</ele>
        <time>2022-02-13T08:32:51Z</time>
      </trkpt>
      <trkpt lat="46.19968" lon="6.59162">
        <ele>1317.6</ele>
        <time>2022-02-13T08:32:52Z</time>
      </trkpt>
      <trkpt lat="46.19971" lon="6.59167">
        <ele>1318</ele>
        <time>2022-02-13T08:32:57Z</time>
      </trkpt>
      <trkpt lat="46.19972" lon="6.59169">
        <ele>1318.4</ele>
        <time>2022-02-13T08:32:59Z</time>
      </trkpt>
      <trkpt lat="46.19972" lon="6.59171">
        <ele>1318.6</ele>
        <time>2022-02-13T08:33:00Z</time>
      </trkpt>
      <trkpt lat="46.19973" lon="6.59175">
        <ele>1319.2</ele>
        <time>2022-02-13T08:33:03Z</time>
      </trkpt>
      <trkpt lat="46.19973" lon="6.59177">
        <ele>1319.2</ele>
        <time>2022-02-13T08:33:04Z</time>
      </trkpt>
      <trkpt lat="46.19973" lon="6.59184">
        <ele>1319.8</ele>
        <time>2022-02-13T08:33:09Z</time>
      </trkpt>
      <trkpt lat="46.19972" lon="6.59191">
        <ele>1320.4</ele>
        <time>2022-02-13T08:33:14Z</time>
      </trkpt>
      <trkpt lat="46.19971" lon="6.59194">
        <ele>1321.2</ele>
        <time>2022-02-13T08:33:17Z</time>
      </trkpt>
      <trkpt lat="46.19966" lon="6.59198">
        <ele>1322.2</ele>
        <time>2022-02-13T08:33:24Z</time>
      </trkpt>
      <trkpt lat="46.19962" lon="6.59204">
        <ele>1323.6</ele>
        <time>2022-02-13T08:33:30Z</time>
      </trkpt>
      <trkpt lat="46.1996" lon="6.59206">
        <ele>1324.2</ele>
        <time>2022-02-13T08:33:33Z</time>
      </trkpt>
      <trkpt lat="46.19957" lon="6.59207">
        <ele>1324.4</ele>
        <time>2022-02-13T08:33:36Z</time>
      </trkpt>
      <trkpt lat="46.19955" lon="6.59209">
        <ele>1324.6</ele>
        <time>2022-02-13T08:33:38Z</time>
      </trkpt>
      <trkpt lat="46.19955" lon="6.59209">
        <ele>1324.8</ele>
        <time>2022-02-13T08:33:39Z</time>
      </trkpt>
      <trkpt lat="46.19948" lon="6.59213">
        <ele>1325.8</ele>
        <time>2022-02-13T08:33:46Z</time>
      </trkpt>
      <trkpt lat="46.19945" lon="6.59215">
        <ele>1326.8</ele>
        <time>2022-02-13T08:33:53Z</time>
      </trkpt>
      <trkpt lat="46.19944" lon="6.59216">
        <ele>1326.8</ele>
        <time>2022-02-13T08:33:54Z</time>
      </trkpt>
      <trkpt lat="46.19939" lon="6.59221">
        <ele>1327.4</ele>
        <time>2022-02-13T08:34:01Z</time>
      </trkpt>
      <trkpt lat="46.19938" lon="6.59223">
        <ele>1327.8</ele>
        <time>2022-02-13T08:34:03Z</time>
      </trkpt>
      <trkpt lat="46.19937" lon="6.59224">
        <ele>1328</ele>
        <time>2022-02-13T08:34:05Z</time>
      </trkpt>
      <trkpt lat="46.19934" lon="6.59226">
        <ele>1328.2</ele>
        <time>2022-02-13T08:34:08Z</time>
      </trkpt>
      <trkpt lat="46.19929" lon="6.5923">
        <ele>1329</ele>
        <time>2022-02-13T08:34:15Z</time>
      </trkpt>
      <trkpt lat="46.19928" lon="6.59231">
        <ele>1329</ele>
        <time>2022-02-13T08:34:16Z</time>
      </trkpt>
      <trkpt lat="46.19924" lon="6.59237">
        <ele>1330.2</ele>
        <time>2022-02-13T08:34:24Z</time>
      </trkpt>
      <trkpt lat="46.19922" lon="6.59241">
        <ele>1330.8</ele>
        <time>2022-02-13T08:34:29Z</time>
      </trkpt>
      <trkpt lat="46.1992" lon="6.59244">
        <ele>1331.4</ele>
        <time>2022-02-13T08:34:33Z</time>
      </trkpt>
      <trkpt lat="46.19919" lon="6.59247">
        <ele>1331.6</ele>
        <time>2022-02-13T08:34:37Z</time>
      </trkpt>
      <trkpt lat="46.19917" lon="6.59251">
        <ele>1332.6</ele>
        <time>2022-02-13T08:34:42Z</time>
      </trkpt>
      <trkpt lat="46.19914" lon="6.59258">
        <ele>1333.8</ele>
        <time>2022-02-13T08:34:50Z</time>
      </trkpt>
      <trkpt lat="46.19913" lon="6.59261">
        <ele>1334.2</ele>
        <time>2022-02-13T08:34:53Z</time>
      </trkpt>
      <trkpt lat="46.19911" lon="6.59265">
        <ele>1334.8</ele>
        <time>2022-02-13T08:34:57Z</time>
      </trkpt>
      <trkpt lat="46.19908" lon="6.59269">
        <ele>1335.8</ele>
        <time>2022-02-13T08:35:03Z</time>
      </trkpt>
      <trkpt lat="46.19907" lon="6.5927">
        <ele>1336.2</ele>
        <time>2022-02-13T08:35:05Z</time>
      </trkpt>
      <trkpt lat="46.19905" lon="6.59272">
        <ele>1336.6</ele>
        <time>2022-02-13T08:35:08Z</time>
      </trkpt>
      <trkpt lat="46.19904" lon="6.59273">
        <ele>1336.8</ele>
        <time>2022-02-13T08:35:10Z</time>
      </trkpt>
      <trkpt lat="46.19901" lon="6.59276">
        <ele>1338</ele>
        <time>2022-02-13T08:35:16Z</time>
      </trkpt>
      <trkpt lat="46.199" lon="6.59277">
        <ele>1338</ele>
        <time>2022-02-13T08:35:17Z</time>
      </trkpt>
      <trkpt lat="46.19897" lon="6.59279">
        <ele>1339</ele>
        <time>2022-02-13T08:35:23Z</time>
      </trkpt>
      <trkpt lat="46.19894" lon="6.59284">
        <ele>1339.6</ele>
        <time>2022-02-13T08:35:28Z</time>
      </trkpt>
      <trkpt lat="46.19893" lon="6.59285">
        <ele>1340</ele>
        <time>2022-02-13T08:35:31Z</time>
      </trkpt>
      <trkpt lat="46.19892" lon="6.59285">
        <ele>1340.4</ele>
        <time>2022-02-13T08:35:32Z</time>
      </trkpt>
      <trkpt lat="46.1989" lon="6.59289">
        <ele>1341.2</ele>
        <time>2022-02-13T08:35:36Z</time>
      </trkpt>
      <trkpt lat="46.19889" lon="6.59289">
        <ele>1341.4</ele>
        <time>2022-02-13T08:35:38Z</time>
      </trkpt>
      <trkpt lat="46.19887" lon="6.59293">
        <ele>1342.2</ele>
        <time>2022-02-13T08:35:43Z</time>
      </trkpt>
      <trkpt lat="46.19887" lon="6.59293">
        <ele>1342.4</ele>
        <time>2022-02-13T08:35:44Z</time>
      </trkpt>
      <trkpt lat="46.19886" lon="6.59294">
        <ele>1342.6</ele>
        <time>2022-02-13T08:35:45Z</time>
      </trkpt>
      <trkpt lat="46.19883" lon="6.59297">
        <ele>1343</ele>
        <time>2022-02-13T08:35:49Z</time>
      </trkpt>
      <trkpt lat="46.19882" lon="6.59299">
        <ele>1343.2</ele>
        <time>2022-02-13T08:35:51Z</time>
      </trkpt>
      <trkpt lat="46.19879" lon="6.59303">
        <ele>1343.8</ele>
        <time>2022-02-13T08:35:55Z</time>
      </trkpt>
      <trkpt lat="46.19878" lon="6.59307">
        <ele>1344.4</ele>
        <time>2022-02-13T08:35:59Z</time>
      </trkpt>
      <trkpt lat="46.19877" lon="6.59309">
        <ele>1344.8</ele>
        <time>2022-02-13T08:36:02Z</time>
      </trkpt>
      <trkpt lat="46.19877" lon="6.59311">
        <ele>1345.2</ele>
        <time>2022-02-13T08:36:04Z</time>
      </trkpt>
      <trkpt lat="46.19877" lon="6.59316">
        <ele>1345.6</ele>
        <time>2022-02-13T08:36:08Z</time>
      </trkpt>
      <trkpt lat="46.19876" lon="6.59319">
        <ele>1346.2</ele>
        <time>2022-02-13T08:36:11Z</time>
      </trkpt>
      <trkpt lat="46.19875" lon="6.59319">
        <ele>1346.4</ele>
        <time>2022-02-13T08:36:12Z</time>
      </trkpt>
      <trkpt lat="46.19874" lon="6.59323">
        <ele>1347.2</ele>
        <time>2022-02-13T08:36:17Z</time>
      </trkpt>
      <trkpt lat="46.19874" lon="6.59328">
        <ele>1348.4</ele>
        <time>2022-02-13T08:36:24Z</time>
      </trkpt>
      <trkpt lat="46.19873" lon="6.59331">
        <ele>1348.8</ele>
        <time>2022-02-13T08:36:27Z</time>
      </trkpt>
      <trkpt lat="46.19872" lon="6.59333">
        <ele>1349.4</ele>
        <time>2022-02-13T08:36:31Z</time>
      </trkpt>
      <trkpt lat="46.19871" lon="6.59336">
        <ele>1349.6</ele>
        <time>2022-02-13T08:36:33Z</time>
      </trkpt>
      <trkpt lat="46.19871" lon="6.59337">
        <ele>1349.8</ele>
        <time>2022-02-13T08:36:34Z</time>
      </trkpt>
      <trkpt lat="46.1987" lon="6.59338">
        <ele>1349.8</ele>
        <time>2022-02-13T08:36:35Z</time>
      </trkpt>
      <trkpt lat="46.1987" lon="6.59341">
        <ele>1350.4</ele>
        <time>2022-02-13T08:36:38Z</time>
      </trkpt>
      <trkpt lat="46.1987" lon="6.59344">
        <ele>1350.8</ele>
        <time>2022-02-13T08:36:40Z</time>
      </trkpt>
      <trkpt lat="46.19872" lon="6.59349">
        <ele>1351.6</ele>
        <time>2022-02-13T08:36:45Z</time>
      </trkpt>
      <trkpt lat="46.19876" lon="6.59358">
        <ele>1352.6</ele>
        <time>2022-02-13T08:36:53Z</time>
      </trkpt>
      <trkpt lat="46.19877" lon="6.59361">
        <ele>1353.2</ele>
        <time>2022-02-13T08:36:57Z</time>
      </trkpt>
      <trkpt lat="46.19877" lon="6.59363">
        <ele>1353.8</ele>
        <time>2022-02-13T08:37:00Z</time>
      </trkpt>
      <trkpt lat="46.19878" lon="6.59364">
        <ele>1354.2</ele>
        <time>2022-02-13T08:37:02Z</time>
      </trkpt>
      <trkpt lat="46.19879" lon="6.59366">
        <ele>1354.8</ele>
        <time>2022-02-13T08:37:05Z</time>
      </trkpt>
      <trkpt lat="46.19879" lon="6.59367">
        <ele>1354.8</ele>
        <time>2022-02-13T08:37:06Z</time>
      </trkpt>
      <trkpt lat="46.19879" lon="6.59368">
        <ele>1354.8</ele>
        <time>2022-02-13T08:37:07Z</time>
      </trkpt>
      <trkpt lat="46.1988" lon="6.5937">
        <ele>1355.4</ele>
        <time>2022-02-13T08:37:10Z</time>
      </trkpt>
      <trkpt lat="46.1988" lon="6.59371">
        <ele>1355.4</ele>
        <time>2022-02-13T08:37:11Z</time>
      </trkpt>
      <trkpt lat="46.1988" lon="6.59371">
        <ele>1355.6</ele>
        <time>2022-02-13T08:37:12Z</time>
      </trkpt>
      <trkpt lat="46.19881" lon="6.59371">
        <ele>1356</ele>
        <time>2022-02-13T08:37:14Z</time>
      </trkpt>
      <trkpt lat="46.19882" lon="6.59372">
        <ele>1356.2</ele>
        <time>2022-02-13T08:37:16Z</time>
      </trkpt>
      <trkpt lat="46.19882" lon="6.59373">
        <ele>1355.4</ele>
        <time>2022-02-13T08:37:22Z</time>
      </trkpt>
      <trkpt lat="46.19882" lon="6.59374">
        <ele>1355.2</ele>
        <time>2022-02-13T08:37:24Z</time>
      </trkpt>
      <trkpt lat="46.1988" lon="6.59375">
        <ele>1355.4</ele>
        <time>2022-02-13T08:37:29Z</time>
      </trkpt>
      <trkpt lat="46.19874" lon="6.59376">
        <ele>1355.2</ele>
        <time>2022-02-13T08:37:36Z</time>
      </trkpt>
      <trkpt lat="46.19872" lon="6.59376">
        <ele>1355.4</ele>
        <time>2022-02-13T08:37:41Z</time>
      </trkpt>
      <trkpt lat="46.1987" lon="6.59378">
        <ele>1356</ele>
        <time>2022-02-13T08:37:53Z</time>
      </trkpt>
      <trkpt lat="46.1987" lon="6.59379">
        <ele>1356.2</ele>
        <time>2022-02-13T08:37:55Z</time>
      </trkpt>
      <trkpt lat="46.1987" lon="6.59382">
        <ele>1356.2</ele>
        <time>2022-02-13T08:37:58Z</time>
      </trkpt>
      <trkpt lat="46.19868" lon="6.59387">
        <ele>1356.8</ele>
        <time>2022-02-13T08:38:05Z</time>
      </trkpt>
      <trkpt lat="46.19869" lon="6.59389">
        <ele>1357</ele>
        <time>2022-02-13T08:38:06Z</time>
      </trkpt>
      <trkpt lat="46.1987" lon="6.59391">
        <ele>1357.2</ele>
        <time>2022-02-13T08:38:08Z</time>
      </trkpt>
      <trkpt lat="46.1987" lon="6.59393">
        <ele>1357.4</ele>
        <time>2022-02-13T08:38:09Z</time>
      </trkpt>
      <trkpt lat="46.1987" lon="6.59394">
        <ele>1357.6</ele>
        <time>2022-02-13T08:38:10Z</time>
      </trkpt>
      <trkpt lat="46.19869" lon="6.59401">
        <ele>1357.6</ele>
        <time>2022-02-13T08:38:15Z</time>
      </trkpt>
      <trkpt lat="46.19869" lon="6.59402">
        <ele>1357.6</ele>
        <time>2022-02-13T08:38:16Z</time>
      </trkpt>
      <trkpt lat="46.19869" lon="6.59404">
        <ele>1357.6</ele>
        <time>2022-02-13T08:38:17Z</time>
      </trkpt>
      <trkpt lat="46.19865" lon="6.59414">
        <ele>1357.6</ele>
        <time>2022-02-13T08:38:28Z</time>
      </trkpt>
      <trkpt lat="46.19862" lon="6.59427">
        <ele>1358</ele>
        <time>2022-02-13T08:38:39Z</time>
      </trkpt>
      <trkpt lat="46.19861" lon="6.5943">
        <ele>1358.2</ele>
        <time>2022-02-13T08:38:41Z</time>
      </trkpt>
      <trkpt lat="46.19861" lon="6.5943">
        <ele>1358.2</ele>
        <time>2022-02-13T08:38:42Z</time>
      </trkpt>
      <trkpt lat="46.19857" lon="6.5944">
        <ele>1359.2</ele>
        <time>2022-02-13T08:38:51Z</time>
      </trkpt>
      <trkpt lat="46.19853" lon="6.59447">
        <ele>1359.4</ele>
        <time>2022-02-13T08:38:57Z</time>
      </trkpt>
      <trkpt lat="46.19852" lon="6.59448">
        <ele>1359.2</ele>
        <time>2022-02-13T08:38:58Z</time>
      </trkpt>
      <trkpt lat="46.19846" lon="6.59467">
        <ele>1359</ele>
        <time>2022-02-13T08:39:11Z</time>
      </trkpt>
      <trkpt lat="46.19846" lon="6.59468">
        <ele>1359</ele>
        <time>2022-02-13T08:39:12Z</time>
      </trkpt>
      <trkpt lat="46.19847" lon="6.59475">
        <ele>1359.4</ele>
        <time>2022-02-13T08:39:17Z</time>
      </trkpt>
      <trkpt lat="46.19847" lon="6.5948">
        <ele>1359.4</ele>
        <time>2022-02-13T08:39:22Z</time>
      </trkpt>
      <trkpt lat="46.19847" lon="6.59481">
        <ele>1359.4</ele>
        <time>2022-02-13T08:39:24Z</time>
      </trkpt>
      <trkpt lat="46.19844" lon="6.5949">
        <ele>1359.8</ele>
        <time>2022-02-13T08:39:32Z</time>
      </trkpt>
      <trkpt lat="46.19843" lon="6.59494">
        <ele>1360</ele>
        <time>2022-02-13T08:39:36Z</time>
      </trkpt>
      <trkpt lat="46.19843" lon="6.59496">
        <ele>1360</ele>
        <time>2022-02-13T08:39:38Z</time>
      </trkpt>
      <trkpt lat="46.19843" lon="6.59497">
        <ele>1360.2</ele>
        <time>2022-02-13T08:39:39Z</time>
      </trkpt>
      <trkpt lat="46.19843" lon="6.59498">
        <ele>1360.4</ele>
        <time>2022-02-13T08:39:40Z</time>
      </trkpt>
      <trkpt lat="46.19843" lon="6.59501">
        <ele>1361.4</ele>
        <time>2022-02-13T08:39:44Z</time>
      </trkpt>
      <trkpt lat="46.1984" lon="6.59506">
        <ele>1362.4</ele>
        <time>2022-02-13T08:39:51Z</time>
      </trkpt>
      <trkpt lat="46.19837" lon="6.59509">
        <ele>1363.4</ele>
        <time>2022-02-13T08:40:01Z</time>
      </trkpt>
      <trkpt lat="46.19836" lon="6.59508">
        <ele>1364.6</ele>
        <time>2022-02-13T08:40:04Z</time>
      </trkpt>
      <trkpt lat="46.19835" lon="6.59508">
        <ele>1364.8</ele>
        <time>2022-02-13T08:40:05Z</time>
      </trkpt>
      <trkpt lat="46.19832" lon="6.59509">
        <ele>1365.4</ele>
        <time>2022-02-13T08:40:09Z</time>
      </trkpt>
      <trkpt lat="46.19831" lon="6.59509">
        <ele>1365.6</ele>
        <time>2022-02-13T08:40:10Z</time>
      </trkpt>
      <trkpt lat="46.19828" lon="6.59512">
        <ele>1366.4</ele>
        <time>2022-02-13T08:40:15Z</time>
      </trkpt>
      <trkpt lat="46.19827" lon="6.59512">
        <ele>1366.6</ele>
        <time>2022-02-13T08:40:16Z</time>
      </trkpt>
      <trkpt lat="46.19825" lon="6.59514">
        <ele>1367.2</ele>
        <time>2022-02-13T08:40:20Z</time>
      </trkpt>
      <trkpt lat="46.19825" lon="6.59515">
        <ele>1367.2</ele>
        <time>2022-02-13T08:40:21Z</time>
      </trkpt>
      <trkpt lat="46.19825" lon="6.59516">
        <ele>1367.4</ele>
        <time>2022-02-13T08:40:22Z</time>
      </trkpt>
      <trkpt lat="46.19825" lon="6.59517">
        <ele>1367.4</ele>
        <time>2022-02-13T08:40:23Z</time>
      </trkpt>
      <trkpt lat="46.19824" lon="6.59518">
        <ele>1367.6</ele>
        <time>2022-02-13T08:40:24Z</time>
      </trkpt>
      <trkpt lat="46.19822" lon="6.59523">
        <ele>1368.2</ele>
        <time>2022-02-13T08:40:32Z</time>
      </trkpt>
      <trkpt lat="46.19823" lon="6.59524">
        <ele>1368.6</ele>
        <time>2022-02-13T08:40:43Z</time>
      </trkpt>
      <trkpt lat="46.19823" lon="6.59524">
        <ele>1368.8</ele>
        <time>2022-02-13T08:40:46Z</time>
      </trkpt>
      <trkpt lat="46.19822" lon="6.59532">
        <ele>1369.2</ele>
        <time>2022-02-13T08:40:56Z</time>
      </trkpt>
      <trkpt lat="46.19821" lon="6.59535">
        <ele>1369.6</ele>
        <time>2022-02-13T08:40:59Z</time>
      </trkpt>
      <trkpt lat="46.19818" lon="6.59538">
        <ele>1370.6</ele>
        <time>2022-02-13T08:41:07Z</time>
      </trkpt>
      <trkpt lat="46.19816" lon="6.59541">
        <ele>1371.2</ele>
        <time>2022-02-13T08:41:11Z</time>
      </trkpt>
      <trkpt lat="46.19815" lon="6.59543">
        <ele>1371.6</ele>
        <time>2022-02-13T08:41:14Z</time>
      </trkpt>
      <trkpt lat="46.19815" lon="6.59544">
        <ele>1372</ele>
        <time>2022-02-13T08:41:15Z</time>
      </trkpt>
      <trkpt lat="46.19814" lon="6.59547">
        <ele>1372.4</ele>
        <time>2022-02-13T08:41:18Z</time>
      </trkpt>
      <trkpt lat="46.19814" lon="6.5955">
        <ele>1372.6</ele>
        <time>2022-02-13T08:41:21Z</time>
      </trkpt>
      <trkpt lat="46.19814" lon="6.59552">
        <ele>1372.8</ele>
        <time>2022-02-13T08:41:23Z</time>
      </trkpt>
      <trkpt lat="46.19813" lon="6.59554">
        <ele>1373</ele>
        <time>2022-02-13T08:41:25Z</time>
      </trkpt>
      <trkpt lat="46.19815" lon="6.59558">
        <ele>1373.8</ele>
        <time>2022-02-13T08:41:30Z</time>
      </trkpt>
      <trkpt lat="46.19815" lon="6.59559">
        <ele>1374</ele>
        <time>2022-02-13T08:41:31Z</time>
      </trkpt>
      <trkpt lat="46.19816" lon="6.59563">
        <ele>1375</ele>
        <time>2022-02-13T08:41:37Z</time>
      </trkpt>
      <trkpt lat="46.19817" lon="6.59564">
        <ele>1375.6</ele>
        <time>2022-02-13T08:41:39Z</time>
      </trkpt>
      <trkpt lat="46.19816" lon="6.5957">
        <ele>1376</ele>
        <time>2022-02-13T08:41:45Z</time>
      </trkpt>
      <trkpt lat="46.19817" lon="6.59571">
        <ele>1376.2</ele>
        <time>2022-02-13T08:41:46Z</time>
      </trkpt>
      <trkpt lat="46.19817" lon="6.59575">
        <ele>1376.6</ele>
        <time>2022-02-13T08:41:50Z</time>
      </trkpt>
      <trkpt lat="46.19817" lon="6.59577">
        <ele>1377.2</ele>
        <time>2022-02-13T08:41:53Z</time>
      </trkpt>
      <trkpt lat="46.19818" lon="6.59583">
        <ele>1378</ele>
        <time>2022-02-13T08:41:59Z</time>
      </trkpt>
      <trkpt lat="46.19818" lon="6.59584">
        <ele>1378.2</ele>
        <time>2022-02-13T08:42:00Z</time>
      </trkpt>
      <trkpt lat="46.19818" lon="6.59584">
        <ele>1378.4</ele>
        <time>2022-02-13T08:42:01Z</time>
      </trkpt>
      <trkpt lat="46.19818" lon="6.59587">
        <ele>1378.8</ele>
        <time>2022-02-13T08:42:04Z</time>
      </trkpt>
      <trkpt lat="46.19817" lon="6.59587">
        <ele>1379.4</ele>
        <time>2022-02-13T08:42:06Z</time>
      </trkpt>
      <trkpt lat="46.19813" lon="6.59592">
        <ele>1380.4</ele>
        <time>2022-02-13T08:42:13Z</time>
      </trkpt>
      <trkpt lat="46.19812" lon="6.59592">
        <ele>1380.6</ele>
        <time>2022-02-13T08:42:14Z</time>
      </trkpt>
      <trkpt lat="46.1981" lon="6.59594">
        <ele>1381</ele>
        <time>2022-02-13T08:42:17Z</time>
      </trkpt>
      <trkpt lat="46.19809" lon="6.59595">
        <ele>1381.4</ele>
        <time>2022-02-13T08:42:19Z</time>
      </trkpt>
      <trkpt lat="46.19808" lon="6.59597">
        <ele>1382.2</ele>
        <time>2022-02-13T08:42:22Z</time>
      </trkpt>
      <trkpt lat="46.19807" lon="6.59599">
        <ele>1382.8</ele>
        <time>2022-02-13T08:42:25Z</time>
      </trkpt>
      <trkpt lat="46.19806" lon="6.59602">
        <ele>1383.2</ele>
        <time>2022-02-13T08:42:29Z</time>
      </trkpt>
      <trkpt lat="46.19806" lon="6.59604">
        <ele>1383.8</ele>
        <time>2022-02-13T08:42:32Z</time>
      </trkpt>
      <trkpt lat="46.19805" lon="6.59609">
        <ele>1384.4</ele>
        <time>2022-02-13T08:42:38Z</time>
      </trkpt>
      <trkpt lat="46.19804" lon="6.59613">
        <ele>1384.8</ele>
        <time>2022-02-13T08:42:42Z</time>
      </trkpt>
      <trkpt lat="46.19802" lon="6.59615">
        <ele>1385.2</ele>
        <time>2022-02-13T08:42:44Z</time>
      </trkpt>
      <trkpt lat="46.198" lon="6.59619">
        <ele>1385.8</ele>
        <time>2022-02-13T08:42:49Z</time>
      </trkpt>
      <trkpt lat="46.19799" lon="6.59625">
        <ele>1387</ele>
        <time>2022-02-13T08:42:55Z</time>
      </trkpt>
      <trkpt lat="46.19795" lon="6.59628">
        <ele>1388</ele>
        <time>2022-02-13T08:43:00Z</time>
      </trkpt>
      <trkpt lat="46.19795" lon="6.59628">
        <ele>1388.2</ele>
        <time>2022-02-13T08:43:01Z</time>
      </trkpt>
      <trkpt lat="46.19791" lon="6.59629">
        <ele>1388.6</ele>
        <time>2022-02-13T08:43:05Z</time>
      </trkpt>
      <trkpt lat="46.19788" lon="6.59632">
        <ele>1389.2</ele>
        <time>2022-02-13T08:43:11Z</time>
      </trkpt>
      <trkpt lat="46.19787" lon="6.59632">
        <ele>1389.4</ele>
        <time>2022-02-13T08:43:12Z</time>
      </trkpt>
      <trkpt lat="46.19788" lon="6.59635">
        <ele>1390</ele>
        <time>2022-02-13T08:43:16Z</time>
      </trkpt>
      <trkpt lat="46.19788" lon="6.59636">
        <ele>1390.6</ele>
        <time>2022-02-13T08:43:18Z</time>
      </trkpt>
      <trkpt lat="46.19788" lon="6.59638">
        <ele>1391.2</ele>
        <time>2022-02-13T08:43:23Z</time>
      </trkpt>
      <trkpt lat="46.19788" lon="6.5964">
        <ele>1391.6</ele>
        <time>2022-02-13T08:43:27Z</time>
      </trkpt>
      <trkpt lat="46.19789" lon="6.59641">
        <ele>1391.8</ele>
        <time>2022-02-13T08:43:28Z</time>
      </trkpt>
      <trkpt lat="46.1979" lon="6.59641">
        <ele>1392</ele>
        <time>2022-02-13T08:43:31Z</time>
      </trkpt>
      <trkpt lat="46.19792" lon="6.59642">
        <ele>1392.8</ele>
        <time>2022-02-13T08:43:35Z</time>
      </trkpt>
      <trkpt lat="46.19792" lon="6.59642">
        <ele>1393.2</ele>
        <time>2022-02-13T08:43:38Z</time>
      </trkpt>
      <trkpt lat="46.19793" lon="6.59642">
        <ele>1393.6</ele>
        <time>2022-02-13T08:43:40Z</time>
      </trkpt>
      <trkpt lat="46.19794" lon="6.59642">
        <ele>1393.8</ele>
        <time>2022-02-13T08:43:41Z</time>
      </trkpt>
      <trkpt lat="46.19795" lon="6.5964">
        <ele>1394.2</ele>
        <time>2022-02-13T08:43:44Z</time>
      </trkpt>
      <trkpt lat="46.19798" lon="6.5964">
        <ele>1394.2</ele>
        <time>2022-02-13T08:43:47Z</time>
      </trkpt>
      <trkpt lat="46.19802" lon="6.59639">
        <ele>1394.4</ele>
        <time>2022-02-13T08:43:52Z</time>
      </trkpt>
      <trkpt lat="46.19806" lon="6.59637">
        <ele>1395</ele>
        <time>2022-02-13T08:43:57Z</time>
      </trkpt>
      <trkpt lat="46.19813" lon="6.59641">
        <ele>1396</ele>
        <time>2022-02-13T08:44:05Z</time>
      </trkpt>
      <trkpt lat="46.19814" lon="6.59644">
        <ele>1396.4</ele>
        <time>2022-02-13T08:44:07Z</time>
      </trkpt>
      <trkpt lat="46.19815" lon="6.59647">
        <ele>1396.4</ele>
        <time>2022-02-13T08:44:09Z</time>
      </trkpt>
      <trkpt lat="46.19815" lon="6.59649">
        <ele>1396.8</ele>
        <time>2022-02-13T08:44:11Z</time>
      </trkpt>
      <trkpt lat="46.19815" lon="6.59651">
        <ele>1397.2</ele>
        <time>2022-02-13T08:44:14Z</time>
      </trkpt>
      <trkpt lat="46.19815" lon="6.59652">
        <ele>1397.2</ele>
        <time>2022-02-13T08:44:15Z</time>
      </trkpt>
      <trkpt lat="46.19815" lon="6.59653">
        <ele>1397.4</ele>
        <time>2022-02-13T08:44:16Z</time>
      </trkpt>
      <trkpt lat="46.19814" lon="6.59655">
        <ele>1397.6</ele>
        <time>2022-02-13T08:44:18Z</time>
      </trkpt>
      <trkpt lat="46.19814" lon="6.59656">
        <ele>1398.2</ele>
        <time>2022-02-13T08:44:19Z</time>
      </trkpt>
      <trkpt lat="46.19814" lon="6.59657">
        <ele>1398.4</ele>
        <time>2022-02-13T08:44:20Z</time>
      </trkpt>
      <trkpt lat="46.19813" lon="6.59662">
        <ele>1399.4</ele>
        <time>2022-02-13T08:44:26Z</time>
      </trkpt>
      <trkpt lat="46.19813" lon="6.59663">
        <ele>1399.6</ele>
        <time>2022-02-13T08:44:29Z</time>
      </trkpt>
      <trkpt lat="46.19812" lon="6.59664">
        <ele>1399.8</ele>
        <time>2022-02-13T08:44:30Z</time>
      </trkpt>
      <trkpt lat="46.19812" lon="6.59665">
        <ele>1399.8</ele>
        <time>2022-02-13T08:44:32Z</time>
      </trkpt>
      <trkpt lat="46.19811" lon="6.59666">
        <ele>1400.2</ele>
        <time>2022-02-13T08:44:33Z</time>
      </trkpt>
      <trkpt lat="46.19811" lon="6.59666">
        <ele>1400.2</ele>
        <time>2022-02-13T08:44:34Z</time>
      </trkpt>
      <trkpt lat="46.19811" lon="6.59667">
        <ele>1400.6</ele>
        <time>2022-02-13T08:44:35Z</time>
      </trkpt>
      <trkpt lat="46.1981" lon="6.59669">
        <ele>1400.8</ele>
        <time>2022-02-13T08:44:37Z</time>
      </trkpt>
      <trkpt lat="46.1981" lon="6.5967">
        <ele>1401</ele>
        <time>2022-02-13T08:44:38Z</time>
      </trkpt>
      <trkpt lat="46.1981" lon="6.59672">
        <ele>1401.4</ele>
        <time>2022-02-13T08:44:40Z</time>
      </trkpt>
      <trkpt lat="46.19809" lon="6.59673">
        <ele>1401.6</ele>
        <time>2022-02-13T08:44:41Z</time>
      </trkpt>
      <trkpt lat="46.19808" lon="6.59675">
        <ele>1402</ele>
        <time>2022-02-13T08:44:44Z</time>
      </trkpt>
      <trkpt lat="46.19806" lon="6.59677">
        <ele>1402.6</ele>
        <time>2022-02-13T08:44:47Z</time>
      </trkpt>
      <trkpt lat="46.19807" lon="6.59677">
        <ele>1402.8</ele>
        <time>2022-02-13T08:44:48Z</time>
      </trkpt>
      <trkpt lat="46.19805" lon="6.59681">
        <ele>1403.6</ele>
        <time>2022-02-13T08:44:52Z</time>
      </trkpt>
      <trkpt lat="46.19805" lon="6.59682">
        <ele>1403.8</ele>
        <time>2022-02-13T08:44:53Z</time>
      </trkpt>
      <trkpt lat="46.19804" lon="6.59687">
        <ele>1404.6</ele>
        <time>2022-02-13T08:45:00Z</time>
      </trkpt>
      <trkpt lat="46.19804" lon="6.59687">
        <ele>1404.8</ele>
        <time>2022-02-13T08:45:01Z</time>
      </trkpt>
      <trkpt lat="46.19799" lon="6.59691">
        <ele>1406.2</ele>
        <time>2022-02-13T08:45:08Z</time>
      </trkpt>
      <trkpt lat="46.19799" lon="6.59693">
        <ele>1406.6</ele>
        <time>2022-02-13T08:45:11Z</time>
      </trkpt>
      <trkpt lat="46.19798" lon="6.59694">
        <ele>1406.8</ele>
        <time>2022-02-13T08:45:13Z</time>
      </trkpt>
      <trkpt lat="46.19797" lon="6.59695">
        <ele>1407.2</ele>
        <time>2022-02-13T08:45:15Z</time>
      </trkpt>
      <trkpt lat="46.19796" lon="6.59698">
        <ele>1407.8</ele>
        <time>2022-02-13T08:45:20Z</time>
      </trkpt>
      <trkpt lat="46.19795" lon="6.59699">
        <ele>1408</ele>
        <time>2022-02-13T08:45:22Z</time>
      </trkpt>
      <trkpt lat="46.19796" lon="6.59701">
        <ele>1408.2</ele>
        <time>2022-02-13T08:45:25Z</time>
      </trkpt>
      <trkpt lat="46.19797" lon="6.59704">
        <ele>1409.4</ele>
        <time>2022-02-13T08:45:35Z</time>
      </trkpt>
      <trkpt lat="46.19796" lon="6.59706">
        <ele>1409.6</ele>
        <time>2022-02-13T08:45:37Z</time>
      </trkpt>
      <trkpt lat="46.19795" lon="6.59707">
        <ele>1410.4</ele>
        <time>2022-02-13T08:45:40Z</time>
      </trkpt>
      <trkpt lat="46.19791" lon="6.59713">
        <ele>1411.4</ele>
        <time>2022-02-13T08:45:49Z</time>
      </trkpt>
      <trkpt lat="46.19791" lon="6.59714">
        <ele>1411.6</ele>
        <time>2022-02-13T08:45:50Z</time>
      </trkpt>
      <trkpt lat="46.19789" lon="6.59718">
        <ele>1412.6</ele>
        <time>2022-02-13T08:45:55Z</time>
      </trkpt>
      <trkpt lat="46.19788" lon="6.5972">
        <ele>1413.6</ele>
        <time>2022-02-13T08:46:03Z</time>
      </trkpt>
      <trkpt lat="46.19788" lon="6.59722">
        <ele>1414.8</ele>
        <time>2022-02-13T08:46:08Z</time>
      </trkpt>
      <trkpt lat="46.19789" lon="6.59724">
        <ele>1415.2</ele>
        <time>2022-02-13T08:46:11Z</time>
      </trkpt>
      <trkpt lat="46.19789" lon="6.59725">
        <ele>1415.8</ele>
        <time>2022-02-13T08:46:15Z</time>
      </trkpt>
      <trkpt lat="46.19789" lon="6.59726">
        <ele>1416</ele>
        <time>2022-02-13T08:46:16Z</time>
      </trkpt>
      <trkpt lat="46.19788" lon="6.59726">
        <ele>1416</ele>
        <time>2022-02-13T08:46:17Z</time>
      </trkpt>
      <trkpt lat="46.19788" lon="6.59727">
        <ele>1416.2</ele>
        <time>2022-02-13T08:46:18Z</time>
      </trkpt>
      <trkpt lat="46.19788" lon="6.59729">
        <ele>1417</ele>
        <time>2022-02-13T08:46:23Z</time>
      </trkpt>
      <trkpt lat="46.19787" lon="6.59731">
        <ele>1417.2</ele>
        <time>2022-02-13T08:46:24Z</time>
      </trkpt>
      <trkpt lat="46.19785" lon="6.59737">
        <ele>1418.2</ele>
        <time>2022-02-13T08:46:32Z</time>
      </trkpt>
      <trkpt lat="46.19784" lon="6.59738">
        <ele>1418.2</ele>
        <time>2022-02-13T08:46:33Z</time>
      </trkpt>
      <trkpt lat="46.19783" lon="6.59739">
        <ele>1418.2</ele>
        <time>2022-02-13T08:46:34Z</time>
      </trkpt>
      <trkpt lat="46.19781" lon="6.59744">
        <ele>1419.2</ele>
        <time>2022-02-13T08:46:41Z</time>
      </trkpt>
      <trkpt lat="46.19781" lon="6.59746">
        <ele>1419.6</ele>
        <time>2022-02-13T08:46:44Z</time>
      </trkpt>
      <trkpt lat="46.19781" lon="6.59748">
        <ele>1420.4</ele>
        <time>2022-02-13T08:46:47Z</time>
      </trkpt>
      <trkpt lat="46.19781" lon="6.59749">
        <ele>1420.6</ele>
        <time>2022-02-13T08:46:48Z</time>
      </trkpt>
      <trkpt lat="46.19782" lon="6.59755">
        <ele>1421.4</ele>
        <time>2022-02-13T08:46:55Z</time>
      </trkpt>
      <trkpt lat="46.19781" lon="6.59759">
        <ele>1422.4</ele>
        <time>2022-02-13T08:47:01Z</time>
      </trkpt>
      <trkpt lat="46.1978" lon="6.5976">
        <ele>1422.6</ele>
        <time>2022-02-13T08:47:02Z</time>
      </trkpt>
      <trkpt lat="46.19778" lon="6.59763">
        <ele>1424</ele>
        <time>2022-02-13T08:47:10Z</time>
      </trkpt>
      <trkpt lat="46.19777" lon="6.59763">
        <ele>1424.2</ele>
        <time>2022-02-13T08:47:12Z</time>
      </trkpt>
      <trkpt lat="46.19777" lon="6.59764">
        <ele>1424.6</ele>
        <time>2022-02-13T08:47:13Z</time>
      </trkpt>
      <trkpt lat="46.19776" lon="6.59764">
        <ele>1424.8</ele>
        <time>2022-02-13T08:47:14Z</time>
      </trkpt>
      <trkpt lat="46.19777" lon="6.59765">
        <ele>1424.8</ele>
        <time>2022-02-13T08:47:15Z</time>
      </trkpt>
      <trkpt lat="46.19777" lon="6.59765">
        <ele>1425</ele>
        <time>2022-02-13T08:47:17Z</time>
      </trkpt>
      <trkpt lat="46.19777" lon="6.59767">
        <ele>1425.4</ele>
        <time>2022-02-13T08:47:21Z</time>
      </trkpt>
      <trkpt lat="46.19777" lon="6.59768">
        <ele>1425.6</ele>
        <time>2022-02-13T08:47:23Z</time>
      </trkpt>
      <trkpt lat="46.19776" lon="6.59769">
        <ele>1425.8</ele>
        <time>2022-02-13T08:47:25Z</time>
      </trkpt>
      <trkpt lat="46.19776" lon="6.5977">
        <ele>1425.8</ele>
        <time>2022-02-13T08:47:26Z</time>
      </trkpt>
      <trkpt lat="46.19776" lon="6.59772">
        <ele>1426.2</ele>
        <time>2022-02-13T08:47:28Z</time>
      </trkpt>
      <trkpt lat="46.19774" lon="6.59778">
        <ele>1426.8</ele>
        <time>2022-02-13T08:47:38Z</time>
      </trkpt>
      <trkpt lat="46.19774" lon="6.59779">
        <ele>1427.2</ele>
        <time>2022-02-13T08:47:40Z</time>
      </trkpt>
      <trkpt lat="46.19775" lon="6.59787">
        <ele>1428.4</ele>
        <time>2022-02-13T08:47:50Z</time>
      </trkpt>
      <trkpt lat="46.19774" lon="6.59789">
        <ele>1428.4</ele>
        <time>2022-02-13T08:47:53Z</time>
      </trkpt>
      <trkpt lat="46.19775" lon="6.59793">
        <ele>1429.4</ele>
        <time>2022-02-13T08:48:01Z</time>
      </trkpt>
      <trkpt lat="46.19774" lon="6.59798">
        <ele>1430.2</ele>
        <time>2022-02-13T08:48:09Z</time>
      </trkpt>
      <trkpt lat="46.19775" lon="6.59798">
        <ele>1430.6</ele>
        <time>2022-02-13T08:48:10Z</time>
      </trkpt>
      <trkpt lat="46.19774" lon="6.59799">
        <ele>1430.8</ele>
        <time>2022-02-13T08:48:12Z</time>
      </trkpt>
      <trkpt lat="46.19775" lon="6.59798">
        <ele>1431.4</ele>
        <time>2022-02-13T08:48:21Z</time>
      </trkpt>
      <trkpt lat="46.19773" lon="6.59799">
        <ele>1431.6</ele>
        <time>2022-02-13T08:48:28Z</time>
      </trkpt>
      <trkpt lat="46.19772" lon="6.59796">
        <ele>1432.4</ele>
        <time>2022-02-13T08:48:33Z</time>
      </trkpt>
      <trkpt lat="46.19772" lon="6.59796">
        <ele>1432.4</ele>
        <time>2022-02-13T08:48:34Z</time>
      </trkpt>
      <trkpt lat="46.19771" lon="6.59794">
        <ele>1432.4</ele>
        <time>2022-02-13T08:48:38Z</time>
      </trkpt>
      <trkpt lat="46.19771" lon="6.59794">
        <ele>1432.6</ele>
        <time>2022-02-13T08:48:39Z</time>
      </trkpt>
      <trkpt lat="46.19769" lon="6.59793">
        <ele>1433</ele>
        <time>2022-02-13T08:48:43Z</time>
      </trkpt>
      <trkpt lat="46.19765" lon="6.59794">
        <ele>1433</ele>
        <time>2022-02-13T08:48:47Z</time>
      </trkpt>
      <trkpt lat="46.19765" lon="6.59793">
        <ele>1433.2</ele>
        <time>2022-02-13T08:48:49Z</time>
      </trkpt>
      <trkpt lat="46.19765" lon="6.59792">
        <ele>1433.4</ele>
        <time>2022-02-13T08:48:51Z</time>
      </trkpt>
      <trkpt lat="46.19764" lon="6.59792">
        <ele>1433.8</ele>
        <time>2022-02-13T08:48:54Z</time>
      </trkpt>
      <trkpt lat="46.19765" lon="6.5979">
        <ele>1433.8</ele>
        <time>2022-02-13T08:49:02Z</time>
      </trkpt>
      <trkpt lat="46.19766" lon="6.5979">
        <ele>1433.8</ele>
        <time>2022-02-13T08:49:03Z</time>
      </trkpt>
      <trkpt lat="46.19766" lon="6.5979">
        <ele>1434</ele>
        <time>2022-02-13T08:49:07Z</time>
      </trkpt>
      <trkpt lat="46.19768" lon="6.59792">
        <ele>1434.8</ele>
        <time>2022-02-13T08:49:14Z</time>
      </trkpt>
      <trkpt lat="46.19768" lon="6.59793">
        <ele>1435.2</ele>
        <time>2022-02-13T08:49:17Z</time>
      </trkpt>
      <trkpt lat="46.19768" lon="6.59794">
        <ele>1435.4</ele>
        <time>2022-02-13T08:49:19Z</time>
      </trkpt>
      <trkpt lat="46.19768" lon="6.59794">
        <ele>1435.4</ele>
        <time>2022-02-13T08:49:20Z</time>
      </trkpt>
      <trkpt lat="46.19765" lon="6.59796">
        <ele>1436</ele>
        <time>2022-02-13T08:49:23Z</time>
      </trkpt>
      <trkpt lat="46.19765" lon="6.59798">
        <ele>1436.6</ele>
        <time>2022-02-13T08:49:27Z</time>
      </trkpt>
      <trkpt lat="46.19765" lon="6.59798">
        <ele>1436.6</ele>
        <time>2022-02-13T08:49:28Z</time>
      </trkpt>
      <trkpt lat="46.19765" lon="6.59801">
        <ele>1437</ele>
        <time>2022-02-13T08:49:33Z</time>
      </trkpt>
      <trkpt lat="46.19764" lon="6.59804">
        <ele>1438.2</ele>
        <time>2022-02-13T08:49:38Z</time>
      </trkpt>
      <trkpt lat="46.19764" lon="6.59807">
        <ele>1438.8</ele>
        <time>2022-02-13T08:49:41Z</time>
      </trkpt>
      <trkpt lat="46.19763" lon="6.59809">
        <ele>1439.4</ele>
        <time>2022-02-13T08:49:43Z</time>
      </trkpt>
      <trkpt lat="46.19765" lon="6.59817">
        <ele>1440.6</ele>
        <time>2022-02-13T08:49:53Z</time>
      </trkpt>
      <trkpt lat="46.19768" lon="6.59819">
        <ele>1441.2</ele>
        <time>2022-02-13T08:49:55Z</time>
      </trkpt>
      <trkpt lat="46.19769" lon="6.59824">
        <ele>1441.6</ele>
        <time>2022-02-13T08:50:00Z</time>
      </trkpt>
      <trkpt lat="46.19769" lon="6.59825">
        <ele>1441.6</ele>
        <time>2022-02-13T08:50:01Z</time>
      </trkpt>
      <trkpt lat="46.1977" lon="6.59829">
        <ele>1442.6</ele>
        <time>2022-02-13T08:50:07Z</time>
      </trkpt>
      <trkpt lat="46.1977" lon="6.59832">
        <ele>1443.8</ele>
        <time>2022-02-13T08:50:12Z</time>
      </trkpt>
      <trkpt lat="46.1977" lon="6.59834">
        <ele>1444.4</ele>
        <time>2022-02-13T08:50:16Z</time>
      </trkpt>
      <trkpt lat="46.1977" lon="6.59834">
        <ele>1444.6</ele>
        <time>2022-02-13T08:50:17Z</time>
      </trkpt>
      <trkpt lat="46.1977" lon="6.59834">
        <ele>1444.8</ele>
        <time>2022-02-13T08:50:18Z</time>
      </trkpt>
      <trkpt lat="46.1977" lon="6.59835">
        <ele>1444.8</ele>
        <time>2022-02-13T08:50:19Z</time>
      </trkpt>
      <trkpt lat="46.1977" lon="6.59836">
        <ele>1444.8</ele>
        <time>2022-02-13T08:50:20Z</time>
      </trkpt>
      <trkpt lat="46.19768" lon="6.59839">
        <ele>1445.4</ele>
        <time>2022-02-13T08:50:26Z</time>
      </trkpt>
      <trkpt lat="46.19767" lon="6.5984">
        <ele>1445.2</ele>
        <time>2022-02-13T08:50:30Z</time>
      </trkpt>
      <trkpt lat="46.19766" lon="6.5984">
        <ele>1445.2</ele>
        <time>2022-02-13T08:50:34Z</time>
      </trkpt>
      <trkpt lat="46.19763" lon="6.59839">
        <ele>1445.2</ele>
        <time>2022-02-13T08:50:43Z</time>
      </trkpt>
      <trkpt lat="46.19763" lon="6.59838">
        <ele>1445.2</ele>
        <time>2022-02-13T08:50:46Z</time>
      </trkpt>
      <trkpt lat="46.19768" lon="6.59839">
        <ele>1445.6</ele>
        <time>2022-02-13T08:50:54Z</time>
      </trkpt>
      <trkpt lat="46.19772" lon="6.59842">
        <ele>1445.6</ele>
        <time>2022-02-13T08:50:58Z</time>
      </trkpt>
      <trkpt lat="46.19772" lon="6.59843">
        <ele>1445.6</ele>
        <time>2022-02-13T08:50:59Z</time>
      </trkpt>
      <trkpt lat="46.19774" lon="6.59846">
        <ele>1445.8</ele>
        <time>2022-02-13T08:51:02Z</time>
      </trkpt>
      <trkpt lat="46.19775" lon="6.5985">
        <ele>1446.6</ele>
        <time>2022-02-13T08:51:07Z</time>
      </trkpt>
      <trkpt lat="46.19775" lon="6.59853">
        <ele>1446.8</ele>
        <time>2022-02-13T08:51:10Z</time>
      </trkpt>
      <trkpt lat="46.19775" lon="6.59854">
        <ele>1447.2</ele>
        <time>2022-02-13T08:51:11Z</time>
      </trkpt>
      <trkpt lat="46.19775" lon="6.59854">
        <ele>1447.4</ele>
        <time>2022-02-13T08:51:12Z</time>
      </trkpt>
      <trkpt lat="46.19775" lon="6.59856">
        <ele>1447.6</ele>
        <time>2022-02-13T08:51:14Z</time>
      </trkpt>
      <trkpt lat="46.19776" lon="6.59859">
        <ele>1448.4</ele>
        <time>2022-02-13T08:51:18Z</time>
      </trkpt>
      <trkpt lat="46.19776" lon="6.5986">
        <ele>1448.6</ele>
        <time>2022-02-13T08:51:19Z</time>
      </trkpt>
      <trkpt lat="46.19777" lon="6.59863">
        <ele>1449</ele>
        <time>2022-02-13T08:51:23Z</time>
      </trkpt>
      <trkpt lat="46.19778" lon="6.59865">
        <ele>1449.2</ele>
        <time>2022-02-13T08:51:26Z</time>
      </trkpt>
      <trkpt lat="46.19778" lon="6.59866">
        <ele>1449.4</ele>
        <time>2022-02-13T08:51:27Z</time>
      </trkpt>
      <trkpt lat="46.19778" lon="6.59867">
        <ele>1449.6</ele>
        <time>2022-02-13T08:51:29Z</time>
      </trkpt>
      <trkpt lat="46.19778" lon="6.59868">
        <ele>1449.8</ele>
        <time>2022-02-13T08:51:30Z</time>
      </trkpt>
      <trkpt lat="46.19778" lon="6.59869">
        <ele>1449.8</ele>
        <time>2022-02-13T08:51:32Z</time>
      </trkpt>
      <trkpt lat="46.19778" lon="6.59871">
        <ele>1450</ele>
        <time>2022-02-13T08:51:34Z</time>
      </trkpt>
      <trkpt lat="46.19778" lon="6.59873">
        <ele>1450.4</ele>
        <time>2022-02-13T08:51:36Z</time>
      </trkpt>
      <trkpt lat="46.19779" lon="6.59876">
        <ele>1451</ele>
        <time>2022-02-13T08:51:39Z</time>
      </trkpt>
      <trkpt lat="46.19779" lon="6.59877">
        <ele>1451.4</ele>
        <time>2022-02-13T08:51:41Z</time>
      </trkpt>
      <trkpt lat="46.1978" lon="6.59878">
        <ele>1451.8</ele>
        <time>2022-02-13T08:51:42Z</time>
      </trkpt>
      <trkpt lat="46.19782" lon="6.59881">
        <ele>1452.4</ele>
        <time>2022-02-13T08:51:47Z</time>
      </trkpt>
      <trkpt lat="46.19782" lon="6.59882">
        <ele>1452.6</ele>
        <time>2022-02-13T08:51:48Z</time>
      </trkpt>
      <trkpt lat="46.19783" lon="6.59885">
        <ele>1453.8</ele>
        <time>2022-02-13T08:51:53Z</time>
      </trkpt>
      <trkpt lat="46.19784" lon="6.59885">
        <ele>1454</ele>
        <time>2022-02-13T08:51:55Z</time>
      </trkpt>
      <trkpt lat="46.19784" lon="6.59886">
        <ele>1454.2</ele>
        <time>2022-02-13T08:51:56Z</time>
      </trkpt>
      <trkpt lat="46.19784" lon="6.59887">
        <ele>1454.8</ele>
        <time>2022-02-13T08:51:58Z</time>
      </trkpt>
      <trkpt lat="46.19786" lon="6.59891">
        <ele>1455.6</ele>
        <time>2022-02-13T08:52:04Z</time>
      </trkpt>
      <trkpt lat="46.19786" lon="6.59892">
        <ele>1455.6</ele>
        <time>2022-02-13T08:52:05Z</time>
      </trkpt>
      <trkpt lat="46.19785" lon="6.59892">
        <ele>1456</ele>
        <time>2022-02-13T08:52:06Z</time>
      </trkpt>
      <trkpt lat="46.19785" lon="6.59895">
        <ele>1456.8</ele>
        <time>2022-02-13T08:52:10Z</time>
      </trkpt>
      <trkpt lat="46.19784" lon="6.59896">
        <ele>1457</ele>
        <time>2022-02-13T08:52:11Z</time>
      </trkpt>
      <trkpt lat="46.19785" lon="6.59898">
        <ele>1457.4</ele>
        <time>2022-02-13T08:52:14Z</time>
      </trkpt>
      <trkpt lat="46.19785" lon="6.599">
        <ele>1458</ele>
        <time>2022-02-13T08:52:19Z</time>
      </trkpt>
      <trkpt lat="46.19786" lon="6.59903">
        <ele>1458.8</ele>
        <time>2022-02-13T08:52:24Z</time>
      </trkpt>
      <trkpt lat="46.19786" lon="6.59903">
        <ele>1459.2</ele>
        <time>2022-02-13T08:52:25Z</time>
      </trkpt>
      <trkpt lat="46.1979" lon="6.59906">
        <ele>1459.8</ele>
        <time>2022-02-13T08:52:32Z</time>
      </trkpt>
      <trkpt lat="46.19791" lon="6.59907">
        <ele>1460</ele>
        <time>2022-02-13T08:52:36Z</time>
      </trkpt>
      <trkpt lat="46.19791" lon="6.59908">
        <ele>1460.2</ele>
        <time>2022-02-13T08:52:40Z</time>
      </trkpt>
      <trkpt lat="46.19791" lon="6.5991">
        <ele>1460.8</ele>
        <time>2022-02-13T08:52:43Z</time>
      </trkpt>
      <trkpt lat="46.19791" lon="6.59912">
        <ele>1461.2</ele>
        <time>2022-02-13T08:52:47Z</time>
      </trkpt>
      <trkpt lat="46.19791" lon="6.59913">
        <ele>1461.6</ele>
        <time>2022-02-13T08:52:49Z</time>
      </trkpt>
      <trkpt lat="46.19792" lon="6.59917">
        <ele>1462.4</ele>
        <time>2022-02-13T08:52:53Z</time>
      </trkpt>
      <trkpt lat="46.19792" lon="6.59921">
        <ele>1463.4</ele>
        <time>2022-02-13T08:53:01Z</time>
      </trkpt>
      <trkpt lat="46.19792" lon="6.59923">
        <ele>1464.4</ele>
        <time>2022-02-13T08:53:13Z</time>
      </trkpt>
      <trkpt lat="46.19792" lon="6.59924">
        <ele>1464.4</ele>
        <time>2022-02-13T08:53:15Z</time>
      </trkpt>
      <trkpt lat="46.19793" lon="6.59929">
        <ele>1465.6</ele>
        <time>2022-02-13T08:53:21Z</time>
      </trkpt>
      <trkpt lat="46.19793" lon="6.59931">
        <ele>1466.2</ele>
        <time>2022-02-13T08:53:24Z</time>
      </trkpt>
      <trkpt lat="46.19793" lon="6.59932">
        <ele>1466.6</ele>
        <time>2022-02-13T08:53:26Z</time>
      </trkpt>
      <trkpt lat="46.19794" lon="6.59935">
        <ele>1467.6</ele>
        <time>2022-02-13T08:53:30Z</time>
      </trkpt>
      <trkpt lat="46.19794" lon="6.59935">
        <ele>1467.6</ele>
        <time>2022-02-13T08:53:31Z</time>
      </trkpt>
      <trkpt lat="46.19794" lon="6.59937">
        <ele>1468.2</ele>
        <time>2022-02-13T08:53:34Z</time>
      </trkpt>
      <trkpt lat="46.19795" lon="6.59938">
        <ele>1468.6</ele>
        <time>2022-02-13T08:53:37Z</time>
      </trkpt>
      <trkpt lat="46.19795" lon="6.5994">
        <ele>1468.8</ele>
        <time>2022-02-13T08:53:38Z</time>
      </trkpt>
      <trkpt lat="46.19795" lon="6.59943">
        <ele>1469.2</ele>
        <time>2022-02-13T08:53:42Z</time>
      </trkpt>
      <trkpt lat="46.19796" lon="6.59947">
        <ele>1470</ele>
        <time>2022-02-13T08:53:47Z</time>
      </trkpt>
      <trkpt lat="46.19795" lon="6.59948">
        <ele>1470.4</ele>
        <time>2022-02-13T08:53:52Z</time>
      </trkpt>
      <trkpt lat="46.19795" lon="6.59948">
        <ele>1471</ele>
        <time>2022-02-13T08:53:55Z</time>
      </trkpt>
      <trkpt lat="46.19795" lon="6.5995">
        <ele>1471</ele>
        <time>2022-02-13T08:54:03Z</time>
      </trkpt>
      <trkpt lat="46.19795" lon="6.59951">
        <ele>1471</ele>
        <time>2022-02-13T08:54:05Z</time>
      </trkpt>
      <trkpt lat="46.19791" lon="6.59952">
        <ele>1472.2</ele>
        <time>2022-02-13T08:54:11Z</time>
      </trkpt>
      <trkpt lat="46.1979" lon="6.59952">
        <ele>1472.4</ele>
        <time>2022-02-13T08:54:12Z</time>
      </trkpt>
      <trkpt lat="46.19789" lon="6.59951">
        <ele>1472.8</ele>
        <time>2022-02-13T08:54:15Z</time>
      </trkpt>
      <trkpt lat="46.19787" lon="6.59949">
        <ele>1473.2</ele>
        <time>2022-02-13T08:54:21Z</time>
      </trkpt>
      <trkpt lat="46.19785" lon="6.59949">
        <ele>1474.2</ele>
        <time>2022-02-13T08:54:26Z</time>
      </trkpt>
      <trkpt lat="46.19783" lon="6.59947">
        <ele>1474.6</ele>
        <time>2022-02-13T08:54:29Z</time>
      </trkpt>
      <trkpt lat="46.19782" lon="6.59947">
        <ele>1475</ele>
        <time>2022-02-13T08:54:32Z</time>
      </trkpt>
      <trkpt lat="46.19782" lon="6.59947">
        <ele>1475.4</ele>
        <time>2022-02-13T08:54:35Z</time>
      </trkpt>
      <trkpt lat="46.19781" lon="6.59947">
        <ele>1475.8</ele>
        <time>2022-02-13T08:54:38Z</time>
      </trkpt>
      <trkpt lat="46.19779" lon="6.59946">
        <ele>1476.2</ele>
        <time>2022-02-13T08:54:42Z</time>
      </trkpt>
      <trkpt lat="46.19778" lon="6.59946">
        <ele>1476.4</ele>
        <time>2022-02-13T08:54:44Z</time>
      </trkpt>
      <trkpt lat="46.19777" lon="6.59946">
        <ele>1477</ele>
        <time>2022-02-13T08:54:50Z</time>
      </trkpt>
      <trkpt lat="46.19775" lon="6.59946">
        <ele>1477.4</ele>
        <time>2022-02-13T08:54:55Z</time>
      </trkpt>
      <trkpt lat="46.19772" lon="6.59946">
        <ele>1478.4</ele>
        <time>2022-02-13T08:55:02Z</time>
      </trkpt>
      <trkpt lat="46.19771" lon="6.59946">
        <ele>1478.8</ele>
        <time>2022-02-13T08:55:05Z</time>
      </trkpt>
      <trkpt lat="46.1977" lon="6.59946">
        <ele>1478.8</ele>
        <time>2022-02-13T08:55:06Z</time>
      </trkpt>
      <trkpt lat="46.1977" lon="6.59946">
        <ele>1479.2</ele>
        <time>2022-02-13T08:55:08Z</time>
      </trkpt>
      <trkpt lat="46.1977" lon="6.59946">
        <ele>1479.4</ele>
        <time>2022-02-13T08:55:10Z</time>
      </trkpt>
      <trkpt lat="46.19769" lon="6.59946">
        <ele>1479.6</ele>
        <time>2022-02-13T08:55:11Z</time>
      </trkpt>
      <trkpt lat="46.19767" lon="6.59944">
        <ele>1480.6</ele>
        <time>2022-02-13T08:55:17Z</time>
      </trkpt>
      <trkpt lat="46.19767" lon="6.59943">
        <ele>1481.2</ele>
        <time>2022-02-13T08:55:21Z</time>
      </trkpt>
      <trkpt lat="46.19766" lon="6.59943">
        <ele>1481.2</ele>
        <time>2022-02-13T08:55:23Z</time>
      </trkpt>
      <trkpt lat="46.19765" lon="6.59942">
        <ele>1480.8</ele>
        <time>2022-02-13T08:55:32Z</time>
      </trkpt>
      <trkpt lat="46.19765" lon="6.59942">
        <ele>1480.6</ele>
        <time>2022-02-13T08:55:34Z</time>
      </trkpt>
      <trkpt lat="46.19764" lon="6.59943">
        <ele>1480.6</ele>
        <time>2022-02-13T08:55:36Z</time>
      </trkpt>
      <trkpt lat="46.19764" lon="6.59943">
        <ele>1480.4</ele>
        <time>2022-02-13T08:55:37Z</time>
      </trkpt>
      <trkpt lat="46.19764" lon="6.59943">
        <ele>1480.4</ele>
        <time>2022-02-13T08:55:38Z</time>
      </trkpt>
      <trkpt lat="46.19765" lon="6.59943">
        <ele>1480.6</ele>
        <time>2022-02-13T08:55:43Z</time>
      </trkpt>
      <trkpt lat="46.19765" lon="6.59943">
        <ele>1480.6</ele>
        <time>2022-02-13T08:55:45Z</time>
      </trkpt>
      <trkpt lat="46.19766" lon="6.59943">
        <ele>1480.8</ele>
        <time>2022-02-13T08:55:48Z</time>
      </trkpt>
      <trkpt lat="46.19768" lon="6.59945">
        <ele>1481</ele>
        <time>2022-02-13T08:55:54Z</time>
      </trkpt>
      <trkpt lat="46.19768" lon="6.59944">
        <ele>1481.2</ele>
        <time>2022-02-13T08:55:57Z</time>
      </trkpt>
      <trkpt lat="46.19769" lon="6.59943">
        <ele>1481.2</ele>
        <time>2022-02-13T08:56:01Z</time>
      </trkpt>
      <trkpt lat="46.1977" lon="6.59945">
        <ele>1481.4</ele>
        <time>2022-02-13T08:56:05Z</time>
      </trkpt>
      <trkpt lat="46.19771" lon="6.59948">
        <ele>1481.6</ele>
        <time>2022-02-13T08:56:08Z</time>
      </trkpt>
      <trkpt lat="46.19773" lon="6.59952">
        <ele>1482.2</ele>
        <time>2022-02-13T08:56:13Z</time>
      </trkpt>
      <trkpt lat="46.19774" lon="6.59953">
        <ele>1482.8</ele>
        <time>2022-02-13T08:56:16Z</time>
      </trkpt>
      <trkpt lat="46.19775" lon="6.59954">
        <ele>1483</ele>
        <time>2022-02-13T08:56:18Z</time>
      </trkpt>
      <trkpt lat="46.19775" lon="6.59958">
        <ele>1483.8</ele>
        <time>2022-02-13T08:56:27Z</time>
      </trkpt>
      <trkpt lat="46.19776" lon="6.59959">
        <ele>1484</ele>
        <time>2022-02-13T08:56:29Z</time>
      </trkpt>
      <trkpt lat="46.19776" lon="6.59961">
        <ele>1484.2</ele>
        <time>2022-02-13T08:56:31Z</time>
      </trkpt>
      <trkpt lat="46.19777" lon="6.59965">
        <ele>1484.8</ele>
        <time>2022-02-13T08:56:36Z</time>
      </trkpt>
      <trkpt lat="46.19777" lon="6.59968">
        <ele>1485</ele>
        <time>2022-02-13T08:56:40Z</time>
      </trkpt>
      <trkpt lat="46.19777" lon="6.59968">
        <ele>1485.2</ele>
        <time>2022-02-13T08:56:41Z</time>
      </trkpt>
      <trkpt lat="46.19777" lon="6.59969">
        <ele>1485.4</ele>
        <time>2022-02-13T08:56:44Z</time>
      </trkpt>
      <trkpt lat="46.19778" lon="6.59971">
        <ele>1485.6</ele>
        <time>2022-02-13T08:56:52Z</time>
      </trkpt>
      <trkpt lat="46.19778" lon="6.59973">
        <ele>1486</ele>
        <time>2022-02-13T08:56:55Z</time>
      </trkpt>
      <trkpt lat="46.19779" lon="6.59974">
        <ele>1486</ele>
        <time>2022-02-13T08:56:57Z</time>
      </trkpt>
      <trkpt lat="46.19778" lon="6.59975">
        <ele>1486.2</ele>
        <time>2022-02-13T08:56:59Z</time>
      </trkpt>
      <trkpt lat="46.19776" lon="6.59975">
        <ele>1487</ele>
        <time>2022-02-13T08:57:03Z</time>
      </trkpt>
      <trkpt lat="46.19775" lon="6.59975">
        <ele>1487.2</ele>
        <time>2022-02-13T08:57:04Z</time>
      </trkpt>
      <trkpt lat="46.19772" lon="6.59974">
        <ele>1487.6</ele>
        <time>2022-02-13T08:57:07Z</time>
      </trkpt>
      <trkpt lat="46.19769" lon="6.59971">
        <ele>1488</ele>
        <time>2022-02-13T08:57:13Z</time>
      </trkpt>
      <trkpt lat="46.19768" lon="6.5997">
        <ele>1488.2</ele>
        <time>2022-02-13T08:57:16Z</time>
      </trkpt>
      <trkpt lat="46.19766" lon="6.59968">
        <ele>1489.2</ele>
        <time>2022-02-13T08:57:21Z</time>
      </trkpt>
      <trkpt lat="46.19763" lon="6.59966">
        <ele>1489.8</ele>
        <time>2022-02-13T08:57:29Z</time>
      </trkpt>
      <trkpt lat="46.19763" lon="6.59966">
        <ele>1490</ele>
        <time>2022-02-13T08:57:30Z</time>
      </trkpt>
      <trkpt lat="46.19762" lon="6.59966">
        <ele>1490</ele>
        <time>2022-02-13T08:57:34Z</time>
      </trkpt>
      <trkpt lat="46.19761" lon="6.59966">
        <ele>1490.2</ele>
        <time>2022-02-13T08:57:36Z</time>
      </trkpt>
      <trkpt lat="46.19759" lon="6.59965">
        <ele>1491.2</ele>
        <time>2022-02-13T08:57:45Z</time>
      </trkpt>
      <trkpt lat="46.19759" lon="6.59965">
        <ele>1491.4</ele>
        <time>2022-02-13T08:57:46Z</time>
      </trkpt>
      <trkpt lat="46.19758" lon="6.59965">
        <ele>1491.6</ele>
        <time>2022-02-13T08:57:49Z</time>
      </trkpt>
      <trkpt lat="46.19759" lon="6.59965">
        <ele>1491.8</ele>
        <time>2022-02-13T08:57:52Z</time>
      </trkpt>
      <trkpt lat="46.19759" lon="6.59965">
        <ele>1492.4</ele>
        <time>2022-02-13T08:57:57Z</time>
      </trkpt>
      <trkpt lat="46.19761" lon="6.59966">
        <ele>1492.6</ele>
        <time>2022-02-13T08:58:02Z</time>
      </trkpt>
      <trkpt lat="46.19762" lon="6.59966">
        <ele>1492.4</ele>
        <time>2022-02-13T08:58:05Z</time>
      </trkpt>
      <trkpt lat="46.19763" lon="6.59968">
        <ele>1492.4</ele>
        <time>2022-02-13T08:58:11Z</time>
      </trkpt>
      <trkpt lat="46.19764" lon="6.5997">
        <ele>1492.6</ele>
        <time>2022-02-13T08:58:14Z</time>
      </trkpt>
      <trkpt lat="46.19765" lon="6.59971">
        <ele>1493.4</ele>
        <time>2022-02-13T08:58:18Z</time>
      </trkpt>
      <trkpt lat="46.19765" lon="6.59972">
        <ele>1493.6</ele>
        <time>2022-02-13T08:58:21Z</time>
      </trkpt>
      <trkpt lat="46.19766" lon="6.59975">
        <ele>1494</ele>
        <time>2022-02-13T08:58:24Z</time>
      </trkpt>
      <trkpt lat="46.19766" lon="6.59978">
        <ele>1494.4</ele>
        <time>2022-02-13T08:58:28Z</time>
      </trkpt>
      <trkpt lat="46.19766" lon="6.5998">
        <ele>1495.2</ele>
        <time>2022-02-13T08:58:31Z</time>
      </trkpt>
      <trkpt lat="46.19766" lon="6.5998">
        <ele>1495.2</ele>
        <time>2022-02-13T08:58:34Z</time>
      </trkpt>
      <trkpt lat="46.19765" lon="6.5998">
        <ele>1495.2</ele>
        <time>2022-02-13T08:58:38Z</time>
      </trkpt>
      <trkpt lat="46.19764" lon="6.59979">
        <ele>1495.4</ele>
        <time>2022-02-13T08:58:42Z</time>
      </trkpt>
      <trkpt lat="46.19764" lon="6.59981">
        <ele>1495.4</ele>
        <time>2022-02-13T08:58:46Z</time>
      </trkpt>
      <trkpt lat="46.19765" lon="6.59982">
        <ele>1495.4</ele>
        <time>2022-02-13T08:58:48Z</time>
      </trkpt>
      <trkpt lat="46.19765" lon="6.59982">
        <ele>1495.6</ele>
        <time>2022-02-13T08:58:49Z</time>
      </trkpt>
      <trkpt lat="46.19766" lon="6.59985">
        <ele>1496.2</ele>
        <time>2022-02-13T08:58:53Z</time>
      </trkpt>
      <trkpt lat="46.19767" lon="6.59989">
        <ele>1496.8</ele>
        <time>2022-02-13T08:58:58Z</time>
      </trkpt>
      <trkpt lat="46.19768" lon="6.59993">
        <ele>1497.4</ele>
        <time>2022-02-13T08:59:04Z</time>
      </trkpt>
      <trkpt lat="46.19768" lon="6.59994">
        <ele>1497.4</ele>
        <time>2022-02-13T08:59:06Z</time>
      </trkpt>
      <trkpt lat="46.19768" lon="6.59995">
        <ele>1497.6</ele>
        <time>2022-02-13T08:59:08Z</time>
      </trkpt>
      <trkpt lat="46.19768" lon="6.59996">
        <ele>1497.6</ele>
        <time>2022-02-13T08:59:09Z</time>
      </trkpt>
      <trkpt lat="46.19768" lon="6.59997">
        <ele>1497.8</ele>
        <time>2022-02-13T08:59:11Z</time>
      </trkpt>
      <trkpt lat="46.19768" lon="6.59997">
        <ele>1498</ele>
        <time>2022-02-13T08:59:12Z</time>
      </trkpt>
      <trkpt lat="46.19768" lon="6.60001">
        <ele>1498.8</ele>
        <time>2022-02-13T08:59:17Z</time>
      </trkpt>
      <trkpt lat="46.19769" lon="6.60003">
        <ele>1499.2</ele>
        <time>2022-02-13T08:59:19Z</time>
      </trkpt>
      <trkpt lat="46.19769" lon="6.60006">
        <ele>1499.4</ele>
        <time>2022-02-13T08:59:23Z</time>
      </trkpt>
      <trkpt lat="46.19769" lon="6.60007">
        <ele>1499.6</ele>
        <time>2022-02-13T08:59:24Z</time>
      </trkpt>
      <trkpt lat="46.1977" lon="6.6001">
        <ele>1500.2</ele>
        <time>2022-02-13T08:59:28Z</time>
      </trkpt>
      <trkpt lat="46.19771" lon="6.60011">
        <ele>1500.4</ele>
        <time>2022-02-13T08:59:29Z</time>
      </trkpt>
      <trkpt lat="46.19774" lon="6.60017">
        <ele>1501.4</ele>
        <time>2022-02-13T08:59:38Z</time>
      </trkpt>
      <trkpt lat="46.19774" lon="6.60019">
        <ele>1501.8</ele>
        <time>2022-02-13T08:59:41Z</time>
      </trkpt>
      <trkpt lat="46.19775" lon="6.60021">
        <ele>1502.4</ele>
        <time>2022-02-13T08:59:44Z</time>
      </trkpt>
      <trkpt lat="46.19776" lon="6.60025">
        <ele>1503.2</ele>
        <time>2022-02-13T08:59:49Z</time>
      </trkpt>
      <trkpt lat="46.19776" lon="6.60026">
        <ele>1503.6</ele>
        <time>2022-02-13T08:59:51Z</time>
      </trkpt>
      <trkpt lat="46.19776" lon="6.60028">
        <ele>1503.8</ele>
        <time>2022-02-13T08:59:53Z</time>
      </trkpt>
      <trkpt lat="46.19778" lon="6.60035">
        <ele>1504.4</ele>
        <time>2022-02-13T09:00:00Z</time>
      </trkpt>
      <trkpt lat="46.19777" lon="6.60037">
        <ele>1504.6</ele>
        <time>2022-02-13T09:00:02Z</time>
      </trkpt>
      <trkpt lat="46.19777" lon="6.60039">
        <ele>1505.6</ele>
        <time>2022-02-13T09:00:07Z</time>
      </trkpt>
      <trkpt lat="46.19777" lon="6.6004">
        <ele>1505.8</ele>
        <time>2022-02-13T09:00:08Z</time>
      </trkpt>
      <trkpt lat="46.19777" lon="6.60045">
        <ele>1506.6</ele>
        <time>2022-02-13T09:00:14Z</time>
      </trkpt>
      <trkpt lat="46.19778" lon="6.60046">
        <ele>1506.8</ele>
        <time>2022-02-13T09:00:15Z</time>
      </trkpt>
      <trkpt lat="46.19779" lon="6.60048">
        <ele>1507</ele>
        <time>2022-02-13T09:00:17Z</time>
      </trkpt>
      <trkpt lat="46.19779" lon="6.6005">
        <ele>1507.2</ele>
        <time>2022-02-13T09:00:19Z</time>
      </trkpt>
      <trkpt lat="46.19781" lon="6.60058">
        <ele>1508</ele>
        <time>2022-02-13T09:00:27Z</time>
      </trkpt>
      <trkpt lat="46.19782" lon="6.60063">
        <ele>1508.6</ele>
        <time>2022-02-13T09:00:31Z</time>
      </trkpt>
      <trkpt lat="46.19783" lon="6.60064">
        <ele>1508.4</ele>
        <time>2022-02-13T09:00:32Z</time>
      </trkpt>
      <trkpt lat="46.19783" lon="6.60065">
        <ele>1508.4</ele>
        <time>2022-02-13T09:00:33Z</time>
      </trkpt>
      <trkpt lat="46.19784" lon="6.60066">
        <ele>1508.4</ele>
        <time>2022-02-13T09:00:35Z</time>
      </trkpt>
      <trkpt lat="46.19784" lon="6.60067">
        <ele>1508.4</ele>
        <time>2022-02-13T09:00:36Z</time>
      </trkpt>
      <trkpt lat="46.19785" lon="6.60069">
        <ele>1509</ele>
        <time>2022-02-13T09:00:38Z</time>
      </trkpt>
      <trkpt lat="46.19786" lon="6.60072">
        <ele>1509.4</ele>
        <time>2022-02-13T09:00:42Z</time>
      </trkpt>
      <trkpt lat="46.19788" lon="6.60075">
        <ele>1509.8</ele>
        <time>2022-02-13T09:00:47Z</time>
      </trkpt>
      <trkpt lat="46.19788" lon="6.60077">
        <ele>1510</ele>
        <time>2022-02-13T09:00:49Z</time>
      </trkpt>
      <trkpt lat="46.19789" lon="6.60083">
        <ele>1511.2</ele>
        <time>2022-02-13T09:00:57Z</time>
      </trkpt>
      <trkpt lat="46.1979" lon="6.60086">
        <ele>1511.4</ele>
        <time>2022-02-13T09:01:00Z</time>
      </trkpt>
      <trkpt lat="46.1979" lon="6.60093">
        <ele>1512.2</ele>
        <time>2022-02-13T09:01:07Z</time>
      </trkpt>
      <trkpt lat="46.19789" lon="6.60099">
        <ele>1513.4</ele>
        <time>2022-02-13T09:01:13Z</time>
      </trkpt>
      <trkpt lat="46.19787" lon="6.60101">
        <ele>1513.6</ele>
        <time>2022-02-13T09:01:15Z</time>
      </trkpt>
      <trkpt lat="46.19787" lon="6.60101">
        <ele>1513.6</ele>
        <time>2022-02-13T09:01:16Z</time>
      </trkpt>
      <trkpt lat="46.19786" lon="6.60106">
        <ele>1514.4</ele>
        <time>2022-02-13T09:01:23Z</time>
      </trkpt>
      <trkpt lat="46.19786" lon="6.60111">
        <ele>1514.4</ele>
        <time>2022-02-13T09:01:28Z</time>
      </trkpt>
      <trkpt lat="46.19786" lon="6.60111">
        <ele>1514.6</ele>
        <time>2022-02-13T09:01:29Z</time>
      </trkpt>
      <trkpt lat="46.19788" lon="6.60114">
        <ele>1514.8</ele>
        <time>2022-02-13T09:01:32Z</time>
      </trkpt>
      <trkpt lat="46.19791" lon="6.60121">
        <ele>1515.6</ele>
        <time>2022-02-13T09:01:39Z</time>
      </trkpt>
      <trkpt lat="46.19793" lon="6.60124">
        <ele>1515.8</ele>
        <time>2022-02-13T09:01:42Z</time>
      </trkpt>
      <trkpt lat="46.19794" lon="6.60127">
        <ele>1516</ele>
        <time>2022-02-13T09:01:45Z</time>
      </trkpt>
      <trkpt lat="46.19795" lon="6.6013">
        <ele>1516.2</ele>
        <time>2022-02-13T09:01:48Z</time>
      </trkpt>
      <trkpt lat="46.19795" lon="6.60132">
        <ele>1516.4</ele>
        <time>2022-02-13T09:01:50Z</time>
      </trkpt>
      <trkpt lat="46.19796" lon="6.60134">
        <ele>1516.4</ele>
        <time>2022-02-13T09:01:52Z</time>
      </trkpt>
      <trkpt lat="46.19796" lon="6.60135">
        <ele>1516.4</ele>
        <time>2022-02-13T09:01:54Z</time>
      </trkpt>
      <trkpt lat="46.19796" lon="6.60136">
        <ele>1516.2</ele>
        <time>2022-02-13T09:01:55Z</time>
      </trkpt>
      <trkpt lat="46.19796" lon="6.60141">
        <ele>1516.2</ele>
        <time>2022-02-13T09:02:08Z</time>
      </trkpt>
      <trkpt lat="46.19796" lon="6.60144">
        <ele>1516</ele>
        <time>2022-02-13T09:02:12Z</time>
      </trkpt>
      <trkpt lat="46.19797" lon="6.60147">
        <ele>1515.8</ele>
        <time>2022-02-13T09:02:16Z</time>
      </trkpt>
      <trkpt lat="46.19799" lon="6.60148">
        <ele>1516</ele>
        <time>2022-02-13T09:02:23Z</time>
      </trkpt>
      <trkpt lat="46.198" lon="6.60156">
        <ele>1516.2</ele>
        <time>2022-02-13T09:02:35Z</time>
      </trkpt>
      <trkpt lat="46.19799" lon="6.60161">
        <ele>1515.8</ele>
        <time>2022-02-13T09:02:39Z</time>
      </trkpt>
      <trkpt lat="46.19799" lon="6.60164">
        <ele>1515.6</ele>
        <time>2022-02-13T09:02:41Z</time>
      </trkpt>
      <trkpt lat="46.198" lon="6.6017">
        <ele>1515.6</ele>
        <time>2022-02-13T09:02:45Z</time>
      </trkpt>
      <trkpt lat="46.19806" lon="6.60187">
        <ele>1515.2</ele>
        <time>2022-02-13T09:02:55Z</time>
      </trkpt>
      <trkpt lat="46.19808" lon="6.60193">
        <ele>1515.6</ele>
        <time>2022-02-13T09:03:01Z</time>
      </trkpt>
      <trkpt lat="46.19808" lon="6.60194">
        <ele>1515.8</ele>
        <time>2022-02-13T09:03:02Z</time>
      </trkpt>
      <trkpt lat="46.1981" lon="6.60198">
        <ele>1516.2</ele>
        <time>2022-02-13T09:03:07Z</time>
      </trkpt>
      <trkpt lat="46.1981" lon="6.60198">
        <ele>1516.2</ele>
        <time>2022-02-13T09:03:08Z</time>
      </trkpt>
      <trkpt lat="46.19804" lon="6.60199">
        <ele>1516</ele>
        <time>2022-02-13T09:03:16Z</time>
      </trkpt>
      <trkpt lat="46.19802" lon="6.602">
        <ele>1516.6</ele>
        <time>2022-02-13T09:03:20Z</time>
      </trkpt>
      <trkpt lat="46.19802" lon="6.60201">
        <ele>1516.4</ele>
        <time>2022-02-13T09:03:26Z</time>
      </trkpt>
      <trkpt lat="46.19803" lon="6.60202">
        <ele>1516</ele>
        <time>2022-02-13T09:03:32Z</time>
      </trkpt>
      <trkpt lat="46.19803" lon="6.60202">
        <ele>1516</ele>
        <time>2022-02-13T09:03:33Z</time>
      </trkpt>
      <trkpt lat="46.19803" lon="6.60202">
        <ele>1516</ele>
        <time>2022-02-13T09:03:34Z</time>
      </trkpt>
      <trkpt lat="46.19804" lon="6.60202">
        <ele>1516</ele>
        <time>2022-02-13T09:03:35Z</time>
      </trkpt>
      <trkpt lat="46.19812" lon="6.60206">
        <ele>1516.6</ele>
        <time>2022-02-13T09:03:42Z</time>
      </trkpt>
      <trkpt lat="46.19813" lon="6.60208">
        <ele>1516.6</ele>
        <time>2022-02-13T09:03:44Z</time>
      </trkpt>
      <trkpt lat="46.19813" lon="6.60212">
        <ele>1516.6</ele>
        <time>2022-02-13T09:03:47Z</time>
      </trkpt>
      <trkpt lat="46.19813" lon="6.60217">
        <ele>1516.8</ele>
        <time>2022-02-13T09:03:50Z</time>
      </trkpt>
      <trkpt lat="46.19814" lon="6.6022">
        <ele>1517</ele>
        <time>2022-02-13T09:03:53Z</time>
      </trkpt>
      <trkpt lat="46.19813" lon="6.60221">
        <ele>1517.2</ele>
        <time>2022-02-13T09:03:54Z</time>
      </trkpt>
      <trkpt lat="46.19812" lon="6.60225">
        <ele>1517.2</ele>
        <time>2022-02-13T09:03:57Z</time>
      </trkpt>
      <trkpt lat="46.19813" lon="6.6023">
        <ele>1517.4</ele>
        <time>2022-02-13T09:04:01Z</time>
      </trkpt>
      <trkpt lat="46.19813" lon="6.60232">
        <ele>1517.8</ele>
        <time>2022-02-13T09:04:02Z</time>
      </trkpt>
      <trkpt lat="46.19816" lon="6.60238">
        <ele>1518</ele>
        <time>2022-02-13T09:04:07Z</time>
      </trkpt>
      <trkpt lat="46.19816" lon="6.60239">
        <ele>1518.2</ele>
        <time>2022-02-13T09:04:08Z</time>
      </trkpt>
      <trkpt lat="46.19817" lon="6.60242">
        <ele>1518.4</ele>
        <time>2022-02-13T09:04:10Z</time>
      </trkpt>
      <trkpt lat="46.19816" lon="6.60246">
        <ele>1518.8</ele>
        <time>2022-02-13T09:04:13Z</time>
      </trkpt>
      <trkpt lat="46.19816" lon="6.60247">
        <ele>1519</ele>
        <time>2022-02-13T09:04:14Z</time>
      </trkpt>
      <trkpt lat="46.19815" lon="6.60248">
        <ele>1519.2</ele>
        <time>2022-02-13T09:04:15Z</time>
      </trkpt>
      <trkpt lat="46.19811" lon="6.60255">
        <ele>1519.4</ele>
        <time>2022-02-13T09:04:19Z</time>
      </trkpt>
      <trkpt lat="46.19809" lon="6.60257">
        <ele>1519.4</ele>
        <time>2022-02-13T09:04:20Z</time>
      </trkpt>
      <trkpt lat="46.1981" lon="6.60264">
        <ele>1519.8</ele>
        <time>2022-02-13T09:04:25Z</time>
      </trkpt>
      <trkpt lat="46.19811" lon="6.60265">
        <ele>1519.8</ele>
        <time>2022-02-13T09:04:26Z</time>
      </trkpt>
      <trkpt lat="46.19811" lon="6.60265">
        <ele>1520</ele>
        <time>2022-02-13T09:04:27Z</time>
      </trkpt>
      <trkpt lat="46.19813" lon="6.60271">
        <ele>1520.8</ele>
        <time>2022-02-13T09:04:33Z</time>
      </trkpt>
      <trkpt lat="46.19813" lon="6.60272">
        <ele>1521</ele>
        <time>2022-02-13T09:04:34Z</time>
      </trkpt>
      <trkpt lat="46.19817" lon="6.60279">
        <ele>1521.6</ele>
        <time>2022-02-13T09:04:40Z</time>
      </trkpt>
      <trkpt lat="46.19817" lon="6.60284">
        <ele>1521.8</ele>
        <time>2022-02-13T09:04:44Z</time>
      </trkpt>
      <trkpt lat="46.19818" lon="6.60287">
        <ele>1521.8</ele>
        <time>2022-02-13T09:04:46Z</time>
      </trkpt>
      <trkpt lat="46.19817" lon="6.60293">
        <ele>1522.2</ele>
        <time>2022-02-13T09:04:51Z</time>
      </trkpt>
      <trkpt lat="46.19817" lon="6.60296">
        <ele>1522.4</ele>
        <time>2022-02-13T09:04:53Z</time>
      </trkpt>
      <trkpt lat="46.19819" lon="6.60299">
        <ele>1522.8</ele>
        <time>2022-02-13T09:04:56Z</time>
      </trkpt>
      <trkpt lat="46.19822" lon="6.60303">
        <ele>1522.8</ele>
        <time>2022-02-13T09:05:00Z</time>
      </trkpt>
      <trkpt lat="46.19823" lon="6.60304">
        <ele>1523</ele>
        <time>2022-02-13T09:05:01Z</time>
      </trkpt>
      <trkpt lat="46.19825" lon="6.60306">
        <ele>1523.2</ele>
        <time>2022-02-13T09:05:05Z</time>
      </trkpt>
      <trkpt lat="46.19825" lon="6.60307">
        <ele>1523.6</ele>
        <time>2022-02-13T09:05:06Z</time>
      </trkpt>
      <trkpt lat="46.19826" lon="6.60308">
        <ele>1524</ele>
        <time>2022-02-13T09:05:08Z</time>
      </trkpt>
      <trkpt lat="46.19827" lon="6.60309">
        <ele>1524.2</ele>
        <time>2022-02-13T09:05:09Z</time>
      </trkpt>
      <trkpt lat="46.19831" lon="6.60312">
        <ele>1524.6</ele>
        <time>2022-02-13T09:05:14Z</time>
      </trkpt>
      <trkpt lat="46.19836" lon="6.60315">
        <ele>1524.4</ele>
        <time>2022-02-13T09:05:20Z</time>
      </trkpt>
      <trkpt lat="46.19835" lon="6.60315">
        <ele>1524.6</ele>
        <time>2022-02-13T09:05:24Z</time>
      </trkpt>
      <trkpt lat="46.19833" lon="6.60317">
        <ele>1524.8</ele>
        <time>2022-02-13T09:05:27Z</time>
      </trkpt>
      <trkpt lat="46.19834" lon="6.6032">
        <ele>1525.2</ele>
        <time>2022-02-13T09:05:30Z</time>
      </trkpt>
      <trkpt lat="46.19836" lon="6.60324">
        <ele>1525.4</ele>
        <time>2022-02-13T09:05:34Z</time>
      </trkpt>
      <trkpt lat="46.19836" lon="6.60327">
        <ele>1525.8</ele>
        <time>2022-02-13T09:05:38Z</time>
      </trkpt>
      <trkpt lat="46.19836" lon="6.6033">
        <ele>1526</ele>
        <time>2022-02-13T09:05:41Z</time>
      </trkpt>
      <trkpt lat="46.19835" lon="6.60331">
        <ele>1526.2</ele>
        <time>2022-02-13T09:05:42Z</time>
      </trkpt>
      <trkpt lat="46.19834" lon="6.60334">
        <ele>1526.6</ele>
        <time>2022-02-13T09:05:45Z</time>
      </trkpt>
      <trkpt lat="46.19834" lon="6.60336">
        <ele>1526.8</ele>
        <time>2022-02-13T09:05:47Z</time>
      </trkpt>
      <trkpt lat="46.19834" lon="6.60339">
        <ele>1527.2</ele>
        <time>2022-02-13T09:05:49Z</time>
      </trkpt>
      <trkpt lat="46.19834" lon="6.6034">
        <ele>1527.2</ele>
        <time>2022-02-13T09:05:50Z</time>
      </trkpt>
      <trkpt lat="46.19836" lon="6.60347">
        <ele>1527.6</ele>
        <time>2022-02-13T09:05:56Z</time>
      </trkpt>
      <trkpt lat="46.19835" lon="6.60354">
        <ele>1528</ele>
        <time>2022-02-13T09:06:02Z</time>
      </trkpt>
      <trkpt lat="46.19835" lon="6.60355">
        <ele>1528</ele>
        <time>2022-02-13T09:06:03Z</time>
      </trkpt>
      <trkpt lat="46.19835" lon="6.60362">
        <ele>1528.2</ele>
        <time>2022-02-13T09:06:08Z</time>
      </trkpt>
      <trkpt lat="46.19836" lon="6.60364">
        <ele>1528.4</ele>
        <time>2022-02-13T09:06:10Z</time>
      </trkpt>
      <trkpt lat="46.19836" lon="6.60371">
        <ele>1528.6</ele>
        <time>2022-02-13T09:06:17Z</time>
      </trkpt>
      <trkpt lat="46.19839" lon="6.60377">
        <ele>1529</ele>
        <time>2022-02-13T09:06:23Z</time>
      </trkpt>
      <trkpt lat="46.19841" lon="6.60379">
        <ele>1529.2</ele>
        <time>2022-02-13T09:06:25Z</time>
      </trkpt>
      <trkpt lat="46.19844" lon="6.60384">
        <ele>1529.2</ele>
        <time>2022-02-13T09:06:29Z</time>
      </trkpt>
      <trkpt lat="46.19846" lon="6.60388">
        <ele>1529.4</ele>
        <time>2022-02-13T09:06:33Z</time>
      </trkpt>
      <trkpt lat="46.19849" lon="6.60393">
        <ele>1529.6</ele>
        <time>2022-02-13T09:06:38Z</time>
      </trkpt>
      <trkpt lat="46.19849" lon="6.60396">
        <ele>1529.4</ele>
        <time>2022-02-13T09:06:40Z</time>
      </trkpt>
      <trkpt lat="46.19849" lon="6.604">
        <ele>1529.4</ele>
        <time>2022-02-13T09:06:43Z</time>
      </trkpt>
      <trkpt lat="46.19849" lon="6.60401">
        <ele>1529.4</ele>
        <time>2022-02-13T09:06:44Z</time>
      </trkpt>
      <trkpt lat="46.19848" lon="6.60404">
        <ele>1530.2</ele>
        <time>2022-02-13T09:06:51Z</time>
      </trkpt>
      <trkpt lat="46.19846" lon="6.60407">
        <ele>1530.4</ele>
        <time>2022-02-13T09:06:54Z</time>
      </trkpt>
      <trkpt lat="46.19844" lon="6.60412">
        <ele>1530.8</ele>
        <time>2022-02-13T09:06:58Z</time>
      </trkpt>
      <trkpt lat="46.19843" lon="6.60413">
        <ele>1531.2</ele>
        <time>2022-02-13T09:07:00Z</time>
      </trkpt>
      <trkpt lat="46.19843" lon="6.60414">
        <ele>1531.4</ele>
        <time>2022-02-13T09:07:01Z</time>
      </trkpt>
      <trkpt lat="46.19845" lon="6.60419">
        <ele>1531.4</ele>
        <time>2022-02-13T09:07:06Z</time>
      </trkpt>
      <trkpt lat="46.19846" lon="6.60424">
        <ele>1532.2</ele>
        <time>2022-02-13T09:07:11Z</time>
      </trkpt>
      <trkpt lat="46.19848" lon="6.60425">
        <ele>1532.2</ele>
        <time>2022-02-13T09:07:12Z</time>
      </trkpt>
      <trkpt lat="46.19847" lon="6.60426">
        <ele>1532.4</ele>
        <time>2022-02-13T09:07:13Z</time>
      </trkpt>
      <trkpt lat="46.19848" lon="6.6043">
        <ele>1532.8</ele>
        <time>2022-02-13T09:07:17Z</time>
      </trkpt>
      <trkpt lat="46.19851" lon="6.60437">
        <ele>1533.6</ele>
        <time>2022-02-13T09:07:25Z</time>
      </trkpt>
      <trkpt lat="46.19852" lon="6.60443">
        <ele>1534.2</ele>
        <time>2022-02-13T09:07:31Z</time>
      </trkpt>
      <trkpt lat="46.19851" lon="6.60444">
        <ele>1534.4</ele>
        <time>2022-02-13T09:07:32Z</time>
      </trkpt>
      <trkpt lat="46.1985" lon="6.60445">
        <ele>1534.4</ele>
        <time>2022-02-13T09:07:33Z</time>
      </trkpt>
      <trkpt lat="46.19849" lon="6.60447">
        <ele>1534.6</ele>
        <time>2022-02-13T09:07:35Z</time>
      </trkpt>
      <trkpt lat="46.19847" lon="6.60451">
        <ele>1535</ele>
        <time>2022-02-13T09:07:39Z</time>
      </trkpt>
      <trkpt lat="46.19846" lon="6.60454">
        <ele>1535.6</ele>
        <time>2022-02-13T09:07:42Z</time>
      </trkpt>
      <trkpt lat="46.19845" lon="6.60458">
        <ele>1536</ele>
        <time>2022-02-13T09:07:45Z</time>
      </trkpt>
      <trkpt lat="46.19843" lon="6.60461">
        <ele>1536.6</ele>
        <time>2022-02-13T09:07:48Z</time>
      </trkpt>
      <trkpt lat="46.19843" lon="6.60462">
        <ele>1536.8</ele>
        <time>2022-02-13T09:07:50Z</time>
      </trkpt>
      <trkpt lat="46.19842" lon="6.60467">
        <ele>1537.4</ele>
        <time>2022-02-13T09:07:54Z</time>
      </trkpt>
      <trkpt lat="46.1984" lon="6.60471">
        <ele>1538</ele>
        <time>2022-02-13T09:07:58Z</time>
      </trkpt>
      <trkpt lat="46.1984" lon="6.60473">
        <ele>1538</ele>
        <time>2022-02-13T09:08:00Z</time>
      </trkpt>
      <trkpt lat="46.1984" lon="6.60474">
        <ele>1538</ele>
        <time>2022-02-13T09:08:01Z</time>
      </trkpt>
      <trkpt lat="46.1984" lon="6.60476">
        <ele>1538.2</ele>
        <time>2022-02-13T09:08:02Z</time>
      </trkpt>
      <trkpt lat="46.19839" lon="6.60479">
        <ele>1538.6</ele>
        <time>2022-02-13T09:08:05Z</time>
      </trkpt>
      <trkpt lat="46.19838" lon="6.60481">
        <ele>1539</ele>
        <time>2022-02-13T09:08:08Z</time>
      </trkpt>
      <trkpt lat="46.19837" lon="6.60481">
        <ele>1539.2</ele>
        <time>2022-02-13T09:08:09Z</time>
      </trkpt>
      <trkpt lat="46.19836" lon="6.60487">
        <ele>1539.6</ele>
        <time>2022-02-13T09:08:15Z</time>
      </trkpt>
      <trkpt lat="46.19836" lon="6.60489">
        <ele>1540</ele>
        <time>2022-02-13T09:08:18Z</time>
      </trkpt>
      <trkpt lat="46.19835" lon="6.6049">
        <ele>1540.2</ele>
        <time>2022-02-13T09:08:20Z</time>
      </trkpt>
      <trkpt lat="46.19835" lon="6.60492">
        <ele>1540.6</ele>
        <time>2022-02-13T09:08:22Z</time>
      </trkpt>
      <trkpt lat="46.19836" lon="6.60495">
        <ele>1541.2</ele>
        <time>2022-02-13T09:08:26Z</time>
      </trkpt>
      <trkpt lat="46.19838" lon="6.60497">
        <ele>1541.6</ele>
        <time>2022-02-13T09:08:29Z</time>
      </trkpt>
      <trkpt lat="46.19838" lon="6.60498">
        <ele>1541.8</ele>
        <time>2022-02-13T09:08:31Z</time>
      </trkpt>
      <trkpt lat="46.19839" lon="6.605">
        <ele>1542.2</ele>
        <time>2022-02-13T09:08:35Z</time>
      </trkpt>
      <trkpt lat="46.1984" lon="6.60501">
        <ele>1542.2</ele>
        <time>2022-02-13T09:08:36Z</time>
      </trkpt>
      <trkpt lat="46.19843" lon="6.60506">
        <ele>1543.2</ele>
        <time>2022-02-13T09:08:44Z</time>
      </trkpt>
      <trkpt lat="46.19844" lon="6.60507">
        <ele>1543.4</ele>
        <time>2022-02-13T09:08:45Z</time>
      </trkpt>
      <trkpt lat="46.19848" lon="6.60512">
        <ele>1544.2</ele>
        <time>2022-02-13T09:08:53Z</time>
      </trkpt>
      <trkpt lat="46.19849" lon="6.60513">
        <ele>1544.4</ele>
        <time>2022-02-13T09:08:54Z</time>
      </trkpt>
      <trkpt lat="46.1985" lon="6.60515">
        <ele>1544.8</ele>
        <time>2022-02-13T09:08:57Z</time>
      </trkpt>
      <trkpt lat="46.1985" lon="6.60515">
        <ele>1545</ele>
        <time>2022-02-13T09:08:58Z</time>
      </trkpt>
      <trkpt lat="46.19851" lon="6.60517">
        <ele>1545.4</ele>
        <time>2022-02-13T09:09:01Z</time>
      </trkpt>
      <trkpt lat="46.19852" lon="6.60517">
        <ele>1545.6</ele>
        <time>2022-02-13T09:09:02Z</time>
      </trkpt>
      <trkpt lat="46.19852" lon="6.60518">
        <ele>1546</ele>
        <time>2022-02-13T09:09:04Z</time>
      </trkpt>
      <trkpt lat="46.19854" lon="6.60521">
        <ele>1546.8</ele>
        <time>2022-02-13T09:09:10Z</time>
      </trkpt>
      <trkpt lat="46.19855" lon="6.60521">
        <ele>1547</ele>
        <time>2022-02-13T09:09:11Z</time>
      </trkpt>
      <trkpt lat="46.19858" lon="6.60527">
        <ele>1547.6</ele>
        <time>2022-02-13T09:09:17Z</time>
      </trkpt>
      <trkpt lat="46.19859" lon="6.60528">
        <ele>1548</ele>
        <time>2022-02-13T09:09:18Z</time>
      </trkpt>
      <trkpt lat="46.1986" lon="6.60532">
        <ele>1548.8</ele>
        <time>2022-02-13T09:09:23Z</time>
      </trkpt>
      <trkpt lat="46.1986" lon="6.60533">
        <ele>1549.2</ele>
        <time>2022-02-13T09:09:26Z</time>
      </trkpt>
      <trkpt lat="46.19864" lon="6.60536">
        <ele>1550.2</ele>
        <time>2022-02-13T09:09:33Z</time>
      </trkpt>
      <trkpt lat="46.19864" lon="6.60537">
        <ele>1550.6</ele>
        <time>2022-02-13T09:09:35Z</time>
      </trkpt>
      <trkpt lat="46.19866" lon="6.60541">
        <ele>1551.4</ele>
        <time>2022-02-13T09:09:40Z</time>
      </trkpt>
      <trkpt lat="46.19868" lon="6.60546">
        <ele>1552.2</ele>
        <time>2022-02-13T09:09:47Z</time>
      </trkpt>
      <trkpt lat="46.19869" lon="6.60547">
        <ele>1552.4</ele>
        <time>2022-02-13T09:09:48Z</time>
      </trkpt>
      <trkpt lat="46.19869" lon="6.60547">
        <ele>1552.4</ele>
        <time>2022-02-13T09:09:49Z</time>
      </trkpt>
      <trkpt lat="46.1987" lon="6.60549">
        <ele>1552.8</ele>
        <time>2022-02-13T09:09:51Z</time>
      </trkpt>
      <trkpt lat="46.1987" lon="6.60551">
        <ele>1553.6</ele>
        <time>2022-02-13T09:09:54Z</time>
      </trkpt>
      <trkpt lat="46.19869" lon="6.6056">
        <ele>1554.4</ele>
        <time>2022-02-13T09:10:03Z</time>
      </trkpt>
      <trkpt lat="46.1987" lon="6.60561">
        <ele>1554.4</ele>
        <time>2022-02-13T09:10:04Z</time>
      </trkpt>
      <trkpt lat="46.1987" lon="6.60564">
        <ele>1554.6</ele>
        <time>2022-02-13T09:10:06Z</time>
      </trkpt>
      <trkpt lat="46.1987" lon="6.60572">
        <ele>1555.2</ele>
        <time>2022-02-13T09:10:13Z</time>
      </trkpt>
      <trkpt lat="46.19871" lon="6.60575">
        <ele>1555</ele>
        <time>2022-02-13T09:10:16Z</time>
      </trkpt>
      <trkpt lat="46.19871" lon="6.60578">
        <ele>1555.2</ele>
        <time>2022-02-13T09:10:19Z</time>
      </trkpt>
      <trkpt lat="46.19871" lon="6.6058">
        <ele>1555.4</ele>
        <time>2022-02-13T09:10:22Z</time>
      </trkpt>
      <trkpt lat="46.19871" lon="6.60581">
        <ele>1555.6</ele>
        <time>2022-02-13T09:10:24Z</time>
      </trkpt>
      <trkpt lat="46.19872" lon="6.60582">
        <ele>1555.6</ele>
        <time>2022-02-13T09:10:25Z</time>
      </trkpt>
      <trkpt lat="46.19872" lon="6.60583">
        <ele>1556</ele>
        <time>2022-02-13T09:10:27Z</time>
      </trkpt>
      <trkpt lat="46.19872" lon="6.60584">
        <ele>1556.2</ele>
        <time>2022-02-13T09:10:28Z</time>
      </trkpt>
      <trkpt lat="46.19871" lon="6.60585">
        <ele>1556.2</ele>
        <time>2022-02-13T09:10:29Z</time>
      </trkpt>
      <trkpt lat="46.19871" lon="6.60588">
        <ele>1556.4</ele>
        <time>2022-02-13T09:10:32Z</time>
      </trkpt>
      <trkpt lat="46.19871" lon="6.60589">
        <ele>1556.6</ele>
        <time>2022-02-13T09:10:33Z</time>
      </trkpt>
      <trkpt lat="46.19871" lon="6.6059">
        <ele>1556.8</ele>
        <time>2022-02-13T09:10:34Z</time>
      </trkpt>
      <trkpt lat="46.1987" lon="6.60593">
        <ele>1557.4</ele>
        <time>2022-02-13T09:10:39Z</time>
      </trkpt>
      <trkpt lat="46.19871" lon="6.60594">
        <ele>1558</ele>
        <time>2022-02-13T09:10:41Z</time>
      </trkpt>
      <trkpt lat="46.19872" lon="6.60596">
        <ele>1558.6</ele>
        <time>2022-02-13T09:10:44Z</time>
      </trkpt>
      <trkpt lat="46.1987" lon="6.606">
        <ele>1559</ele>
        <time>2022-02-13T09:10:48Z</time>
      </trkpt>
      <trkpt lat="46.19867" lon="6.60605">
        <ele>1559.8</ele>
        <time>2022-02-13T09:10:55Z</time>
      </trkpt>
      <trkpt lat="46.19866" lon="6.60607">
        <ele>1559.8</ele>
        <time>2022-02-13T09:10:57Z</time>
      </trkpt>
      <trkpt lat="46.19865" lon="6.60611">
        <ele>1559.8</ele>
        <time>2022-02-13T09:11:01Z</time>
      </trkpt>
      <trkpt lat="46.19865" lon="6.60613">
        <ele>1560</ele>
        <time>2022-02-13T09:11:03Z</time>
      </trkpt>
      <trkpt lat="46.19865" lon="6.60614">
        <ele>1560.4</ele>
        <time>2022-02-13T09:11:05Z</time>
      </trkpt>
      <trkpt lat="46.19865" lon="6.60616">
        <ele>1560.6</ele>
        <time>2022-02-13T09:11:07Z</time>
      </trkpt>
      <trkpt lat="46.19864" lon="6.60618">
        <ele>1561</ele>
        <time>2022-02-13T09:11:09Z</time>
      </trkpt>
      <trkpt lat="46.19864" lon="6.60619">
        <ele>1561.2</ele>
        <time>2022-02-13T09:11:10Z</time>
      </trkpt>
      <trkpt lat="46.19864" lon="6.6062">
        <ele>1561.4</ele>
        <time>2022-02-13T09:11:11Z</time>
      </trkpt>
      <trkpt lat="46.19863" lon="6.6062">
        <ele>1561.4</ele>
        <time>2022-02-13T09:11:12Z</time>
      </trkpt>
      <trkpt lat="46.19862" lon="6.60623">
        <ele>1562.2</ele>
        <time>2022-02-13T09:11:16Z</time>
      </trkpt>
      <trkpt lat="46.19861" lon="6.60624">
        <ele>1562.6</ele>
        <time>2022-02-13T09:11:18Z</time>
      </trkpt>
      <trkpt lat="46.19861" lon="6.60627">
        <ele>1563.4</ele>
        <time>2022-02-13T09:11:24Z</time>
      </trkpt>
      <trkpt lat="46.19861" lon="6.60627">
        <ele>1563.6</ele>
        <time>2022-02-13T09:11:25Z</time>
      </trkpt>
      <trkpt lat="46.19859" lon="6.60633">
        <ele>1564.8</ele>
        <time>2022-02-13T09:11:35Z</time>
      </trkpt>
      <trkpt lat="46.19858" lon="6.60634">
        <ele>1565.2</ele>
        <time>2022-02-13T09:11:37Z</time>
      </trkpt>
      <trkpt lat="46.19859" lon="6.60634">
        <ele>1565.4</ele>
        <time>2022-02-13T09:11:41Z</time>
      </trkpt>
      <trkpt lat="46.1986" lon="6.60635">
        <ele>1566.2</ele>
        <time>2022-02-13T09:11:45Z</time>
      </trkpt>
      <trkpt lat="46.19861" lon="6.60635">
        <ele>1566.6</ele>
        <time>2022-02-13T09:11:48Z</time>
      </trkpt>
      <trkpt lat="46.1986" lon="6.60638">
        <ele>1566.8</ele>
        <time>2022-02-13T09:11:57Z</time>
      </trkpt>
      <trkpt lat="46.19859" lon="6.60639">
        <ele>1567.2</ele>
        <time>2022-02-13T09:11:59Z</time>
      </trkpt>
      <trkpt lat="46.19858" lon="6.6064">
        <ele>1567.4</ele>
        <time>2022-02-13T09:12:00Z</time>
      </trkpt>
      <trkpt lat="46.19858" lon="6.6064">
        <ele>1567.6</ele>
        <time>2022-02-13T09:12:01Z</time>
      </trkpt>
      <trkpt lat="46.19856" lon="6.60642">
        <ele>1568.4</ele>
        <time>2022-02-13T09:12:04Z</time>
      </trkpt>
      <trkpt lat="46.19854" lon="6.60646">
        <ele>1569.6</ele>
        <time>2022-02-13T09:12:12Z</time>
      </trkpt>
      <trkpt lat="46.19854" lon="6.60648">
        <ele>1570.2</ele>
        <time>2022-02-13T09:12:15Z</time>
      </trkpt>
      <trkpt lat="46.19854" lon="6.60648">
        <ele>1570.6</ele>
        <time>2022-02-13T09:12:16Z</time>
      </trkpt>
      <trkpt lat="46.19851" lon="6.60652">
        <ele>1571.6</ele>
        <time>2022-02-13T09:12:23Z</time>
      </trkpt>
      <trkpt lat="46.1985" lon="6.60654">
        <ele>1572.4</ele>
        <time>2022-02-13T09:12:28Z</time>
      </trkpt>
      <trkpt lat="46.1985" lon="6.60655">
        <ele>1572.6</ele>
        <time>2022-02-13T09:12:30Z</time>
      </trkpt>
      <trkpt lat="46.19847" lon="6.60659">
        <ele>1573.8</ele>
        <time>2022-02-13T09:12:39Z</time>
      </trkpt>
      <trkpt lat="46.19845" lon="6.6066">
        <ele>1574.2</ele>
        <time>2022-02-13T09:12:42Z</time>
      </trkpt>
      <trkpt lat="46.19844" lon="6.60661">
        <ele>1574.4</ele>
        <time>2022-02-13T09:12:44Z</time>
      </trkpt>
      <trkpt lat="46.19843" lon="6.60662">
        <ele>1574.6</ele>
        <time>2022-02-13T09:12:45Z</time>
      </trkpt>
      <trkpt lat="46.19843" lon="6.60662">
        <ele>1575</ele>
        <time>2022-02-13T09:12:47Z</time>
      </trkpt>
      <trkpt lat="46.19843" lon="6.60665">
        <ele>1576.2</ele>
        <time>2022-02-13T09:12:54Z</time>
      </trkpt>
      <trkpt lat="46.19843" lon="6.60665">
        <ele>1576.6</ele>
        <time>2022-02-13T09:12:56Z</time>
      </trkpt>
      <trkpt lat="46.19843" lon="6.60667">
        <ele>1577.2</ele>
        <time>2022-02-13T09:13:00Z</time>
      </trkpt>
      <trkpt lat="46.19843" lon="6.60669">
        <ele>1577.8</ele>
        <time>2022-02-13T09:13:04Z</time>
      </trkpt>
      <trkpt lat="46.19843" lon="6.60671">
        <ele>1578.4</ele>
        <time>2022-02-13T09:13:07Z</time>
      </trkpt>
      <trkpt lat="46.19842" lon="6.60671">
        <ele>1578.6</ele>
        <time>2022-02-13T09:13:08Z</time>
      </trkpt>
      <trkpt lat="46.19841" lon="6.60672">
        <ele>1579.2</ele>
        <time>2022-02-13T09:13:11Z</time>
      </trkpt>
      <trkpt lat="46.19838" lon="6.60675">
        <ele>1579.4</ele>
        <time>2022-02-13T09:13:15Z</time>
      </trkpt>
      <trkpt lat="46.19838" lon="6.60675">
        <ele>1579.6</ele>
        <time>2022-02-13T09:13:16Z</time>
      </trkpt>
      <trkpt lat="46.19837" lon="6.60676">
        <ele>1579.8</ele>
        <time>2022-02-13T09:13:18Z</time>
      </trkpt>
      <trkpt lat="46.19837" lon="6.60677">
        <ele>1580</ele>
        <time>2022-02-13T09:13:20Z</time>
      </trkpt>
      <trkpt lat="46.19836" lon="6.60679">
        <ele>1580.2</ele>
        <time>2022-02-13T09:13:23Z</time>
      </trkpt>
      <trkpt lat="46.19835" lon="6.6068">
        <ele>1580.4</ele>
        <time>2022-02-13T09:13:26Z</time>
      </trkpt>
      <trkpt lat="46.19834" lon="6.60681">
        <ele>1580.6</ele>
        <time>2022-02-13T09:13:27Z</time>
      </trkpt>
      <trkpt lat="46.19834" lon="6.60681">
        <ele>1580.8</ele>
        <time>2022-02-13T09:13:29Z</time>
      </trkpt>
      <trkpt lat="46.19832" lon="6.60683">
        <ele>1581</ele>
        <time>2022-02-13T09:13:33Z</time>
      </trkpt>
      <trkpt lat="46.19832" lon="6.60684">
        <ele>1581.2</ele>
        <time>2022-02-13T09:13:35Z</time>
      </trkpt>
      <trkpt lat="46.1983" lon="6.60686">
        <ele>1581.6</ele>
        <time>2022-02-13T09:13:38Z</time>
      </trkpt>
      <trkpt lat="46.19829" lon="6.60687">
        <ele>1582.2</ele>
        <time>2022-02-13T09:13:41Z</time>
      </trkpt>
      <trkpt lat="46.19827" lon="6.60688">
        <ele>1582.6</ele>
        <time>2022-02-13T09:13:43Z</time>
      </trkpt>
      <trkpt lat="46.19827" lon="6.60689">
        <ele>1582.6</ele>
        <time>2022-02-13T09:13:44Z</time>
      </trkpt>
      <trkpt lat="46.19826" lon="6.6069">
        <ele>1582.6</ele>
        <time>2022-02-13T09:13:46Z</time>
      </trkpt>
      <trkpt lat="46.19826" lon="6.6069">
        <ele>1582.8</ele>
        <time>2022-02-13T09:13:47Z</time>
      </trkpt>
      <trkpt lat="46.19824" lon="6.60694">
        <ele>1583.6</ele>
        <time>2022-02-13T09:13:53Z</time>
      </trkpt>
      <trkpt lat="46.19821" lon="6.60696">
        <ele>1584.6</ele>
        <time>2022-02-13T09:14:01Z</time>
      </trkpt>
      <trkpt lat="46.1982" lon="6.60698">
        <ele>1585.6</ele>
        <time>2022-02-13T09:14:06Z</time>
      </trkpt>
      <trkpt lat="46.1982" lon="6.60698">
        <ele>1585.8</ele>
        <time>2022-02-13T09:14:07Z</time>
      </trkpt>
      <trkpt lat="46.19817" lon="6.60702">
        <ele>1586.4</ele>
        <time>2022-02-13T09:14:16Z</time>
      </trkpt>
      <trkpt lat="46.19817" lon="6.60702">
        <ele>1587</ele>
        <time>2022-02-13T09:14:19Z</time>
      </trkpt>
      <trkpt lat="46.19817" lon="6.60705">
        <ele>1588</ele>
        <time>2022-02-13T09:14:25Z</time>
      </trkpt>
      <trkpt lat="46.19816" lon="6.60706">
        <ele>1588.4</ele>
        <time>2022-02-13T09:14:29Z</time>
      </trkpt>
      <trkpt lat="46.19815" lon="6.60706">
        <ele>1589</ele>
        <time>2022-02-13T09:14:32Z</time>
      </trkpt>
      <trkpt lat="46.19813" lon="6.60708">
        <ele>1590</ele>
        <time>2022-02-13T09:14:37Z</time>
      </trkpt>
      <trkpt lat="46.19811" lon="6.6071">
        <ele>1590.8</ele>
        <time>2022-02-13T09:14:42Z</time>
      </trkpt>
      <trkpt lat="46.1981" lon="6.6071">
        <ele>1590.8</ele>
        <time>2022-02-13T09:14:43Z</time>
      </trkpt>
      <trkpt lat="46.1981" lon="6.6071">
        <ele>1591.2</ele>
        <time>2022-02-13T09:14:45Z</time>
      </trkpt>
      <trkpt lat="46.19809" lon="6.6071">
        <ele>1591.4</ele>
        <time>2022-02-13T09:14:47Z</time>
      </trkpt>
      <trkpt lat="46.19808" lon="6.60712">
        <ele>1592.2</ele>
        <time>2022-02-13T09:14:55Z</time>
      </trkpt>
      <trkpt lat="46.19808" lon="6.60713">
        <ele>1592.4</ele>
        <time>2022-02-13T09:14:58Z</time>
      </trkpt>
      <trkpt lat="46.19808" lon="6.60715">
        <ele>1593.2</ele>
        <time>2022-02-13T09:15:02Z</time>
      </trkpt>
      <trkpt lat="46.19808" lon="6.60715">
        <ele>1593.6</ele>
        <time>2022-02-13T09:15:03Z</time>
      </trkpt>
      <trkpt lat="46.19808" lon="6.60717">
        <ele>1594.4</ele>
        <time>2022-02-13T09:15:09Z</time>
      </trkpt>
      <trkpt lat="46.1981" lon="6.60719">
        <ele>1595</ele>
        <time>2022-02-13T09:15:14Z</time>
      </trkpt>
      <trkpt lat="46.19812" lon="6.60721">
        <ele>1595.4</ele>
        <time>2022-02-13T09:15:19Z</time>
      </trkpt>
      <trkpt lat="46.19812" lon="6.60722">
        <ele>1596.6</ele>
        <time>2022-02-13T09:15:23Z</time>
      </trkpt>
      <trkpt lat="46.19813" lon="6.60722">
        <ele>1597</ele>
        <time>2022-02-13T09:15:25Z</time>
      </trkpt>
      <trkpt lat="46.19813" lon="6.60722">
        <ele>1597.2</ele>
        <time>2022-02-13T09:15:26Z</time>
      </trkpt>
      <trkpt lat="46.19812" lon="6.60722">
        <ele>1597.4</ele>
        <time>2022-02-13T09:15:40Z</time>
      </trkpt>
      <trkpt lat="46.19812" lon="6.60721">
        <ele>1597.4</ele>
        <time>2022-02-13T09:15:41Z</time>
      </trkpt>
      <trkpt lat="46.19811" lon="6.60721">
        <ele>1597.4</ele>
        <time>2022-02-13T09:15:43Z</time>
      </trkpt>
      <trkpt lat="46.19811" lon="6.60721">
        <ele>1597.6</ele>
        <time>2022-02-13T09:15:47Z</time>
      </trkpt>
      <trkpt lat="46.19809" lon="6.60724">
        <ele>1597.2</ele>
        <time>2022-02-13T09:15:53Z</time>
      </trkpt>
      <trkpt lat="46.19804" lon="6.60727">
        <ele>1598.6</ele>
        <time>2022-02-13T09:16:02Z</time>
      </trkpt>
      <trkpt lat="46.19804" lon="6.60728">
        <ele>1598.8</ele>
        <time>2022-02-13T09:16:04Z</time>
      </trkpt>
      <trkpt lat="46.19803" lon="6.60729">
        <ele>1599</ele>
        <time>2022-02-13T09:16:06Z</time>
      </trkpt>
      <trkpt lat="46.19803" lon="6.6073">
        <ele>1599</ele>
        <time>2022-02-13T09:16:07Z</time>
      </trkpt>
      <trkpt lat="46.19801" lon="6.60731">
        <ele>1599.8</ele>
        <time>2022-02-13T09:16:13Z</time>
      </trkpt>
      <trkpt lat="46.19799" lon="6.60733">
        <ele>1600.8</ele>
        <time>2022-02-13T09:16:18Z</time>
      </trkpt>
      <trkpt lat="46.19798" lon="6.60734">
        <ele>1601.2</ele>
        <time>2022-02-13T09:16:19Z</time>
      </trkpt>
      <trkpt lat="46.19796" lon="6.60735">
        <ele>1602</ele>
        <time>2022-02-13T09:16:24Z</time>
      </trkpt>
      <trkpt lat="46.19794" lon="6.60739">
        <ele>1602.8</ele>
        <time>2022-02-13T09:16:32Z</time>
      </trkpt>
      <trkpt lat="46.19793" lon="6.60739">
        <ele>1603</ele>
        <time>2022-02-13T09:16:33Z</time>
      </trkpt>
      <trkpt lat="46.19789" lon="6.60742">
        <ele>1604</ele>
        <time>2022-02-13T09:16:41Z</time>
      </trkpt>
      <trkpt lat="46.19788" lon="6.60743">
        <ele>1604.2</ele>
        <time>2022-02-13T09:16:44Z</time>
      </trkpt>
      <trkpt lat="46.19787" lon="6.60745">
        <ele>1605</ele>
        <time>2022-02-13T09:16:47Z</time>
      </trkpt>
      <trkpt lat="46.19787" lon="6.60749">
        <ele>1606.2</ele>
        <time>2022-02-13T09:16:53Z</time>
      </trkpt>
      <trkpt lat="46.19787" lon="6.6075">
        <ele>1606.2</ele>
        <time>2022-02-13T09:16:54Z</time>
      </trkpt>
      <trkpt lat="46.19786" lon="6.60751">
        <ele>1606.8</ele>
        <time>2022-02-13T09:16:58Z</time>
      </trkpt>
      <trkpt lat="46.19784" lon="6.60753">
        <ele>1607.2</ele>
        <time>2022-02-13T09:17:01Z</time>
      </trkpt>
      <trkpt lat="46.19783" lon="6.60754">
        <ele>1607.8</ele>
        <time>2022-02-13T09:17:04Z</time>
      </trkpt>
      <trkpt lat="46.19782" lon="6.60757">
        <ele>1608.2</ele>
        <time>2022-02-13T09:17:08Z</time>
      </trkpt>
      <trkpt lat="46.19782" lon="6.6076">
        <ele>1609.4</ele>
        <time>2022-02-13T09:17:15Z</time>
      </trkpt>
      <trkpt lat="46.19781" lon="6.60761">
        <ele>1609.6</ele>
        <time>2022-02-13T09:17:16Z</time>
      </trkpt>
      <trkpt lat="46.1978" lon="6.60763">
        <ele>1610.6</ele>
        <time>2022-02-13T09:17:21Z</time>
      </trkpt>
      <trkpt lat="46.19777" lon="6.60766">
        <ele>1611.6</ele>
        <time>2022-02-13T09:17:31Z</time>
      </trkpt>
      <trkpt lat="46.19777" lon="6.60766">
        <ele>1611.6</ele>
        <time>2022-02-13T09:17:32Z</time>
      </trkpt>
      <trkpt lat="46.19776" lon="6.60767">
        <ele>1612</ele>
        <time>2022-02-13T09:17:35Z</time>
      </trkpt>
      <trkpt lat="46.19774" lon="6.60769">
        <ele>1612.6</ele>
        <time>2022-02-13T09:17:41Z</time>
      </trkpt>
      <trkpt lat="46.19773" lon="6.6077">
        <ele>1613.4</ele>
        <time>2022-02-13T09:17:44Z</time>
      </trkpt>
      <trkpt lat="46.19772" lon="6.60771">
        <ele>1613.6</ele>
        <time>2022-02-13T09:17:47Z</time>
      </trkpt>
      <trkpt lat="46.19772" lon="6.60772">
        <ele>1613.8</ele>
        <time>2022-02-13T09:17:48Z</time>
      </trkpt>
      <trkpt lat="46.19771" lon="6.60771">
        <ele>1614.2</ele>
        <time>2022-02-13T09:17:52Z</time>
      </trkpt>
      <trkpt lat="46.19771" lon="6.6077">
        <ele>1614.6</ele>
        <time>2022-02-13T09:17:59Z</time>
      </trkpt>
      <trkpt lat="46.19774" lon="6.60768">
        <ele>1614.6</ele>
        <time>2022-02-13T09:18:08Z</time>
      </trkpt>
      <trkpt lat="46.19774" lon="6.60768">
        <ele>1614.8</ele>
        <time>2022-02-13T09:18:15Z</time>
      </trkpt>
      <trkpt lat="46.19773" lon="6.60769">
        <ele>1614.8</ele>
        <time>2022-02-13T09:18:16Z</time>
      </trkpt>
      <trkpt lat="46.19772" lon="6.60769">
        <ele>1614.8</ele>
        <time>2022-02-13T09:18:17Z</time>
      </trkpt>
      <trkpt lat="46.19772" lon="6.60768">
        <ele>1614.8</ele>
        <time>2022-02-13T09:18:25Z</time>
      </trkpt>
      <trkpt lat="46.19774" lon="6.60767">
        <ele>1615.4</ele>
        <time>2022-02-13T09:18:29Z</time>
      </trkpt>
      <trkpt lat="46.19773" lon="6.60768">
        <ele>1615.4</ele>
        <time>2022-02-13T09:18:31Z</time>
      </trkpt>
      <trkpt lat="46.19773" lon="6.60767">
        <ele>1615.4</ele>
        <time>2022-02-13T09:18:38Z</time>
      </trkpt>
      <trkpt lat="46.19773" lon="6.60767">
        <ele>1615.4</ele>
        <time>2022-02-13T09:18:41Z</time>
      </trkpt>
      <trkpt lat="46.19773" lon="6.60767">
        <ele>1615.4</ele>
        <time>2022-02-13T09:18:42Z</time>
      </trkpt>
      <trkpt lat="46.19774" lon="6.60767">
        <ele>1615.6</ele>
        <time>2022-02-13T09:18:49Z</time>
      </trkpt>
      <trkpt lat="46.19776" lon="6.60769">
        <ele>1615.2</ele>
        <time>2022-02-13T09:18:56Z</time>
      </trkpt>
      <trkpt lat="46.19774" lon="6.6077">
        <ele>1615.8</ele>
        <time>2022-02-13T09:19:04Z</time>
      </trkpt>
      <trkpt lat="46.19772" lon="6.60771">
        <ele>1616.8</ele>
        <time>2022-02-13T09:19:09Z</time>
      </trkpt>
      <trkpt lat="46.19771" lon="6.60772">
        <ele>1617</ele>
        <time>2022-02-13T09:19:11Z</time>
      </trkpt>
      <trkpt lat="46.19769" lon="6.60773">
        <ele>1617.8</ele>
        <time>2022-02-13T09:19:15Z</time>
      </trkpt>
      <trkpt lat="46.19767" lon="6.60774">
        <ele>1618</ele>
        <time>2022-02-13T09:19:18Z</time>
      </trkpt>
      <trkpt lat="46.19764" lon="6.60776">
        <ele>1619.2</ele>
        <time>2022-02-13T09:19:24Z</time>
      </trkpt>
      <trkpt lat="46.19762" lon="6.60778">
        <ele>1619.8</ele>
        <time>2022-02-13T09:19:27Z</time>
      </trkpt>
      <trkpt lat="46.19762" lon="6.60779">
        <ele>1619.8</ele>
        <time>2022-02-13T09:19:28Z</time>
      </trkpt>
      <trkpt lat="46.1976" lon="6.6078">
        <ele>1620.4</ele>
        <time>2022-02-13T09:19:31Z</time>
      </trkpt>
      <trkpt lat="46.19758" lon="6.60783">
        <ele>1621.4</ele>
        <time>2022-02-13T09:19:36Z</time>
      </trkpt>
      <trkpt lat="46.19758" lon="6.60783">
        <ele>1621.6</ele>
        <time>2022-02-13T09:19:37Z</time>
      </trkpt>
      <trkpt lat="46.19756" lon="6.60787">
        <ele>1622.6</ele>
        <time>2022-02-13T09:19:45Z</time>
      </trkpt>
      <trkpt lat="46.19754" lon="6.60789">
        <ele>1623.8</ele>
        <time>2022-02-13T09:19:49Z</time>
      </trkpt>
      <trkpt lat="46.19754" lon="6.60789">
        <ele>1624</ele>
        <time>2022-02-13T09:19:50Z</time>
      </trkpt>
      <trkpt lat="46.19751" lon="6.60792">
        <ele>1625</ele>
        <time>2022-02-13T09:19:56Z</time>
      </trkpt>
      <trkpt lat="46.19749" lon="6.60794">
        <ele>1625.6</ele>
        <time>2022-02-13T09:20:02Z</time>
      </trkpt>
      <trkpt lat="46.19749" lon="6.60797">
        <ele>1626</ele>
        <time>2022-02-13T09:20:07Z</time>
      </trkpt>
      <trkpt lat="46.19748" lon="6.60798">
        <ele>1626.8</ele>
        <time>2022-02-13T09:20:09Z</time>
      </trkpt>
      <trkpt lat="46.19748" lon="6.60798">
        <ele>1627</ele>
        <time>2022-02-13T09:20:10Z</time>
      </trkpt>
      <trkpt lat="46.19746" lon="6.608">
        <ele>1627.8</ele>
        <time>2022-02-13T09:20:14Z</time>
      </trkpt>
      <trkpt lat="46.19746" lon="6.608">
        <ele>1628.2</ele>
        <time>2022-02-13T09:20:17Z</time>
      </trkpt>
      <trkpt lat="46.19746" lon="6.608">
        <ele>1628.8</ele>
        <time>2022-02-13T09:20:20Z</time>
      </trkpt>
      <trkpt lat="46.19745" lon="6.60801">
        <ele>1629.4</ele>
        <time>2022-02-13T09:20:24Z</time>
      </trkpt>
      <trkpt lat="46.19744" lon="6.608">
        <ele>1629.8</ele>
        <time>2022-02-13T09:20:29Z</time>
      </trkpt>
      <trkpt lat="46.19744" lon="6.60799">
        <ele>1630</ele>
        <time>2022-02-13T09:20:31Z</time>
      </trkpt>
      <trkpt lat="46.19742" lon="6.60798">
        <ele>1630.6</ele>
        <time>2022-02-13T09:20:36Z</time>
      </trkpt>
      <trkpt lat="46.19739" lon="6.60796">
        <ele>1631.6</ele>
        <time>2022-02-13T09:20:42Z</time>
      </trkpt>
      <trkpt lat="46.19735" lon="6.60795">
        <ele>1632.2</ele>
        <time>2022-02-13T09:20:47Z</time>
      </trkpt>
      <trkpt lat="46.19731" lon="6.60795">
        <ele>1632.6</ele>
        <time>2022-02-13T09:20:53Z</time>
      </trkpt>
      <trkpt lat="46.1973" lon="6.60796">
        <ele>1633.2</ele>
        <time>2022-02-13T09:20:55Z</time>
      </trkpt>
      <trkpt lat="46.19727" lon="6.60797">
        <ele>1633.8</ele>
        <time>2022-02-13T09:20:59Z</time>
      </trkpt>
      <trkpt lat="46.19726" lon="6.60796">
        <ele>1634.4</ele>
        <time>2022-02-13T09:21:02Z</time>
      </trkpt>
      <trkpt lat="46.19724" lon="6.60797">
        <ele>1634.8</ele>
        <time>2022-02-13T09:21:08Z</time>
      </trkpt>
      <trkpt lat="46.19723" lon="6.60797">
        <ele>1635</ele>
        <time>2022-02-13T09:21:09Z</time>
      </trkpt>
      <trkpt lat="46.19721" lon="6.60798">
        <ele>1635.6</ele>
        <time>2022-02-13T09:21:12Z</time>
      </trkpt>
      <trkpt lat="46.19719" lon="6.60799">
        <ele>1635.8</ele>
        <time>2022-02-13T09:21:15Z</time>
      </trkpt>
      <trkpt lat="46.19717" lon="6.60799">
        <ele>1636</ele>
        <time>2022-02-13T09:21:17Z</time>
      </trkpt>
      <trkpt lat="46.19715" lon="6.60799">
        <ele>1636.4</ele>
        <time>2022-02-13T09:21:19Z</time>
      </trkpt>
      <trkpt lat="46.19714" lon="6.60799">
        <ele>1636.6</ele>
        <time>2022-02-13T09:21:21Z</time>
      </trkpt>
      <trkpt lat="46.19712" lon="6.608">
        <ele>1636.8</ele>
        <time>2022-02-13T09:21:23Z</time>
      </trkpt>
      <trkpt lat="46.19711" lon="6.60801">
        <ele>1637</ele>
        <time>2022-02-13T09:21:26Z</time>
      </trkpt>
      <trkpt lat="46.19711" lon="6.60802">
        <ele>1638</ele>
        <time>2022-02-13T09:21:29Z</time>
      </trkpt>
      <trkpt lat="46.19712" lon="6.60805">
        <ele>1638.8</ele>
        <time>2022-02-13T09:21:34Z</time>
      </trkpt>
      <trkpt lat="46.19712" lon="6.60806">
        <ele>1638.8</ele>
        <time>2022-02-13T09:21:36Z</time>
      </trkpt>
      <trkpt lat="46.19713" lon="6.60806">
        <ele>1639</ele>
        <time>2022-02-13T09:21:37Z</time>
      </trkpt>
      <trkpt lat="46.19712" lon="6.60812">
        <ele>1640</ele>
        <time>2022-02-13T09:21:46Z</time>
      </trkpt>
      <trkpt lat="46.19712" lon="6.60813">
        <ele>1640.4</ele>
        <time>2022-02-13T09:21:48Z</time>
      </trkpt>
      <trkpt lat="46.19711" lon="6.60816">
        <ele>1641</ele>
        <time>2022-02-13T09:21:52Z</time>
      </trkpt>
      <trkpt lat="46.19712" lon="6.60818">
        <ele>1641.6</ele>
        <time>2022-02-13T09:21:55Z</time>
      </trkpt>
      <trkpt lat="46.19712" lon="6.60819">
        <ele>1642.2</ele>
        <time>2022-02-13T09:21:57Z</time>
      </trkpt>
      <trkpt lat="46.19712" lon="6.60819">
        <ele>1642.6</ele>
        <time>2022-02-13T09:22:01Z</time>
      </trkpt>
      <trkpt lat="46.19712" lon="6.60823">
        <ele>1643.2</ele>
        <time>2022-02-13T09:22:06Z</time>
      </trkpt>
      <trkpt lat="46.19712" lon="6.60825">
        <ele>1644.2</ele>
        <time>2022-02-13T09:22:11Z</time>
      </trkpt>
      <trkpt lat="46.19712" lon="6.60826">
        <ele>1644.4</ele>
        <time>2022-02-13T09:22:12Z</time>
      </trkpt>
      <trkpt lat="46.19711" lon="6.60827">
        <ele>1644.6</ele>
        <time>2022-02-13T09:22:14Z</time>
      </trkpt>
      <trkpt lat="46.1971" lon="6.60831">
        <ele>1645.4</ele>
        <time>2022-02-13T09:22:20Z</time>
      </trkpt>
      <trkpt lat="46.1971" lon="6.60834">
        <ele>1646.2</ele>
        <time>2022-02-13T09:22:24Z</time>
      </trkpt>
      <trkpt lat="46.1971" lon="6.60836">
        <ele>1646.6</ele>
        <time>2022-02-13T09:22:27Z</time>
      </trkpt>
      <trkpt lat="46.1971" lon="6.60841">
        <ele>1647.8</ele>
        <time>2022-02-13T09:22:34Z</time>
      </trkpt>
      <trkpt lat="46.1971" lon="6.60841">
        <ele>1648</ele>
        <time>2022-02-13T09:22:36Z</time>
      </trkpt>
      <trkpt lat="46.1971" lon="6.60843">
        <ele>1648.8</ele>
        <time>2022-02-13T09:22:41Z</time>
      </trkpt>
      <trkpt lat="46.19711" lon="6.60844">
        <ele>1649.2</ele>
        <time>2022-02-13T09:22:43Z</time>
      </trkpt>
      <trkpt lat="46.1971" lon="6.60845">
        <ele>1649.4</ele>
        <time>2022-02-13T09:22:45Z</time>
      </trkpt>
      <trkpt lat="46.1971" lon="6.60846">
        <ele>1650</ele>
        <time>2022-02-13T09:22:48Z</time>
      </trkpt>
      <trkpt lat="46.1971" lon="6.60847">
        <ele>1650.4</ele>
        <time>2022-02-13T09:22:49Z</time>
      </trkpt>
      <trkpt lat="46.19709" lon="6.6085">
        <ele>1650.8</ele>
        <time>2022-02-13T09:22:55Z</time>
      </trkpt>
      <trkpt lat="46.19709" lon="6.60851">
        <ele>1651.2</ele>
        <time>2022-02-13T09:22:57Z</time>
      </trkpt>
      <trkpt lat="46.1971" lon="6.60854">
        <ele>1651.6</ele>
        <time>2022-02-13T09:23:00Z</time>
      </trkpt>
      <trkpt lat="46.19711" lon="6.60856">
        <ele>1652.2</ele>
        <time>2022-02-13T09:23:03Z</time>
      </trkpt>
      <trkpt lat="46.19711" lon="6.60856">
        <ele>1652.4</ele>
        <time>2022-02-13T09:23:04Z</time>
      </trkpt>
      <trkpt lat="46.19712" lon="6.6086">
        <ele>1653</ele>
        <time>2022-02-13T09:23:08Z</time>
      </trkpt>
      <trkpt lat="46.19712" lon="6.60862">
        <ele>1653.4</ele>
        <time>2022-02-13T09:23:11Z</time>
      </trkpt>
      <trkpt lat="46.19713" lon="6.60866">
        <ele>1654.2</ele>
        <time>2022-02-13T09:23:17Z</time>
      </trkpt>
      <trkpt lat="46.19713" lon="6.60867">
        <ele>1654.2</ele>
        <time>2022-02-13T09:23:18Z</time>
      </trkpt>
      <trkpt lat="46.19713" lon="6.60869">
        <ele>1654.4</ele>
        <time>2022-02-13T09:23:21Z</time>
      </trkpt>
      <trkpt lat="46.19715" lon="6.60871">
        <ele>1655.6</ele>
        <time>2022-02-13T09:23:25Z</time>
      </trkpt>
      <trkpt lat="46.19716" lon="6.60873">
        <ele>1656.8</ele>
        <time>2022-02-13T09:23:30Z</time>
      </trkpt>
      <trkpt lat="46.19715" lon="6.60874">
        <ele>1656.8</ele>
        <time>2022-02-13T09:23:31Z</time>
      </trkpt>
      <trkpt lat="46.19712" lon="6.60877">
        <ele>1657.8</ele>
        <time>2022-02-13T09:23:38Z</time>
      </trkpt>
      <trkpt lat="46.19711" lon="6.60877">
        <ele>1658.2</ele>
        <time>2022-02-13T09:23:41Z</time>
      </trkpt>
      <trkpt lat="46.19709" lon="6.60877">
        <ele>1659</ele>
        <time>2022-02-13T09:23:44Z</time>
      </trkpt>
      <trkpt lat="46.19706" lon="6.60877">
        <ele>1659.8</ele>
        <time>2022-02-13T09:23:48Z</time>
      </trkpt>
      <trkpt lat="46.19704" lon="6.60876">
        <ele>1659.8</ele>
        <time>2022-02-13T09:23:51Z</time>
      </trkpt>
      <trkpt lat="46.19702" lon="6.60875">
        <ele>1660</ele>
        <time>2022-02-13T09:23:54Z</time>
      </trkpt>
      <trkpt lat="46.19701" lon="6.60875">
        <ele>1660.2</ele>
        <time>2022-02-13T09:23:55Z</time>
      </trkpt>
      <trkpt lat="46.197" lon="6.60875">
        <ele>1660.4</ele>
        <time>2022-02-13T09:23:57Z</time>
      </trkpt>
      <trkpt lat="46.19699" lon="6.60874">
        <ele>1660.4</ele>
        <time>2022-02-13T09:23:59Z</time>
      </trkpt>
      <trkpt lat="46.19698" lon="6.60873">
        <ele>1660.6</ele>
        <time>2022-02-13T09:24:01Z</time>
      </trkpt>
      <trkpt lat="46.19697" lon="6.60872">
        <ele>1660.8</ele>
        <time>2022-02-13T09:24:05Z</time>
      </trkpt>
      <trkpt lat="46.19697" lon="6.60871">
        <ele>1661.2</ele>
        <time>2022-02-13T09:24:06Z</time>
      </trkpt>
      <trkpt lat="46.19695" lon="6.6087">
        <ele>1661.6</ele>
        <time>2022-02-13T09:24:09Z</time>
      </trkpt>
      <trkpt lat="46.19694" lon="6.6087">
        <ele>1661.8</ele>
        <time>2022-02-13T09:24:10Z</time>
      </trkpt>
      <trkpt lat="46.19691" lon="6.60868">
        <ele>1662.2</ele>
        <time>2022-02-13T09:24:15Z</time>
      </trkpt>
      <trkpt lat="46.19689" lon="6.60867">
        <ele>1662.8</ele>
        <time>2022-02-13T09:24:19Z</time>
      </trkpt>
      <trkpt lat="46.19688" lon="6.60867">
        <ele>1663</ele>
        <time>2022-02-13T09:24:21Z</time>
      </trkpt>
      <trkpt lat="46.19687" lon="6.60867">
        <ele>1663.2</ele>
        <time>2022-02-13T09:24:23Z</time>
      </trkpt>
      <trkpt lat="46.19686" lon="6.60867">
        <ele>1663.6</ele>
        <time>2022-02-13T09:24:27Z</time>
      </trkpt>
      <trkpt lat="46.19684" lon="6.60867">
        <ele>1664.4</ele>
        <time>2022-02-13T09:24:31Z</time>
      </trkpt>
      <trkpt lat="46.19679" lon="6.60866">
        <ele>1665.4</ele>
        <time>2022-02-13T09:24:39Z</time>
      </trkpt>
      <trkpt lat="46.19679" lon="6.60865">
        <ele>1665.8</ele>
        <time>2022-02-13T09:24:41Z</time>
      </trkpt>
      <trkpt lat="46.19678" lon="6.60865">
        <ele>1666</ele>
        <time>2022-02-13T09:24:43Z</time>
      </trkpt>
      <trkpt lat="46.19677" lon="6.60864">
        <ele>1666.6</ele>
        <time>2022-02-13T09:24:45Z</time>
      </trkpt>
      <trkpt lat="46.19675" lon="6.60862">
        <ele>1667</ele>
        <time>2022-02-13T09:24:51Z</time>
      </trkpt>
      <trkpt lat="46.19674" lon="6.60862">
        <ele>1667</ele>
        <time>2022-02-13T09:24:53Z</time>
      </trkpt>
      <trkpt lat="46.19673" lon="6.60861">
        <ele>1667.6</ele>
        <time>2022-02-13T09:24:56Z</time>
      </trkpt>
      <trkpt lat="46.19672" lon="6.60861">
        <ele>1667.8</ele>
        <time>2022-02-13T09:24:58Z</time>
      </trkpt>
      <trkpt lat="46.19671" lon="6.60861">
        <ele>1668</ele>
        <time>2022-02-13T09:24:59Z</time>
      </trkpt>
      <trkpt lat="46.19671" lon="6.6086">
        <ele>1668.2</ele>
        <time>2022-02-13T09:25:01Z</time>
      </trkpt>
      <trkpt lat="46.19669" lon="6.60859">
        <ele>1668.6</ele>
        <time>2022-02-13T09:25:04Z</time>
      </trkpt>
      <trkpt lat="46.19666" lon="6.60859">
        <ele>1669.8</ele>
        <time>2022-02-13T09:25:11Z</time>
      </trkpt>
      <trkpt lat="46.19665" lon="6.6086">
        <ele>1670.2</ele>
        <time>2022-02-13T09:25:13Z</time>
      </trkpt>
      <trkpt lat="46.19665" lon="6.60859">
        <ele>1670.6</ele>
        <time>2022-02-13T09:25:16Z</time>
      </trkpt>
      <trkpt lat="46.19664" lon="6.60859">
        <ele>1670.8</ele>
        <time>2022-02-13T09:25:18Z</time>
      </trkpt>
      <trkpt lat="46.19662" lon="6.60857">
        <ele>1671.8</ele>
        <time>2022-02-13T09:25:25Z</time>
      </trkpt>
      <trkpt lat="46.19661" lon="6.60857">
        <ele>1672</ele>
        <time>2022-02-13T09:25:26Z</time>
      </trkpt>
      <trkpt lat="46.19661" lon="6.60856">
        <ele>1672.4</ele>
        <time>2022-02-13T09:25:28Z</time>
      </trkpt>
      <trkpt lat="46.1966" lon="6.60853">
        <ele>1673</ele>
        <time>2022-02-13T09:25:33Z</time>
      </trkpt>
      <trkpt lat="46.19658" lon="6.60852">
        <ele>1673.2</ele>
        <time>2022-02-13T09:25:35Z</time>
      </trkpt>
      <trkpt lat="46.19657" lon="6.60851">
        <ele>1674</ele>
        <time>2022-02-13T09:25:38Z</time>
      </trkpt>
      <trkpt lat="46.19655" lon="6.6085">
        <ele>1674.6</ele>
        <time>2022-02-13T09:25:42Z</time>
      </trkpt>
      <trkpt lat="46.19653" lon="6.60849">
        <ele>1675.2</ele>
        <time>2022-02-13T09:25:48Z</time>
      </trkpt>
      <trkpt lat="46.19651" lon="6.60847">
        <ele>1675.8</ele>
        <time>2022-02-13T09:25:56Z</time>
      </trkpt>
      <trkpt lat="46.19651" lon="6.60847">
        <ele>1676.2</ele>
        <time>2022-02-13T09:25:57Z</time>
      </trkpt>
      <trkpt lat="46.19649" lon="6.60845">
        <ele>1676.8</ele>
        <time>2022-02-13T09:26:03Z</time>
      </trkpt>
      <trkpt lat="46.19647" lon="6.60843">
        <ele>1677</ele>
        <time>2022-02-13T09:26:09Z</time>
      </trkpt>
      <trkpt lat="46.19647" lon="6.60842">
        <ele>1677.2</ele>
        <time>2022-02-13T09:26:10Z</time>
      </trkpt>
      <trkpt lat="46.1964" lon="6.60838">
        <ele>1679.6</ele>
        <time>2022-02-13T09:26:22Z</time>
      </trkpt>
      <trkpt lat="46.19639" lon="6.60837">
        <ele>1679.6</ele>
        <time>2022-02-13T09:26:24Z</time>
      </trkpt>
      <trkpt lat="46.19639" lon="6.60837">
        <ele>1679.8</ele>
        <time>2022-02-13T09:26:25Z</time>
      </trkpt>
      <trkpt lat="46.19636" lon="6.60837">
        <ele>1680.6</ele>
        <time>2022-02-13T09:26:33Z</time>
      </trkpt>
      <trkpt lat="46.19636" lon="6.60837">
        <ele>1680.8</ele>
        <time>2022-02-13T09:26:34Z</time>
      </trkpt>
      <trkpt lat="46.19635" lon="6.60838">
        <ele>1681.8</ele>
        <time>2022-02-13T09:26:40Z</time>
      </trkpt>
      <trkpt lat="46.19636" lon="6.60838">
        <ele>1682</ele>
        <time>2022-02-13T09:26:42Z</time>
      </trkpt>
      <trkpt lat="46.19637" lon="6.6084">
        <ele>1682.8</ele>
        <time>2022-02-13T09:26:47Z</time>
      </trkpt>
      <trkpt lat="46.19638" lon="6.60842">
        <ele>1683.2</ele>
        <time>2022-02-13T09:26:49Z</time>
      </trkpt>
      <trkpt lat="46.19639" lon="6.60844">
        <ele>1683.8</ele>
        <time>2022-02-13T09:26:52Z</time>
      </trkpt>
      <trkpt lat="46.19639" lon="6.60846">
        <ele>1684</ele>
        <time>2022-02-13T09:26:54Z</time>
      </trkpt>
      <trkpt lat="46.19639" lon="6.60847">
        <ele>1684.2</ele>
        <time>2022-02-13T09:26:57Z</time>
      </trkpt>
      <trkpt lat="46.19638" lon="6.60851">
        <ele>1685</ele>
        <time>2022-02-13T09:27:04Z</time>
      </trkpt>
      <trkpt lat="46.19638" lon="6.60852">
        <ele>1685.2</ele>
        <time>2022-02-13T09:27:05Z</time>
      </trkpt>
      <trkpt lat="46.19638" lon="6.60852">
        <ele>1685.6</ele>
        <time>2022-02-13T09:27:06Z</time>
      </trkpt>
      <trkpt lat="46.19637" lon="6.60855">
        <ele>1686</ele>
        <time>2022-02-13T09:27:09Z</time>
      </trkpt>
      <trkpt lat="46.19637" lon="6.60855">
        <ele>1686.2</ele>
        <time>2022-02-13T09:27:10Z</time>
      </trkpt>
      <trkpt lat="46.19637" lon="6.60857">
        <ele>1686.2</ele>
        <time>2022-02-13T09:27:12Z</time>
      </trkpt>
      <trkpt lat="46.19637" lon="6.60858">
        <ele>1686.6</ele>
        <time>2022-02-13T09:27:15Z</time>
      </trkpt>
      <trkpt lat="46.19637" lon="6.60859">
        <ele>1687</ele>
        <time>2022-02-13T09:27:16Z</time>
      </trkpt>
      <trkpt lat="46.19636" lon="6.6086">
        <ele>1687.2</ele>
        <time>2022-02-13T09:27:19Z</time>
      </trkpt>
      <trkpt lat="46.19636" lon="6.60864">
        <ele>1688</ele>
        <time>2022-02-13T09:27:24Z</time>
      </trkpt>
      <trkpt lat="46.19637" lon="6.60867">
        <ele>1688.6</ele>
        <time>2022-02-13T09:27:29Z</time>
      </trkpt>
      <trkpt lat="46.19637" lon="6.60869">
        <ele>1689</ele>
        <time>2022-02-13T09:27:32Z</time>
      </trkpt>
      <trkpt lat="46.19637" lon="6.60872">
        <ele>1689.6</ele>
        <time>2022-02-13T09:27:36Z</time>
      </trkpt>
      <trkpt lat="46.19639" lon="6.60875">
        <ele>1690</ele>
        <time>2022-02-13T09:27:40Z</time>
      </trkpt>
      <trkpt lat="46.19639" lon="6.60877">
        <ele>1690.2</ele>
        <time>2022-02-13T09:27:43Z</time>
      </trkpt>
      <trkpt lat="46.1964" lon="6.60878">
        <ele>1690.6</ele>
        <time>2022-02-13T09:27:45Z</time>
      </trkpt>
      <trkpt lat="46.19639" lon="6.60878">
        <ele>1690.8</ele>
        <time>2022-02-13T09:27:46Z</time>
      </trkpt>
      <trkpt lat="46.19639" lon="6.60881">
        <ele>1691.6</ele>
        <time>2022-02-13T09:27:51Z</time>
      </trkpt>
      <trkpt lat="46.19639" lon="6.60881">
        <ele>1691.6</ele>
        <time>2022-02-13T09:27:52Z</time>
      </trkpt>
      <trkpt lat="46.1964" lon="6.60883">
        <ele>1691.8</ele>
        <time>2022-02-13T09:27:55Z</time>
      </trkpt>
      <trkpt lat="46.19642" lon="6.60886">
        <ele>1692.6</ele>
        <time>2022-02-13T09:28:00Z</time>
      </trkpt>
      <trkpt lat="46.19642" lon="6.60886">
        <ele>1692.8</ele>
        <time>2022-02-13T09:28:01Z</time>
      </trkpt>
      <trkpt lat="46.19642" lon="6.60887">
        <ele>1692.8</ele>
        <time>2022-02-13T09:28:03Z</time>
      </trkpt>
      <trkpt lat="46.19643" lon="6.60888">
        <ele>1693</ele>
        <time>2022-02-13T09:28:04Z</time>
      </trkpt>
      <trkpt lat="46.19643" lon="6.6089">
        <ele>1693.6</ele>
        <time>2022-02-13T09:28:08Z</time>
      </trkpt>
      <trkpt lat="46.19642" lon="6.60891">
        <ele>1693.8</ele>
        <time>2022-02-13T09:28:11Z</time>
      </trkpt>
      <trkpt lat="46.19641" lon="6.60893">
        <ele>1694</ele>
        <time>2022-02-13T09:28:14Z</time>
      </trkpt>
      <trkpt lat="46.1964" lon="6.60897">
        <ele>1694.6</ele>
        <time>2022-02-13T09:28:20Z</time>
      </trkpt>
      <trkpt lat="46.1964" lon="6.60898">
        <ele>1695</ele>
        <time>2022-02-13T09:28:22Z</time>
      </trkpt>
      <trkpt lat="46.1964" lon="6.609">
        <ele>1695.4</ele>
        <time>2022-02-13T09:28:25Z</time>
      </trkpt>
      <trkpt lat="46.19639" lon="6.60904">
        <ele>1696</ele>
        <time>2022-02-13T09:28:31Z</time>
      </trkpt>
      <trkpt lat="46.19639" lon="6.60905">
        <ele>1696.6</ele>
        <time>2022-02-13T09:28:35Z</time>
      </trkpt>
      <trkpt lat="46.19638" lon="6.60903">
        <ele>1697</ele>
        <time>2022-02-13T09:28:40Z</time>
      </trkpt>
      <trkpt lat="46.19638" lon="6.60903">
        <ele>1697.4</ele>
        <time>2022-02-13T09:28:42Z</time>
      </trkpt>
      <trkpt lat="46.19638" lon="6.60901">
        <ele>1697.8</ele>
        <time>2022-02-13T09:28:46Z</time>
      </trkpt>
      <trkpt lat="46.19638" lon="6.609">
        <ele>1698</ele>
        <time>2022-02-13T09:28:48Z</time>
      </trkpt>
      <trkpt lat="46.19638" lon="6.609">
        <ele>1698.2</ele>
        <time>2022-02-13T09:28:49Z</time>
      </trkpt>
      <trkpt lat="46.19635" lon="6.609">
        <ele>1699.2</ele>
        <time>2022-02-13T09:28:58Z</time>
      </trkpt>
      <trkpt lat="46.19634" lon="6.60899">
        <ele>1699.4</ele>
        <time>2022-02-13T09:29:01Z</time>
      </trkpt>
      <trkpt lat="46.19633" lon="6.60898">
        <ele>1699.8</ele>
        <time>2022-02-13T09:29:06Z</time>
      </trkpt>
      <trkpt lat="46.19632" lon="6.60897">
        <ele>1699.8</ele>
        <time>2022-02-13T09:29:08Z</time>
      </trkpt>
      <trkpt lat="46.19632" lon="6.60896">
        <ele>1700</ele>
        <time>2022-02-13T09:29:10Z</time>
      </trkpt>
      <trkpt lat="46.19632" lon="6.60896">
        <ele>1700.2</ele>
        <time>2022-02-13T09:29:11Z</time>
      </trkpt>
      <trkpt lat="46.19631" lon="6.60895">
        <ele>1700.4</ele>
        <time>2022-02-13T09:29:12Z</time>
      </trkpt>
      <trkpt lat="46.1963" lon="6.60895">
        <ele>1700.8</ele>
        <time>2022-02-13T09:29:15Z</time>
      </trkpt>
      <trkpt lat="46.19631" lon="6.60893">
        <ele>1701.4</ele>
        <time>2022-02-13T09:29:20Z</time>
      </trkpt>
      <trkpt lat="46.19629" lon="6.60892">
        <ele>1702.2</ele>
        <time>2022-02-13T09:29:25Z</time>
      </trkpt>
      <trkpt lat="46.19628" lon="6.60891">
        <ele>1702.6</ele>
        <time>2022-02-13T09:29:27Z</time>
      </trkpt>
      <trkpt lat="46.19627" lon="6.60891">
        <ele>1702.6</ele>
        <time>2022-02-13T09:29:28Z</time>
      </trkpt>
      <trkpt lat="46.19626" lon="6.60891">
        <ele>1703.2</ele>
        <time>2022-02-13T09:29:31Z</time>
      </trkpt>
      <trkpt lat="46.19625" lon="6.6089">
        <ele>1703.2</ele>
        <time>2022-02-13T09:29:32Z</time>
      </trkpt>
      <trkpt lat="46.19623" lon="6.60889">
        <ele>1703.6</ele>
        <time>2022-02-13T09:29:35Z</time>
      </trkpt>
      <trkpt lat="46.19622" lon="6.60889">
        <ele>1703.8</ele>
        <time>2022-02-13T09:29:37Z</time>
      </trkpt>
      <trkpt lat="46.19618" lon="6.60888">
        <ele>1704.4</ele>
        <time>2022-02-13T09:29:42Z</time>
      </trkpt>
      <trkpt lat="46.19617" lon="6.60888">
        <ele>1704.8</ele>
        <time>2022-02-13T09:29:44Z</time>
      </trkpt>
      <trkpt lat="46.19618" lon="6.60892">
        <ele>1705.2</ele>
        <time>2022-02-13T09:29:52Z</time>
      </trkpt>
      <trkpt lat="46.19618" lon="6.60895">
        <ele>1705.4</ele>
        <time>2022-02-13T09:29:56Z</time>
      </trkpt>
      <trkpt lat="46.19619" lon="6.60897">
        <ele>1705.4</ele>
        <time>2022-02-13T09:29:58Z</time>
      </trkpt>
      <trkpt lat="46.19619" lon="6.60898">
        <ele>1705.8</ele>
        <time>2022-02-13T09:30:00Z</time>
      </trkpt>
      <trkpt lat="46.19619" lon="6.60901">
        <ele>1706.8</ele>
        <time>2022-02-13T09:30:04Z</time>
      </trkpt>
      <trkpt lat="46.19619" lon="6.60902">
        <ele>1707</ele>
        <time>2022-02-13T09:30:05Z</time>
      </trkpt>
      <trkpt lat="46.1962" lon="6.60905">
        <ele>1707.2</ele>
        <time>2022-02-13T09:30:09Z</time>
      </trkpt>
      <trkpt lat="46.19619" lon="6.60909">
        <ele>1707.8</ele>
        <time>2022-02-13T09:30:16Z</time>
      </trkpt>
      <trkpt lat="46.19619" lon="6.6091">
        <ele>1708.2</ele>
        <time>2022-02-13T09:30:19Z</time>
      </trkpt>
      <trkpt lat="46.1962" lon="6.60911">
        <ele>1708.4</ele>
        <time>2022-02-13T09:30:20Z</time>
      </trkpt>
      <trkpt lat="46.1962" lon="6.60913">
        <ele>1708.8</ele>
        <time>2022-02-13T09:30:24Z</time>
      </trkpt>
      <trkpt lat="46.19621" lon="6.60914">
        <ele>1709.2</ele>
        <time>2022-02-13T09:30:26Z</time>
      </trkpt>
      <trkpt lat="46.19622" lon="6.60918">
        <ele>1710</ele>
        <time>2022-02-13T09:30:32Z</time>
      </trkpt>
      <trkpt lat="46.19622" lon="6.60918">
        <ele>1710</ele>
        <time>2022-02-13T09:30:33Z</time>
      </trkpt>
      <trkpt lat="46.19624" lon="6.60923">
        <ele>1711</ele>
        <time>2022-02-13T09:30:40Z</time>
      </trkpt>
      <trkpt lat="46.19624" lon="6.60924">
        <ele>1711.2</ele>
        <time>2022-02-13T09:30:41Z</time>
      </trkpt>
      <trkpt lat="46.19624" lon="6.60926">
        <ele>1711.8</ele>
        <time>2022-02-13T09:30:44Z</time>
      </trkpt>
      <trkpt lat="46.19624" lon="6.6093">
        <ele>1712.2</ele>
        <time>2022-02-13T09:30:49Z</time>
      </trkpt>
      <trkpt lat="46.19625" lon="6.60933">
        <ele>1713.2</ele>
        <time>2022-02-13T09:30:54Z</time>
      </trkpt>
      <trkpt lat="46.19625" lon="6.60934">
        <ele>1713.4</ele>
        <time>2022-02-13T09:30:55Z</time>
      </trkpt>
      <trkpt lat="46.19626" lon="6.60937">
        <ele>1713.6</ele>
        <time>2022-02-13T09:30:58Z</time>
      </trkpt>
      <trkpt lat="46.19626" lon="6.60937">
        <ele>1713.8</ele>
        <time>2022-02-13T09:30:59Z</time>
      </trkpt>
      <trkpt lat="46.19625" lon="6.60942">
        <ele>1714.4</ele>
        <time>2022-02-13T09:31:04Z</time>
      </trkpt>
      <trkpt lat="46.19626" lon="6.60944">
        <ele>1715.2</ele>
        <time>2022-02-13T09:31:07Z</time>
      </trkpt>
      <trkpt lat="46.19626" lon="6.60945">
        <ele>1715.2</ele>
        <time>2022-02-13T09:31:08Z</time>
      </trkpt>
      <trkpt lat="46.19627" lon="6.60946">
        <ele>1715.6</ele>
        <time>2022-02-13T09:31:11Z</time>
      </trkpt>
      <trkpt lat="46.19627" lon="6.60947">
        <ele>1716.2</ele>
        <time>2022-02-13T09:31:19Z</time>
      </trkpt>
      <trkpt lat="46.19627" lon="6.60947">
        <ele>1716.4</ele>
        <time>2022-02-13T09:31:20Z</time>
      </trkpt>
      <trkpt lat="46.19627" lon="6.60947">
        <ele>1716.4</ele>
        <time>2022-02-13T09:31:22Z</time>
      </trkpt>
      <trkpt lat="46.19626" lon="6.60946">
        <ele>1716.8</ele>
        <time>2022-02-13T09:31:23Z</time>
      </trkpt>
      <trkpt lat="46.19626" lon="6.60945">
        <ele>1717.4</ele>
        <time>2022-02-13T09:31:25Z</time>
      </trkpt>
      <trkpt lat="46.19626" lon="6.60944">
        <ele>1717.6</ele>
        <time>2022-02-13T09:31:27Z</time>
      </trkpt>
      <trkpt lat="46.19625" lon="6.60942">
        <ele>1717.8</ele>
        <time>2022-02-13T09:31:30Z</time>
      </trkpt>
      <trkpt lat="46.19624" lon="6.60942">
        <ele>1717.8</ele>
        <time>2022-02-13T09:31:31Z</time>
      </trkpt>
      <trkpt lat="46.19622" lon="6.6094">
        <ele>1718.6</ele>
        <time>2022-02-13T09:31:38Z</time>
      </trkpt>
      <trkpt lat="46.19621" lon="6.6094">
        <ele>1718.8</ele>
        <time>2022-02-13T09:31:39Z</time>
      </trkpt>
      <trkpt lat="46.19617" lon="6.60939">
        <ele>1719.6</ele>
        <time>2022-02-13T09:31:46Z</time>
      </trkpt>
      <trkpt lat="46.19615" lon="6.60939">
        <ele>1720</ele>
        <time>2022-02-13T09:31:48Z</time>
      </trkpt>
      <trkpt lat="46.19614" lon="6.60938">
        <ele>1720.4</ele>
        <time>2022-02-13T09:31:51Z</time>
      </trkpt>
      <trkpt lat="46.19614" lon="6.60938">
        <ele>1720.6</ele>
        <time>2022-02-13T09:31:52Z</time>
      </trkpt>
      <trkpt lat="46.19612" lon="6.60937">
        <ele>1720.8</ele>
        <time>2022-02-13T09:31:56Z</time>
      </trkpt>
      <trkpt lat="46.19611" lon="6.60936">
        <ele>1721</ele>
        <time>2022-02-13T09:31:58Z</time>
      </trkpt>
      <trkpt lat="46.1961" lon="6.60936">
        <ele>1721.2</ele>
        <time>2022-02-13T09:31:59Z</time>
      </trkpt>
      <trkpt lat="46.19608" lon="6.60935">
        <ele>1721.6</ele>
        <time>2022-02-13T09:32:02Z</time>
      </trkpt>
      <trkpt lat="46.19605" lon="6.60934">
        <ele>1722.2</ele>
        <time>2022-02-13T09:32:07Z</time>
      </trkpt>
      <trkpt lat="46.19604" lon="6.60933">
        <ele>1722.4</ele>
        <time>2022-02-13T09:32:09Z</time>
      </trkpt>
      <trkpt lat="46.19602" lon="6.60932">
        <ele>1723</ele>
        <time>2022-02-13T09:32:13Z</time>
      </trkpt>
      <trkpt lat="46.19601" lon="6.60931">
        <ele>1723.2</ele>
        <time>2022-02-13T09:32:14Z</time>
      </trkpt>
      <trkpt lat="46.19597" lon="6.6093">
        <ele>1724.2</ele>
        <time>2022-02-13T09:32:19Z</time>
      </trkpt>
      <trkpt lat="46.19596" lon="6.60928">
        <ele>1725</ele>
        <time>2022-02-13T09:32:26Z</time>
      </trkpt>
      <trkpt lat="46.19596" lon="6.60927">
        <ele>1725.2</ele>
        <time>2022-02-13T09:32:27Z</time>
      </trkpt>
      <trkpt lat="46.19596" lon="6.60927">
        <ele>1725.2</ele>
        <time>2022-02-13T09:32:28Z</time>
      </trkpt>
      <trkpt lat="46.19596" lon="6.60927">
        <ele>1725.6</ele>
        <time>2022-02-13T09:32:29Z</time>
      </trkpt>
      <trkpt lat="46.19594" lon="6.60926">
        <ele>1726</ele>
        <time>2022-02-13T09:32:32Z</time>
      </trkpt>
      <trkpt lat="46.19592" lon="6.60925">
        <ele>1726.2</ele>
        <time>2022-02-13T09:32:36Z</time>
      </trkpt>
      <trkpt lat="46.1959" lon="6.60924">
        <ele>1726.6</ele>
        <time>2022-02-13T09:32:40Z</time>
      </trkpt>
      <trkpt lat="46.19589" lon="6.60924">
        <ele>1726.6</ele>
        <time>2022-02-13T09:32:41Z</time>
      </trkpt>
      <trkpt lat="46.19588" lon="6.60922">
        <ele>1727.6</ele>
        <time>2022-02-13T09:32:46Z</time>
      </trkpt>
      <trkpt lat="46.19585" lon="6.6092">
        <ele>1728</ele>
        <time>2022-02-13T09:32:50Z</time>
      </trkpt>
      <trkpt lat="46.19584" lon="6.60919">
        <ele>1728.8</ele>
        <time>2022-02-13T09:32:53Z</time>
      </trkpt>
      <trkpt lat="46.19582" lon="6.60918">
        <ele>1729</ele>
        <time>2022-02-13T09:32:57Z</time>
      </trkpt>
      <trkpt lat="46.19579" lon="6.60916">
        <ele>1730</ele>
        <time>2022-02-13T09:33:04Z</time>
      </trkpt>
      <trkpt lat="46.19579" lon="6.60915">
        <ele>1730.8</ele>
        <time>2022-02-13T09:33:11Z</time>
      </trkpt>
      <trkpt lat="46.1958" lon="6.60916">
        <ele>1731</ele>
        <time>2022-02-13T09:33:15Z</time>
      </trkpt>
      <trkpt lat="46.19582" lon="6.6092">
        <ele>1731.4</ele>
        <time>2022-02-13T09:33:21Z</time>
      </trkpt>
      <trkpt lat="46.19582" lon="6.60921">
        <ele>1731.6</ele>
        <time>2022-02-13T09:33:23Z</time>
      </trkpt>
      <trkpt lat="46.19583" lon="6.60924">
        <ele>1732.2</ele>
        <time>2022-02-13T09:33:27Z</time>
      </trkpt>
      <trkpt lat="46.19583" lon="6.60928">
        <ele>1732.8</ele>
        <time>2022-02-13T09:33:32Z</time>
      </trkpt>
      <trkpt lat="46.19583" lon="6.6093">
        <ele>1733.2</ele>
        <time>2022-02-13T09:33:34Z</time>
      </trkpt>
      <trkpt lat="46.19584" lon="6.6093">
        <ele>1733.6</ele>
        <time>2022-02-13T09:33:35Z</time>
      </trkpt>
      <trkpt lat="46.19584" lon="6.60931">
        <ele>1733.8</ele>
        <time>2022-02-13T09:33:37Z</time>
      </trkpt>
      <trkpt lat="46.19584" lon="6.60932">
        <ele>1734</ele>
        <time>2022-02-13T09:33:38Z</time>
      </trkpt>
      <trkpt lat="46.19585" lon="6.60935">
        <ele>1734.4</ele>
        <time>2022-02-13T09:33:43Z</time>
      </trkpt>
      <trkpt lat="46.19585" lon="6.60938">
        <ele>1735.2</ele>
        <time>2022-02-13T09:33:46Z</time>
      </trkpt>
      <trkpt lat="46.19585" lon="6.60939">
        <ele>1735.6</ele>
        <time>2022-02-13T09:33:48Z</time>
      </trkpt>
      <trkpt lat="46.19586" lon="6.6094">
        <ele>1735.8</ele>
        <time>2022-02-13T09:33:49Z</time>
      </trkpt>
      <trkpt lat="46.19586" lon="6.60941">
        <ele>1736</ele>
        <time>2022-02-13T09:33:51Z</time>
      </trkpt>
      <trkpt lat="46.19587" lon="6.60942">
        <ele>1736.4</ele>
        <time>2022-02-13T09:33:56Z</time>
      </trkpt>
      <trkpt lat="46.19587" lon="6.60942">
        <ele>1736.6</ele>
        <time>2022-02-13T09:33:57Z</time>
      </trkpt>
      <trkpt lat="46.19587" lon="6.60943">
        <ele>1736.8</ele>
        <time>2022-02-13T09:33:59Z</time>
      </trkpt>
      <trkpt lat="46.19585" lon="6.60943">
        <ele>1738</ele>
        <time>2022-02-13T09:34:03Z</time>
      </trkpt>
      <trkpt lat="46.19583" lon="6.60942">
        <ele>1738.6</ele>
        <time>2022-02-13T09:34:07Z</time>
      </trkpt>
      <trkpt lat="46.19582" lon="6.60942">
        <ele>1738.6</ele>
        <time>2022-02-13T09:34:09Z</time>
      </trkpt>
      <trkpt lat="46.19581" lon="6.60941">
        <ele>1739.2</ele>
        <time>2022-02-13T09:34:13Z</time>
      </trkpt>
      <trkpt lat="46.19579" lon="6.60938">
        <ele>1740</ele>
        <time>2022-02-13T09:34:20Z</time>
      </trkpt>
      <trkpt lat="46.19578" lon="6.60937">
        <ele>1740.2</ele>
        <time>2022-02-13T09:34:22Z</time>
      </trkpt>
      <trkpt lat="46.19577" lon="6.60936">
        <ele>1740.4</ele>
        <time>2022-02-13T09:34:24Z</time>
      </trkpt>
      <trkpt lat="46.19574" lon="6.60933">
        <ele>1740.6</ele>
        <time>2022-02-13T09:34:27Z</time>
      </trkpt>
      <trkpt lat="46.1957" lon="6.60929">
        <ele>1740.6</ele>
        <time>2022-02-13T09:34:34Z</time>
      </trkpt>
      <trkpt lat="46.1957" lon="6.60927">
        <ele>1740.6</ele>
        <time>2022-02-13T09:34:36Z</time>
      </trkpt>
      <trkpt lat="46.19569" lon="6.60926">
        <ele>1740.6</ele>
        <time>2022-02-13T09:34:38Z</time>
      </trkpt>
      <trkpt lat="46.19566" lon="6.60923">
        <ele>1741.2</ele>
        <time>2022-02-13T09:34:42Z</time>
      </trkpt>
      <trkpt lat="46.19566" lon="6.60922">
        <ele>1741.4</ele>
        <time>2022-02-13T09:34:43Z</time>
      </trkpt>
      <trkpt lat="46.19563" lon="6.60921">
        <ele>1741.6</ele>
        <time>2022-02-13T09:34:46Z</time>
      </trkpt>
      <trkpt lat="46.1956" lon="6.6092">
        <ele>1742</ele>
        <time>2022-02-13T09:34:48Z</time>
      </trkpt>
      <trkpt lat="46.19557" lon="6.60918">
        <ele>1742.6</ele>
        <time>2022-02-13T09:34:53Z</time>
      </trkpt>
      <trkpt lat="46.19556" lon="6.60917">
        <ele>1742.8</ele>
        <time>2022-02-13T09:34:55Z</time>
      </trkpt>
      <trkpt lat="46.19555" lon="6.60918">
        <ele>1743</ele>
        <time>2022-02-13T09:34:57Z</time>
      </trkpt>
      <trkpt lat="46.19554" lon="6.60916">
        <ele>1743.6</ele>
        <time>2022-02-13T09:35:01Z</time>
      </trkpt>
      <trkpt lat="46.19553" lon="6.60915">
        <ele>1744</ele>
        <time>2022-02-13T09:35:03Z</time>
      </trkpt>
      <trkpt lat="46.19552" lon="6.60912">
        <ele>1744.6</ele>
        <time>2022-02-13T09:35:06Z</time>
      </trkpt>
      <trkpt lat="46.19551" lon="6.60912">
        <ele>1744.6</ele>
        <time>2022-02-13T09:35:07Z</time>
      </trkpt>
      <trkpt lat="46.19551" lon="6.60911">
        <ele>1744.8</ele>
        <time>2022-02-13T09:35:08Z</time>
      </trkpt>
      <trkpt lat="46.1955" lon="6.60909">
        <ele>1744.8</ele>
        <time>2022-02-13T09:35:10Z</time>
      </trkpt>
      <trkpt lat="46.1955" lon="6.60908">
        <ele>1745</ele>
        <time>2022-02-13T09:35:12Z</time>
      </trkpt>
      <trkpt lat="46.19551" lon="6.60907">
        <ele>1745</ele>
        <time>2022-02-13T09:35:13Z</time>
      </trkpt>
      <trkpt lat="46.19551" lon="6.60907">
        <ele>1745.2</ele>
        <time>2022-02-13T09:35:14Z</time>
      </trkpt>
      <trkpt lat="46.19551" lon="6.60905">
        <ele>1745.8</ele>
        <time>2022-02-13T09:35:17Z</time>
      </trkpt>
      <trkpt lat="46.19551" lon="6.60902">
        <ele>1746.8</ele>
        <time>2022-02-13T09:35:22Z</time>
      </trkpt>
      <trkpt lat="46.1955" lon="6.60898">
        <ele>1747.8</ele>
        <time>2022-02-13T09:35:29Z</time>
      </trkpt>
      <trkpt lat="46.1955" lon="6.60896">
        <ele>1748.4</ele>
        <time>2022-02-13T09:35:32Z</time>
      </trkpt>
      <trkpt lat="46.19549" lon="6.60895">
        <ele>1748.8</ele>
        <time>2022-02-13T09:35:34Z</time>
      </trkpt>
      <trkpt lat="46.19548" lon="6.60895">
        <ele>1748.8</ele>
        <time>2022-02-13T09:35:35Z</time>
      </trkpt>
      <trkpt lat="46.19548" lon="6.60893">
        <ele>1749</ele>
        <time>2022-02-13T09:35:37Z</time>
      </trkpt>
      <trkpt lat="46.19548" lon="6.60891">
        <ele>1750</ele>
        <time>2022-02-13T09:35:41Z</time>
      </trkpt>
      <trkpt lat="46.19543" lon="6.60885">
        <ele>1751</ele>
        <time>2022-02-13T09:35:51Z</time>
      </trkpt>
      <trkpt lat="46.19543" lon="6.60885">
        <ele>1751.2</ele>
        <time>2022-02-13T09:35:52Z</time>
      </trkpt>
      <trkpt lat="46.1954" lon="6.60882">
        <ele>1752.2</ele>
        <time>2022-02-13T09:35:57Z</time>
      </trkpt>
      <trkpt lat="46.1954" lon="6.60878">
        <ele>1753.2</ele>
        <time>2022-02-13T09:36:04Z</time>
      </trkpt>
      <trkpt lat="46.1954" lon="6.60877">
        <ele>1753.4</ele>
        <time>2022-02-13T09:36:05Z</time>
      </trkpt>
      <trkpt lat="46.1954" lon="6.60877">
        <ele>1753.6</ele>
        <time>2022-02-13T09:36:06Z</time>
      </trkpt>
      <trkpt lat="46.1954" lon="6.60873">
        <ele>1754.4</ele>
        <time>2022-02-13T09:36:11Z</time>
      </trkpt>
      <trkpt lat="46.1954" lon="6.60872">
        <ele>1755</ele>
        <time>2022-02-13T09:36:13Z</time>
      </trkpt>
      <trkpt lat="46.1954" lon="6.60871">
        <ele>1755</ele>
        <time>2022-02-13T09:36:15Z</time>
      </trkpt>
      <trkpt lat="46.1954" lon="6.6087">
        <ele>1755.6</ele>
        <time>2022-02-13T09:36:17Z</time>
      </trkpt>
      <trkpt lat="46.1954" lon="6.60868">
        <ele>1755.8</ele>
        <time>2022-02-13T09:36:19Z</time>
      </trkpt>
      <trkpt lat="46.1954" lon="6.60866">
        <ele>1756.4</ele>
        <time>2022-02-13T09:36:22Z</time>
      </trkpt>
      <trkpt lat="46.19539" lon="6.60865">
        <ele>1756.6</ele>
        <time>2022-02-13T09:36:24Z</time>
      </trkpt>
      <trkpt lat="46.19538" lon="6.60862">
        <ele>1757.6</ele>
        <time>2022-02-13T09:36:29Z</time>
      </trkpt>
      <trkpt lat="46.19536" lon="6.60859">
        <ele>1758.2</ele>
        <time>2022-02-13T09:36:33Z</time>
      </trkpt>
      <trkpt lat="46.19534" lon="6.60855">
        <ele>1758.8</ele>
        <time>2022-02-13T09:36:38Z</time>
      </trkpt>
      <trkpt lat="46.19531" lon="6.60847">
        <ele>1759</ele>
        <time>2022-02-13T09:36:44Z</time>
      </trkpt>
      <trkpt lat="46.19531" lon="6.60846">
        <ele>1759.2</ele>
        <time>2022-02-13T09:36:47Z</time>
      </trkpt>
      <trkpt lat="46.1953" lon="6.60843">
        <ele>1759.2</ele>
        <time>2022-02-13T09:36:50Z</time>
      </trkpt>
      <trkpt lat="46.19528" lon="6.60838">
        <ele>1759.8</ele>
        <time>2022-02-13T09:36:56Z</time>
      </trkpt>
      <trkpt lat="46.19528" lon="6.60834">
        <ele>1760</ele>
        <time>2022-02-13T09:37:00Z</time>
      </trkpt>
      <trkpt lat="46.19528" lon="6.60828">
        <ele>1760.4</ele>
        <time>2022-02-13T09:37:06Z</time>
      </trkpt>
      <trkpt lat="46.19526" lon="6.60825">
        <ele>1760.6</ele>
        <time>2022-02-13T09:37:10Z</time>
      </trkpt>
      <trkpt lat="46.19525" lon="6.60824">
        <ele>1760.8</ele>
        <time>2022-02-13T09:37:12Z</time>
      </trkpt>
      <trkpt lat="46.19525" lon="6.60823">
        <ele>1761</ele>
        <time>2022-02-13T09:37:13Z</time>
      </trkpt>
      <trkpt lat="46.19523" lon="6.60821">
        <ele>1761.4</ele>
        <time>2022-02-13T09:37:16Z</time>
      </trkpt>
      <trkpt lat="46.19521" lon="6.60817">
        <ele>1762</ele>
        <time>2022-02-13T09:37:22Z</time>
      </trkpt>
      <trkpt lat="46.1952" lon="6.60816">
        <ele>1762</ele>
        <time>2022-02-13T09:37:23Z</time>
      </trkpt>
      <trkpt lat="46.19518" lon="6.60814">
        <ele>1762</ele>
        <time>2022-02-13T09:37:26Z</time>
      </trkpt>
      <trkpt lat="46.19517" lon="6.60811">
        <ele>1762.4</ele>
        <time>2022-02-13T09:37:28Z</time>
      </trkpt>
      <trkpt lat="46.19516" lon="6.60809">
        <ele>1762.6</ele>
        <time>2022-02-13T09:37:30Z</time>
      </trkpt>
      <trkpt lat="46.19512" lon="6.60803">
        <ele>1763.2</ele>
        <time>2022-02-13T09:37:38Z</time>
      </trkpt>
      <trkpt lat="46.19511" lon="6.608">
        <ele>1763.4</ele>
        <time>2022-02-13T09:37:41Z</time>
      </trkpt>
      <trkpt lat="46.19509" lon="6.60795">
        <ele>1763.4</ele>
        <time>2022-02-13T09:37:45Z</time>
      </trkpt>
      <trkpt lat="46.19505" lon="6.60787">
        <ele>1763.4</ele>
        <time>2022-02-13T09:37:52Z</time>
      </trkpt>
      <trkpt lat="46.19501" lon="6.60777">
        <ele>1764.2</ele>
        <time>2022-02-13T09:38:03Z</time>
      </trkpt>
      <trkpt lat="46.19501" lon="6.60776">
        <ele>1764.2</ele>
        <time>2022-02-13T09:38:04Z</time>
      </trkpt>
      <trkpt lat="46.19502" lon="6.60774">
        <ele>1764.4</ele>
        <time>2022-02-13T09:38:06Z</time>
      </trkpt>
      <trkpt lat="46.195" lon="6.60768">
        <ele>1765.2</ele>
        <time>2022-02-13T09:38:13Z</time>
      </trkpt>
      <trkpt lat="46.195" lon="6.60766">
        <ele>1765.6</ele>
        <time>2022-02-13T09:38:15Z</time>
      </trkpt>
      <trkpt lat="46.195" lon="6.60765">
        <ele>1765.6</ele>
        <time>2022-02-13T09:38:16Z</time>
      </trkpt>
      <trkpt lat="46.195" lon="6.60764">
        <ele>1765.6</ele>
        <time>2022-02-13T09:38:17Z</time>
      </trkpt>
      <trkpt lat="46.19498" lon="6.60759">
        <ele>1765.8</ele>
        <time>2022-02-13T09:38:21Z</time>
      </trkpt>
      <trkpt lat="46.19496" lon="6.60754">
        <ele>1766.2</ele>
        <time>2022-02-13T09:38:25Z</time>
      </trkpt>
      <trkpt lat="46.19495" lon="6.60751">
        <ele>1766.4</ele>
        <time>2022-02-13T09:38:29Z</time>
      </trkpt>
      <trkpt lat="46.19493" lon="6.6074">
        <ele>1767.4</ele>
        <time>2022-02-13T09:38:41Z</time>
      </trkpt>
      <trkpt lat="46.19492" lon="6.60739">
        <ele>1767.6</ele>
        <time>2022-02-13T09:38:42Z</time>
      </trkpt>
      <trkpt lat="46.19491" lon="6.60734">
        <ele>1768.2</ele>
        <time>2022-02-13T09:38:47Z</time>
      </trkpt>
      <trkpt lat="46.1949" lon="6.60733">
        <ele>1768.4</ele>
        <time>2022-02-13T09:38:49Z</time>
      </trkpt>
      <trkpt lat="46.1949" lon="6.6073">
        <ele>1768.6</ele>
        <time>2022-02-13T09:38:52Z</time>
      </trkpt>
      <trkpt lat="46.1949" lon="6.60729">
        <ele>1769.4</ele>
        <time>2022-02-13T09:38:55Z</time>
      </trkpt>
      <trkpt lat="46.1949" lon="6.60728">
        <ele>1769.6</ele>
        <time>2022-02-13T09:38:56Z</time>
      </trkpt>
      <trkpt lat="46.1949" lon="6.60724">
        <ele>1770.6</ele>
        <time>2022-02-13T09:39:03Z</time>
      </trkpt>
      <trkpt lat="46.1949" lon="6.60721">
        <ele>1771</ele>
        <time>2022-02-13T09:39:06Z</time>
      </trkpt>
      <trkpt lat="46.1949" lon="6.6072">
        <ele>1771.4</ele>
        <time>2022-02-13T09:39:07Z</time>
      </trkpt>
      <trkpt lat="46.1949" lon="6.60719">
        <ele>1771.6</ele>
        <time>2022-02-13T09:39:08Z</time>
      </trkpt>
      <trkpt lat="46.1949" lon="6.60717">
        <ele>1771.6</ele>
        <time>2022-02-13T09:39:10Z</time>
      </trkpt>
      <trkpt lat="46.1949" lon="6.60713">
        <ele>1772.8</ele>
        <time>2022-02-13T09:39:16Z</time>
      </trkpt>
      <trkpt lat="46.1949" lon="6.6071">
        <ele>1773.8</ele>
        <time>2022-02-13T09:39:21Z</time>
      </trkpt>
      <trkpt lat="46.19489" lon="6.60709">
        <ele>1774</ele>
        <time>2022-02-13T09:39:23Z</time>
      </trkpt>
      <trkpt lat="46.19488" lon="6.60707">
        <ele>1774.8</ele>
        <time>2022-02-13T09:39:28Z</time>
      </trkpt>
      <trkpt lat="46.19488" lon="6.60705">
        <ele>1775</ele>
        <time>2022-02-13T09:39:31Z</time>
      </trkpt>
      <trkpt lat="46.19488" lon="6.60704">
        <ele>1775.2</ele>
        <time>2022-02-13T09:39:32Z</time>
      </trkpt>
      <trkpt lat="46.19489" lon="6.60701">
        <ele>1775.8</ele>
        <time>2022-02-13T09:39:36Z</time>
      </trkpt>
      <trkpt lat="46.19489" lon="6.607">
        <ele>1776.2</ele>
        <time>2022-02-13T09:39:38Z</time>
      </trkpt>
      <trkpt lat="46.19488" lon="6.60697">
        <ele>1777</ele>
        <time>2022-02-13T09:39:42Z</time>
      </trkpt>
      <trkpt lat="46.19486" lon="6.60688">
        <ele>1777.6</ele>
        <time>2022-02-13T09:39:51Z</time>
      </trkpt>
      <trkpt lat="46.19487" lon="6.60687">
        <ele>1777.8</ele>
        <time>2022-02-13T09:39:52Z</time>
      </trkpt>
      <trkpt lat="46.19487" lon="6.60685">
        <ele>1778.2</ele>
        <time>2022-02-13T09:39:55Z</time>
      </trkpt>
      <trkpt lat="46.19487" lon="6.60683">
        <ele>1778.6</ele>
        <time>2022-02-13T09:39:58Z</time>
      </trkpt>
      <trkpt lat="46.19487" lon="6.60681">
        <ele>1779</ele>
        <time>2022-02-13T09:40:00Z</time>
      </trkpt>
      <trkpt lat="46.19487" lon="6.6068">
        <ele>1779.2</ele>
        <time>2022-02-13T09:40:02Z</time>
      </trkpt>
      <trkpt lat="46.19486" lon="6.60678">
        <ele>1780</ele>
        <time>2022-02-13T09:40:05Z</time>
      </trkpt>
      <trkpt lat="46.19485" lon="6.60677">
        <ele>1780.4</ele>
        <time>2022-02-13T09:40:07Z</time>
      </trkpt>
      <trkpt lat="46.19481" lon="6.60674">
        <ele>1781.4</ele>
        <time>2022-02-13T09:40:13Z</time>
      </trkpt>
      <trkpt lat="46.19479" lon="6.60671">
        <ele>1782</ele>
        <time>2022-02-13T09:40:18Z</time>
      </trkpt>
      <trkpt lat="46.19478" lon="6.60669">
        <ele>1782.4</ele>
        <time>2022-02-13T09:40:21Z</time>
      </trkpt>
      <trkpt lat="46.19478" lon="6.60667">
        <ele>1782.8</ele>
        <time>2022-02-13T09:40:25Z</time>
      </trkpt>
      <trkpt lat="46.19477" lon="6.60665">
        <ele>1783.2</ele>
        <time>2022-02-13T09:40:28Z</time>
      </trkpt>
      <trkpt lat="46.19476" lon="6.60664">
        <ele>1783.6</ele>
        <time>2022-02-13T09:40:30Z</time>
      </trkpt>
      <trkpt lat="46.19476" lon="6.60662">
        <ele>1784</ele>
        <time>2022-02-13T09:40:33Z</time>
      </trkpt>
      <trkpt lat="46.19472" lon="6.60656">
        <ele>1785.8</ele>
        <time>2022-02-13T09:40:44Z</time>
      </trkpt>
      <trkpt lat="46.19469" lon="6.60653">
        <ele>1786.6</ele>
        <time>2022-02-13T09:40:51Z</time>
      </trkpt>
      <trkpt lat="46.19465" lon="6.60649">
        <ele>1788</ele>
        <time>2022-02-13T09:41:01Z</time>
      </trkpt>
      <trkpt lat="46.19463" lon="6.60645">
        <ele>1788.6</ele>
        <time>2022-02-13T09:41:07Z</time>
      </trkpt>
      <trkpt lat="46.19463" lon="6.60645">
        <ele>1788.8</ele>
        <time>2022-02-13T09:41:08Z</time>
      </trkpt>
      <trkpt lat="46.19463" lon="6.60645">
        <ele>1789</ele>
        <time>2022-02-13T09:41:09Z</time>
      </trkpt>
      <trkpt lat="46.19462" lon="6.60644">
        <ele>1789.2</ele>
        <time>2022-02-13T09:41:10Z</time>
      </trkpt>
      <trkpt lat="46.19462" lon="6.60643">
        <ele>1789.2</ele>
        <time>2022-02-13T09:41:11Z</time>
      </trkpt>
      <trkpt lat="46.19464" lon="6.60639">
        <ele>1790.2</ele>
        <time>2022-02-13T09:41:17Z</time>
      </trkpt>
      <trkpt lat="46.19465" lon="6.60639">
        <ele>1790.8</ele>
        <time>2022-02-13T09:41:21Z</time>
      </trkpt>
      <trkpt lat="46.19466" lon="6.60638">
        <ele>1791.2</ele>
        <time>2022-02-13T09:41:23Z</time>
      </trkpt>
      <trkpt lat="46.19467" lon="6.60632">
        <ele>1791.6</ele>
        <time>2022-02-13T09:41:31Z</time>
      </trkpt>
      <trkpt lat="46.19468" lon="6.60631">
        <ele>1792</ele>
        <time>2022-02-13T09:41:32Z</time>
      </trkpt>
      <trkpt lat="46.19469" lon="6.60629">
        <ele>1792.4</ele>
        <time>2022-02-13T09:41:34Z</time>
      </trkpt>
      <trkpt lat="46.19469" lon="6.60625">
        <ele>1793.6</ele>
        <time>2022-02-13T09:41:39Z</time>
      </trkpt>
      <trkpt lat="46.19467" lon="6.6062">
        <ele>1794.4</ele>
        <time>2022-02-13T09:41:48Z</time>
      </trkpt>
      <trkpt lat="46.19466" lon="6.60619">
        <ele>1794.6</ele>
        <time>2022-02-13T09:41:49Z</time>
      </trkpt>
      <trkpt lat="46.19463" lon="6.60616">
        <ele>1795.2</ele>
        <time>2022-02-13T09:41:54Z</time>
      </trkpt>
      <trkpt lat="46.19462" lon="6.60615">
        <ele>1795.2</ele>
        <time>2022-02-13T09:41:56Z</time>
      </trkpt>
      <trkpt lat="46.1946" lon="6.60612">
        <ele>1795.6</ele>
        <time>2022-02-13T09:42:00Z</time>
      </trkpt>
      <trkpt lat="46.19459" lon="6.60609">
        <ele>1795.8</ele>
        <time>2022-02-13T09:42:04Z</time>
      </trkpt>
      <trkpt lat="46.19458" lon="6.60607">
        <ele>1796.6</ele>
        <time>2022-02-13T09:42:07Z</time>
      </trkpt>
      <trkpt lat="46.19457" lon="6.60605">
        <ele>1797</ele>
        <time>2022-02-13T09:42:10Z</time>
      </trkpt>
      <trkpt lat="46.19457" lon="6.60603">
        <ele>1797.6</ele>
        <time>2022-02-13T09:42:13Z</time>
      </trkpt>
      <trkpt lat="46.19455" lon="6.60601">
        <ele>1798</ele>
        <time>2022-02-13T09:42:16Z</time>
      </trkpt>
      <trkpt lat="46.19453" lon="6.60596">
        <ele>1799.2</ele>
        <time>2022-02-13T09:42:24Z</time>
      </trkpt>
      <trkpt lat="46.19453" lon="6.60595">
        <ele>1799.2</ele>
        <time>2022-02-13T09:42:27Z</time>
      </trkpt>
      <trkpt lat="46.1945" lon="6.60592">
        <ele>1800.2</ele>
        <time>2022-02-13T09:42:34Z</time>
      </trkpt>
      <trkpt lat="46.19448" lon="6.60588">
        <ele>1801.2</ele>
        <time>2022-02-13T09:42:41Z</time>
      </trkpt>
      <trkpt lat="46.19445" lon="6.60585">
        <ele>1802</ele>
        <time>2022-02-13T09:42:48Z</time>
      </trkpt>
      <trkpt lat="46.19444" lon="6.60585">
        <ele>1802.2</ele>
        <time>2022-02-13T09:42:50Z</time>
      </trkpt>
      <trkpt lat="46.19442" lon="6.60584">
        <ele>1802.6</ele>
        <time>2022-02-13T09:42:53Z</time>
      </trkpt>
      <trkpt lat="46.1944" lon="6.60583">
        <ele>1802.8</ele>
        <time>2022-02-13T09:42:55Z</time>
      </trkpt>
      <trkpt lat="46.19437" lon="6.60582">
        <ele>1803.4</ele>
        <time>2022-02-13T09:42:59Z</time>
      </trkpt>
      <trkpt lat="46.19435" lon="6.6058">
        <ele>1803.8</ele>
        <time>2022-02-13T09:43:02Z</time>
      </trkpt>
      <trkpt lat="46.19433" lon="6.60578">
        <ele>1804</ele>
        <time>2022-02-13T09:43:05Z</time>
      </trkpt>
      <trkpt lat="46.19432" lon="6.60578">
        <ele>1804.4</ele>
        <time>2022-02-13T09:43:06Z</time>
      </trkpt>
      <trkpt lat="46.19432" lon="6.60577">
        <ele>1804.6</ele>
        <time>2022-02-13T09:43:07Z</time>
      </trkpt>
      <trkpt lat="46.19432" lon="6.60577">
        <ele>1804.6</ele>
        <time>2022-02-13T09:43:08Z</time>
      </trkpt>
      <trkpt lat="46.19429" lon="6.60573">
        <ele>1805.2</ele>
        <time>2022-02-13T09:43:14Z</time>
      </trkpt>
      <trkpt lat="46.19427" lon="6.60572">
        <ele>1805.8</ele>
        <time>2022-02-13T09:43:18Z</time>
      </trkpt>
      <trkpt lat="46.19424" lon="6.6057">
        <ele>1806.2</ele>
        <time>2022-02-13T09:43:22Z</time>
      </trkpt>
      <trkpt lat="46.19423" lon="6.60569">
        <ele>1806.2</ele>
        <time>2022-02-13T09:43:25Z</time>
      </trkpt>
      <trkpt lat="46.19423" lon="6.60567">
        <ele>1806.6</ele>
        <time>2022-02-13T09:43:27Z</time>
      </trkpt>
      <trkpt lat="46.19423" lon="6.60567">
        <ele>1806.8</ele>
        <time>2022-02-13T09:43:28Z</time>
      </trkpt>
      <trkpt lat="46.19422" lon="6.60566">
        <ele>1806.8</ele>
        <time>2022-02-13T09:43:29Z</time>
      </trkpt>
      <trkpt lat="46.1942" lon="6.60565">
        <ele>1807</ele>
        <time>2022-02-13T09:43:32Z</time>
      </trkpt>
      <trkpt lat="46.1942" lon="6.60562">
        <ele>1807.4</ele>
        <time>2022-02-13T09:43:35Z</time>
      </trkpt>
      <trkpt lat="46.19419" lon="6.60559">
        <ele>1807.8</ele>
        <time>2022-02-13T09:43:40Z</time>
      </trkpt>
      <trkpt lat="46.19419" lon="6.60556">
        <ele>1808.2</ele>
        <time>2022-02-13T09:43:44Z</time>
      </trkpt>
      <trkpt lat="46.19418" lon="6.60552">
        <ele>1808.6</ele>
        <time>2022-02-13T09:43:48Z</time>
      </trkpt>
      <trkpt lat="46.19419" lon="6.6055">
        <ele>1808.8</ele>
        <time>2022-02-13T09:43:51Z</time>
      </trkpt>
      <trkpt lat="46.19419" lon="6.6055">
        <ele>1809</ele>
        <time>2022-02-13T09:43:52Z</time>
      </trkpt>
      <trkpt lat="46.19419" lon="6.60542">
        <ele>1810</ele>
        <time>2022-02-13T09:44:02Z</time>
      </trkpt>
      <trkpt lat="46.19421" lon="6.60538">
        <ele>1811</ele>
        <time>2022-02-13T09:44:10Z</time>
      </trkpt>
      <trkpt lat="46.19422" lon="6.60536">
        <ele>1811.2</ele>
        <time>2022-02-13T09:44:13Z</time>
      </trkpt>
      <trkpt lat="46.19422" lon="6.60535">
        <ele>1811.8</ele>
        <time>2022-02-13T09:44:16Z</time>
      </trkpt>
      <trkpt lat="46.19423" lon="6.60533">
        <ele>1812.4</ele>
        <time>2022-02-13T09:44:19Z</time>
      </trkpt>
      <trkpt lat="46.19423" lon="6.60532">
        <ele>1812.8</ele>
        <time>2022-02-13T09:44:20Z</time>
      </trkpt>
      <trkpt lat="46.19424" lon="6.60531">
        <ele>1813.2</ele>
        <time>2022-02-13T09:44:22Z</time>
      </trkpt>
      <trkpt lat="46.19428" lon="6.60527">
        <ele>1813.6</ele>
        <time>2022-02-13T09:44:27Z</time>
      </trkpt>
      <trkpt lat="46.19429" lon="6.60524">
        <ele>1814.2</ele>
        <time>2022-02-13T09:44:32Z</time>
      </trkpt>
      <trkpt lat="46.19432" lon="6.60517">
        <ele>1814.4</ele>
        <time>2022-02-13T09:44:40Z</time>
      </trkpt>
      <trkpt lat="46.19433" lon="6.60516">
        <ele>1814.4</ele>
        <time>2022-02-13T09:44:41Z</time>
      </trkpt>
      <trkpt lat="46.19434" lon="6.6051">
        <ele>1815.2</ele>
        <time>2022-02-13T09:44:48Z</time>
      </trkpt>
      <trkpt lat="46.19436" lon="6.60505">
        <ele>1815.6</ele>
        <time>2022-02-13T09:44:55Z</time>
      </trkpt>
      <trkpt lat="46.19437" lon="6.60503">
        <ele>1816.2</ele>
        <time>2022-02-13T09:44:58Z</time>
      </trkpt>
      <trkpt lat="46.1944" lon="6.605">
        <ele>1817.2</ele>
        <time>2022-02-13T09:45:06Z</time>
      </trkpt>
      <trkpt lat="46.19441" lon="6.60499">
        <ele>1817.8</ele>
        <time>2022-02-13T09:45:08Z</time>
      </trkpt>
      <trkpt lat="46.19443" lon="6.60497">
        <ele>1818.6</ele>
        <time>2022-02-13T09:45:13Z</time>
      </trkpt>
      <trkpt lat="46.19444" lon="6.60495">
        <ele>1819.2</ele>
        <time>2022-02-13T09:45:18Z</time>
      </trkpt>
      <trkpt lat="46.19444" lon="6.60495">
        <ele>1819.2</ele>
        <time>2022-02-13T09:45:19Z</time>
      </trkpt>
      <trkpt lat="46.19444" lon="6.60495">
        <ele>1819.8</ele>
        <time>2022-02-13T09:45:20Z</time>
      </trkpt>
      <trkpt lat="46.19445" lon="6.60494">
        <ele>1820</ele>
        <time>2022-02-13T09:45:21Z</time>
      </trkpt>
      <trkpt lat="46.19447" lon="6.60493">
        <ele>1820.8</ele>
        <time>2022-02-13T09:45:27Z</time>
      </trkpt>
      <trkpt lat="46.19449" lon="6.60492">
        <ele>1821.4</ele>
        <time>2022-02-13T09:45:30Z</time>
      </trkpt>
      <trkpt lat="46.19449" lon="6.60491">
        <ele>1822</ele>
        <time>2022-02-13T09:45:32Z</time>
      </trkpt>
      <trkpt lat="46.1945" lon="6.6049">
        <ele>1822.6</ele>
        <time>2022-02-13T09:45:36Z</time>
      </trkpt>
      <trkpt lat="46.1945" lon="6.60489">
        <ele>1822.8</ele>
        <time>2022-02-13T09:45:38Z</time>
      </trkpt>
      <trkpt lat="46.1945" lon="6.60488">
        <ele>1823</ele>
        <time>2022-02-13T09:45:39Z</time>
      </trkpt>
      <trkpt lat="46.19451" lon="6.60486">
        <ele>1824</ele>
        <time>2022-02-13T09:45:44Z</time>
      </trkpt>
      <trkpt lat="46.19452" lon="6.60484">
        <ele>1824.6</ele>
        <time>2022-02-13T09:45:48Z</time>
      </trkpt>
      <trkpt lat="46.19451" lon="6.60482">
        <ele>1825</ele>
        <time>2022-02-13T09:45:51Z</time>
      </trkpt>
      <trkpt lat="46.19452" lon="6.60481">
        <ele>1825.2</ele>
        <time>2022-02-13T09:45:52Z</time>
      </trkpt>
      <trkpt lat="46.1945" lon="6.60476">
        <ele>1826.2</ele>
        <time>2022-02-13T09:45:59Z</time>
      </trkpt>
      <trkpt lat="46.1945" lon="6.60476">
        <ele>1826.4</ele>
        <time>2022-02-13T09:46:00Z</time>
      </trkpt>
      <trkpt lat="46.1945" lon="6.60475">
        <ele>1826.6</ele>
        <time>2022-02-13T09:46:02Z</time>
      </trkpt>
      <trkpt lat="46.19447" lon="6.60472">
        <ele>1827.6</ele>
        <time>2022-02-13T09:46:12Z</time>
      </trkpt>
      <trkpt lat="46.19447" lon="6.60471">
        <ele>1827.8</ele>
        <time>2022-02-13T09:46:13Z</time>
      </trkpt>
      <trkpt lat="46.19446" lon="6.6047">
        <ele>1828.6</ele>
        <time>2022-02-13T09:46:17Z</time>
      </trkpt>
      <trkpt lat="46.19445" lon="6.60469">
        <ele>1829.4</ele>
        <time>2022-02-13T09:46:21Z</time>
      </trkpt>
      <trkpt lat="46.19444" lon="6.60468">
        <ele>1829.4</ele>
        <time>2022-02-13T09:46:25Z</time>
      </trkpt>
      <trkpt lat="46.19444" lon="6.60465">
        <ele>1829.8</ele>
        <time>2022-02-13T09:46:29Z</time>
      </trkpt>
      <trkpt lat="46.19445" lon="6.60462">
        <ele>1830.4</ele>
        <time>2022-02-13T09:46:34Z</time>
      </trkpt>
      <trkpt lat="46.19448" lon="6.6046">
        <ele>1831</ele>
        <time>2022-02-13T09:46:39Z</time>
      </trkpt>
      <trkpt lat="46.19448" lon="6.60459">
        <ele>1831</ele>
        <time>2022-02-13T09:46:40Z</time>
      </trkpt>
      <trkpt lat="46.1945" lon="6.60457">
        <ele>1831.2</ele>
        <time>2022-02-13T09:46:44Z</time>
      </trkpt>
      <trkpt lat="46.19451" lon="6.60457">
        <ele>1831.2</ele>
        <time>2022-02-13T09:46:45Z</time>
      </trkpt>
      <trkpt lat="46.19451" lon="6.60456">
        <ele>1831.2</ele>
        <time>2022-02-13T09:46:46Z</time>
      </trkpt>
      <trkpt lat="46.19451" lon="6.60456">
        <ele>1831.4</ele>
        <time>2022-02-13T09:46:47Z</time>
      </trkpt>
      <trkpt lat="46.19452" lon="6.60456">
        <ele>1831.8</ele>
        <time>2022-02-13T09:46:49Z</time>
      </trkpt>
      <trkpt lat="46.19454" lon="6.60454">
        <ele>1832</ele>
        <time>2022-02-13T09:46:53Z</time>
      </trkpt>
      <trkpt lat="46.19455" lon="6.60453">
        <ele>1832.6</ele>
        <time>2022-02-13T09:46:55Z</time>
      </trkpt>
      <trkpt lat="46.19457" lon="6.60452">
        <ele>1833</ele>
        <time>2022-02-13T09:46:58Z</time>
      </trkpt>
      <trkpt lat="46.19458" lon="6.6045">
        <ele>1833.8</ele>
        <time>2022-02-13T09:47:02Z</time>
      </trkpt>
      <trkpt lat="46.19459" lon="6.60449">
        <ele>1834.2</ele>
        <time>2022-02-13T09:47:04Z</time>
      </trkpt>
      <trkpt lat="46.19459" lon="6.60447">
        <ele>1834.6</ele>
        <time>2022-02-13T09:47:07Z</time>
      </trkpt>
      <trkpt lat="46.19459" lon="6.60445">
        <ele>1835.4</ele>
        <time>2022-02-13T09:47:09Z</time>
      </trkpt>
      <trkpt lat="46.19459" lon="6.60444">
        <ele>1835.6</ele>
        <time>2022-02-13T09:47:10Z</time>
      </trkpt>
      <trkpt lat="46.19456" lon="6.60441">
        <ele>1836.6</ele>
        <time>2022-02-13T09:47:14Z</time>
      </trkpt>
      <trkpt lat="46.19453" lon="6.60439">
        <ele>1837.4</ele>
        <time>2022-02-13T09:47:22Z</time>
      </trkpt>
      <trkpt lat="46.19452" lon="6.60439">
        <ele>1837.6</ele>
        <time>2022-02-13T09:47:24Z</time>
      </trkpt>
      <trkpt lat="46.19449" lon="6.60437">
        <ele>1838.8</ele>
        <time>2022-02-13T09:47:35Z</time>
      </trkpt>
      <trkpt lat="46.19447" lon="6.60436">
        <ele>1839.6</ele>
        <time>2022-02-13T09:47:38Z</time>
      </trkpt>
      <trkpt lat="46.19446" lon="6.60436">
        <ele>1839.8</ele>
        <time>2022-02-13T09:47:39Z</time>
      </trkpt>
      <trkpt lat="46.19446" lon="6.60436">
        <ele>1840.2</ele>
        <time>2022-02-13T09:47:41Z</time>
      </trkpt>
      <trkpt lat="46.19444" lon="6.60435">
        <ele>1840.4</ele>
        <time>2022-02-13T09:47:45Z</time>
      </trkpt>
      <trkpt lat="46.19442" lon="6.60434">
        <ele>1840.8</ele>
        <time>2022-02-13T09:47:48Z</time>
      </trkpt>
      <trkpt lat="46.19442" lon="6.60434">
        <ele>1840.8</ele>
        <time>2022-02-13T09:47:49Z</time>
      </trkpt>
      <trkpt lat="46.19441" lon="6.60433">
        <ele>1841</ele>
        <time>2022-02-13T09:47:50Z</time>
      </trkpt>
      <trkpt lat="46.19441" lon="6.60431">
        <ele>1841.2</ele>
        <time>2022-02-13T09:47:53Z</time>
      </trkpt>
      <trkpt lat="46.1944" lon="6.60429">
        <ele>1841.8</ele>
        <time>2022-02-13T09:47:58Z</time>
      </trkpt>
      <trkpt lat="46.19437" lon="6.60427">
        <ele>1842.2</ele>
        <time>2022-02-13T09:48:04Z</time>
      </trkpt>
      <trkpt lat="46.19436" lon="6.60426">
        <ele>1842.2</ele>
        <time>2022-02-13T09:48:05Z</time>
      </trkpt>
      <trkpt lat="46.19434" lon="6.60426">
        <ele>1842.4</ele>
        <time>2022-02-13T09:48:10Z</time>
      </trkpt>
      <trkpt lat="46.1943" lon="6.60426">
        <ele>1843.6</ele>
        <time>2022-02-13T09:48:17Z</time>
      </trkpt>
      <trkpt lat="46.1943" lon="6.60426">
        <ele>1844.6</ele>
        <time>2022-02-13T09:48:19Z</time>
      </trkpt>
      <trkpt lat="46.19428" lon="6.60425">
        <ele>1845.6</ele>
        <time>2022-02-13T09:48:26Z</time>
      </trkpt>
      <trkpt lat="46.19426" lon="6.60424">
        <ele>1845.8</ele>
        <time>2022-02-13T09:48:31Z</time>
      </trkpt>
      <trkpt lat="46.19425" lon="6.60425">
        <ele>1846</ele>
        <time>2022-02-13T09:48:32Z</time>
      </trkpt>
      <trkpt lat="46.19425" lon="6.60424">
        <ele>1846</ele>
        <time>2022-02-13T09:48:33Z</time>
      </trkpt>
      <trkpt lat="46.19422" lon="6.60424">
        <ele>1847.2</ele>
        <time>2022-02-13T09:48:40Z</time>
      </trkpt>
      <trkpt lat="46.19419" lon="6.60421">
        <ele>1847.4</ele>
        <time>2022-02-13T09:48:46Z</time>
      </trkpt>
      <trkpt lat="46.19418" lon="6.60419">
        <ele>1848.4</ele>
        <time>2022-02-13T09:48:48Z</time>
      </trkpt>
      <trkpt lat="46.19417" lon="6.60418">
        <ele>1849.2</ele>
        <time>2022-02-13T09:48:49Z</time>
      </trkpt>
      <trkpt lat="46.19417" lon="6.60417">
        <ele>1849.6</ele>
        <time>2022-02-13T09:48:50Z</time>
      </trkpt>
      <trkpt lat="46.19417" lon="6.60416">
        <ele>1850.4</ele>
        <time>2022-02-13T09:48:51Z</time>
      </trkpt>
      <trkpt lat="46.19417" lon="6.60415">
        <ele>1850.8</ele>
        <time>2022-02-13T09:48:52Z</time>
      </trkpt>
      <trkpt lat="46.19416" lon="6.60414">
        <ele>1851</ele>
        <time>2022-02-13T09:48:53Z</time>
      </trkpt>
      <trkpt lat="46.19416" lon="6.60413">
        <ele>1851.2</ele>
        <time>2022-02-13T09:48:54Z</time>
      </trkpt>
      <trkpt lat="46.19416" lon="6.60411">
        <ele>1851.4</ele>
        <time>2022-02-13T09:48:56Z</time>
      </trkpt>
      <trkpt lat="46.19415" lon="6.60409">
        <ele>1851.8</ele>
        <time>2022-02-13T09:48:58Z</time>
      </trkpt>
      <trkpt lat="46.19415" lon="6.60408">
        <ele>1851.8</ele>
        <time>2022-02-13T09:48:59Z</time>
      </trkpt>
      <trkpt lat="46.19415" lon="6.60405">
        <ele>1852.2</ele>
        <time>2022-02-13T09:49:01Z</time>
      </trkpt>
      <trkpt lat="46.19414" lon="6.60402">
        <ele>1852.6</ele>
        <time>2022-02-13T09:49:05Z</time>
      </trkpt>
      <trkpt lat="46.19414" lon="6.60401">
        <ele>1852.6</ele>
        <time>2022-02-13T09:49:07Z</time>
      </trkpt>
      <trkpt lat="46.19414" lon="6.604">
        <ele>1852.8</ele>
        <time>2022-02-13T09:49:08Z</time>
      </trkpt>
      <trkpt lat="46.19414" lon="6.60398">
        <ele>1852.8</ele>
        <time>2022-02-13T09:49:10Z</time>
      </trkpt>
      <trkpt lat="46.19413" lon="6.60397">
        <ele>1852.8</ele>
        <time>2022-02-13T09:49:12Z</time>
      </trkpt>
      <trkpt lat="46.19412" lon="6.60396">
        <ele>1852.4</ele>
        <time>2022-02-13T09:49:14Z</time>
      </trkpt>
      <trkpt lat="46.19411" lon="6.60392">
        <ele>1854</ele>
        <time>2022-02-13T09:49:18Z</time>
      </trkpt>
      <trkpt lat="46.19412" lon="6.60389">
        <ele>1854.4</ele>
        <time>2022-02-13T09:49:23Z</time>
      </trkpt>
      <trkpt lat="46.19412" lon="6.60387">
        <ele>1854.8</ele>
        <time>2022-02-13T09:49:27Z</time>
      </trkpt>
      <trkpt lat="46.19412" lon="6.60387">
        <ele>1855.2</ele>
        <time>2022-02-13T09:49:28Z</time>
      </trkpt>
      <trkpt lat="46.19411" lon="6.60384">
        <ele>1855.8</ele>
        <time>2022-02-13T09:49:32Z</time>
      </trkpt>
      <trkpt lat="46.19411" lon="6.60384">
        <ele>1855.8</ele>
        <time>2022-02-13T09:49:33Z</time>
      </trkpt>
      <trkpt lat="46.19411" lon="6.60383">
        <ele>1856</ele>
        <time>2022-02-13T09:49:34Z</time>
      </trkpt>
      <trkpt lat="46.19411" lon="6.60382">
        <ele>1856</ele>
        <time>2022-02-13T09:49:35Z</time>
      </trkpt>
      <trkpt lat="46.19411" lon="6.60381">
        <ele>1856.2</ele>
        <time>2022-02-13T09:49:37Z</time>
      </trkpt>
      <trkpt lat="46.19411" lon="6.60381">
        <ele>1856.4</ele>
        <time>2022-02-13T09:49:38Z</time>
      </trkpt>
      <trkpt lat="46.19408" lon="6.60374">
        <ele>1857.4</ele>
        <time>2022-02-13T09:49:46Z</time>
      </trkpt>
      <trkpt lat="46.19407" lon="6.60373">
        <ele>1858</ele>
        <time>2022-02-13T09:49:48Z</time>
      </trkpt>
      <trkpt lat="46.19407" lon="6.60371">
        <ele>1858.2</ele>
        <time>2022-02-13T09:49:51Z</time>
      </trkpt>
      <trkpt lat="46.19405" lon="6.60366">
        <ele>1858.4</ele>
        <time>2022-02-13T09:49:58Z</time>
      </trkpt>
      <trkpt lat="46.19404" lon="6.60362">
        <ele>1859.2</ele>
        <time>2022-02-13T09:50:03Z</time>
      </trkpt>
      <trkpt lat="46.19403" lon="6.6036">
        <ele>1859.4</ele>
        <time>2022-02-13T09:50:05Z</time>
      </trkpt>
      <trkpt lat="46.19403" lon="6.60359">
        <ele>1859.6</ele>
        <time>2022-02-13T09:50:06Z</time>
      </trkpt>
      <trkpt lat="46.19402" lon="6.60356">
        <ele>1860.6</ele>
        <time>2022-02-13T09:50:11Z</time>
      </trkpt>
      <trkpt lat="46.19401" lon="6.60352">
        <ele>1861.2</ele>
        <time>2022-02-13T09:50:16Z</time>
      </trkpt>
      <trkpt lat="46.19401" lon="6.6035">
        <ele>1861.6</ele>
        <time>2022-02-13T09:50:20Z</time>
      </trkpt>
      <trkpt lat="46.194" lon="6.60348">
        <ele>1862</ele>
        <time>2022-02-13T09:50:23Z</time>
      </trkpt>
      <trkpt lat="46.19398" lon="6.60345">
        <ele>1862.8</ele>
        <time>2022-02-13T09:50:28Z</time>
      </trkpt>
      <trkpt lat="46.19395" lon="6.60342">
        <ele>1864</ele>
        <time>2022-02-13T09:50:34Z</time>
      </trkpt>
      <trkpt lat="46.19393" lon="6.60341">
        <ele>1865</ele>
        <time>2022-02-13T09:50:38Z</time>
      </trkpt>
      <trkpt lat="46.19391" lon="6.6034">
        <ele>1865.8</ele>
        <time>2022-02-13T09:50:42Z</time>
      </trkpt>
      <trkpt lat="46.1939" lon="6.60339">
        <ele>1865.8</ele>
        <time>2022-02-13T09:50:44Z</time>
      </trkpt>
      <trkpt lat="46.19389" lon="6.60339">
        <ele>1866.2</ele>
        <time>2022-02-13T09:50:45Z</time>
      </trkpt>
      <trkpt lat="46.19388" lon="6.60339">
        <ele>1866.4</ele>
        <time>2022-02-13T09:50:46Z</time>
      </trkpt>
      <trkpt lat="46.19387" lon="6.60338">
        <ele>1867.2</ele>
        <time>2022-02-13T09:50:50Z</time>
      </trkpt>
      <trkpt lat="46.19386" lon="6.60338">
        <ele>1867.2</ele>
        <time>2022-02-13T09:50:52Z</time>
      </trkpt>
      <trkpt lat="46.19382" lon="6.60336">
        <ele>1868.2</ele>
        <time>2022-02-13T09:50:58Z</time>
      </trkpt>
      <trkpt lat="46.19373" lon="6.60332">
        <ele>1868.4</ele>
        <time>2022-02-13T09:51:15Z</time>
      </trkpt>
      <trkpt lat="46.19366" lon="6.60328">
        <ele>1869.6</ele>
        <time>2022-02-13T09:51:28Z</time>
      </trkpt>
      <trkpt lat="46.19365" lon="6.60328">
        <ele>1869.8</ele>
        <time>2022-02-13T09:51:30Z</time>
      </trkpt>
      <trkpt lat="46.19362" lon="6.60324">
        <ele>1870.4</ele>
        <time>2022-02-13T09:51:37Z</time>
      </trkpt>
      <trkpt lat="46.19361" lon="6.60323">
        <ele>1870.8</ele>
        <time>2022-02-13T09:51:38Z</time>
      </trkpt>
      <trkpt lat="46.19359" lon="6.60321">
        <ele>1871.4</ele>
        <time>2022-02-13T09:51:43Z</time>
      </trkpt>
      <trkpt lat="46.19358" lon="6.6032">
        <ele>1871.8</ele>
        <time>2022-02-13T09:51:45Z</time>
      </trkpt>
      <trkpt lat="46.19354" lon="6.60317">
        <ele>1872.8</ele>
        <time>2022-02-13T09:51:51Z</time>
      </trkpt>
      <trkpt lat="46.19354" lon="6.60317">
        <ele>1873</ele>
        <time>2022-02-13T09:51:52Z</time>
      </trkpt>
      <trkpt lat="46.19352" lon="6.60315">
        <ele>1873.2</ele>
        <time>2022-02-13T09:51:56Z</time>
      </trkpt>
      <trkpt lat="46.19351" lon="6.60314">
        <ele>1873.4</ele>
        <time>2022-02-13T09:51:58Z</time>
      </trkpt>
      <trkpt lat="46.1935" lon="6.60311">
        <ele>1874</ele>
        <time>2022-02-13T09:52:04Z</time>
      </trkpt>
      <trkpt lat="46.19349" lon="6.60307">
        <ele>1874.2</ele>
        <time>2022-02-13T09:52:09Z</time>
      </trkpt>
      <trkpt lat="46.19345" lon="6.60296">
        <ele>1875</ele>
        <time>2022-02-13T09:52:22Z</time>
      </trkpt>
      <trkpt lat="46.19345" lon="6.60295">
        <ele>1875.2</ele>
        <time>2022-02-13T09:52:24Z</time>
      </trkpt>
      <trkpt lat="46.19345" lon="6.60288">
        <ele>1875.6</ele>
        <time>2022-02-13T09:52:32Z</time>
      </trkpt>
      <trkpt lat="46.19345" lon="6.60286">
        <ele>1876.4</ele>
        <time>2022-02-13T09:52:35Z</time>
      </trkpt>
      <trkpt lat="46.19344" lon="6.60283">
        <ele>1877.2</ele>
        <time>2022-02-13T09:52:39Z</time>
      </trkpt>
      <trkpt lat="46.19344" lon="6.60282">
        <ele>1877.6</ele>
        <time>2022-02-13T09:52:40Z</time>
      </trkpt>
      <trkpt lat="46.19343" lon="6.60278">
        <ele>1878.6</ele>
        <time>2022-02-13T09:52:45Z</time>
      </trkpt>
      <trkpt lat="46.19343" lon="6.60277">
        <ele>1878.8</ele>
        <time>2022-02-13T09:52:46Z</time>
      </trkpt>
      <trkpt lat="46.19343" lon="6.60276">
        <ele>1879</ele>
        <time>2022-02-13T09:52:47Z</time>
      </trkpt>
      <trkpt lat="46.19342" lon="6.60275">
        <ele>1879</ele>
        <time>2022-02-13T09:52:48Z</time>
      </trkpt>
      <trkpt lat="46.19342" lon="6.60272">
        <ele>1879.8</ele>
        <time>2022-02-13T09:52:52Z</time>
      </trkpt>
      <trkpt lat="46.19342" lon="6.60271">
        <ele>1879.8</ele>
        <time>2022-02-13T09:52:53Z</time>
      </trkpt>
      <trkpt lat="46.19342" lon="6.60269">
        <ele>1880.8</ele>
        <time>2022-02-13T09:52:57Z</time>
      </trkpt>
      <trkpt lat="46.19342" lon="6.60267">
        <ele>1881.4</ele>
        <time>2022-02-13T09:52:59Z</time>
      </trkpt>
      <trkpt lat="46.19342" lon="6.60266">
        <ele>1882</ele>
        <time>2022-02-13T09:53:01Z</time>
      </trkpt>
      <trkpt lat="46.19341" lon="6.60264">
        <ele>1882.4</ele>
        <time>2022-02-13T09:53:03Z</time>
      </trkpt>
      <trkpt lat="46.1934" lon="6.60262">
        <ele>1883.2</ele>
        <time>2022-02-13T09:53:07Z</time>
      </trkpt>
      <trkpt lat="46.19339" lon="6.60261">
        <ele>1883.8</ele>
        <time>2022-02-13T09:53:10Z</time>
      </trkpt>
      <trkpt lat="46.19339" lon="6.6026">
        <ele>1883.8</ele>
        <time>2022-02-13T09:53:11Z</time>
      </trkpt>
      <trkpt lat="46.19337" lon="6.60258">
        <ele>1883</ele>
        <time>2022-02-13T09:53:16Z</time>
      </trkpt>
      <trkpt lat="46.19334" lon="6.60255">
        <ele>1883.2</ele>
        <time>2022-02-13T09:53:23Z</time>
      </trkpt>
      <trkpt lat="46.19333" lon="6.60255">
        <ele>1884</ele>
        <time>2022-02-13T09:53:25Z</time>
      </trkpt>
      <trkpt lat="46.19333" lon="6.60255">
        <ele>1884.2</ele>
        <time>2022-02-13T09:53:26Z</time>
      </trkpt>
      <trkpt lat="46.19332" lon="6.60255">
        <ele>1884.8</ele>
        <time>2022-02-13T09:53:28Z</time>
      </trkpt>
      <trkpt lat="46.19329" lon="6.60255">
        <ele>1885.4</ele>
        <time>2022-02-13T09:53:34Z</time>
      </trkpt>
      <trkpt lat="46.19327" lon="6.60256">
        <ele>1886</ele>
        <time>2022-02-13T09:53:38Z</time>
      </trkpt>
      <trkpt lat="46.19327" lon="6.60256">
        <ele>1886.4</ele>
        <time>2022-02-13T09:53:40Z</time>
      </trkpt>
      <trkpt lat="46.19324" lon="6.60256">
        <ele>1887.6</ele>
        <time>2022-02-13T09:53:44Z</time>
      </trkpt>
      <trkpt lat="46.19322" lon="6.60255">
        <ele>1888.4</ele>
        <time>2022-02-13T09:53:48Z</time>
      </trkpt>
      <trkpt lat="46.19321" lon="6.60255">
        <ele>1888.6</ele>
        <time>2022-02-13T09:53:50Z</time>
      </trkpt>
      <trkpt lat="46.1932" lon="6.60255">
        <ele>1888.8</ele>
        <time>2022-02-13T09:53:52Z</time>
      </trkpt>
      <trkpt lat="46.19317" lon="6.60255">
        <ele>1889.2</ele>
        <time>2022-02-13T09:53:59Z</time>
      </trkpt>
      <trkpt lat="46.19315" lon="6.60257">
        <ele>1889.2</ele>
        <time>2022-02-13T09:54:07Z</time>
      </trkpt>
      <trkpt lat="46.19315" lon="6.60258">
        <ele>1889.2</ele>
        <time>2022-02-13T09:54:17Z</time>
      </trkpt>
      <trkpt lat="46.19316" lon="6.60258">
        <ele>1889</ele>
        <time>2022-02-13T09:54:30Z</time>
      </trkpt>
      <trkpt lat="46.19316" lon="6.60257">
        <ele>1889.2</ele>
        <time>2022-02-13T09:54:34Z</time>
      </trkpt>
      <trkpt lat="46.19316" lon="6.60256">
        <ele>1889.6</ele>
        <time>2022-02-13T09:54:40Z</time>
      </trkpt>
      <trkpt lat="46.19317" lon="6.60255">
        <ele>1889.4</ele>
        <time>2022-02-13T09:54:49Z</time>
      </trkpt>
      <trkpt lat="46.19316" lon="6.60255">
        <ele>1889.4</ele>
        <time>2022-02-13T09:54:51Z</time>
      </trkpt>
      <trkpt lat="46.19317" lon="6.60256">
        <ele>1889.4</ele>
        <time>2022-02-13T09:54:57Z</time>
      </trkpt>
      <trkpt lat="46.19316" lon="6.60257">
        <ele>1889.4</ele>
        <time>2022-02-13T09:55:01Z</time>
      </trkpt>
      <trkpt lat="46.19316" lon="6.60258">
        <ele>1889.8</ele>
        <time>2022-02-13T09:55:04Z</time>
      </trkpt>
      <trkpt lat="46.19316" lon="6.60259">
        <ele>1890</ele>
        <time>2022-02-13T09:55:10Z</time>
      </trkpt>
      <trkpt lat="46.19316" lon="6.60259">
        <ele>1889.4</ele>
        <time>2022-02-13T09:55:18Z</time>
      </trkpt>
      <trkpt lat="46.19317" lon="6.60258">
        <ele>1889.2</ele>
        <time>2022-02-13T09:55:21Z</time>
      </trkpt>
      <trkpt lat="46.19317" lon="6.60258">
        <ele>1889.2</ele>
        <time>2022-02-13T09:55:23Z</time>
      </trkpt>
      <trkpt lat="46.19317" lon="6.60257">
        <ele>1889.4</ele>
        <time>2022-02-13T09:55:32Z</time>
      </trkpt>
      <trkpt lat="46.19317" lon="6.60257">
        <ele>1889</ele>
        <time>2022-02-13T09:55:35Z</time>
      </trkpt>
      <trkpt lat="46.19316" lon="6.60257">
        <ele>1888.8</ele>
        <time>2022-02-13T09:55:49Z</time>
      </trkpt>
      <trkpt lat="46.19316" lon="6.60257">
        <ele>1888.8</ele>
        <time>2022-02-13T09:55:50Z</time>
      </trkpt>
      <trkpt lat="46.19315" lon="6.60257">
        <ele>1888.8</ele>
        <time>2022-02-13T09:55:54Z</time>
      </trkpt>
      <trkpt lat="46.19314" lon="6.60257">
        <ele>1889.4</ele>
        <time>2022-02-13T09:56:01Z</time>
      </trkpt>
      <trkpt lat="46.19313" lon="6.60257">
        <ele>1889.4</ele>
        <time>2022-02-13T09:56:02Z</time>
      </trkpt>
      <trkpt lat="46.1931" lon="6.60256">
        <ele>1889.6</ele>
        <time>2022-02-13T09:56:11Z</time>
      </trkpt>
      <trkpt lat="46.1931" lon="6.60257">
        <ele>1889.8</ele>
        <time>2022-02-13T09:56:13Z</time>
      </trkpt>
      <trkpt lat="46.19309" lon="6.60256">
        <ele>1890</ele>
        <time>2022-02-13T09:56:18Z</time>
      </trkpt>
      <trkpt lat="46.19311" lon="6.60257">
        <ele>1890.8</ele>
        <time>2022-02-13T09:56:30Z</time>
      </trkpt>
      <trkpt lat="46.19311" lon="6.60257">
        <ele>1890.8</ele>
        <time>2022-02-13T09:56:31Z</time>
      </trkpt>
      <trkpt lat="46.19311" lon="6.60257">
        <ele>1890.2</ele>
        <time>2022-02-13T09:56:48Z</time>
      </trkpt>
      <trkpt lat="46.19311" lon="6.60257">
        <ele>1890</ele>
        <time>2022-02-13T09:56:50Z</time>
      </trkpt>
      <trkpt lat="46.19311" lon="6.60256">
        <ele>1890</ele>
        <time>2022-02-13T09:56:51Z</time>
      </trkpt>
      <trkpt lat="46.19311" lon="6.60256">
        <ele>1890.4</ele>
        <time>2022-02-13T09:57:02Z</time>
      </trkpt>
      <trkpt lat="46.19311" lon="6.60256">
        <ele>1889.6</ele>
        <time>2022-02-13T09:57:05Z</time>
      </trkpt>
      <trkpt lat="46.19312" lon="6.60257">
        <ele>1889.2</ele>
        <time>2022-02-13T09:57:07Z</time>
      </trkpt>
      <trkpt lat="46.19312" lon="6.60258">
        <ele>1888.8</ele>
        <time>2022-02-13T09:57:09Z</time>
      </trkpt>
      <trkpt lat="46.19312" lon="6.60258">
        <ele>1888.6</ele>
        <time>2022-02-13T09:57:12Z</time>
      </trkpt>
      <trkpt lat="46.19312" lon="6.60258">
        <ele>1888</ele>
        <time>2022-02-13T09:57:23Z</time>
      </trkpt>
      <trkpt lat="46.19312" lon="6.60257">
        <ele>1887.6</ele>
        <time>2022-02-13T09:57:39Z</time>
      </trkpt>
      <trkpt lat="46.19312" lon="6.60257">
        <ele>1887.8</ele>
        <time>2022-02-13T09:57:40Z</time>
      </trkpt>
      <trkpt lat="46.19312" lon="6.60257">
        <ele>1888</ele>
        <time>2022-02-13T09:57:45Z</time>
      </trkpt>
      <trkpt lat="46.19313" lon="6.60257">
        <ele>1888.2</ele>
        <time>2022-02-13T09:57:48Z</time>
      </trkpt>
      <trkpt lat="46.19313" lon="6.60257">
        <ele>1888.2</ele>
        <time>2022-02-13T09:57:53Z</time>
      </trkpt>
      <trkpt lat="46.19315" lon="6.60256">
        <ele>1888.8</ele>
        <time>2022-02-13T09:58:01Z</time>
      </trkpt>
      <trkpt lat="46.19314" lon="6.60256">
        <ele>1888.8</ele>
        <time>2022-02-13T09:58:02Z</time>
      </trkpt>
      <trkpt lat="46.19315" lon="6.60256">
        <ele>1889</ele>
        <time>2022-02-13T09:58:03Z</time>
      </trkpt>
      <trkpt lat="46.19314" lon="6.60255">
        <ele>1889.8</ele>
        <time>2022-02-13T09:58:05Z</time>
      </trkpt>
      <trkpt lat="46.19314" lon="6.60256">
        <ele>1890</ele>
        <time>2022-02-13T09:58:06Z</time>
      </trkpt>
      <trkpt lat="46.19313" lon="6.60256">
        <ele>1889.8</ele>
        <time>2022-02-13T09:58:11Z</time>
      </trkpt>
      <trkpt lat="46.19312" lon="6.60256">
        <ele>1889.6</ele>
        <time>2022-02-13T09:58:13Z</time>
      </trkpt>
      <trkpt lat="46.19311" lon="6.60257">
        <ele>1889.6</ele>
        <time>2022-02-13T09:58:17Z</time>
      </trkpt>
      <trkpt lat="46.19311" lon="6.60258">
        <ele>1888.8</ele>
        <time>2022-02-13T09:58:34Z</time>
      </trkpt>
      <trkpt lat="46.19311" lon="6.60258">
        <ele>1888.8</ele>
        <time>2022-02-13T09:58:35Z</time>
      </trkpt>
      <trkpt lat="46.19312" lon="6.60258">
        <ele>1889</ele>
        <time>2022-02-13T09:58:39Z</time>
      </trkpt>
      <trkpt lat="46.19311" lon="6.60258">
        <ele>1888.8</ele>
        <time>2022-02-13T09:58:46Z</time>
      </trkpt>
      <trkpt lat="46.19312" lon="6.60257">
        <ele>1888.8</ele>
        <time>2022-02-13T09:58:49Z</time>
      </trkpt>
      <trkpt lat="46.19311" lon="6.60257">
        <ele>1888.8</ele>
        <time>2022-02-13T09:58:50Z</time>
      </trkpt>
      <trkpt lat="46.19311" lon="6.60256">
        <ele>1888.8</ele>
        <time>2022-02-13T09:58:51Z</time>
      </trkpt>
      <trkpt lat="46.19309" lon="6.60254">
        <ele>1889.6</ele>
        <time>2022-02-13T09:58:57Z</time>
      </trkpt>
      <trkpt lat="46.19309" lon="6.60253">
        <ele>1889.6</ele>
        <time>2022-02-13T09:58:58Z</time>
      </trkpt>
      <trkpt lat="46.19308" lon="6.60253">
        <ele>1889.8</ele>
        <time>2022-02-13T09:58:59Z</time>
      </trkpt>
      <trkpt lat="46.19306" lon="6.60252">
        <ele>1890.6</ele>
        <time>2022-02-13T09:59:04Z</time>
      </trkpt>
      <trkpt lat="46.19305" lon="6.60252">
        <ele>1891</ele>
        <time>2022-02-13T09:59:05Z</time>
      </trkpt>
      <trkpt lat="46.19303" lon="6.60252">
        <ele>1891.4</ele>
        <time>2022-02-13T09:59:08Z</time>
      </trkpt>
      <trkpt lat="46.19301" lon="6.60252">
        <ele>1892</ele>
        <time>2022-02-13T09:59:12Z</time>
      </trkpt>
      <trkpt lat="46.193" lon="6.60251">
        <ele>1892.2</ele>
        <time>2022-02-13T09:59:14Z</time>
      </trkpt>
      <trkpt lat="46.193" lon="6.60251">
        <ele>1892.2</ele>
        <time>2022-02-13T09:59:15Z</time>
      </trkpt>
      <trkpt lat="46.19299" lon="6.60251">
        <ele>1892.6</ele>
        <time>2022-02-13T09:59:17Z</time>
      </trkpt>
      <trkpt lat="46.19298" lon="6.60251">
        <ele>1893</ele>
        <time>2022-02-13T09:59:19Z</time>
      </trkpt>
      <trkpt lat="46.19297" lon="6.60251">
        <ele>1893.2</ele>
        <time>2022-02-13T09:59:21Z</time>
      </trkpt>
      <trkpt lat="46.19297" lon="6.60251">
        <ele>1893.2</ele>
        <time>2022-02-13T09:59:22Z</time>
      </trkpt>
      <trkpt lat="46.19296" lon="6.60251">
        <ele>1893.6</ele>
        <time>2022-02-13T09:59:23Z</time>
      </trkpt>
      <trkpt lat="46.19295" lon="6.60251">
        <ele>1894.2</ele>
        <time>2022-02-13T09:59:26Z</time>
      </trkpt>
      <trkpt lat="46.19293" lon="6.60251">
        <ele>1895.6</ele>
        <time>2022-02-13T09:59:31Z</time>
      </trkpt>
      <trkpt lat="46.1929" lon="6.60251">
        <ele>1896.8</ele>
        <time>2022-02-13T09:59:39Z</time>
      </trkpt>
      <trkpt lat="46.1929" lon="6.6025">
        <ele>1897.2</ele>
        <time>2022-02-13T09:59:40Z</time>
      </trkpt>
      <trkpt lat="46.19289" lon="6.6025">
        <ele>1897.8</ele>
        <time>2022-02-13T09:59:41Z</time>
      </trkpt>
      <trkpt lat="46.19289" lon="6.60249">
        <ele>1899</ele>
        <time>2022-02-13T09:59:44Z</time>
      </trkpt>
      <trkpt lat="46.19289" lon="6.60247">
        <ele>1900</ele>
        <time>2022-02-13T09:59:47Z</time>
      </trkpt>
      <trkpt lat="46.19287" lon="6.60246">
        <ele>1899.6</ele>
        <time>2022-02-13T09:59:52Z</time>
      </trkpt>
      <trkpt lat="46.19284" lon="6.60246">
        <ele>1899.4</ele>
        <time>2022-02-13T09:59:58Z</time>
      </trkpt>
      <trkpt lat="46.19282" lon="6.60245">
        <ele>1899.4</ele>
        <time>2022-02-13T10:00:02Z</time>
      </trkpt>
      <trkpt lat="46.1928" lon="6.60245">
        <ele>1899.8</ele>
        <time>2022-02-13T10:00:08Z</time>
      </trkpt>
      <trkpt lat="46.19278" lon="6.60245">
        <ele>1900.4</ele>
        <time>2022-02-13T10:00:11Z</time>
      </trkpt>
      <trkpt lat="46.19276" lon="6.60245">
        <ele>1901</ele>
        <time>2022-02-13T10:00:15Z</time>
      </trkpt>
      <trkpt lat="46.19276" lon="6.60245">
        <ele>1901</ele>
        <time>2022-02-13T10:00:16Z</time>
      </trkpt>
      <trkpt lat="46.19275" lon="6.60245">
        <ele>1902</ele>
        <time>2022-02-13T10:00:21Z</time>
      </trkpt>
      <trkpt lat="46.19275" lon="6.60246">
        <ele>1902.2</ele>
        <time>2022-02-13T10:00:22Z</time>
      </trkpt>
      <trkpt lat="46.19274" lon="6.60245">
        <ele>1903</ele>
        <time>2022-02-13T10:00:25Z</time>
      </trkpt>
      <trkpt lat="46.19273" lon="6.60245">
        <ele>1903.4</ele>
        <time>2022-02-13T10:00:27Z</time>
      </trkpt>
      <trkpt lat="46.19272" lon="6.60245">
        <ele>1903.4</ele>
        <time>2022-02-13T10:00:28Z</time>
      </trkpt>
      <trkpt lat="46.19269" lon="6.60242">
        <ele>1904.2</ele>
        <time>2022-02-13T10:00:34Z</time>
      </trkpt>
      <trkpt lat="46.19269" lon="6.60241">
        <ele>1904.4</ele>
        <time>2022-02-13T10:00:35Z</time>
      </trkpt>
      <trkpt lat="46.19267" lon="6.6024">
        <ele>1905.4</ele>
        <time>2022-02-13T10:00:43Z</time>
      </trkpt>
      <trkpt lat="46.19266" lon="6.60239">
        <ele>1905.6</ele>
        <time>2022-02-13T10:00:45Z</time>
      </trkpt>
      <trkpt lat="46.19265" lon="6.60239">
        <ele>1905.8</ele>
        <time>2022-02-13T10:00:47Z</time>
      </trkpt>
      <trkpt lat="46.19262" lon="6.60239">
        <ele>1906.4</ele>
        <time>2022-02-13T10:00:53Z</time>
      </trkpt>
      <trkpt lat="46.1926" lon="6.60238">
        <ele>1907</ele>
        <time>2022-02-13T10:00:57Z</time>
      </trkpt>
      <trkpt lat="46.19259" lon="6.60237">
        <ele>1907.4</ele>
        <time>2022-02-13T10:00:59Z</time>
      </trkpt>
      <trkpt lat="46.19258" lon="6.60237">
        <ele>1907.8</ele>
        <time>2022-02-13T10:01:01Z</time>
      </trkpt>
      <trkpt lat="46.19255" lon="6.60235">
        <ele>1908.8</ele>
        <time>2022-02-13T10:01:05Z</time>
      </trkpt>
      <trkpt lat="46.19253" lon="6.60233">
        <ele>1909.4</ele>
        <time>2022-02-13T10:01:09Z</time>
      </trkpt>
      <trkpt lat="46.19251" lon="6.60233">
        <ele>1909.4</ele>
        <time>2022-02-13T10:01:11Z</time>
      </trkpt>
      <trkpt lat="46.19251" lon="6.60232">
        <ele>1909.8</ele>
        <time>2022-02-13T10:01:13Z</time>
      </trkpt>
      <trkpt lat="46.19251" lon="6.60232">
        <ele>1910</ele>
        <time>2022-02-13T10:01:14Z</time>
      </trkpt>
      <trkpt lat="46.19251" lon="6.60232">
        <ele>1910.2</ele>
        <time>2022-02-13T10:01:15Z</time>
      </trkpt>
      <trkpt lat="46.19251" lon="6.60232">
        <ele>1910.4</ele>
        <time>2022-02-13T10:01:16Z</time>
      </trkpt>
      <trkpt lat="46.19249" lon="6.60232">
        <ele>1910.8</ele>
        <time>2022-02-13T10:01:20Z</time>
      </trkpt>
      <trkpt lat="46.19248" lon="6.60231">
        <ele>1911.2</ele>
        <time>2022-02-13T10:01:22Z</time>
      </trkpt>
      <trkpt lat="46.19247" lon="6.6023">
        <ele>1911.4</ele>
        <time>2022-02-13T10:01:23Z</time>
      </trkpt>
      <trkpt lat="46.19246" lon="6.6023">
        <ele>1911.6</ele>
        <time>2022-02-13T10:01:25Z</time>
      </trkpt>
      <trkpt lat="46.19245" lon="6.60229">
        <ele>1911.6</ele>
        <time>2022-02-13T10:01:27Z</time>
      </trkpt>
      <trkpt lat="46.19244" lon="6.60229">
        <ele>1912</ele>
        <time>2022-02-13T10:01:29Z</time>
      </trkpt>
      <trkpt lat="46.19242" lon="6.60225">
        <ele>1913</ele>
        <time>2022-02-13T10:01:38Z</time>
      </trkpt>
      <trkpt lat="46.19241" lon="6.60225">
        <ele>1913</ele>
        <time>2022-02-13T10:01:39Z</time>
      </trkpt>
      <trkpt lat="46.19238" lon="6.60218">
        <ele>1914</ele>
        <time>2022-02-13T10:01:49Z</time>
      </trkpt>
      <trkpt lat="46.19238" lon="6.60215">
        <ele>1915</ele>
        <time>2022-02-13T10:01:52Z</time>
      </trkpt>
      <trkpt lat="46.19237" lon="6.60214">
        <ele>1915.2</ele>
        <time>2022-02-13T10:01:54Z</time>
      </trkpt>
      <trkpt lat="46.19237" lon="6.6021">
        <ele>1916.4</ele>
        <time>2022-02-13T10:01:59Z</time>
      </trkpt>
      <trkpt lat="46.19236" lon="6.60206">
        <ele>1916.8</ele>
        <time>2022-02-13T10:02:04Z</time>
      </trkpt>
      <trkpt lat="46.19235" lon="6.60203">
        <ele>1917.4</ele>
        <time>2022-02-13T10:02:09Z</time>
      </trkpt>
      <trkpt lat="46.19234" lon="6.60197">
        <ele>1918.4</ele>
        <time>2022-02-13T10:02:18Z</time>
      </trkpt>
      <trkpt lat="46.19234" lon="6.60197">
        <ele>1918.6</ele>
        <time>2022-02-13T10:02:19Z</time>
      </trkpt>
      <trkpt lat="46.19232" lon="6.60189">
        <ele>1919.4</ele>
        <time>2022-02-13T10:02:31Z</time>
      </trkpt>
      <trkpt lat="46.19232" lon="6.60189">
        <ele>1919.4</ele>
        <time>2022-02-13T10:02:32Z</time>
      </trkpt>
      <trkpt lat="46.19231" lon="6.60188">
        <ele>1919.6</ele>
        <time>2022-02-13T10:02:33Z</time>
      </trkpt>
      <trkpt lat="46.1923" lon="6.60187">
        <ele>1919.8</ele>
        <time>2022-02-13T10:02:35Z</time>
      </trkpt>
      <trkpt lat="46.19229" lon="6.60185">
        <ele>1920.6</ele>
        <time>2022-02-13T10:02:40Z</time>
      </trkpt>
      <trkpt lat="46.19226" lon="6.60184">
        <ele>1921.4</ele>
        <time>2022-02-13T10:02:45Z</time>
      </trkpt>
      <trkpt lat="46.19225" lon="6.60184">
        <ele>1921.6</ele>
        <time>2022-02-13T10:02:47Z</time>
      </trkpt>
      <trkpt lat="46.19223" lon="6.60185">
        <ele>1922.8</ele>
        <time>2022-02-13T10:02:52Z</time>
      </trkpt>
      <trkpt lat="46.19221" lon="6.60185">
        <ele>1923.2</ele>
        <time>2022-02-13T10:02:54Z</time>
      </trkpt>
      <trkpt lat="46.19219" lon="6.60185">
        <ele>1923.6</ele>
        <time>2022-02-13T10:02:58Z</time>
      </trkpt>
      <trkpt lat="46.19219" lon="6.60185">
        <ele>1923.8</ele>
        <time>2022-02-13T10:02:59Z</time>
      </trkpt>
      <trkpt lat="46.19218" lon="6.60186">
        <ele>1924.6</ele>
        <time>2022-02-13T10:03:01Z</time>
      </trkpt>
      <trkpt lat="46.19218" lon="6.60186">
        <ele>1925</ele>
        <time>2022-02-13T10:03:02Z</time>
      </trkpt>
      <trkpt lat="46.19217" lon="6.60187">
        <ele>1925.4</ele>
        <time>2022-02-13T10:03:05Z</time>
      </trkpt>
      <trkpt lat="46.19216" lon="6.60187">
        <ele>1925.6</ele>
        <time>2022-02-13T10:03:07Z</time>
      </trkpt>
      <trkpt lat="46.19215" lon="6.60187">
        <ele>1925.8</ele>
        <time>2022-02-13T10:03:09Z</time>
      </trkpt>
      <trkpt lat="46.19214" lon="6.60187">
        <ele>1926</ele>
        <time>2022-02-13T10:03:11Z</time>
      </trkpt>
      <trkpt lat="46.19213" lon="6.60187">
        <ele>1926.2</ele>
        <time>2022-02-13T10:03:13Z</time>
      </trkpt>
      <trkpt lat="46.19213" lon="6.60187">
        <ele>1926.2</ele>
        <time>2022-02-13T10:03:14Z</time>
      </trkpt>
      <trkpt lat="46.1921" lon="6.60187">
        <ele>1927.2</ele>
        <time>2022-02-13T10:03:23Z</time>
      </trkpt>
      <trkpt lat="46.19209" lon="6.60187">
        <ele>1927.4</ele>
        <time>2022-02-13T10:03:25Z</time>
      </trkpt>
      <trkpt lat="46.19207" lon="6.60187">
        <ele>1927.8</ele>
        <time>2022-02-13T10:03:27Z</time>
      </trkpt>
      <trkpt lat="46.19206" lon="6.60189">
        <ele>1928.2</ele>
        <time>2022-02-13T10:03:30Z</time>
      </trkpt>
      <trkpt lat="46.19204" lon="6.60189">
        <ele>1929</ele>
        <time>2022-02-13T10:03:35Z</time>
      </trkpt>
      <trkpt lat="46.19204" lon="6.60188">
        <ele>1929.2</ele>
        <time>2022-02-13T10:03:36Z</time>
      </trkpt>
      <trkpt lat="46.19203" lon="6.60188">
        <ele>1929.2</ele>
        <time>2022-02-13T10:03:37Z</time>
      </trkpt>
      <trkpt lat="46.19203" lon="6.60187">
        <ele>1929.6</ele>
        <time>2022-02-13T10:03:38Z</time>
      </trkpt>
      <trkpt lat="46.19202" lon="6.60185">
        <ele>1930.4</ele>
        <time>2022-02-13T10:03:41Z</time>
      </trkpt>
      <trkpt lat="46.19201" lon="6.60182">
        <ele>1931.6</ele>
        <time>2022-02-13T10:03:45Z</time>
      </trkpt>
      <trkpt lat="46.19201" lon="6.60179">
        <ele>1932.2</ele>
        <time>2022-02-13T10:03:50Z</time>
      </trkpt>
      <trkpt lat="46.19201" lon="6.60179">
        <ele>1932.4</ele>
        <time>2022-02-13T10:03:51Z</time>
      </trkpt>
      <trkpt lat="46.192" lon="6.60177">
        <ele>1932.6</ele>
        <time>2022-02-13T10:03:54Z</time>
      </trkpt>
      <trkpt lat="46.19199" lon="6.60172">
        <ele>1933.6</ele>
        <time>2022-02-13T10:04:01Z</time>
      </trkpt>
      <trkpt lat="46.19198" lon="6.60168">
        <ele>1934.4</ele>
        <time>2022-02-13T10:04:07Z</time>
      </trkpt>
      <trkpt lat="46.19198" lon="6.60168">
        <ele>1934.4</ele>
        <time>2022-02-13T10:04:08Z</time>
      </trkpt>
      <trkpt lat="46.19198" lon="6.60165">
        <ele>1934.6</ele>
        <time>2022-02-13T10:04:12Z</time>
      </trkpt>
      <trkpt lat="46.19197" lon="6.6016">
        <ele>1935.2</ele>
        <time>2022-02-13T10:04:21Z</time>
      </trkpt>
      <trkpt lat="46.19196" lon="6.6016">
        <ele>1935.4</ele>
        <time>2022-02-13T10:04:22Z</time>
      </trkpt>
      <trkpt lat="46.19195" lon="6.60157">
        <ele>1935.4</ele>
        <time>2022-02-13T10:04:26Z</time>
      </trkpt>
      <trkpt lat="46.19195" lon="6.60157">
        <ele>1935.6</ele>
        <time>2022-02-13T10:04:27Z</time>
      </trkpt>
      <trkpt lat="46.19195" lon="6.60152">
        <ele>1936.4</ele>
        <time>2022-02-13T10:04:35Z</time>
      </trkpt>
      <trkpt lat="46.19196" lon="6.60152">
        <ele>1936.6</ele>
        <time>2022-02-13T10:04:37Z</time>
      </trkpt>
      <trkpt lat="46.19197" lon="6.60149">
        <ele>1937.2</ele>
        <time>2022-02-13T10:04:44Z</time>
      </trkpt>
      <trkpt lat="46.19197" lon="6.60148">
        <ele>1937.4</ele>
        <time>2022-02-13T10:04:47Z</time>
      </trkpt>
      <trkpt lat="46.19197" lon="6.60147">
        <ele>1937.8</ele>
        <time>2022-02-13T10:04:49Z</time>
      </trkpt>
      <trkpt lat="46.19196" lon="6.60146">
        <ele>1938</ele>
        <time>2022-02-13T10:04:51Z</time>
      </trkpt>
      <trkpt lat="46.19195" lon="6.60145">
        <ele>1938</ele>
        <time>2022-02-13T10:04:53Z</time>
      </trkpt>
      <trkpt lat="46.19194" lon="6.60143">
        <ele>1938.8</ele>
        <time>2022-02-13T10:04:59Z</time>
      </trkpt>
      <trkpt lat="46.19194" lon="6.60143">
        <ele>1939</ele>
        <time>2022-02-13T10:05:00Z</time>
      </trkpt>
      <trkpt lat="46.19194" lon="6.60142">
        <ele>1939</ele>
        <time>2022-02-13T10:05:02Z</time>
      </trkpt>
      <trkpt lat="46.19191" lon="6.60137">
        <ele>1939.8</ele>
        <time>2022-02-13T10:05:13Z</time>
      </trkpt>
      <trkpt lat="46.1919" lon="6.60136">
        <ele>1941</ele>
        <time>2022-02-13T10:05:17Z</time>
      </trkpt>
      <trkpt lat="46.19189" lon="6.60135">
        <ele>1942.2</ele>
        <time>2022-02-13T10:05:21Z</time>
      </trkpt>
      <trkpt lat="46.19186" lon="6.60133">
        <ele>1943.2</ele>
        <time>2022-02-13T10:05:29Z</time>
      </trkpt>
      <trkpt lat="46.19182" lon="6.60133">
        <ele>1944.4</ele>
        <time>2022-02-13T10:05:36Z</time>
      </trkpt>
      <trkpt lat="46.19182" lon="6.60133">
        <ele>1944.6</ele>
        <time>2022-02-13T10:05:37Z</time>
      </trkpt>
      <trkpt lat="46.19179" lon="6.60133">
        <ele>1945.4</ele>
        <time>2022-02-13T10:05:42Z</time>
      </trkpt>
      <trkpt lat="46.19177" lon="6.60132">
        <ele>1946.4</ele>
        <time>2022-02-13T10:05:45Z</time>
      </trkpt>
      <trkpt lat="46.19177" lon="6.60132">
        <ele>1946.4</ele>
        <time>2022-02-13T10:05:46Z</time>
      </trkpt>
      <trkpt lat="46.19176" lon="6.60132">
        <ele>1947.2</ele>
        <time>2022-02-13T10:05:49Z</time>
      </trkpt>
      <trkpt lat="46.19176" lon="6.60133">
        <ele>1947.2</ele>
        <time>2022-02-13T10:05:50Z</time>
      </trkpt>
      <trkpt lat="46.19176" lon="6.60133">
        <ele>1947.4</ele>
        <time>2022-02-13T10:05:52Z</time>
      </trkpt>
      <trkpt lat="46.19175" lon="6.60133">
        <ele>1947.6</ele>
        <time>2022-02-13T10:05:54Z</time>
      </trkpt>
      <trkpt lat="46.19173" lon="6.60133">
        <ele>1948.4</ele>
        <time>2022-02-13T10:05:57Z</time>
      </trkpt>
      <trkpt lat="46.19173" lon="6.60133">
        <ele>1948.6</ele>
        <time>2022-02-13T10:05:58Z</time>
      </trkpt>
      <trkpt lat="46.19173" lon="6.60133">
        <ele>1948.8</ele>
        <time>2022-02-13T10:05:59Z</time>
      </trkpt>
      <trkpt lat="46.19171" lon="6.60134">
        <ele>1949.8</ele>
        <time>2022-02-13T10:06:03Z</time>
      </trkpt>
      <trkpt lat="46.1917" lon="6.60133">
        <ele>1950.4</ele>
        <time>2022-02-13T10:06:07Z</time>
      </trkpt>
      <trkpt lat="46.19168" lon="6.60133">
        <ele>1950.8</ele>
        <time>2022-02-13T10:06:11Z</time>
      </trkpt>
      <trkpt lat="46.19168" lon="6.60132">
        <ele>1951</ele>
        <time>2022-02-13T10:06:12Z</time>
      </trkpt>
      <trkpt lat="46.19168" lon="6.60132">
        <ele>1951.4</ele>
        <time>2022-02-13T10:06:14Z</time>
      </trkpt>
      <trkpt lat="46.19167" lon="6.60132">
        <ele>1951.6</ele>
        <time>2022-02-13T10:06:15Z</time>
      </trkpt>
      <trkpt lat="46.19166" lon="6.60132">
        <ele>1952</ele>
        <time>2022-02-13T10:06:17Z</time>
      </trkpt>
      <trkpt lat="46.19165" lon="6.60131">
        <ele>1952.2</ele>
        <time>2022-02-13T10:06:21Z</time>
      </trkpt>
      <trkpt lat="46.19164" lon="6.60131">
        <ele>1952.8</ele>
        <time>2022-02-13T10:06:25Z</time>
      </trkpt>
      <trkpt lat="46.19162" lon="6.60131">
        <ele>1953</ele>
        <time>2022-02-13T10:06:29Z</time>
      </trkpt>
      <trkpt lat="46.19161" lon="6.6013">
        <ele>1953.4</ele>
        <time>2022-02-13T10:06:31Z</time>
      </trkpt>
      <trkpt lat="46.1916" lon="6.6013">
        <ele>1953.6</ele>
        <time>2022-02-13T10:06:33Z</time>
      </trkpt>
      <trkpt lat="46.19158" lon="6.6013">
        <ele>1954</ele>
        <time>2022-02-13T10:06:36Z</time>
      </trkpt>
      <trkpt lat="46.19158" lon="6.6013">
        <ele>1954.4</ele>
        <time>2022-02-13T10:06:37Z</time>
      </trkpt>
      <trkpt lat="46.19157" lon="6.60131">
        <ele>1955.2</ele>
        <time>2022-02-13T10:06:39Z</time>
      </trkpt>
      <trkpt lat="46.19155" lon="6.60132">
        <ele>1956.2</ele>
        <time>2022-02-13T10:06:44Z</time>
      </trkpt>
      <trkpt lat="46.19154" lon="6.60134">
        <ele>1957</ele>
        <time>2022-02-13T10:06:49Z</time>
      </trkpt>
      <trkpt lat="46.19153" lon="6.60134">
        <ele>1957.2</ele>
        <time>2022-02-13T10:06:50Z</time>
      </trkpt>
      <trkpt lat="46.19152" lon="6.60135">
        <ele>1958</ele>
        <time>2022-02-13T10:06:54Z</time>
      </trkpt>
      <trkpt lat="46.1915" lon="6.60137">
        <ele>1958.4</ele>
        <time>2022-02-13T10:07:00Z</time>
      </trkpt>
      <trkpt lat="46.1915" lon="6.60137">
        <ele>1958.6</ele>
        <time>2022-02-13T10:07:02Z</time>
      </trkpt>
      <trkpt lat="46.19148" lon="6.60141">
        <ele>1959.4</ele>
        <time>2022-02-13T10:07:11Z</time>
      </trkpt>
      <trkpt lat="46.19147" lon="6.60142">
        <ele>1959.6</ele>
        <time>2022-02-13T10:07:12Z</time>
      </trkpt>
      <trkpt lat="46.19145" lon="6.60143">
        <ele>1960.4</ele>
        <time>2022-02-13T10:07:20Z</time>
      </trkpt>
      <trkpt lat="46.19144" lon="6.60143">
        <ele>1960.4</ele>
        <time>2022-02-13T10:07:21Z</time>
      </trkpt>
      <trkpt lat="46.19143" lon="6.60141">
        <ele>1961.4</ele>
        <time>2022-02-13T10:07:25Z</time>
      </trkpt>
      <trkpt lat="46.19143" lon="6.6014">
        <ele>1961.6</ele>
        <time>2022-02-13T10:07:26Z</time>
      </trkpt>
      <trkpt lat="46.19142" lon="6.6014">
        <ele>1961.8</ele>
        <time>2022-02-13T10:07:27Z</time>
      </trkpt>
      <trkpt lat="46.1914" lon="6.60136">
        <ele>1962.6</ele>
        <time>2022-02-13T10:07:32Z</time>
      </trkpt>
      <trkpt lat="46.19139" lon="6.60134">
        <ele>1963.2</ele>
        <time>2022-02-13T10:07:35Z</time>
      </trkpt>
      <trkpt lat="46.19139" lon="6.60133">
        <ele>1963.4</ele>
        <time>2022-02-13T10:07:36Z</time>
      </trkpt>
      <trkpt lat="46.19139" lon="6.60133">
        <ele>1963.6</ele>
        <time>2022-02-13T10:07:37Z</time>
      </trkpt>
      <trkpt lat="46.19138" lon="6.60131">
        <ele>1963.8</ele>
        <time>2022-02-13T10:07:41Z</time>
      </trkpt>
      <trkpt lat="46.19137" lon="6.60127">
        <ele>1964.2</ele>
        <time>2022-02-13T10:07:46Z</time>
      </trkpt>
      <trkpt lat="46.19136" lon="6.60125">
        <ele>1964.6</ele>
        <time>2022-02-13T10:07:49Z</time>
      </trkpt>
      <trkpt lat="46.19134" lon="6.6012">
        <ele>1965.2</ele>
        <time>2022-02-13T10:07:59Z</time>
      </trkpt>
      <trkpt lat="46.19134" lon="6.60118">
        <ele>1965.8</ele>
        <time>2022-02-13T10:08:04Z</time>
      </trkpt>
      <trkpt lat="46.19134" lon="6.60116">
        <ele>1966</ele>
        <time>2022-02-13T10:08:07Z</time>
      </trkpt>
      <trkpt lat="46.19133" lon="6.60113">
        <ele>1966.8</ele>
        <time>2022-02-13T10:08:13Z</time>
      </trkpt>
      <trkpt lat="46.19133" lon="6.60113">
        <ele>1966.8</ele>
        <time>2022-02-13T10:08:14Z</time>
      </trkpt>
      <trkpt lat="46.19132" lon="6.60113">
        <ele>1967.4</ele>
        <time>2022-02-13T10:08:17Z</time>
      </trkpt>
      <trkpt lat="46.19131" lon="6.60114">
        <ele>1967.8</ele>
        <time>2022-02-13T10:08:20Z</time>
      </trkpt>
      <trkpt lat="46.19129" lon="6.60116">
        <ele>1968.6</ele>
        <time>2022-02-13T10:08:26Z</time>
      </trkpt>
      <trkpt lat="46.19128" lon="6.60117">
        <ele>1968.8</ele>
        <time>2022-02-13T10:08:28Z</time>
      </trkpt>
      <trkpt lat="46.19128" lon="6.60117">
        <ele>1969</ele>
        <time>2022-02-13T10:08:29Z</time>
      </trkpt>
      <trkpt lat="46.19127" lon="6.60119">
        <ele>1969.4</ele>
        <time>2022-02-13T10:08:35Z</time>
      </trkpt>
      <trkpt lat="46.19125" lon="6.6012">
        <ele>1970.2</ele>
        <time>2022-02-13T10:08:38Z</time>
      </trkpt>
      <trkpt lat="46.19125" lon="6.6012">
        <ele>1970.4</ele>
        <time>2022-02-13T10:08:39Z</time>
      </trkpt>
      <trkpt lat="46.19124" lon="6.60121">
        <ele>1971.4</ele>
        <time>2022-02-13T10:08:43Z</time>
      </trkpt>
      <trkpt lat="46.19122" lon="6.60122">
        <ele>1971.6</ele>
        <time>2022-02-13T10:08:47Z</time>
      </trkpt>
      <trkpt lat="46.19121" lon="6.60123">
        <ele>1972</ele>
        <time>2022-02-13T10:08:51Z</time>
      </trkpt>
      <trkpt lat="46.1912" lon="6.60124">
        <ele>1972.4</ele>
        <time>2022-02-13T10:08:54Z</time>
      </trkpt>
      <trkpt lat="46.19119" lon="6.60125">
        <ele>1973.2</ele>
        <time>2022-02-13T10:08:58Z</time>
      </trkpt>
      <trkpt lat="46.19118" lon="6.60126">
        <ele>1973.4</ele>
        <time>2022-02-13T10:08:59Z</time>
      </trkpt>
      <trkpt lat="46.19118" lon="6.60126">
        <ele>1973.6</ele>
        <time>2022-02-13T10:09:02Z</time>
      </trkpt>
      <trkpt lat="46.19117" lon="6.60127">
        <ele>1973.8</ele>
        <time>2022-02-13T10:09:03Z</time>
      </trkpt>
      <trkpt lat="46.19116" lon="6.60126">
        <ele>1974.8</ele>
        <time>2022-02-13T10:09:07Z</time>
      </trkpt>
      <trkpt lat="46.19116" lon="6.60125">
        <ele>1975</ele>
        <time>2022-02-13T10:09:08Z</time>
      </trkpt>
      <trkpt lat="46.19115" lon="6.60124">
        <ele>1975.8</ele>
        <time>2022-02-13T10:09:11Z</time>
      </trkpt>
      <trkpt lat="46.19114" lon="6.60124">
        <ele>1976</ele>
        <time>2022-02-13T10:09:12Z</time>
      </trkpt>
      <trkpt lat="46.19111" lon="6.60119">
        <ele>1976.8</ele>
        <time>2022-02-13T10:09:19Z</time>
      </trkpt>
      <trkpt lat="46.19111" lon="6.60119">
        <ele>1977</ele>
        <time>2022-02-13T10:09:20Z</time>
      </trkpt>
      <trkpt lat="46.1911" lon="6.60117">
        <ele>1977.2</ele>
        <time>2022-02-13T10:09:23Z</time>
      </trkpt>
      <trkpt lat="46.1911" lon="6.60116">
        <ele>1977.4</ele>
        <time>2022-02-13T10:09:25Z</time>
      </trkpt>
      <trkpt lat="46.1911" lon="6.60114">
        <ele>1978</ele>
        <time>2022-02-13T10:09:28Z</time>
      </trkpt>
      <trkpt lat="46.19109" lon="6.60113">
        <ele>1978.2</ele>
        <time>2022-02-13T10:09:29Z</time>
      </trkpt>
      <trkpt lat="46.19109" lon="6.60112">
        <ele>1978.2</ele>
        <time>2022-02-13T10:09:30Z</time>
      </trkpt>
      <trkpt lat="46.1911" lon="6.60111">
        <ele>1978.4</ele>
        <time>2022-02-13T10:09:32Z</time>
      </trkpt>
      <trkpt lat="46.1911" lon="6.6011">
        <ele>1978.4</ele>
        <time>2022-02-13T10:09:36Z</time>
      </trkpt>
      <trkpt lat="46.19109" lon="6.6011">
        <ele>1979</ele>
        <time>2022-02-13T10:09:47Z</time>
      </trkpt>
      <trkpt lat="46.19109" lon="6.6011">
        <ele>1979.4</ele>
        <time>2022-02-13T10:09:48Z</time>
      </trkpt>
      <trkpt lat="46.19107" lon="6.60114">
        <ele>1980</ele>
        <time>2022-02-13T10:09:54Z</time>
      </trkpt>
      <trkpt lat="46.19107" lon="6.60114">
        <ele>1980</ele>
        <time>2022-02-13T10:09:55Z</time>
      </trkpt>
      <trkpt lat="46.19106" lon="6.60116">
        <ele>1980.6</ele>
        <time>2022-02-13T10:09:58Z</time>
      </trkpt>
      <trkpt lat="46.19105" lon="6.60117">
        <ele>1981.4</ele>
        <time>2022-02-13T10:10:00Z</time>
      </trkpt>
      <trkpt lat="46.19105" lon="6.60118">
        <ele>1982</ele>
        <time>2022-02-13T10:10:01Z</time>
      </trkpt>
      <trkpt lat="46.19104" lon="6.60119">
        <ele>1982.4</ele>
        <time>2022-02-13T10:10:05Z</time>
      </trkpt>
      <trkpt lat="46.19103" lon="6.6012">
        <ele>1982.6</ele>
        <time>2022-02-13T10:10:06Z</time>
      </trkpt>
      <trkpt lat="46.19102" lon="6.60122">
        <ele>1982.2</ele>
        <time>2022-02-13T10:10:11Z</time>
      </trkpt>
      <trkpt lat="46.191" lon="6.60124">
        <ele>1983</ele>
        <time>2022-02-13T10:10:17Z</time>
      </trkpt>
      <trkpt lat="46.19098" lon="6.60127">
        <ele>1983.6</ele>
        <time>2022-02-13T10:10:23Z</time>
      </trkpt>
      <trkpt lat="46.19097" lon="6.60128">
        <ele>1984</ele>
        <time>2022-02-13T10:10:26Z</time>
      </trkpt>
      <trkpt lat="46.19094" lon="6.6013">
        <ele>1985</ele>
        <time>2022-02-13T10:10:33Z</time>
      </trkpt>
      <trkpt lat="46.19094" lon="6.6013">
        <ele>1986</ele>
        <time>2022-02-13T10:10:35Z</time>
      </trkpt>
      <trkpt lat="46.19093" lon="6.6013">
        <ele>1986.2</ele>
        <time>2022-02-13T10:10:36Z</time>
      </trkpt>
      <trkpt lat="46.19093" lon="6.60127">
        <ele>1986.4</ele>
        <time>2022-02-13T10:10:43Z</time>
      </trkpt>
      <trkpt lat="46.19092" lon="6.60125">
        <ele>1987.2</ele>
        <time>2022-02-13T10:10:48Z</time>
      </trkpt>
      <trkpt lat="46.19092" lon="6.60124">
        <ele>1987.4</ele>
        <time>2022-02-13T10:10:49Z</time>
      </trkpt>
      <trkpt lat="46.19092" lon="6.60124">
        <ele>1987.8</ele>
        <time>2022-02-13T10:10:54Z</time>
      </trkpt>
      <trkpt lat="46.19091" lon="6.60123">
        <ele>1988.2</ele>
        <time>2022-02-13T10:11:02Z</time>
      </trkpt>
      <trkpt lat="46.19091" lon="6.60123">
        <ele>1988.4</ele>
        <time>2022-02-13T10:11:04Z</time>
      </trkpt>
      <trkpt lat="46.1909" lon="6.60122">
        <ele>1988.8</ele>
        <time>2022-02-13T10:11:06Z</time>
      </trkpt>
      <trkpt lat="46.19089" lon="6.60122">
        <ele>1989.4</ele>
        <time>2022-02-13T10:11:09Z</time>
      </trkpt>
      <trkpt lat="46.19087" lon="6.60122">
        <ele>1990.6</ele>
        <time>2022-02-13T10:11:13Z</time>
      </trkpt>
      <trkpt lat="46.19085" lon="6.60122">
        <ele>1991.8</ele>
        <time>2022-02-13T10:11:17Z</time>
      </trkpt>
      <trkpt lat="46.19084" lon="6.60122">
        <ele>1992.6</ele>
        <time>2022-02-13T10:11:19Z</time>
      </trkpt>
      <trkpt lat="46.19082" lon="6.60123">
        <ele>1993</ele>
        <time>2022-02-13T10:11:24Z</time>
      </trkpt>
      <trkpt lat="46.19079" lon="6.60123">
        <ele>1993</ele>
        <time>2022-02-13T10:11:32Z</time>
      </trkpt>
      <trkpt lat="46.19077" lon="6.60122">
        <ele>1993.4</ele>
        <time>2022-02-13T10:11:42Z</time>
      </trkpt>
      <trkpt lat="46.19075" lon="6.60122">
        <ele>1993.6</ele>
        <time>2022-02-13T10:11:46Z</time>
      </trkpt>
      <trkpt lat="46.19075" lon="6.60122">
        <ele>1993.6</ele>
        <time>2022-02-13T10:11:47Z</time>
      </trkpt>
      <trkpt lat="46.19075" lon="6.60122">
        <ele>1994</ele>
        <time>2022-02-13T10:11:49Z</time>
      </trkpt>
      <trkpt lat="46.19075" lon="6.60123">
        <ele>1995.2</ele>
        <time>2022-02-13T10:11:52Z</time>
      </trkpt>
      <trkpt lat="46.19075" lon="6.60123">
        <ele>1996.2</ele>
        <time>2022-02-13T10:11:59Z</time>
      </trkpt>
      <trkpt lat="46.19075" lon="6.60123">
        <ele>1996.2</ele>
        <time>2022-02-13T10:12:00Z</time>
      </trkpt>
      <trkpt lat="46.19074" lon="6.60123">
        <ele>1996.2</ele>
        <time>2022-02-13T10:12:05Z</time>
      </trkpt>
      <trkpt lat="46.19074" lon="6.60122">
        <ele>1996</ele>
        <time>2022-02-13T10:12:09Z</time>
      </trkpt>
      <trkpt lat="46.19073" lon="6.60121">
        <ele>1996.8</ele>
        <time>2022-02-13T10:12:19Z</time>
      </trkpt>
      <trkpt lat="46.19073" lon="6.60121">
        <ele>1997</ele>
        <time>2022-02-13T10:12:28Z</time>
      </trkpt>
      <trkpt lat="46.19072" lon="6.60121">
        <ele>1996.6</ele>
        <time>2022-02-13T10:12:38Z</time>
      </trkpt>
      <trkpt lat="46.19072" lon="6.60121">
        <ele>1996.4</ele>
        <time>2022-02-13T10:12:45Z</time>
      </trkpt>
      <trkpt lat="46.19072" lon="6.60119">
        <ele>1996.6</ele>
        <time>2022-02-13T10:12:55Z</time>
      </trkpt>
      <trkpt lat="46.19072" lon="6.60119">
        <ele>1996.6</ele>
        <time>2022-02-13T10:12:56Z</time>
      </trkpt>
      <trkpt lat="46.19072" lon="6.60119">
        <ele>1996.6</ele>
        <time>2022-02-13T10:12:57Z</time>
      </trkpt>
      <trkpt lat="46.19072" lon="6.60118">
        <ele>1996.6</ele>
        <time>2022-02-13T10:13:00Z</time>
      </trkpt>
      <trkpt lat="46.19069" lon="6.60117">
        <ele>1997.4</ele>
        <time>2022-02-13T10:13:12Z</time>
      </trkpt>
      <trkpt lat="46.19069" lon="6.60116">
        <ele>1997.6</ele>
        <time>2022-02-13T10:13:14Z</time>
      </trkpt>
      <trkpt lat="46.19068" lon="6.60115">
        <ele>1998</ele>
        <time>2022-02-13T10:13:17Z</time>
      </trkpt>
      <trkpt lat="46.19066" lon="6.60113">
        <ele>1998.4</ele>
        <time>2022-02-13T10:13:20Z</time>
      </trkpt>
      <trkpt lat="46.19065" lon="6.60112">
        <ele>1998.8</ele>
        <time>2022-02-13T10:13:23Z</time>
      </trkpt>
      <trkpt lat="46.19065" lon="6.60111">
        <ele>1999.2</ele>
        <time>2022-02-13T10:13:25Z</time>
      </trkpt>
      <trkpt lat="46.19065" lon="6.6011">
        <ele>1999.6</ele>
        <time>2022-02-13T10:13:26Z</time>
      </trkpt>
      <trkpt lat="46.19065" lon="6.60108">
        <ele>2000.2</ele>
        <time>2022-02-13T10:13:29Z</time>
      </trkpt>
      <trkpt lat="46.19064" lon="6.60107">
        <ele>2000.8</ele>
        <time>2022-02-13T10:13:33Z</time>
      </trkpt>
      <trkpt lat="46.19063" lon="6.60106">
        <ele>2001.4</ele>
        <time>2022-02-13T10:13:36Z</time>
      </trkpt>
      <trkpt lat="46.19063" lon="6.60105">
        <ele>2001.4</ele>
        <time>2022-02-13T10:13:37Z</time>
      </trkpt>
      <trkpt lat="46.19063" lon="6.60105">
        <ele>2001.8</ele>
        <time>2022-02-13T10:13:46Z</time>
      </trkpt>
      <trkpt lat="46.19063" lon="6.60105">
        <ele>2001.8</ele>
        <time>2022-02-13T10:13:47Z</time>
      </trkpt>
      <trkpt lat="46.19063" lon="6.60103">
        <ele>2003</ele>
        <time>2022-02-13T10:13:55Z</time>
      </trkpt>
      <trkpt lat="46.19064" lon="6.60103">
        <ele>2003.6</ele>
        <time>2022-02-13T10:13:58Z</time>
      </trkpt>
      <trkpt lat="46.19064" lon="6.60103">
        <ele>2004</ele>
        <time>2022-02-13T10:13:59Z</time>
      </trkpt>
      <trkpt lat="46.19065" lon="6.60102">
        <ele>2004.2</ele>
        <time>2022-02-13T10:14:03Z</time>
      </trkpt>
      <trkpt lat="46.19064" lon="6.60102">
        <ele>2002.8</ele>
        <time>2022-02-13T10:14:09Z</time>
      </trkpt>
      <trkpt lat="46.19065" lon="6.60103">
        <ele>2002</ele>
        <time>2022-02-13T10:14:14Z</time>
      </trkpt>
      <trkpt lat="46.19064" lon="6.60103">
        <ele>2002.2</ele>
        <time>2022-02-13T10:14:16Z</time>
      </trkpt>
      <trkpt lat="46.19065" lon="6.60103">
        <ele>2002.4</ele>
        <time>2022-02-13T10:14:18Z</time>
      </trkpt>
      <trkpt lat="46.19063" lon="6.60104">
        <ele>2002.4</ele>
        <time>2022-02-13T10:14:22Z</time>
      </trkpt>
      <trkpt lat="46.19063" lon="6.60104">
        <ele>2002.4</ele>
        <time>2022-02-13T10:14:23Z</time>
      </trkpt>
      <trkpt lat="46.19063" lon="6.60104">
        <ele>2002.4</ele>
        <time>2022-02-13T10:14:24Z</time>
      </trkpt>
      <trkpt lat="46.1906" lon="6.60105">
        <ele>2002.2</ele>
        <time>2022-02-13T10:14:32Z</time>
      </trkpt>
      <trkpt lat="46.19058" lon="6.60103">
        <ele>2002.6</ele>
        <time>2022-02-13T10:14:35Z</time>
      </trkpt>
      <trkpt lat="46.19058" lon="6.60101">
        <ele>2004</ele>
        <time>2022-02-13T10:14:39Z</time>
      </trkpt>
      <trkpt lat="46.19057" lon="6.601">
        <ele>2005</ele>
        <time>2022-02-13T10:14:40Z</time>
      </trkpt>
      <trkpt lat="46.19057" lon="6.60098">
        <ele>2006</ele>
        <time>2022-02-13T10:14:42Z</time>
      </trkpt>
      <trkpt lat="46.19057" lon="6.60095">
        <ele>2007</ele>
        <time>2022-02-13T10:14:47Z</time>
      </trkpt>
      <trkpt lat="46.19057" lon="6.60094">
        <ele>2007.4</ele>
        <time>2022-02-13T10:14:48Z</time>
      </trkpt>
      <trkpt lat="46.19056" lon="6.6009">
        <ele>2008.2</ele>
        <time>2022-02-13T10:14:53Z</time>
      </trkpt>
      <trkpt lat="46.19056" lon="6.60089">
        <ele>2008.6</ele>
        <time>2022-02-13T10:14:55Z</time>
      </trkpt>
      <trkpt lat="46.19056" lon="6.60088">
        <ele>2008.8</ele>
        <time>2022-02-13T10:14:56Z</time>
      </trkpt>
      <trkpt lat="46.19055" lon="6.60085">
        <ele>2009.4</ele>
        <time>2022-02-13T10:15:00Z</time>
      </trkpt>
      <trkpt lat="46.19055" lon="6.60085">
        <ele>2009.6</ele>
        <time>2022-02-13T10:15:01Z</time>
      </trkpt>
      <trkpt lat="46.19055" lon="6.60085">
        <ele>2010</ele>
        <time>2022-02-13T10:15:08Z</time>
      </trkpt>
      <trkpt lat="46.19055" lon="6.60085">
        <ele>2010</ele>
        <time>2022-02-13T10:15:10Z</time>
      </trkpt>
      <trkpt lat="46.19056" lon="6.60085">
        <ele>2009.8</ele>
        <time>2022-02-13T10:15:13Z</time>
      </trkpt>
      <trkpt lat="46.19056" lon="6.60086">
        <ele>2010.2</ele>
        <time>2022-02-13T10:15:22Z</time>
      </trkpt>
      <trkpt lat="46.19056" lon="6.60086">
        <ele>2010</ele>
        <time>2022-02-13T10:15:23Z</time>
      </trkpt>
      <trkpt lat="46.19056" lon="6.60086">
        <ele>2010</ele>
        <time>2022-02-13T10:15:24Z</time>
      </trkpt>
      <trkpt lat="46.19056" lon="6.60087">
        <ele>2009.8</ele>
        <time>2022-02-13T10:15:25Z</time>
      </trkpt>
      <trkpt lat="46.19056" lon="6.60087">
        <ele>2009</ele>
        <time>2022-02-13T10:15:28Z</time>
      </trkpt>
      <trkpt lat="46.19057" lon="6.60092">
        <ele>2008.4</ele>
        <time>2022-02-13T10:15:35Z</time>
      </trkpt>
      <trkpt lat="46.19057" lon="6.60094">
        <ele>2008.4</ele>
        <time>2022-02-13T10:15:37Z</time>
      </trkpt>
      <trkpt lat="46.19057" lon="6.601">
        <ele>2007.6</ele>
        <time>2022-02-13T10:15:44Z</time>
      </trkpt>
      <trkpt lat="46.19057" lon="6.60103">
        <ele>2007.4</ele>
        <time>2022-02-13T10:15:48Z</time>
      </trkpt>
      <trkpt lat="46.19057" lon="6.60103">
        <ele>2007.4</ele>
        <time>2022-02-13T10:15:49Z</time>
      </trkpt>
      <trkpt lat="46.19055" lon="6.60106">
        <ele>2006.6</ele>
        <time>2022-02-13T10:16:00Z</time>
      </trkpt>
      <trkpt lat="46.19054" lon="6.60108">
        <ele>2006.2</ele>
        <time>2022-02-13T10:16:03Z</time>
      </trkpt>
      <trkpt lat="46.19054" lon="6.60112">
        <ele>2005.4</ele>
        <time>2022-02-13T10:16:08Z</time>
      </trkpt>
      <trkpt lat="46.19053" lon="6.60115">
        <ele>2005.6</ele>
        <time>2022-02-13T10:16:12Z</time>
      </trkpt>
      <trkpt lat="46.19052" lon="6.60117">
        <ele>2006.2</ele>
        <time>2022-02-13T10:16:15Z</time>
      </trkpt>
      <trkpt lat="46.19051" lon="6.60119">
        <ele>2007</ele>
        <time>2022-02-13T10:16:19Z</time>
      </trkpt>
      <trkpt lat="46.19051" lon="6.60119">
        <ele>2007.4</ele>
        <time>2022-02-13T10:16:20Z</time>
      </trkpt>
      <trkpt lat="46.19051" lon="6.6012">
        <ele>2007.8</ele>
        <time>2022-02-13T10:16:21Z</time>
      </trkpt>
      <trkpt lat="46.1905" lon="6.60121">
        <ele>2009</ele>
        <time>2022-02-13T10:16:22Z</time>
      </trkpt>
      <trkpt lat="46.1905" lon="6.60122">
        <ele>2010.2</ele>
        <time>2022-02-13T10:16:26Z</time>
      </trkpt>
      <trkpt lat="46.19049" lon="6.60126">
        <ele>2009.8</ele>
        <time>2022-02-13T10:16:32Z</time>
      </trkpt>
      <trkpt lat="46.19048" lon="6.60128">
        <ele>2009.2</ele>
        <time>2022-02-13T10:16:36Z</time>
      </trkpt>
      <trkpt lat="46.19048" lon="6.60129">
        <ele>2009.2</ele>
        <time>2022-02-13T10:16:37Z</time>
      </trkpt>
      <trkpt lat="46.19046" lon="6.60133">
        <ele>2009</ele>
        <time>2022-02-13T10:16:44Z</time>
      </trkpt>
      <trkpt lat="46.19046" lon="6.60134">
        <ele>2009</ele>
        <time>2022-02-13T10:16:45Z</time>
      </trkpt>
      <trkpt lat="46.19046" lon="6.60134">
        <ele>2009</ele>
        <time>2022-02-13T10:16:46Z</time>
      </trkpt>
      <trkpt lat="46.19046" lon="6.60136">
        <ele>2008.6</ele>
        <time>2022-02-13T10:16:48Z</time>
      </trkpt>
      <trkpt lat="46.19045" lon="6.60137">
        <ele>2008</ele>
        <time>2022-02-13T10:16:51Z</time>
      </trkpt>
      <trkpt lat="46.19045" lon="6.60136">
        <ele>2008.4</ele>
        <time>2022-02-13T10:16:58Z</time>
      </trkpt>
      <trkpt lat="46.19045" lon="6.60136">
        <ele>2008.4</ele>
        <time>2022-02-13T10:16:59Z</time>
      </trkpt>
      <trkpt lat="46.19044" lon="6.60142">
        <ele>2009.2</ele>
        <time>2022-02-13T10:17:09Z</time>
      </trkpt>
      <trkpt lat="46.19044" lon="6.60142">
        <ele>2009.4</ele>
        <time>2022-02-13T10:17:10Z</time>
      </trkpt>
      <trkpt lat="46.19042" lon="6.60145">
        <ele>2010.2</ele>
        <time>2022-02-13T10:17:15Z</time>
      </trkpt>
      <trkpt lat="46.19041" lon="6.60148">
        <ele>2011.4</ele>
        <time>2022-02-13T10:17:19Z</time>
      </trkpt>
      <trkpt lat="46.19041" lon="6.60149">
        <ele>2011.8</ele>
        <time>2022-02-13T10:17:21Z</time>
      </trkpt>
      <trkpt lat="46.19039" lon="6.60151">
        <ele>2012.2</ele>
        <time>2022-02-13T10:17:25Z</time>
      </trkpt>
      <trkpt lat="46.19039" lon="6.60152">
        <ele>2012.4</ele>
        <time>2022-02-13T10:17:27Z</time>
      </trkpt>
      <trkpt lat="46.19039" lon="6.60153">
        <ele>2012.4</ele>
        <time>2022-02-13T10:17:28Z</time>
      </trkpt>
      <trkpt lat="46.19038" lon="6.60153">
        <ele>2012.4</ele>
        <time>2022-02-13T10:17:29Z</time>
      </trkpt>
      <trkpt lat="46.19036" lon="6.60159">
        <ele>2013.4</ele>
        <time>2022-02-13T10:17:38Z</time>
      </trkpt>
      <trkpt lat="46.19035" lon="6.60162">
        <ele>2013.8</ele>
        <time>2022-02-13T10:17:42Z</time>
      </trkpt>
      <trkpt lat="46.19033" lon="6.60165">
        <ele>2014.6</ele>
        <time>2022-02-13T10:17:49Z</time>
      </trkpt>
      <trkpt lat="46.19033" lon="6.60166">
        <ele>2015.4</ele>
        <time>2022-02-13T10:17:53Z</time>
      </trkpt>
      <trkpt lat="46.19033" lon="6.60167">
        <ele>2015.6</ele>
        <time>2022-02-13T10:17:55Z</time>
      </trkpt>
      <trkpt lat="46.19033" lon="6.60167">
        <ele>2015.6</ele>
        <time>2022-02-13T10:17:56Z</time>
      </trkpt>
      <trkpt lat="46.19032" lon="6.60168">
        <ele>2016.4</ele>
        <time>2022-02-13T10:18:05Z</time>
      </trkpt>
      <trkpt lat="46.19032" lon="6.60169">
        <ele>2016.6</ele>
        <time>2022-02-13T10:18:07Z</time>
      </trkpt>
      <trkpt lat="46.1903" lon="6.60172">
        <ele>2017</ele>
        <time>2022-02-13T10:18:15Z</time>
      </trkpt>
      <trkpt lat="46.1903" lon="6.60172">
        <ele>2017.8</ele>
        <time>2022-02-13T10:18:17Z</time>
      </trkpt>
      <trkpt lat="46.19029" lon="6.60174">
        <ele>2018.8</ele>
        <time>2022-02-13T10:18:24Z</time>
      </trkpt>
      <trkpt lat="46.19029" lon="6.60174">
        <ele>2019</ele>
        <time>2022-02-13T10:18:26Z</time>
      </trkpt>
      <trkpt lat="46.19028" lon="6.60176">
        <ele>2019.6</ele>
        <time>2022-02-13T10:18:35Z</time>
      </trkpt>
      <trkpt lat="46.19028" lon="6.60176">
        <ele>2019.8</ele>
        <time>2022-02-13T10:18:36Z</time>
      </trkpt>
      <trkpt lat="46.19027" lon="6.60177">
        <ele>2019.8</ele>
        <time>2022-02-13T10:18:37Z</time>
      </trkpt>
      <trkpt lat="46.19026" lon="6.60179">
        <ele>2020.6</ele>
        <time>2022-02-13T10:18:41Z</time>
      </trkpt>
      <trkpt lat="46.19025" lon="6.6018">
        <ele>2021</ele>
        <time>2022-02-13T10:18:42Z</time>
      </trkpt>
      <trkpt lat="46.19024" lon="6.60183">
        <ele>2021.6</ele>
        <time>2022-02-13T10:18:48Z</time>
      </trkpt>
      <trkpt lat="46.19023" lon="6.60185">
        <ele>2022</ele>
        <time>2022-02-13T10:18:51Z</time>
      </trkpt>
      <trkpt lat="46.19023" lon="6.60186">
        <ele>2022.6</ele>
        <time>2022-02-13T10:18:54Z</time>
      </trkpt>
      <trkpt lat="46.19022" lon="6.60187">
        <ele>2022.8</ele>
        <time>2022-02-13T10:18:55Z</time>
      </trkpt>
      <trkpt lat="46.19022" lon="6.60187">
        <ele>2023.2</ele>
        <time>2022-02-13T10:18:56Z</time>
      </trkpt>
      <trkpt lat="46.19022" lon="6.60188">
        <ele>2023.4</ele>
        <time>2022-02-13T10:18:57Z</time>
      </trkpt>
      <trkpt lat="46.19022" lon="6.60189">
        <ele>2024.2</ele>
        <time>2022-02-13T10:19:01Z</time>
      </trkpt>
      <trkpt lat="46.19021" lon="6.60191">
        <ele>2024.6</ele>
        <time>2022-02-13T10:19:07Z</time>
      </trkpt>
      <trkpt lat="46.1902" lon="6.60191">
        <ele>2025</ele>
        <time>2022-02-13T10:19:10Z</time>
      </trkpt>
      <trkpt lat="46.1902" lon="6.60192">
        <ele>2025.4</ele>
        <time>2022-02-13T10:19:13Z</time>
      </trkpt>
      <trkpt lat="46.19018" lon="6.60194">
        <ele>2026.8</ele>
        <time>2022-02-13T10:19:21Z</time>
      </trkpt>
      <trkpt lat="46.19018" lon="6.60195">
        <ele>2027</ele>
        <time>2022-02-13T10:19:23Z</time>
      </trkpt>
      <trkpt lat="46.19018" lon="6.60196">
        <ele>2026.4</ele>
        <time>2022-02-13T10:19:29Z</time>
      </trkpt>
      <trkpt lat="46.19016" lon="6.60197">
        <ele>2026</ele>
        <time>2022-02-13T10:19:37Z</time>
      </trkpt>
      <trkpt lat="46.19016" lon="6.60197">
        <ele>2026.4</ele>
        <time>2022-02-13T10:19:41Z</time>
      </trkpt>
      <trkpt lat="46.19016" lon="6.60196">
        <ele>2026.6</ele>
        <time>2022-02-13T10:19:47Z</time>
      </trkpt>
      <trkpt lat="46.19016" lon="6.60195">
        <ele>2026.6</ele>
        <time>2022-02-13T10:20:00Z</time>
      </trkpt>
      <trkpt lat="46.19015" lon="6.60193">
        <ele>2027</ele>
        <time>2022-02-13T10:20:08Z</time>
      </trkpt>
      <trkpt lat="46.19014" lon="6.60194">
        <ele>2027.2</ele>
        <time>2022-02-13T10:20:14Z</time>
      </trkpt>
      <trkpt lat="46.19012" lon="6.60196">
        <ele>2027.2</ele>
        <time>2022-02-13T10:20:18Z</time>
      </trkpt>
      <trkpt lat="46.1901" lon="6.60199">
        <ele>2027.8</ele>
        <time>2022-02-13T10:20:25Z</time>
      </trkpt>
      <trkpt lat="46.19007" lon="6.60202">
        <ele>2028.2</ele>
        <time>2022-02-13T10:20:31Z</time>
      </trkpt>
      <trkpt lat="46.19006" lon="6.60203">
        <ele>2028.8</ele>
        <time>2022-02-13T10:20:38Z</time>
      </trkpt>
      <trkpt lat="46.19006" lon="6.60203">
        <ele>2028.8</ele>
        <time>2022-02-13T10:20:39Z</time>
      </trkpt>
      <trkpt lat="46.19005" lon="6.60204">
        <ele>2028.8</ele>
        <time>2022-02-13T10:20:42Z</time>
      </trkpt>
      <trkpt lat="46.19005" lon="6.60205">
        <ele>2028.8</ele>
        <time>2022-02-13T10:20:43Z</time>
      </trkpt>
      <trkpt lat="46.19002" lon="6.6021">
        <ele>2029</ele>
        <time>2022-02-13T10:20:54Z</time>
      </trkpt>
      <trkpt lat="46.18999" lon="6.60217">
        <ele>2029.8</ele>
        <time>2022-02-13T10:21:06Z</time>
      </trkpt>
      <trkpt lat="46.18998" lon="6.60218">
        <ele>2030</ele>
        <time>2022-02-13T10:21:08Z</time>
      </trkpt>
      <trkpt lat="46.18995" lon="6.60223">
        <ele>2030.8</ele>
        <time>2022-02-13T10:21:19Z</time>
      </trkpt>
      <trkpt lat="46.18994" lon="6.60224">
        <ele>2031</ele>
        <time>2022-02-13T10:21:21Z</time>
      </trkpt>
      <trkpt lat="46.18993" lon="6.60227">
        <ele>2031.4</ele>
        <time>2022-02-13T10:21:26Z</time>
      </trkpt>
      <trkpt lat="46.18991" lon="6.60229">
        <ele>2032</ele>
        <time>2022-02-13T10:21:30Z</time>
      </trkpt>
      <trkpt lat="46.18991" lon="6.6023">
        <ele>2032</ele>
        <time>2022-02-13T10:21:31Z</time>
      </trkpt>
      <trkpt lat="46.1899" lon="6.60233">
        <ele>2033.2</ele>
        <time>2022-02-13T10:21:38Z</time>
      </trkpt>
      <trkpt lat="46.1899" lon="6.60233">
        <ele>2033.4</ele>
        <time>2022-02-13T10:21:42Z</time>
      </trkpt>
      <trkpt lat="46.1899" lon="6.60234">
        <ele>2033.4</ele>
        <time>2022-02-13T10:21:44Z</time>
      </trkpt>
      <trkpt lat="46.1899" lon="6.60234">
        <ele>2033.8</ele>
        <time>2022-02-13T10:21:47Z</time>
      </trkpt>
      <trkpt lat="46.18989" lon="6.60235">
        <ele>2034</ele>
        <time>2022-02-13T10:21:50Z</time>
      </trkpt>
      <trkpt lat="46.18989" lon="6.60235">
        <ele>2034</ele>
        <time>2022-02-13T10:21:51Z</time>
      </trkpt>
      <trkpt lat="46.18988" lon="6.60237">
        <ele>2034.2</ele>
        <time>2022-02-13T10:21:54Z</time>
      </trkpt>
      <trkpt lat="46.18986" lon="6.6024">
        <ele>2035.2</ele>
        <time>2022-02-13T10:21:59Z</time>
      </trkpt>
      <trkpt lat="46.18986" lon="6.6024">
        <ele>2035.4</ele>
        <time>2022-02-13T10:22:00Z</time>
      </trkpt>
      <trkpt lat="46.18986" lon="6.60241">
        <ele>2035.8</ele>
        <time>2022-02-13T10:22:06Z</time>
      </trkpt>
      <trkpt lat="46.18983" lon="6.60242">
        <ele>2036.2</ele>
        <time>2022-02-13T10:22:18Z</time>
      </trkpt>
      <trkpt lat="46.18982" lon="6.60243">
        <ele>2036.4</ele>
        <time>2022-02-13T10:22:22Z</time>
      </trkpt>
      <trkpt lat="46.18982" lon="6.60243">
        <ele>2036.6</ele>
        <time>2022-02-13T10:22:24Z</time>
      </trkpt>
      <trkpt lat="46.18982" lon="6.60244">
        <ele>2036.6</ele>
        <time>2022-02-13T10:22:32Z</time>
      </trkpt>
      <trkpt lat="46.18981" lon="6.60244">
        <ele>2036.2</ele>
        <time>2022-02-13T10:22:42Z</time>
      </trkpt>
      <trkpt lat="46.18981" lon="6.60244">
        <ele>2036.2</ele>
        <time>2022-02-13T10:22:45Z</time>
      </trkpt>
      <trkpt lat="46.1898" lon="6.60245">
        <ele>2036.4</ele>
        <time>2022-02-13T10:22:46Z</time>
      </trkpt>
      <trkpt lat="46.1898" lon="6.60245">
        <ele>2036.4</ele>
        <time>2022-02-13T10:22:48Z</time>
      </trkpt>
      <trkpt lat="46.1898" lon="6.60246">
        <ele>2036.2</ele>
        <time>2022-02-13T10:22:52Z</time>
      </trkpt>
      <trkpt lat="46.18979" lon="6.60246">
        <ele>2036.2</ele>
        <time>2022-02-13T10:22:55Z</time>
      </trkpt>
      <trkpt lat="46.18979" lon="6.60247">
        <ele>2036.2</ele>
        <time>2022-02-13T10:22:59Z</time>
      </trkpt>
      <trkpt lat="46.18979" lon="6.60248">
        <ele>2036.4</ele>
        <time>2022-02-13T10:23:02Z</time>
      </trkpt>
      <trkpt lat="46.18979" lon="6.60249">
        <ele>2036.4</ele>
        <time>2022-02-13T10:23:05Z</time>
      </trkpt>
      <trkpt lat="46.18977" lon="6.60252">
        <ele>2037</ele>
        <time>2022-02-13T10:23:11Z</time>
      </trkpt>
      <trkpt lat="46.18976" lon="6.60253">
        <ele>2037.4</ele>
        <time>2022-02-13T10:23:13Z</time>
      </trkpt>
      <trkpt lat="46.18976" lon="6.60254">
        <ele>2037.6</ele>
        <time>2022-02-13T10:23:14Z</time>
      </trkpt>
      <trkpt lat="46.18975" lon="6.60257">
        <ele>2038.6</ele>
        <time>2022-02-13T10:23:19Z</time>
      </trkpt>
      <trkpt lat="46.18975" lon="6.60258">
        <ele>2038.6</ele>
        <time>2022-02-13T10:23:20Z</time>
      </trkpt>
      <trkpt lat="46.18974" lon="6.6026">
        <ele>2039</ele>
        <time>2022-02-13T10:23:24Z</time>
      </trkpt>
      <trkpt lat="46.18973" lon="6.60262">
        <ele>2039.6</ele>
        <time>2022-02-13T10:23:27Z</time>
      </trkpt>
      <trkpt lat="46.18973" lon="6.60262">
        <ele>2040</ele>
        <time>2022-02-13T10:23:28Z</time>
      </trkpt>
      <trkpt lat="46.18973" lon="6.60263">
        <ele>2040.2</ele>
        <time>2022-02-13T10:23:30Z</time>
      </trkpt>
      <trkpt lat="46.18972" lon="6.60266">
        <ele>2040.8</ele>
        <time>2022-02-13T10:23:35Z</time>
      </trkpt>
      <trkpt lat="46.18972" lon="6.60266">
        <ele>2041</ele>
        <time>2022-02-13T10:23:36Z</time>
      </trkpt>
      <trkpt lat="46.18971" lon="6.60267">
        <ele>2041.2</ele>
        <time>2022-02-13T10:23:38Z</time>
      </trkpt>
      <trkpt lat="46.18971" lon="6.60268">
        <ele>2041.4</ele>
        <time>2022-02-13T10:23:40Z</time>
      </trkpt>
      <trkpt lat="46.1897" lon="6.60268">
        <ele>2041.6</ele>
        <time>2022-02-13T10:23:41Z</time>
      </trkpt>
      <trkpt lat="46.1897" lon="6.60269">
        <ele>2041.8</ele>
        <time>2022-02-13T10:23:43Z</time>
      </trkpt>
      <trkpt lat="46.1897" lon="6.6027">
        <ele>2042.2</ele>
        <time>2022-02-13T10:23:45Z</time>
      </trkpt>
      <trkpt lat="46.1897" lon="6.6027">
        <ele>2042.2</ele>
        <time>2022-02-13T10:23:47Z</time>
      </trkpt>
      <trkpt lat="46.18972" lon="6.6027">
        <ele>2042</ele>
        <time>2022-02-13T10:23:57Z</time>
      </trkpt>
      <trkpt lat="46.18972" lon="6.6027">
        <ele>2041.8</ele>
        <time>2022-02-13T10:24:02Z</time>
      </trkpt>
      <trkpt lat="46.18973" lon="6.60269">
        <ele>2042</ele>
        <time>2022-02-13T10:24:08Z</time>
      </trkpt>
      <trkpt lat="46.18973" lon="6.60269">
        <ele>2042.4</ele>
        <time>2022-02-13T10:24:19Z</time>
      </trkpt>
      <trkpt lat="46.18973" lon="6.6027">
        <ele>2042</ele>
        <time>2022-02-13T10:24:39Z</time>
      </trkpt>
      <trkpt lat="46.18973" lon="6.60269">
        <ele>2041.6</ele>
        <time>2022-02-13T10:24:45Z</time>
      </trkpt>
      <trkpt lat="46.18973" lon="6.60269">
        <ele>2041.2</ele>
        <time>2022-02-13T10:24:46Z</time>
      </trkpt>
      <trkpt lat="46.18973" lon="6.60269">
        <ele>2041</ele>
        <time>2022-02-13T10:24:47Z</time>
      </trkpt>
      <trkpt lat="46.18973" lon="6.60269">
        <ele>2041</ele>
        <time>2022-02-13T10:24:49Z</time>
      </trkpt>
      <trkpt lat="46.18973" lon="6.60269">
        <ele>2041.2</ele>
        <time>2022-02-13T10:24:50Z</time>
      </trkpt>
      <trkpt lat="46.18972" lon="6.60269">
        <ele>2041.6</ele>
        <time>2022-02-13T10:24:51Z</time>
      </trkpt>
      <trkpt lat="46.18972" lon="6.60269">
        <ele>2041.8</ele>
        <time>2022-02-13T10:24:53Z</time>
      </trkpt>
      <trkpt lat="46.18972" lon="6.60269">
        <ele>2041.8</ele>
        <time>2022-02-13T10:24:54Z</time>
      </trkpt>
      <trkpt lat="46.18971" lon="6.60269">
        <ele>2042.6</ele>
        <time>2022-02-13T10:25:03Z</time>
      </trkpt>
      <trkpt lat="46.18971" lon="6.60269">
        <ele>2042.6</ele>
        <time>2022-02-13T10:25:04Z</time>
      </trkpt>
      <trkpt lat="46.18971" lon="6.60269">
        <ele>2042.6</ele>
        <time>2022-02-13T10:25:05Z</time>
      </trkpt>
      <trkpt lat="46.18971" lon="6.60269">
        <ele>2042.8</ele>
        <time>2022-02-13T10:25:07Z</time>
      </trkpt>
      <trkpt lat="46.1897" lon="6.60268">
        <ele>2041.8</ele>
        <time>2022-02-13T10:25:17Z</time>
      </trkpt>
      <trkpt lat="46.18972" lon="6.60268">
        <ele>2042</ele>
        <time>2022-02-13T10:25:25Z</time>
      </trkpt>
      <trkpt lat="46.18973" lon="6.60268">
        <ele>2042.4</ele>
        <time>2022-02-13T10:25:33Z</time>
      </trkpt>
      <trkpt lat="46.18973" lon="6.60269">
        <ele>2042.2</ele>
        <time>2022-02-13T10:25:47Z</time>
      </trkpt>
      <trkpt lat="46.18973" lon="6.60269">
        <ele>2042.2</ele>
        <time>2022-02-13T10:25:50Z</time>
      </trkpt>
      <trkpt lat="46.18973" lon="6.60269">
        <ele>2042.2</ele>
        <time>2022-02-13T10:25:56Z</time>
      </trkpt>
      <trkpt lat="46.18974" lon="6.6027">
        <ele>2042.2</ele>
        <time>2022-02-13T10:26:08Z</time>
      </trkpt>
      <trkpt lat="46.18974" lon="6.6027">
        <ele>2042.2</ele>
        <time>2022-02-13T10:26:17Z</time>
      </trkpt>
      <trkpt lat="46.18973" lon="6.60269">
        <ele>2042.2</ele>
        <time>2022-02-13T10:26:28Z</time>
      </trkpt>
      <trkpt lat="46.18973" lon="6.60269">
        <ele>2042.2</ele>
        <time>2022-02-13T10:26:31Z</time>
      </trkpt>
      <trkpt lat="46.18973" lon="6.60269">
        <ele>2042.2</ele>
        <time>2022-02-13T10:26:32Z</time>
      </trkpt>
      <trkpt lat="46.18974" lon="6.60269">
        <ele>2042.2</ele>
        <time>2022-02-13T10:26:38Z</time>
      </trkpt>
      <trkpt lat="46.18974" lon="6.60268">
        <ele>2042.2</ele>
        <time>2022-02-13T10:26:47Z</time>
      </trkpt>
      <trkpt lat="46.18974" lon="6.60268">
        <ele>2042.2</ele>
        <time>2022-02-13T10:26:54Z</time>
      </trkpt>
      <trkpt lat="46.18974" lon="6.60268">
        <ele>2042.2</ele>
        <time>2022-02-13T10:26:56Z</time>
      </trkpt>
      <trkpt lat="46.18974" lon="6.60268">
        <ele>2042.2</ele>
        <time>2022-02-13T10:27:01Z</time>
      </trkpt>
      <trkpt lat="46.18974" lon="6.60268">
        <ele>2042.2</ele>
        <time>2022-02-13T10:27:02Z</time>
      </trkpt>
      <trkpt lat="46.18974" lon="6.60268">
        <ele>2042.2</ele>
        <time>2022-02-13T10:27:04Z</time>
      </trkpt>
      <trkpt lat="46.18975" lon="6.60268">
        <ele>2042.2</ele>
        <time>2022-02-13T10:27:07Z</time>
      </trkpt>
      <trkpt lat="46.18974" lon="6.60268">
        <ele>2042.2</ele>
        <time>2022-02-13T10:27:13Z</time>
      </trkpt>
      <trkpt lat="46.18975" lon="6.60269">
        <ele>2042.2</ele>
        <time>2022-02-13T10:27:17Z</time>
      </trkpt>
      <trkpt lat="46.18975" lon="6.60269">
        <ele>2042.2</ele>
        <time>2022-02-13T10:27:18Z</time>
      </trkpt>
      <trkpt lat="46.18975" lon="6.60269">
        <ele>2042.2</ele>
        <time>2022-02-13T10:27:20Z</time>
      </trkpt>
      <trkpt lat="46.18974" lon="6.6027">
        <ele>2042.2</ele>
        <time>2022-02-13T10:27:27Z</time>
      </trkpt>
      <trkpt lat="46.18974" lon="6.60269">
        <ele>2042.2</ele>
        <time>2022-02-13T10:27:28Z</time>
      </trkpt>
      <trkpt lat="46.18974" lon="6.60269">
        <ele>2042.2</ele>
        <time>2022-02-13T10:27:34Z</time>
      </trkpt>
      <trkpt lat="46.18973" lon="6.60271">
        <ele>2042.2</ele>
        <time>2022-02-13T10:27:49Z</time>
      </trkpt>
      <trkpt lat="46.18973" lon="6.60271">
        <ele>2042.2</ele>
        <time>2022-02-13T10:27:51Z</time>
      </trkpt>
      <trkpt lat="46.18973" lon="6.60271">
        <ele>2042.2</ele>
        <time>2022-02-13T10:27:52Z</time>
      </trkpt>
      <trkpt lat="46.18973" lon="6.60271">
        <ele>2042.2</ele>
        <time>2022-02-13T10:27:55Z</time>
      </trkpt>
      <trkpt lat="46.18973" lon="6.6027">
        <ele>2042.2</ele>
        <time>2022-02-13T10:27:58Z</time>
      </trkpt>
      <trkpt lat="46.18973" lon="6.60271">
        <ele>2042.2</ele>
        <time>2022-02-13T10:27:59Z</time>
      </trkpt>
      <trkpt lat="46.18974" lon="6.6027">
        <ele>2042.2</ele>
        <time>2022-02-13T10:28:07Z</time>
      </trkpt>
      <trkpt lat="46.18974" lon="6.6027">
        <ele>2042.2</ele>
        <time>2022-02-13T10:28:09Z</time>
      </trkpt>
      <trkpt lat="46.18974" lon="6.6027">
        <ele>2042.2</ele>
        <time>2022-02-13T10:28:15Z</time>
      </trkpt>
      <trkpt lat="46.18973" lon="6.6027">
        <ele>2042.2</ele>
        <time>2022-02-13T10:28:18Z</time>
      </trkpt>
      <trkpt lat="46.18973" lon="6.6027">
        <ele>2042.2</ele>
        <time>2022-02-13T10:28:20Z</time>
      </trkpt>
      <trkpt lat="46.18973" lon="6.6027">
        <ele>2042.2</ele>
        <time>2022-02-13T10:28:22Z</time>
      </trkpt>
      <trkpt lat="46.18973" lon="6.6027">
        <ele>2042.2</ele>
        <time>2022-02-13T10:28:35Z</time>
      </trkpt>
      <trkpt lat="46.18973" lon="6.6027">
        <ele>2042.2</ele>
        <time>2022-02-13T10:28:40Z</time>
      </trkpt>
      <trkpt lat="46.18973" lon="6.6027">
        <ele>2042.2</ele>
        <time>2022-02-13T10:28:42Z</time>
      </trkpt>
      <trkpt lat="46.18973" lon="6.6027">
        <ele>2042.2</ele>
        <time>2022-02-13T10:28:43Z</time>
      </trkpt>
      <trkpt lat="46.18973" lon="6.6027">
        <ele>2042.2</ele>
        <time>2022-02-13T10:28:44Z</time>
      </trkpt>
      <trkpt lat="46.18972" lon="6.6027">
        <ele>2042.2</ele>
        <time>2022-02-13T10:28:48Z</time>
      </trkpt>
      <trkpt lat="46.18973" lon="6.60269">
        <ele>2042.2</ele>
        <time>2022-02-13T10:28:58Z</time>
      </trkpt>
      <trkpt lat="46.18973" lon="6.60269">
        <ele>2042.2</ele>
        <time>2022-02-13T10:28:59Z</time>
      </trkpt>
      <trkpt lat="46.18974" lon="6.6027">
        <ele>2042.2</ele>
        <time>2022-02-13T10:29:02Z</time>
      </trkpt>
      <trkpt lat="46.18974" lon="6.60269">
        <ele>2042.2</ele>
        <time>2022-02-13T10:29:07Z</time>
      </trkpt>
      <trkpt lat="46.18974" lon="6.60269">
        <ele>2042.2</ele>
        <time>2022-02-13T10:29:12Z</time>
      </trkpt>
      <trkpt lat="46.18973" lon="6.60269">
        <ele>2042.2</ele>
        <time>2022-02-13T10:29:17Z</time>
      </trkpt>
      <trkpt lat="46.18974" lon="6.60269">
        <ele>2042.2</ele>
        <time>2022-02-13T10:29:19Z</time>
      </trkpt>
      <trkpt lat="46.18974" lon="6.60269">
        <ele>2042.2</ele>
        <time>2022-02-13T10:29:20Z</time>
      </trkpt>
      <trkpt lat="46.18974" lon="6.60269">
        <ele>2042.2</ele>
        <time>2022-02-13T10:29:34Z</time>
      </trkpt>
      <trkpt lat="46.18976" lon="6.60269">
        <ele>2042.2</ele>
        <time>2022-02-13T10:29:48Z</time>
      </trkpt>
      <trkpt lat="46.18975" lon="6.60269">
        <ele>2042.2</ele>
        <time>2022-02-13T10:29:56Z</time>
      </trkpt>
      <trkpt lat="46.18974" lon="6.60269">
        <ele>2042.2</ele>
        <time>2022-02-13T10:29:58Z</time>
      </trkpt>
      <trkpt lat="46.18974" lon="6.60269">
        <ele>2042.2</ele>
        <time>2022-02-13T10:30:01Z</time>
      </trkpt>
      <trkpt lat="46.18974" lon="6.60269">
        <ele>2042.2</ele>
        <time>2022-02-13T10:30:04Z</time>
      </trkpt>
      <trkpt lat="46.18974" lon="6.60269">
        <ele>2042.2</ele>
        <time>2022-02-13T10:30:18Z</time>
      </trkpt>
      <trkpt lat="46.18974" lon="6.60269">
        <ele>2042.2</ele>
        <time>2022-02-13T10:30:23Z</time>
      </trkpt>
      <trkpt lat="46.18974" lon="6.60269">
        <ele>2042.2</ele>
        <time>2022-02-13T10:30:25Z</time>
      </trkpt>
      <trkpt lat="46.18974" lon="6.60269">
        <ele>2042.2</ele>
        <time>2022-02-13T10:30:31Z</time>
      </trkpt>
      <trkpt lat="46.18974" lon="6.60269">
        <ele>2042.2</ele>
        <time>2022-02-13T10:30:38Z</time>
      </trkpt>
      <trkpt lat="46.18974" lon="6.60271">
        <ele>2042.2</ele>
        <time>2022-02-13T10:30:45Z</time>
      </trkpt>
      <trkpt lat="46.18974" lon="6.60271">
        <ele>2042.2</ele>
        <time>2022-02-13T10:30:46Z</time>
      </trkpt>
      <trkpt lat="46.18974" lon="6.60271">
        <ele>2042.2</ele>
        <time>2022-02-13T10:30:47Z</time>
      </trkpt>
      <trkpt lat="46.18975" lon="6.60271">
        <ele>2042.2</ele>
        <time>2022-02-13T10:30:48Z</time>
      </trkpt>
      <trkpt lat="46.18974" lon="6.6027">
        <ele>2042.2</ele>
        <time>2022-02-13T10:30:52Z</time>
      </trkpt>
      <trkpt lat="46.18974" lon="6.60269">
        <ele>2042.2</ele>
        <time>2022-02-13T10:30:57Z</time>
      </trkpt>
      <trkpt lat="46.18974" lon="6.60269">
        <ele>2042.2</ele>
        <time>2022-02-13T10:31:04Z</time>
      </trkpt>
      <trkpt lat="46.18974" lon="6.60269">
        <ele>2042.2</ele>
        <time>2022-02-13T10:31:05Z</time>
      </trkpt>
      <trkpt lat="46.18974" lon="6.60269">
        <ele>2042.2</ele>
        <time>2022-02-13T10:31:14Z</time>
      </trkpt>
      <trkpt lat="46.18974" lon="6.60269">
        <ele>2042.2</ele>
        <time>2022-02-13T10:31:16Z</time>
      </trkpt>
      <trkpt lat="46.18973" lon="6.60268">
        <ele>2042.2</ele>
        <time>2022-02-13T10:31:24Z</time>
      </trkpt>
      <trkpt lat="46.18973" lon="6.60269">
        <ele>2042.2</ele>
        <time>2022-02-13T10:31:30Z</time>
      </trkpt>
      <trkpt lat="46.18975" lon="6.60268">
        <ele>2042.2</ele>
        <time>2022-02-13T10:31:42Z</time>
      </trkpt>
      <trkpt lat="46.18976" lon="6.60268">
        <ele>2042.2</ele>
        <time>2022-02-13T10:31:43Z</time>
      </trkpt>
      <trkpt lat="46.18976" lon="6.60268">
        <ele>2042.2</ele>
        <time>2022-02-13T10:31:46Z</time>
      </trkpt>
      <trkpt lat="46.18976" lon="6.60268">
        <ele>2042.2</ele>
        <time>2022-02-13T10:31:47Z</time>
      </trkpt>
      <trkpt lat="46.18976" lon="6.60268">
        <ele>2042.2</ele>
        <time>2022-02-13T10:31:49Z</time>
      </trkpt>
      <trkpt lat="46.18976" lon="6.60269">
        <ele>2042.2</ele>
        <time>2022-02-13T10:31:59Z</time>
      </trkpt>
      <trkpt lat="46.18976" lon="6.60269">
        <ele>2042.2</ele>
        <time>2022-02-13T10:32:02Z</time>
      </trkpt>
      <trkpt lat="46.18976" lon="6.60269">
        <ele>2042.2</ele>
        <time>2022-02-13T10:32:03Z</time>
      </trkpt>
      <trkpt lat="46.18976" lon="6.6027">
        <ele>2042.2</ele>
        <time>2022-02-13T10:32:08Z</time>
      </trkpt>
      <trkpt lat="46.18975" lon="6.6027">
        <ele>2042.2</ele>
        <time>2022-02-13T10:32:09Z</time>
      </trkpt>
      <trkpt lat="46.18975" lon="6.6027">
        <ele>2042.2</ele>
        <time>2022-02-13T10:32:11Z</time>
      </trkpt>
      <trkpt lat="46.18975" lon="6.6027">
        <ele>2042.2</ele>
        <time>2022-02-13T10:32:15Z</time>
      </trkpt>
      <trkpt lat="46.18975" lon="6.60271">
        <ele>2042.2</ele>
        <time>2022-02-13T10:32:21Z</time>
      </trkpt>
      <trkpt lat="46.18974" lon="6.60272">
        <ele>2042.2</ele>
        <time>2022-02-13T10:32:23Z</time>
      </trkpt>
      <trkpt lat="46.18973" lon="6.60273">
        <ele>2042.2</ele>
        <time>2022-02-13T10:32:29Z</time>
      </trkpt>
      <trkpt lat="46.18973" lon="6.60273">
        <ele>2042.2</ele>
        <time>2022-02-13T10:32:31Z</time>
      </trkpt>
      <trkpt lat="46.18973" lon="6.60273">
        <ele>2042.2</ele>
        <time>2022-02-13T10:32:32Z</time>
      </trkpt>
      <trkpt lat="46.18974" lon="6.60271">
        <ele>2042.2</ele>
        <time>2022-02-13T10:32:42Z</time>
      </trkpt>
      <trkpt lat="46.18974" lon="6.60271">
        <ele>2042.2</ele>
        <time>2022-02-13T10:32:46Z</time>
      </trkpt>
      <trkpt lat="46.18974" lon="6.60271">
        <ele>2042.2</ele>
        <time>2022-02-13T10:32:48Z</time>
      </trkpt>
      <trkpt lat="46.18977" lon="6.60271">
        <ele>2042.2</ele>
        <time>2022-02-13T10:32:59Z</time>
      </trkpt>
      <trkpt lat="46.18977" lon="6.60271">
        <ele>2042.2</ele>
        <time>2022-02-13T10:33:01Z</time>
      </trkpt>
      <trkpt lat="46.18978" lon="6.60271">
        <ele>2042.2</ele>
        <time>2022-02-13T10:33:02Z</time>
      </trkpt>
      <trkpt lat="46.18976" lon="6.60269">
        <ele>2042.2</ele>
        <time>2022-02-13T10:33:12Z</time>
      </trkpt>
      <trkpt lat="46.18976" lon="6.60269">
        <ele>2042.2</ele>
        <time>2022-02-13T10:33:17Z</time>
      </trkpt>
      <trkpt lat="46.18976" lon="6.60269">
        <ele>2042.2</ele>
        <time>2022-02-13T10:33:20Z</time>
      </trkpt>
      <trkpt lat="46.18977" lon="6.60269">
        <ele>2042.2</ele>
        <time>2022-02-13T10:33:27Z</time>
      </trkpt>
      <trkpt lat="46.18977" lon="6.60268">
        <ele>2042.2</ele>
        <time>2022-02-13T10:33:29Z</time>
      </trkpt>
      <trkpt lat="46.18976" lon="6.60269">
        <ele>2042.2</ele>
        <time>2022-02-13T10:33:34Z</time>
      </trkpt>
      <trkpt lat="46.18976" lon="6.60269">
        <ele>2042.2</ele>
        <time>2022-02-13T10:33:42Z</time>
      </trkpt>
      <trkpt lat="46.18976" lon="6.60269">
        <ele>2042.2</ele>
        <time>2022-02-13T10:33:43Z</time>
      </trkpt>
      <trkpt lat="46.18976" lon="6.60269">
        <ele>2042.2</ele>
        <time>2022-02-13T10:33:44Z</time>
      </trkpt>
      <trkpt lat="46.18976" lon="6.60269">
        <ele>2042.2</ele>
        <time>2022-02-13T10:33:45Z</time>
      </trkpt>
      <trkpt lat="46.18976" lon="6.60269">
        <ele>2042.2</ele>
        <time>2022-02-13T10:33:46Z</time>
      </trkpt>
      <trkpt lat="46.18976" lon="6.60269">
        <ele>2042.2</ele>
        <time>2022-02-13T10:33:47Z</time>
      </trkpt>
      <trkpt lat="46.18976" lon="6.60269">
        <ele>2042.2</ele>
        <time>2022-02-13T10:33:49Z</time>
      </trkpt>
      <trkpt lat="46.18976" lon="6.60269">
        <ele>2042.2</ele>
        <time>2022-02-13T10:33:52Z</time>
      </trkpt>
      <trkpt lat="46.18976" lon="6.60268">
        <ele>2042.2</ele>
        <time>2022-02-13T10:33:59Z</time>
      </trkpt>
      <trkpt lat="46.18975" lon="6.60268">
        <ele>2042.2</ele>
        <time>2022-02-13T10:34:09Z</time>
      </trkpt>
      <trkpt lat="46.18975" lon="6.60268">
        <ele>2042.2</ele>
        <time>2022-02-13T10:34:10Z</time>
      </trkpt>
      <trkpt lat="46.18975" lon="6.60268">
        <ele>2042.2</ele>
        <time>2022-02-13T10:34:15Z</time>
      </trkpt>
      <trkpt lat="46.18974" lon="6.60268">
        <ele>2042.2</ele>
        <time>2022-02-13T10:34:25Z</time>
      </trkpt>
      <trkpt lat="46.18974" lon="6.60268">
        <ele>2042.2</ele>
        <time>2022-02-13T10:34:27Z</time>
      </trkpt>
      <trkpt lat="46.18974" lon="6.60267">
        <ele>2042.2</ele>
        <time>2022-02-13T10:34:42Z</time>
      </trkpt>
      <trkpt lat="46.18974" lon="6.60267">
        <ele>2042.2</ele>
        <time>2022-02-13T10:34:47Z</time>
      </trkpt>
      <trkpt lat="46.18974" lon="6.60267">
        <ele>2042.2</ele>
        <time>2022-02-13T10:34:48Z</time>
      </trkpt>
      <trkpt lat="46.18973" lon="6.60267">
        <ele>2042.2</ele>
        <time>2022-02-13T10:35:01Z</time>
      </trkpt>
      <trkpt lat="46.18975" lon="6.60269">
        <ele>2042.2</ele>
        <time>2022-02-13T10:35:14Z</time>
      </trkpt>
      <trkpt lat="46.18975" lon="6.6027">
        <ele>2042.2</ele>
        <time>2022-02-13T10:35:16Z</time>
      </trkpt>
      <trkpt lat="46.18976" lon="6.60271">
        <ele>2042.2</ele>
        <time>2022-02-13T10:35:24Z</time>
      </trkpt>
      <trkpt lat="46.18976" lon="6.60271">
        <ele>2042.2</ele>
        <time>2022-02-13T10:35:28Z</time>
      </trkpt>
      <trkpt lat="46.18976" lon="6.60271">
        <ele>2042.2</ele>
        <time>2022-02-13T10:35:30Z</time>
      </trkpt>
      <trkpt lat="46.18977" lon="6.6027">
        <ele>2042.2</ele>
        <time>2022-02-13T10:35:37Z</time>
      </trkpt>
      <trkpt lat="46.18977" lon="6.6027">
        <ele>2042.2</ele>
        <time>2022-02-13T10:35:38Z</time>
      </trkpt>
      <trkpt lat="46.18977" lon="6.60271">
        <ele>2042.2</ele>
        <time>2022-02-13T10:35:44Z</time>
      </trkpt>
      <trkpt lat="46.18977" lon="6.60271">
        <ele>2042.2</ele>
        <time>2022-02-13T10:35:45Z</time>
      </trkpt>
      <trkpt lat="46.18977" lon="6.6027">
        <ele>2042.2</ele>
        <time>2022-02-13T10:35:47Z</time>
      </trkpt>
      <trkpt lat="46.18975" lon="6.6027">
        <ele>2042.2</ele>
        <time>2022-02-13T10:35:55Z</time>
      </trkpt>
      <trkpt lat="46.18975" lon="6.6027">
        <ele>2042.2</ele>
        <time>2022-02-13T10:36:00Z</time>
      </trkpt>
      <trkpt lat="46.18975" lon="6.6027">
        <ele>2042.2</ele>
        <time>2022-02-13T10:36:03Z</time>
      </trkpt>
      <trkpt lat="46.18974" lon="6.60271">
        <ele>2042.2</ele>
        <time>2022-02-13T10:36:08Z</time>
      </trkpt>
      <trkpt lat="46.18972" lon="6.60272">
        <ele>2042.2</ele>
        <time>2022-02-13T10:36:15Z</time>
      </trkpt>
      <trkpt lat="46.18972" lon="6.60272">
        <ele>2042.2</ele>
        <time>2022-02-13T10:36:18Z</time>
      </trkpt>
      <trkpt lat="46.18973" lon="6.60272">
        <ele>2042.2</ele>
        <time>2022-02-13T10:36:20Z</time>
      </trkpt>
      <trkpt lat="46.18972" lon="6.60272">
        <ele>2042.2</ele>
        <time>2022-02-13T10:36:22Z</time>
      </trkpt>
      <trkpt lat="46.18972" lon="6.60272">
        <ele>2042.2</ele>
        <time>2022-02-13T10:36:35Z</time>
      </trkpt>
      <trkpt lat="46.18973" lon="6.60272">
        <ele>2042.2</ele>
        <time>2022-02-13T10:36:38Z</time>
      </trkpt>
      <trkpt lat="46.18974" lon="6.60271">
        <ele>2042.2</ele>
        <time>2022-02-13T10:36:46Z</time>
      </trkpt>
      <trkpt lat="46.18974" lon="6.60272">
        <ele>2042.2</ele>
        <time>2022-02-13T10:36:51Z</time>
      </trkpt>
      <trkpt lat="46.18974" lon="6.60271">
        <ele>2042.2</ele>
        <time>2022-02-13T10:37:01Z</time>
      </trkpt>
      <trkpt lat="46.18975" lon="6.60271">
        <ele>2042.2</ele>
        <time>2022-02-13T10:37:05Z</time>
      </trkpt>
      <trkpt lat="46.18977" lon="6.60272">
        <ele>2042.2</ele>
        <time>2022-02-13T10:37:13Z</time>
      </trkpt>
      <trkpt lat="46.18977" lon="6.60272">
        <ele>2042.2</ele>
        <time>2022-02-13T10:37:15Z</time>
      </trkpt>
      <trkpt lat="46.18977" lon="6.60271">
        <ele>2042.2</ele>
        <time>2022-02-13T10:37:25Z</time>
      </trkpt>
      <trkpt lat="46.1898" lon="6.60271">
        <ele>2042.2</ele>
        <time>2022-02-13T10:37:41Z</time>
      </trkpt>
      <trkpt lat="46.18977" lon="6.6027">
        <ele>2042.2</ele>
        <time>2022-02-13T10:37:52Z</time>
      </trkpt>
      <trkpt lat="46.18977" lon="6.6027">
        <ele>2042.2</ele>
        <time>2022-02-13T10:37:54Z</time>
      </trkpt>
      <trkpt lat="46.18977" lon="6.6027">
        <ele>2042.2</ele>
        <time>2022-02-13T10:37:58Z</time>
      </trkpt>
      <trkpt lat="46.18977" lon="6.6027">
        <ele>2042.2</ele>
        <time>2022-02-13T10:38:12Z</time>
      </trkpt>
      <trkpt lat="46.18977" lon="6.60269">
        <ele>2042.2</ele>
        <time>2022-02-13T10:38:15Z</time>
      </trkpt>
      <trkpt lat="46.18976" lon="6.60268">
        <ele>2042.2</ele>
        <time>2022-02-13T10:38:31Z</time>
      </trkpt>
      <trkpt lat="46.18974" lon="6.60268">
        <ele>2042.2</ele>
        <time>2022-02-13T10:38:44Z</time>
      </trkpt>
      <trkpt lat="46.18974" lon="6.60269">
        <ele>2042.2</ele>
        <time>2022-02-13T10:38:49Z</time>
      </trkpt>
      <trkpt lat="46.18973" lon="6.6027">
        <ele>2042.2</ele>
        <time>2022-02-13T10:39:00Z</time>
      </trkpt>
      <trkpt lat="46.18973" lon="6.6027">
        <ele>2042.2</ele>
        <time>2022-02-13T10:39:02Z</time>
      </trkpt>
      <trkpt lat="46.18973" lon="6.60269">
        <ele>2042.2</ele>
        <time>2022-02-13T10:39:08Z</time>
      </trkpt>
      <trkpt lat="46.18975" lon="6.60275">
        <ele>2042.2</ele>
        <time>2022-02-13T10:39:21Z</time>
      </trkpt>
      <trkpt lat="46.18978" lon="6.60284">
        <ele>2042.2</ele>
        <time>2022-02-13T10:39:24Z</time>
      </trkpt>
      <trkpt lat="46.18979" lon="6.6029">
        <ele>2042.2</ele>
        <time>2022-02-13T10:39:26Z</time>
      </trkpt>
      <trkpt lat="46.18981" lon="6.60291">
        <ele>2042.2</ele>
        <time>2022-02-13T10:39:27Z</time>
      </trkpt>
      <trkpt lat="46.18986" lon="6.60289">
        <ele>2041.8</ele>
        <time>2022-02-13T10:39:29Z</time>
      </trkpt>
      <trkpt lat="46.18989" lon="6.60289">
        <ele>2041</ele>
        <time>2022-02-13T10:39:30Z</time>
      </trkpt>
      <trkpt lat="46.18993" lon="6.60292">
        <ele>2040.2</ele>
        <time>2022-02-13T10:39:31Z</time>
      </trkpt>
      <trkpt lat="46.18996" lon="6.60293">
        <ele>2039.2</ele>
        <time>2022-02-13T10:39:32Z</time>
      </trkpt>
      <trkpt lat="46.18999" lon="6.60292">
        <ele>2038</ele>
        <time>2022-02-13T10:39:33Z</time>
      </trkpt>
      <trkpt lat="46.19002" lon="6.60289">
        <ele>2036.8</ele>
        <time>2022-02-13T10:39:34Z</time>
      </trkpt>
      <trkpt lat="46.19006" lon="6.60288">
        <ele>2034.8</ele>
        <time>2022-02-13T10:39:35Z</time>
      </trkpt>
      <trkpt lat="46.1901" lon="6.6029">
        <ele>2032.6</ele>
        <time>2022-02-13T10:39:36Z</time>
      </trkpt>
      <trkpt lat="46.19013" lon="6.60294">
        <ele>2030.8</ele>
        <time>2022-02-13T10:39:37Z</time>
      </trkpt>
      <trkpt lat="46.19016" lon="6.60295">
        <ele>2028.8</ele>
        <time>2022-02-13T10:39:38Z</time>
      </trkpt>
      <trkpt lat="46.19017" lon="6.60293">
        <ele>2027.4</ele>
        <time>2022-02-13T10:39:39Z</time>
      </trkpt>
      <trkpt lat="46.1902" lon="6.60291">
        <ele>2026.2</ele>
        <time>2022-02-13T10:39:40Z</time>
      </trkpt>
      <trkpt lat="46.19023" lon="6.60291">
        <ele>2024.4</ele>
        <time>2022-02-13T10:39:41Z</time>
      </trkpt>
      <trkpt lat="46.19027" lon="6.60294">
        <ele>2023</ele>
        <time>2022-02-13T10:39:42Z</time>
      </trkpt>
      <trkpt lat="46.19029" lon="6.60298">
        <ele>2021.6</ele>
        <time>2022-02-13T10:39:43Z</time>
      </trkpt>
      <trkpt lat="46.19031" lon="6.60302">
        <ele>2020.4</ele>
        <time>2022-02-13T10:39:44Z</time>
      </trkpt>
      <trkpt lat="46.19034" lon="6.60304">
        <ele>2019</ele>
        <time>2022-02-13T10:39:45Z</time>
      </trkpt>
      <trkpt lat="46.19036" lon="6.60302">
        <ele>2017.8</ele>
        <time>2022-02-13T10:39:46Z</time>
      </trkpt>
      <trkpt lat="46.19039" lon="6.60301">
        <ele>2016.6</ele>
        <time>2022-02-13T10:39:47Z</time>
      </trkpt>
      <trkpt lat="46.19041" lon="6.60302">
        <ele>2016</ele>
        <time>2022-02-13T10:39:48Z</time>
      </trkpt>
      <trkpt lat="46.19043" lon="6.60302">
        <ele>2014.8</ele>
        <time>2022-02-13T10:39:49Z</time>
      </trkpt>
      <trkpt lat="46.19045" lon="6.60301">
        <ele>2013.2</ele>
        <time>2022-02-13T10:39:50Z</time>
      </trkpt>
      <trkpt lat="46.19048" lon="6.60299">
        <ele>2011.8</ele>
        <time>2022-02-13T10:39:51Z</time>
      </trkpt>
      <trkpt lat="46.19052" lon="6.60299">
        <ele>2010.4</ele>
        <time>2022-02-13T10:39:52Z</time>
      </trkpt>
      <trkpt lat="46.19055" lon="6.60301">
        <ele>2009</ele>
        <time>2022-02-13T10:39:53Z</time>
      </trkpt>
      <trkpt lat="46.19057" lon="6.60302">
        <ele>2007.2</ele>
        <time>2022-02-13T10:39:54Z</time>
      </trkpt>
      <trkpt lat="46.19058" lon="6.60301">
        <ele>2005.6</ele>
        <time>2022-02-13T10:39:55Z</time>
      </trkpt>
      <trkpt lat="46.19058" lon="6.603">
        <ele>2004.4</ele>
        <time>2022-02-13T10:39:56Z</time>
      </trkpt>
      <trkpt lat="46.19059" lon="6.603">
        <ele>2003.6</ele>
        <time>2022-02-13T10:39:57Z</time>
      </trkpt>
      <trkpt lat="46.19059" lon="6.60299">
        <ele>2003</ele>
        <time>2022-02-13T10:39:58Z</time>
      </trkpt>
      <trkpt lat="46.1906" lon="6.60295">
        <ele>2002.4</ele>
        <time>2022-02-13T10:40:02Z</time>
      </trkpt>
      <trkpt lat="46.19065" lon="6.60292">
        <ele>2002</ele>
        <time>2022-02-13T10:40:04Z</time>
      </trkpt>
      <trkpt lat="46.19068" lon="6.60291">
        <ele>2001.2</ele>
        <time>2022-02-13T10:40:05Z</time>
      </trkpt>
      <trkpt lat="46.1907" lon="6.60287">
        <ele>2000.2</ele>
        <time>2022-02-13T10:40:06Z</time>
      </trkpt>
      <trkpt lat="46.19073" lon="6.60283">
        <ele>1998.4</ele>
        <time>2022-02-13T10:40:07Z</time>
      </trkpt>
      <trkpt lat="46.19076" lon="6.60282">
        <ele>1997</ele>
        <time>2022-02-13T10:40:08Z</time>
      </trkpt>
      <trkpt lat="46.1908" lon="6.60283">
        <ele>1995.6</ele>
        <time>2022-02-13T10:40:09Z</time>
      </trkpt>
      <trkpt lat="46.19083" lon="6.60284">
        <ele>1994.2</ele>
        <time>2022-02-13T10:40:10Z</time>
      </trkpt>
      <trkpt lat="46.19086" lon="6.60282">
        <ele>1993</ele>
        <time>2022-02-13T10:40:11Z</time>
      </trkpt>
      <trkpt lat="46.19087" lon="6.60279">
        <ele>1992</ele>
        <time>2022-02-13T10:40:12Z</time>
      </trkpt>
      <trkpt lat="46.19087" lon="6.60274">
        <ele>1990.4</ele>
        <time>2022-02-13T10:40:13Z</time>
      </trkpt>
      <trkpt lat="46.19087" lon="6.6027">
        <ele>1988.8</ele>
        <time>2022-02-13T10:40:14Z</time>
      </trkpt>
      <trkpt lat="46.19087" lon="6.60261">
        <ele>1987.2</ele>
        <time>2022-02-13T10:40:16Z</time>
      </trkpt>
      <trkpt lat="46.19086" lon="6.60256">
        <ele>1986.2</ele>
        <time>2022-02-13T10:40:19Z</time>
      </trkpt>
      <trkpt lat="46.19086" lon="6.60255">
        <ele>1986.2</ele>
        <time>2022-02-13T10:40:20Z</time>
      </trkpt>
      <trkpt lat="46.19085" lon="6.60255">
        <ele>1986.2</ele>
        <time>2022-02-13T10:40:23Z</time>
      </trkpt>
      <trkpt lat="46.19085" lon="6.60255">
        <ele>1986</ele>
        <time>2022-02-13T10:40:24Z</time>
      </trkpt>
      <trkpt lat="46.19085" lon="6.60255">
        <ele>1985.6</ele>
        <time>2022-02-13T10:40:31Z</time>
      </trkpt>
      <trkpt lat="46.19085" lon="6.60255">
        <ele>1985.6</ele>
        <time>2022-02-13T10:40:33Z</time>
      </trkpt>
      <trkpt lat="46.19085" lon="6.60255">
        <ele>1985.2</ele>
        <time>2022-02-13T10:40:39Z</time>
      </trkpt>
      <trkpt lat="46.19085" lon="6.60255">
        <ele>1985.2</ele>
        <time>2022-02-13T10:40:43Z</time>
      </trkpt>
      <trkpt lat="46.19085" lon="6.60255">
        <ele>1985.2</ele>
        <time>2022-02-13T10:40:45Z</time>
      </trkpt>
      <trkpt lat="46.19085" lon="6.60255">
        <ele>1985.2</ele>
        <time>2022-02-13T10:40:47Z</time>
      </trkpt>
      <trkpt lat="46.19086" lon="6.60251">
        <ele>1985</ele>
        <time>2022-02-13T10:40:58Z</time>
      </trkpt>
      <trkpt lat="46.19087" lon="6.6025">
        <ele>1984.4</ele>
        <time>2022-02-13T10:41:00Z</time>
      </trkpt>
      <trkpt lat="46.19088" lon="6.60244">
        <ele>1983.8</ele>
        <time>2022-02-13T10:41:05Z</time>
      </trkpt>
      <trkpt lat="46.19092" lon="6.60239">
        <ele>1983</ele>
        <time>2022-02-13T10:41:10Z</time>
      </trkpt>
      <trkpt lat="46.19094" lon="6.6024">
        <ele>1982.4</ele>
        <time>2022-02-13T10:41:11Z</time>
      </trkpt>
      <trkpt lat="46.19097" lon="6.6024">
        <ele>1981.6</ele>
        <time>2022-02-13T10:41:12Z</time>
      </trkpt>
      <trkpt lat="46.19099" lon="6.60238">
        <ele>1980.2</ele>
        <time>2022-02-13T10:41:13Z</time>
      </trkpt>
      <trkpt lat="46.19102" lon="6.60236">
        <ele>1979</ele>
        <time>2022-02-13T10:41:14Z</time>
      </trkpt>
      <trkpt lat="46.19106" lon="6.60236">
        <ele>1977.4</ele>
        <time>2022-02-13T10:41:15Z</time>
      </trkpt>
      <trkpt lat="46.19109" lon="6.60236">
        <ele>1975.8</ele>
        <time>2022-02-13T10:41:16Z</time>
      </trkpt>
      <trkpt lat="46.19111" lon="6.60233">
        <ele>1973.8</ele>
        <time>2022-02-13T10:41:17Z</time>
      </trkpt>
      <trkpt lat="46.19114" lon="6.60229">
        <ele>1972.4</ele>
        <time>2022-02-13T10:41:18Z</time>
      </trkpt>
      <trkpt lat="46.19117" lon="6.60229">
        <ele>1971</ele>
        <time>2022-02-13T10:41:19Z</time>
      </trkpt>
      <trkpt lat="46.1912" lon="6.60232">
        <ele>1969</ele>
        <time>2022-02-13T10:41:20Z</time>
      </trkpt>
      <trkpt lat="46.19121" lon="6.60236">
        <ele>1967.8</ele>
        <time>2022-02-13T10:41:21Z</time>
      </trkpt>
      <trkpt lat="46.19123" lon="6.60238">
        <ele>1966</ele>
        <time>2022-02-13T10:41:22Z</time>
      </trkpt>
      <trkpt lat="46.19124" lon="6.60238">
        <ele>1963.8</ele>
        <time>2022-02-13T10:41:23Z</time>
      </trkpt>
      <trkpt lat="46.19125" lon="6.60238">
        <ele>1962.8</ele>
        <time>2022-02-13T10:41:26Z</time>
      </trkpt>
      <trkpt lat="46.19125" lon="6.60238">
        <ele>1962.4</ele>
        <time>2022-02-13T10:41:28Z</time>
      </trkpt>
      <trkpt lat="46.19125" lon="6.60238">
        <ele>1962.2</ele>
        <time>2022-02-13T10:41:30Z</time>
      </trkpt>
      <trkpt lat="46.19125" lon="6.60238">
        <ele>1962</ele>
        <time>2022-02-13T10:41:35Z</time>
      </trkpt>
      <trkpt lat="46.19125" lon="6.60238">
        <ele>1962.4</ele>
        <time>2022-02-13T10:41:44Z</time>
      </trkpt>
      <trkpt lat="46.19125" lon="6.60238">
        <ele>1962.4</ele>
        <time>2022-02-13T10:41:46Z</time>
      </trkpt>
      <trkpt lat="46.19127" lon="6.60236">
        <ele>1962</ele>
        <time>2022-02-13T10:41:53Z</time>
      </trkpt>
      <trkpt lat="46.19134" lon="6.6024">
        <ele>1960.6</ele>
        <time>2022-02-13T10:41:56Z</time>
      </trkpt>
      <trkpt lat="46.19137" lon="6.6024">
        <ele>1959.8</ele>
        <time>2022-02-13T10:41:57Z</time>
      </trkpt>
      <trkpt lat="46.19141" lon="6.60239">
        <ele>1959.2</ele>
        <time>2022-02-13T10:41:58Z</time>
      </trkpt>
      <trkpt lat="46.19144" lon="6.60242">
        <ele>1957.8</ele>
        <time>2022-02-13T10:41:59Z</time>
      </trkpt>
      <trkpt lat="46.19148" lon="6.60246">
        <ele>1956.4</ele>
        <time>2022-02-13T10:42:00Z</time>
      </trkpt>
      <trkpt lat="46.19152" lon="6.6025">
        <ele>1955</ele>
        <time>2022-02-13T10:42:01Z</time>
      </trkpt>
      <trkpt lat="46.19157" lon="6.60251">
        <ele>1952.6</ele>
        <time>2022-02-13T10:42:02Z</time>
      </trkpt>
      <trkpt lat="46.19162" lon="6.60249">
        <ele>1951.4</ele>
        <time>2022-02-13T10:42:03Z</time>
      </trkpt>
      <trkpt lat="46.19166" lon="6.60245">
        <ele>1948.8</ele>
        <time>2022-02-13T10:42:04Z</time>
      </trkpt>
      <trkpt lat="46.19169" lon="6.60241">
        <ele>1947.6</ele>
        <time>2022-02-13T10:42:05Z</time>
      </trkpt>
      <trkpt lat="46.19173" lon="6.60239">
        <ele>1946.6</ele>
        <time>2022-02-13T10:42:06Z</time>
      </trkpt>
      <trkpt lat="46.19177" lon="6.60241">
        <ele>1945.6</ele>
        <time>2022-02-13T10:42:07Z</time>
      </trkpt>
      <trkpt lat="46.19181" lon="6.60244">
        <ele>1943.8</ele>
        <time>2022-02-13T10:42:08Z</time>
      </trkpt>
      <trkpt lat="46.19185" lon="6.60244">
        <ele>1942.2</ele>
        <time>2022-02-13T10:42:09Z</time>
      </trkpt>
      <trkpt lat="46.19189" lon="6.60241">
        <ele>1940</ele>
        <time>2022-02-13T10:42:10Z</time>
      </trkpt>
      <trkpt lat="46.19192" lon="6.6024">
        <ele>1938.6</ele>
        <time>2022-02-13T10:42:11Z</time>
      </trkpt>
      <trkpt lat="46.19196" lon="6.60241">
        <ele>1936.8</ele>
        <time>2022-02-13T10:42:12Z</time>
      </trkpt>
      <trkpt lat="46.19198" lon="6.60242">
        <ele>1935.4</ele>
        <time>2022-02-13T10:42:13Z</time>
      </trkpt>
      <trkpt lat="46.192" lon="6.60241">
        <ele>1934</ele>
        <time>2022-02-13T10:42:14Z</time>
      </trkpt>
      <trkpt lat="46.192" lon="6.6024">
        <ele>1932.8</ele>
        <time>2022-02-13T10:42:16Z</time>
      </trkpt>
      <trkpt lat="46.19203" lon="6.60236">
        <ele>1931.8</ele>
        <time>2022-02-13T10:42:26Z</time>
      </trkpt>
      <trkpt lat="46.19209" lon="6.60239">
        <ele>1930.8</ele>
        <time>2022-02-13T10:42:28Z</time>
      </trkpt>
      <trkpt lat="46.19212" lon="6.6024">
        <ele>1930</ele>
        <time>2022-02-13T10:42:29Z</time>
      </trkpt>
      <trkpt lat="46.1922" lon="6.60243">
        <ele>1927.8</ele>
        <time>2022-02-13T10:42:31Z</time>
      </trkpt>
      <trkpt lat="46.19225" lon="6.60244">
        <ele>1925.8</ele>
        <time>2022-02-13T10:42:32Z</time>
      </trkpt>
      <trkpt lat="46.19229" lon="6.60247">
        <ele>1924</ele>
        <time>2022-02-13T10:42:33Z</time>
      </trkpt>
      <trkpt lat="46.19233" lon="6.60248">
        <ele>1922.2</ele>
        <time>2022-02-13T10:42:34Z</time>
      </trkpt>
      <trkpt lat="46.19236" lon="6.6025">
        <ele>1920.6</ele>
        <time>2022-02-13T10:42:35Z</time>
      </trkpt>
      <trkpt lat="46.1924" lon="6.60253">
        <ele>1919.2</ele>
        <time>2022-02-13T10:42:36Z</time>
      </trkpt>
      <trkpt lat="46.19243" lon="6.60254">
        <ele>1917.2</ele>
        <time>2022-02-13T10:42:37Z</time>
      </trkpt>
      <trkpt lat="46.19245" lon="6.60254">
        <ele>1916</ele>
        <time>2022-02-13T10:42:38Z</time>
      </trkpt>
      <trkpt lat="46.19247" lon="6.60253">
        <ele>1915</ele>
        <time>2022-02-13T10:42:39Z</time>
      </trkpt>
      <trkpt lat="46.1925" lon="6.60253">
        <ele>1913.6</ele>
        <time>2022-02-13T10:42:41Z</time>
      </trkpt>
      <trkpt lat="46.19254" lon="6.60253">
        <ele>1912.8</ele>
        <time>2022-02-13T10:42:44Z</time>
      </trkpt>
      <trkpt lat="46.19255" lon="6.60254">
        <ele>1912.4</ele>
        <time>2022-02-13T10:42:45Z</time>
      </trkpt>
      <trkpt lat="46.19255" lon="6.60255">
        <ele>1912</ele>
        <time>2022-02-13T10:42:47Z</time>
      </trkpt>
      <trkpt lat="46.19254" lon="6.60255">
        <ele>1911.8</ele>
        <time>2022-02-13T10:42:49Z</time>
      </trkpt>
      <trkpt lat="46.19253" lon="6.60256">
        <ele>1912</ele>
        <time>2022-02-13T10:43:04Z</time>
      </trkpt>
      <trkpt lat="46.19252" lon="6.60256">
        <ele>1911.8</ele>
        <time>2022-02-13T10:43:07Z</time>
      </trkpt>
      <trkpt lat="46.19252" lon="6.60256">
        <ele>1911.8</ele>
        <time>2022-02-13T10:43:10Z</time>
      </trkpt>
      <trkpt lat="46.19252" lon="6.60256">
        <ele>1911.4</ele>
        <time>2022-02-13T10:43:18Z</time>
      </trkpt>
      <trkpt lat="46.19251" lon="6.60261">
        <ele>1911.2</ele>
        <time>2022-02-13T10:43:22Z</time>
      </trkpt>
      <trkpt lat="46.19254" lon="6.60266">
        <ele>1911</ele>
        <time>2022-02-13T10:43:24Z</time>
      </trkpt>
      <trkpt lat="46.19257" lon="6.60269">
        <ele>1910.4</ele>
        <time>2022-02-13T10:43:25Z</time>
      </trkpt>
      <trkpt lat="46.1926" lon="6.60272">
        <ele>1909.8</ele>
        <time>2022-02-13T10:43:26Z</time>
      </trkpt>
      <trkpt lat="46.19263" lon="6.60276">
        <ele>1908.6</ele>
        <time>2022-02-13T10:43:27Z</time>
      </trkpt>
      <trkpt lat="46.19265" lon="6.60281">
        <ele>1907.2</ele>
        <time>2022-02-13T10:43:28Z</time>
      </trkpt>
      <trkpt lat="46.19267" lon="6.60287">
        <ele>1906</ele>
        <time>2022-02-13T10:43:29Z</time>
      </trkpt>
      <trkpt lat="46.19271" lon="6.60292">
        <ele>1904.6</ele>
        <time>2022-02-13T10:43:30Z</time>
      </trkpt>
      <trkpt lat="46.19274" lon="6.60297">
        <ele>1903.6</ele>
        <time>2022-02-13T10:43:31Z</time>
      </trkpt>
      <trkpt lat="46.19278" lon="6.60303">
        <ele>1901.4</ele>
        <time>2022-02-13T10:43:32Z</time>
      </trkpt>
      <trkpt lat="46.19282" lon="6.60308">
        <ele>1899.8</ele>
        <time>2022-02-13T10:43:33Z</time>
      </trkpt>
      <trkpt lat="46.19286" lon="6.60314">
        <ele>1898.6</ele>
        <time>2022-02-13T10:43:34Z</time>
      </trkpt>
      <trkpt lat="46.1929" lon="6.6032">
        <ele>1896.6</ele>
        <time>2022-02-13T10:43:35Z</time>
      </trkpt>
      <trkpt lat="46.19294" lon="6.60326">
        <ele>1894.8</ele>
        <time>2022-02-13T10:43:36Z</time>
      </trkpt>
      <trkpt lat="46.19299" lon="6.60331">
        <ele>1892.6</ele>
        <time>2022-02-13T10:43:37Z</time>
      </trkpt>
      <trkpt lat="46.19304" lon="6.60332">
        <ele>1891</ele>
        <time>2022-02-13T10:43:38Z</time>
      </trkpt>
      <trkpt lat="46.19309" lon="6.60333">
        <ele>1889.2</ele>
        <time>2022-02-13T10:43:39Z</time>
      </trkpt>
      <trkpt lat="46.19314" lon="6.60333">
        <ele>1887.8</ele>
        <time>2022-02-13T10:43:40Z</time>
      </trkpt>
      <trkpt lat="46.19324" lon="6.60332">
        <ele>1886.4</ele>
        <time>2022-02-13T10:43:42Z</time>
      </trkpt>
      <trkpt lat="46.19328" lon="6.60332">
        <ele>1885.4</ele>
        <time>2022-02-13T10:43:43Z</time>
      </trkpt>
      <trkpt lat="46.1933" lon="6.60332">
        <ele>1884.6</ele>
        <time>2022-02-13T10:43:44Z</time>
      </trkpt>
      <trkpt lat="46.19333" lon="6.60334">
        <ele>1884.2</ele>
        <time>2022-02-13T10:43:45Z</time>
      </trkpt>
      <trkpt lat="46.19334" lon="6.60336">
        <ele>1883.8</ele>
        <time>2022-02-13T10:43:46Z</time>
      </trkpt>
      <trkpt lat="46.19334" lon="6.60337">
        <ele>1883.4</ele>
        <time>2022-02-13T10:43:47Z</time>
      </trkpt>
      <trkpt lat="46.19334" lon="6.60338">
        <ele>1883.2</ele>
        <time>2022-02-13T10:43:48Z</time>
      </trkpt>
      <trkpt lat="46.19333" lon="6.60338">
        <ele>1883</ele>
        <time>2022-02-13T10:43:49Z</time>
      </trkpt>
      <trkpt lat="46.19332" lon="6.60337">
        <ele>1882.8</ele>
        <time>2022-02-13T10:43:53Z</time>
      </trkpt>
      <trkpt lat="46.19332" lon="6.60337">
        <ele>1883.2</ele>
        <time>2022-02-13T10:43:54Z</time>
      </trkpt>
      <trkpt lat="46.19332" lon="6.60337">
        <ele>1884</ele>
        <time>2022-02-13T10:44:02Z</time>
      </trkpt>
      <trkpt lat="46.19332" lon="6.60337">
        <ele>1884</ele>
        <time>2022-02-13T10:44:04Z</time>
      </trkpt>
      <trkpt lat="46.19332" lon="6.60337">
        <ele>1883.8</ele>
        <time>2022-02-13T10:44:07Z</time>
      </trkpt>
      <trkpt lat="46.19332" lon="6.60339">
        <ele>1883</ele>
        <time>2022-02-13T10:44:14Z</time>
      </trkpt>
      <trkpt lat="46.19332" lon="6.60341">
        <ele>1882.8</ele>
        <time>2022-02-13T10:44:15Z</time>
      </trkpt>
      <trkpt lat="46.1933" lon="6.60347">
        <ele>1882</ele>
        <time>2022-02-13T10:44:19Z</time>
      </trkpt>
      <trkpt lat="46.19329" lon="6.6035">
        <ele>1881.6</ele>
        <time>2022-02-13T10:44:20Z</time>
      </trkpt>
      <trkpt lat="46.19328" lon="6.60359">
        <ele>1880.8</ele>
        <time>2022-02-13T10:44:23Z</time>
      </trkpt>
      <trkpt lat="46.19328" lon="6.60371">
        <ele>1880.2</ele>
        <time>2022-02-13T10:44:26Z</time>
      </trkpt>
      <trkpt lat="46.1933" lon="6.6038">
        <ele>1879.8</ele>
        <time>2022-02-13T10:44:28Z</time>
      </trkpt>
      <trkpt lat="46.1933" lon="6.60385">
        <ele>1879</ele>
        <time>2022-02-13T10:44:29Z</time>
      </trkpt>
      <trkpt lat="46.19329" lon="6.60389">
        <ele>1878.6</ele>
        <time>2022-02-13T10:44:30Z</time>
      </trkpt>
      <trkpt lat="46.19329" lon="6.60392">
        <ele>1877.8</ele>
        <time>2022-02-13T10:44:31Z</time>
      </trkpt>
      <trkpt lat="46.19331" lon="6.60394">
        <ele>1877.2</ele>
        <time>2022-02-13T10:44:32Z</time>
      </trkpt>
      <trkpt lat="46.19333" lon="6.60396">
        <ele>1876.6</ele>
        <time>2022-02-13T10:44:33Z</time>
      </trkpt>
      <trkpt lat="46.19334" lon="6.604">
        <ele>1875.8</ele>
        <time>2022-02-13T10:44:34Z</time>
      </trkpt>
      <trkpt lat="46.19332" lon="6.60405">
        <ele>1874.8</ele>
        <time>2022-02-13T10:44:36Z</time>
      </trkpt>
      <trkpt lat="46.19332" lon="6.60407">
        <ele>1874</ele>
        <time>2022-02-13T10:44:37Z</time>
      </trkpt>
      <trkpt lat="46.19334" lon="6.6041">
        <ele>1873.4</ele>
        <time>2022-02-13T10:44:38Z</time>
      </trkpt>
      <trkpt lat="46.19336" lon="6.60411">
        <ele>1873.2</ele>
        <time>2022-02-13T10:44:39Z</time>
      </trkpt>
      <trkpt lat="46.19338" lon="6.60412">
        <ele>1872</ele>
        <time>2022-02-13T10:44:40Z</time>
      </trkpt>
      <trkpt lat="46.1934" lon="6.60415">
        <ele>1871</ele>
        <time>2022-02-13T10:44:41Z</time>
      </trkpt>
      <trkpt lat="46.1934" lon="6.60418">
        <ele>1870</ele>
        <time>2022-02-13T10:44:42Z</time>
      </trkpt>
      <trkpt lat="46.19339" lon="6.6042">
        <ele>1869.4</ele>
        <time>2022-02-13T10:44:43Z</time>
      </trkpt>
      <trkpt lat="46.19339" lon="6.60422">
        <ele>1868.2</ele>
        <time>2022-02-13T10:44:44Z</time>
      </trkpt>
      <trkpt lat="46.19341" lon="6.60428">
        <ele>1866.2</ele>
        <time>2022-02-13T10:44:46Z</time>
      </trkpt>
      <trkpt lat="46.19341" lon="6.60432">
        <ele>1865</ele>
        <time>2022-02-13T10:44:47Z</time>
      </trkpt>
      <trkpt lat="46.1934" lon="6.60436">
        <ele>1864.2</ele>
        <time>2022-02-13T10:44:48Z</time>
      </trkpt>
      <trkpt lat="46.19339" lon="6.60441">
        <ele>1862.6</ele>
        <time>2022-02-13T10:44:49Z</time>
      </trkpt>
      <trkpt lat="46.19341" lon="6.60444">
        <ele>1861</ele>
        <time>2022-02-13T10:44:50Z</time>
      </trkpt>
      <trkpt lat="46.19344" lon="6.60445">
        <ele>1859.4</ele>
        <time>2022-02-13T10:44:51Z</time>
      </trkpt>
      <trkpt lat="46.19347" lon="6.60448">
        <ele>1857</ele>
        <time>2022-02-13T10:44:52Z</time>
      </trkpt>
      <trkpt lat="46.19347" lon="6.60454">
        <ele>1855.2</ele>
        <time>2022-02-13T10:44:53Z</time>
      </trkpt>
      <trkpt lat="46.19348" lon="6.6046">
        <ele>1853.8</ele>
        <time>2022-02-13T10:44:54Z</time>
      </trkpt>
      <trkpt lat="46.1935" lon="6.60465">
        <ele>1851.8</ele>
        <time>2022-02-13T10:44:55Z</time>
      </trkpt>
      <trkpt lat="46.19355" lon="6.60467">
        <ele>1849.8</ele>
        <time>2022-02-13T10:44:56Z</time>
      </trkpt>
      <trkpt lat="46.1936" lon="6.60468">
        <ele>1847</ele>
        <time>2022-02-13T10:44:57Z</time>
      </trkpt>
      <trkpt lat="46.19363" lon="6.60472">
        <ele>1845.4</ele>
        <time>2022-02-13T10:44:58Z</time>
      </trkpt>
      <trkpt lat="46.19365" lon="6.60478">
        <ele>1843.6</ele>
        <time>2022-02-13T10:44:59Z</time>
      </trkpt>
      <trkpt lat="46.19365" lon="6.60485">
        <ele>1842.6</ele>
        <time>2022-02-13T10:45:00Z</time>
      </trkpt>
      <trkpt lat="46.19365" lon="6.6049">
        <ele>1841.4</ele>
        <time>2022-02-13T10:45:01Z</time>
      </trkpt>
      <trkpt lat="46.19366" lon="6.60494">
        <ele>1840.6</ele>
        <time>2022-02-13T10:45:02Z</time>
      </trkpt>
      <trkpt lat="46.19366" lon="6.60497">
        <ele>1840.2</ele>
        <time>2022-02-13T10:45:03Z</time>
      </trkpt>
      <trkpt lat="46.19368" lon="6.60502">
        <ele>1839.6</ele>
        <time>2022-02-13T10:45:05Z</time>
      </trkpt>
      <trkpt lat="46.19369" lon="6.60506">
        <ele>1839.2</ele>
        <time>2022-02-13T10:45:07Z</time>
      </trkpt>
      <trkpt lat="46.19368" lon="6.60506">
        <ele>1839</ele>
        <time>2022-02-13T10:45:09Z</time>
      </trkpt>
      <trkpt lat="46.19368" lon="6.60506">
        <ele>1839</ele>
        <time>2022-02-13T10:45:10Z</time>
      </trkpt>
      <trkpt lat="46.19368" lon="6.60506">
        <ele>1838.6</ele>
        <time>2022-02-13T10:45:18Z</time>
      </trkpt>
      <trkpt lat="46.19368" lon="6.60506">
        <ele>1838.6</ele>
        <time>2022-02-13T10:45:21Z</time>
      </trkpt>
      <trkpt lat="46.19368" lon="6.60506">
        <ele>1838.6</ele>
        <time>2022-02-13T10:45:24Z</time>
      </trkpt>
      <trkpt lat="46.19371" lon="6.60507">
        <ele>1838.2</ele>
        <time>2022-02-13T10:45:28Z</time>
      </trkpt>
      <trkpt lat="46.19375" lon="6.60508">
        <ele>1838</ele>
        <time>2022-02-13T10:45:29Z</time>
      </trkpt>
      <trkpt lat="46.19379" lon="6.6051">
        <ele>1837.8</ele>
        <time>2022-02-13T10:45:30Z</time>
      </trkpt>
      <trkpt lat="46.19382" lon="6.60511">
        <ele>1836.2</ele>
        <time>2022-02-13T10:45:31Z</time>
      </trkpt>
      <trkpt lat="46.19386" lon="6.60512">
        <ele>1834.2</ele>
        <time>2022-02-13T10:45:32Z</time>
      </trkpt>
      <trkpt lat="46.1939" lon="6.60515">
        <ele>1833.2</ele>
        <time>2022-02-13T10:45:33Z</time>
      </trkpt>
      <trkpt lat="46.19393" lon="6.60519">
        <ele>1831.6</ele>
        <time>2022-02-13T10:45:34Z</time>
      </trkpt>
      <trkpt lat="46.19395" lon="6.60523">
        <ele>1830.8</ele>
        <time>2022-02-13T10:45:35Z</time>
      </trkpt>
      <trkpt lat="46.19399" lon="6.60526">
        <ele>1829</ele>
        <time>2022-02-13T10:45:36Z</time>
      </trkpt>
      <trkpt lat="46.19402" lon="6.6053">
        <ele>1827.8</ele>
        <time>2022-02-13T10:45:37Z</time>
      </trkpt>
      <trkpt lat="46.19405" lon="6.60534">
        <ele>1826.4</ele>
        <time>2022-02-13T10:45:38Z</time>
      </trkpt>
      <trkpt lat="46.19408" lon="6.60537">
        <ele>1824.6</ele>
        <time>2022-02-13T10:45:39Z</time>
      </trkpt>
      <trkpt lat="46.19412" lon="6.60538">
        <ele>1823.6</ele>
        <time>2022-02-13T10:45:40Z</time>
      </trkpt>
      <trkpt lat="46.19417" lon="6.60537">
        <ele>1821.2</ele>
        <time>2022-02-13T10:45:41Z</time>
      </trkpt>
      <trkpt lat="46.19421" lon="6.60535">
        <ele>1819.8</ele>
        <time>2022-02-13T10:45:42Z</time>
      </trkpt>
      <trkpt lat="46.19425" lon="6.60534">
        <ele>1818.8</ele>
        <time>2022-02-13T10:45:43Z</time>
      </trkpt>
      <trkpt lat="46.19428" lon="6.60538">
        <ele>1817.6</ele>
        <time>2022-02-13T10:45:45Z</time>
      </trkpt>
      <trkpt lat="46.19428" lon="6.60539">
        <ele>1816.4</ele>
        <time>2022-02-13T10:45:48Z</time>
      </trkpt>
      <trkpt lat="46.19428" lon="6.60538">
        <ele>1816.2</ele>
        <time>2022-02-13T10:45:50Z</time>
      </trkpt>
      <trkpt lat="46.19428" lon="6.60537">
        <ele>1816.6</ele>
        <time>2022-02-13T10:46:04Z</time>
      </trkpt>
      <trkpt lat="46.19429" lon="6.60537">
        <ele>1816.6</ele>
        <time>2022-02-13T10:46:05Z</time>
      </trkpt>
      <trkpt lat="46.19429" lon="6.60537">
        <ele>1816.6</ele>
        <time>2022-02-13T10:46:09Z</time>
      </trkpt>
      <trkpt lat="46.19429" lon="6.60537">
        <ele>1817.2</ele>
        <time>2022-02-13T10:46:18Z</time>
      </trkpt>
      <trkpt lat="46.19429" lon="6.60537">
        <ele>1816.8</ele>
        <time>2022-02-13T10:46:27Z</time>
      </trkpt>
      <trkpt lat="46.19429" lon="6.60537">
        <ele>1816.6</ele>
        <time>2022-02-13T10:46:28Z</time>
      </trkpt>
      <trkpt lat="46.19429" lon="6.60537">
        <ele>1816.4</ele>
        <time>2022-02-13T10:46:39Z</time>
      </trkpt>
      <trkpt lat="46.19429" lon="6.60537">
        <ele>1816.6</ele>
        <time>2022-02-13T10:46:45Z</time>
      </trkpt>
      <trkpt lat="46.19427" lon="6.60546">
        <ele>1815.4</ele>
        <time>2022-02-13T10:47:05Z</time>
      </trkpt>
      <trkpt lat="46.19427" lon="6.6055">
        <ele>1815.2</ele>
        <time>2022-02-13T10:47:06Z</time>
      </trkpt>
      <trkpt lat="46.19428" lon="6.60554">
        <ele>1814.4</ele>
        <time>2022-02-13T10:47:07Z</time>
      </trkpt>
      <trkpt lat="46.1943" lon="6.6056">
        <ele>1813.8</ele>
        <time>2022-02-13T10:47:08Z</time>
      </trkpt>
      <trkpt lat="46.19432" lon="6.60565">
        <ele>1813.2</ele>
        <time>2022-02-13T10:47:09Z</time>
      </trkpt>
      <trkpt lat="46.19436" lon="6.6057">
        <ele>1812.4</ele>
        <time>2022-02-13T10:47:10Z</time>
      </trkpt>
      <trkpt lat="46.19439" lon="6.60575">
        <ele>1811</ele>
        <time>2022-02-13T10:47:11Z</time>
      </trkpt>
      <trkpt lat="46.19441" lon="6.60582">
        <ele>1809.6</ele>
        <time>2022-02-13T10:47:12Z</time>
      </trkpt>
      <trkpt lat="46.19442" lon="6.60589">
        <ele>1808.6</ele>
        <time>2022-02-13T10:47:13Z</time>
      </trkpt>
      <trkpt lat="46.19442" lon="6.60597">
        <ele>1807.4</ele>
        <time>2022-02-13T10:47:14Z</time>
      </trkpt>
      <trkpt lat="46.19443" lon="6.60603">
        <ele>1806</ele>
        <time>2022-02-13T10:47:15Z</time>
      </trkpt>
      <trkpt lat="46.19444" lon="6.60612">
        <ele>1804.4</ele>
        <time>2022-02-13T10:47:17Z</time>
      </trkpt>
      <trkpt lat="46.19446" lon="6.60618">
        <ele>1803.8</ele>
        <time>2022-02-13T10:47:19Z</time>
      </trkpt>
      <trkpt lat="46.19447" lon="6.60624">
        <ele>1803.4</ele>
        <time>2022-02-13T10:47:22Z</time>
      </trkpt>
      <trkpt lat="46.19447" lon="6.60626">
        <ele>1803.2</ele>
        <time>2022-02-13T10:47:23Z</time>
      </trkpt>
      <trkpt lat="46.19447" lon="6.60629">
        <ele>1802.6</ele>
        <time>2022-02-13T10:47:25Z</time>
      </trkpt>
      <trkpt lat="46.19448" lon="6.60631">
        <ele>1802.6</ele>
        <time>2022-02-13T10:47:26Z</time>
      </trkpt>
      <trkpt lat="46.1945" lon="6.60632">
        <ele>1802.2</ele>
        <time>2022-02-13T10:47:27Z</time>
      </trkpt>
      <trkpt lat="46.19453" lon="6.60632">
        <ele>1801.8</ele>
        <time>2022-02-13T10:47:28Z</time>
      </trkpt>
      <trkpt lat="46.19456" lon="6.60634">
        <ele>1801.2</ele>
        <time>2022-02-13T10:47:29Z</time>
      </trkpt>
      <trkpt lat="46.19457" lon="6.60637">
        <ele>1800.2</ele>
        <time>2022-02-13T10:47:30Z</time>
      </trkpt>
      <trkpt lat="46.19459" lon="6.60641">
        <ele>1799</ele>
        <time>2022-02-13T10:47:31Z</time>
      </trkpt>
      <trkpt lat="46.19467" lon="6.60647">
        <ele>1796.6</ele>
        <time>2022-02-13T10:47:33Z</time>
      </trkpt>
      <trkpt lat="46.19469" lon="6.60648">
        <ele>1794.6</ele>
        <time>2022-02-13T10:47:34Z</time>
      </trkpt>
      <trkpt lat="46.19471" lon="6.6065">
        <ele>1793.6</ele>
        <time>2022-02-13T10:47:35Z</time>
      </trkpt>
      <trkpt lat="46.19474" lon="6.60652">
        <ele>1792.8</ele>
        <time>2022-02-13T10:47:37Z</time>
      </trkpt>
      <trkpt lat="46.19475" lon="6.60654">
        <ele>1792.6</ele>
        <time>2022-02-13T10:47:38Z</time>
      </trkpt>
      <trkpt lat="46.19475" lon="6.60657">
        <ele>1792.2</ele>
        <time>2022-02-13T10:47:39Z</time>
      </trkpt>
      <trkpt lat="46.19475" lon="6.60661">
        <ele>1791.6</ele>
        <time>2022-02-13T10:47:40Z</time>
      </trkpt>
      <trkpt lat="46.19475" lon="6.60666">
        <ele>1791.4</ele>
        <time>2022-02-13T10:47:41Z</time>
      </trkpt>
      <trkpt lat="46.19477" lon="6.60671">
        <ele>1789.8</ele>
        <time>2022-02-13T10:47:42Z</time>
      </trkpt>
      <trkpt lat="46.19479" lon="6.60676">
        <ele>1788</ele>
        <time>2022-02-13T10:47:43Z</time>
      </trkpt>
      <trkpt lat="46.19482" lon="6.60682">
        <ele>1786.8</ele>
        <time>2022-02-13T10:47:44Z</time>
      </trkpt>
      <trkpt lat="46.19485" lon="6.60687">
        <ele>1785.4</ele>
        <time>2022-02-13T10:47:45Z</time>
      </trkpt>
      <trkpt lat="46.1949" lon="6.60698">
        <ele>1782.8</ele>
        <time>2022-02-13T10:47:47Z</time>
      </trkpt>
      <trkpt lat="46.19494" lon="6.60702">
        <ele>1781.4</ele>
        <time>2022-02-13T10:47:48Z</time>
      </trkpt>
      <trkpt lat="46.19497" lon="6.60705">
        <ele>1779.6</ele>
        <time>2022-02-13T10:47:49Z</time>
      </trkpt>
      <trkpt lat="46.19499" lon="6.60706">
        <ele>1778</ele>
        <time>2022-02-13T10:47:50Z</time>
      </trkpt>
      <trkpt lat="46.19501" lon="6.60707">
        <ele>1776.6</ele>
        <time>2022-02-13T10:47:51Z</time>
      </trkpt>
      <trkpt lat="46.19501" lon="6.60712">
        <ele>1775.2</ele>
        <time>2022-02-13T10:47:53Z</time>
      </trkpt>
      <trkpt lat="46.195" lon="6.60713">
        <ele>1774.8</ele>
        <time>2022-02-13T10:47:54Z</time>
      </trkpt>
      <trkpt lat="46.19499" lon="6.60714">
        <ele>1774.2</ele>
        <time>2022-02-13T10:47:56Z</time>
      </trkpt>
      <trkpt lat="46.19499" lon="6.60714">
        <ele>1773.8</ele>
        <time>2022-02-13T10:47:59Z</time>
      </trkpt>
      <trkpt lat="46.19497" lon="6.60714">
        <ele>1773.2</ele>
        <time>2022-02-13T10:48:08Z</time>
      </trkpt>
      <trkpt lat="46.19497" lon="6.60714">
        <ele>1773.2</ele>
        <time>2022-02-13T10:48:10Z</time>
      </trkpt>
      <trkpt lat="46.19497" lon="6.60714">
        <ele>1773.2</ele>
        <time>2022-02-13T10:48:12Z</time>
      </trkpt>
      <trkpt lat="46.19498" lon="6.60717">
        <ele>1772.6</ele>
        <time>2022-02-13T10:48:20Z</time>
      </trkpt>
      <trkpt lat="46.19498" lon="6.60718">
        <ele>1772.4</ele>
        <time>2022-02-13T10:48:23Z</time>
      </trkpt>
      <trkpt lat="46.19497" lon="6.60717">
        <ele>1772.2</ele>
        <time>2022-02-13T10:48:34Z</time>
      </trkpt>
      <trkpt lat="46.19499" lon="6.60719">
        <ele>1772</ele>
        <time>2022-02-13T10:48:37Z</time>
      </trkpt>
      <trkpt lat="46.19502" lon="6.60731">
        <ele>1771.8</ele>
        <time>2022-02-13T10:48:41Z</time>
      </trkpt>
      <trkpt lat="46.19504" lon="6.60735">
        <ele>1771.2</ele>
        <time>2022-02-13T10:48:42Z</time>
      </trkpt>
      <trkpt lat="46.19504" lon="6.6074">
        <ele>1770.4</ele>
        <time>2022-02-13T10:48:43Z</time>
      </trkpt>
      <trkpt lat="46.19506" lon="6.60744">
        <ele>1769.6</ele>
        <time>2022-02-13T10:48:44Z</time>
      </trkpt>
      <trkpt lat="46.19508" lon="6.60749">
        <ele>1768.4</ele>
        <time>2022-02-13T10:48:45Z</time>
      </trkpt>
      <trkpt lat="46.19509" lon="6.60754">
        <ele>1767.6</ele>
        <time>2022-02-13T10:48:46Z</time>
      </trkpt>
      <trkpt lat="46.19509" lon="6.6076">
        <ele>1766.4</ele>
        <time>2022-02-13T10:48:47Z</time>
      </trkpt>
      <trkpt lat="46.19508" lon="6.60765">
        <ele>1765.4</ele>
        <time>2022-02-13T10:48:48Z</time>
      </trkpt>
      <trkpt lat="46.19509" lon="6.6077">
        <ele>1764.2</ele>
        <time>2022-02-13T10:48:49Z</time>
      </trkpt>
      <trkpt lat="46.19513" lon="6.60781">
        <ele>1763.2</ele>
        <time>2022-02-13T10:48:51Z</time>
      </trkpt>
      <trkpt lat="46.19516" lon="6.60787">
        <ele>1762.6</ele>
        <time>2022-02-13T10:48:52Z</time>
      </trkpt>
      <trkpt lat="46.1952" lon="6.60794">
        <ele>1761.8</ele>
        <time>2022-02-13T10:48:53Z</time>
      </trkpt>
      <trkpt lat="46.19525" lon="6.60804">
        <ele>1760.6</ele>
        <time>2022-02-13T10:48:55Z</time>
      </trkpt>
      <trkpt lat="46.19527" lon="6.60808">
        <ele>1759.8</ele>
        <time>2022-02-13T10:48:56Z</time>
      </trkpt>
      <trkpt lat="46.19529" lon="6.60811">
        <ele>1759.4</ele>
        <time>2022-02-13T10:48:57Z</time>
      </trkpt>
      <trkpt lat="46.19532" lon="6.60817">
        <ele>1758.4</ele>
        <time>2022-02-13T10:49:00Z</time>
      </trkpt>
      <trkpt lat="46.19533" lon="6.6082">
        <ele>1758</ele>
        <time>2022-02-13T10:49:04Z</time>
      </trkpt>
      <trkpt lat="46.19534" lon="6.6082">
        <ele>1758</ele>
        <time>2022-02-13T10:49:05Z</time>
      </trkpt>
      <trkpt lat="46.19535" lon="6.60822">
        <ele>1758</ele>
        <time>2022-02-13T10:49:09Z</time>
      </trkpt>
      <trkpt lat="46.19536" lon="6.60823">
        <ele>1758</ele>
        <time>2022-02-13T10:49:11Z</time>
      </trkpt>
      <trkpt lat="46.19542" lon="6.60831">
        <ele>1757.4</ele>
        <time>2022-02-13T10:49:17Z</time>
      </trkpt>
      <trkpt lat="46.19543" lon="6.60833">
        <ele>1757.2</ele>
        <time>2022-02-13T10:49:18Z</time>
      </trkpt>
      <trkpt lat="46.19546" lon="6.6084">
        <ele>1756.6</ele>
        <time>2022-02-13T10:49:23Z</time>
      </trkpt>
      <trkpt lat="46.19546" lon="6.6084">
        <ele>1756.4</ele>
        <time>2022-02-13T10:49:24Z</time>
      </trkpt>
      <trkpt lat="46.19546" lon="6.60842">
        <ele>1756.6</ele>
        <time>2022-02-13T10:49:26Z</time>
      </trkpt>
      <trkpt lat="46.19546" lon="6.60848">
        <ele>1756.2</ele>
        <time>2022-02-13T10:49:30Z</time>
      </trkpt>
      <trkpt lat="46.19546" lon="6.6085">
        <ele>1756.2</ele>
        <time>2022-02-13T10:49:31Z</time>
      </trkpt>
      <trkpt lat="46.19545" lon="6.60852">
        <ele>1756</ele>
        <time>2022-02-13T10:49:32Z</time>
      </trkpt>
      <trkpt lat="46.19546" lon="6.6086">
        <ele>1755.4</ele>
        <time>2022-02-13T10:49:37Z</time>
      </trkpt>
      <trkpt lat="46.19549" lon="6.60865">
        <ele>1755.2</ele>
        <time>2022-02-13T10:49:39Z</time>
      </trkpt>
      <trkpt lat="46.1955" lon="6.60869">
        <ele>1754.6</ele>
        <time>2022-02-13T10:49:40Z</time>
      </trkpt>
      <trkpt lat="46.19549" lon="6.60876">
        <ele>1752.4</ele>
        <time>2022-02-13T10:49:42Z</time>
      </trkpt>
      <trkpt lat="46.19548" lon="6.6088">
        <ele>1751.4</ele>
        <time>2022-02-13T10:49:43Z</time>
      </trkpt>
      <trkpt lat="46.19548" lon="6.60884">
        <ele>1750.8</ele>
        <time>2022-02-13T10:49:44Z</time>
      </trkpt>
      <trkpt lat="46.19548" lon="6.60897">
        <ele>1749.4</ele>
        <time>2022-02-13T10:49:47Z</time>
      </trkpt>
      <trkpt lat="46.19551" lon="6.60906">
        <ele>1748.2</ele>
        <time>2022-02-13T10:49:49Z</time>
      </trkpt>
      <trkpt lat="46.19555" lon="6.60915">
        <ele>1746.8</ele>
        <time>2022-02-13T10:49:51Z</time>
      </trkpt>
      <trkpt lat="46.19559" lon="6.60923">
        <ele>1745.6</ele>
        <time>2022-02-13T10:49:53Z</time>
      </trkpt>
      <trkpt lat="46.19562" lon="6.60928">
        <ele>1744.8</ele>
        <time>2022-02-13T10:49:55Z</time>
      </trkpt>
      <trkpt lat="46.19563" lon="6.60929">
        <ele>1744.4</ele>
        <time>2022-02-13T10:49:56Z</time>
      </trkpt>
      <trkpt lat="46.19563" lon="6.60929">
        <ele>1743.8</ele>
        <time>2022-02-13T10:49:58Z</time>
      </trkpt>
      <trkpt lat="46.19563" lon="6.60929">
        <ele>1743.8</ele>
        <time>2022-02-13T10:50:00Z</time>
      </trkpt>
      <trkpt lat="46.19563" lon="6.60928">
        <ele>1743.2</ele>
        <time>2022-02-13T10:50:05Z</time>
      </trkpt>
      <trkpt lat="46.19565" lon="6.60927">
        <ele>1743</ele>
        <time>2022-02-13T10:50:12Z</time>
      </trkpt>
      <trkpt lat="46.19564" lon="6.60927">
        <ele>1743</ele>
        <time>2022-02-13T10:50:14Z</time>
      </trkpt>
      <trkpt lat="46.19564" lon="6.60927">
        <ele>1743.2</ele>
        <time>2022-02-13T10:50:16Z</time>
      </trkpt>
      <trkpt lat="46.19565" lon="6.60927">
        <ele>1743.2</ele>
        <time>2022-02-13T10:50:19Z</time>
      </trkpt>
      <trkpt lat="46.19565" lon="6.60927">
        <ele>1743</ele>
        <time>2022-02-13T10:50:21Z</time>
      </trkpt>
      <trkpt lat="46.19565" lon="6.60927">
        <ele>1743.2</ele>
        <time>2022-02-13T10:50:29Z</time>
      </trkpt>
      <trkpt lat="46.19564" lon="6.60927">
        <ele>1743</ele>
        <time>2022-02-13T10:50:35Z</time>
      </trkpt>
      <trkpt lat="46.19564" lon="6.60927">
        <ele>1743.2</ele>
        <time>2022-02-13T10:50:46Z</time>
      </trkpt>
      <trkpt lat="46.19564" lon="6.60927">
        <ele>1743.4</ele>
        <time>2022-02-13T10:50:54Z</time>
      </trkpt>
      <trkpt lat="46.19564" lon="6.60927">
        <ele>1743.4</ele>
        <time>2022-02-13T10:50:55Z</time>
      </trkpt>
      <trkpt lat="46.19563" lon="6.60927">
        <ele>1743.4</ele>
        <time>2022-02-13T10:51:03Z</time>
      </trkpt>
      <trkpt lat="46.19563" lon="6.60928">
        <ele>1743.6</ele>
        <time>2022-02-13T10:51:07Z</time>
      </trkpt>
      <trkpt lat="46.19566" lon="6.60931">
        <ele>1743</ele>
        <time>2022-02-13T10:51:14Z</time>
      </trkpt>
      <trkpt lat="46.19569" lon="6.60933">
        <ele>1743</ele>
        <time>2022-02-13T10:51:16Z</time>
      </trkpt>
      <trkpt lat="46.19574" lon="6.60938">
        <ele>1743</ele>
        <time>2022-02-13T10:51:19Z</time>
      </trkpt>
      <trkpt lat="46.1958" lon="6.60944">
        <ele>1743</ele>
        <time>2022-02-13T10:51:22Z</time>
      </trkpt>
      <trkpt lat="46.19587" lon="6.60952">
        <ele>1740.8</ele>
        <time>2022-02-13T10:51:27Z</time>
      </trkpt>
      <trkpt lat="46.19587" lon="6.60953">
        <ele>1740.4</ele>
        <time>2022-02-13T10:51:28Z</time>
      </trkpt>
      <trkpt lat="46.19591" lon="6.60948">
        <ele>1739.6</ele>
        <time>2022-02-13T10:51:32Z</time>
      </trkpt>
      <trkpt lat="46.19591" lon="6.60946">
        <ele>1739.2</ele>
        <time>2022-02-13T10:51:33Z</time>
      </trkpt>
      <trkpt lat="46.19593" lon="6.60939">
        <ele>1737.8</ele>
        <time>2022-02-13T10:51:35Z</time>
      </trkpt>
      <trkpt lat="46.19597" lon="6.60933">
        <ele>1736</ele>
        <time>2022-02-13T10:51:37Z</time>
      </trkpt>
      <trkpt lat="46.19597" lon="6.60928">
        <ele>1734.6</ele>
        <time>2022-02-13T10:51:38Z</time>
      </trkpt>
      <trkpt lat="46.19595" lon="6.60924">
        <ele>1733</ele>
        <time>2022-02-13T10:51:39Z</time>
      </trkpt>
      <trkpt lat="46.19595" lon="6.60921">
        <ele>1731.4</ele>
        <time>2022-02-13T10:51:40Z</time>
      </trkpt>
      <trkpt lat="46.19594" lon="6.60919">
        <ele>1729.8</ele>
        <time>2022-02-13T10:51:42Z</time>
      </trkpt>
      <trkpt lat="46.19594" lon="6.60918">
        <ele>1729.2</ele>
        <time>2022-02-13T10:51:44Z</time>
      </trkpt>
      <trkpt lat="46.19597" lon="6.60915">
        <ele>1728.6</ele>
        <time>2022-02-13T10:51:46Z</time>
      </trkpt>
      <trkpt lat="46.196" lon="6.60915">
        <ele>1728.4</ele>
        <time>2022-02-13T10:51:47Z</time>
      </trkpt>
      <trkpt lat="46.19601" lon="6.60916">
        <ele>1727.2</ele>
        <time>2022-02-13T10:51:48Z</time>
      </trkpt>
      <trkpt lat="46.19603" lon="6.60916">
        <ele>1726</ele>
        <time>2022-02-13T10:51:49Z</time>
      </trkpt>
      <trkpt lat="46.19604" lon="6.60911">
        <ele>1724.8</ele>
        <time>2022-02-13T10:51:51Z</time>
      </trkpt>
      <trkpt lat="46.19603" lon="6.60908">
        <ele>1723.4</ele>
        <time>2022-02-13T10:51:52Z</time>
      </trkpt>
      <trkpt lat="46.19603" lon="6.60905">
        <ele>1722.2</ele>
        <time>2022-02-13T10:51:53Z</time>
      </trkpt>
      <trkpt lat="46.19602" lon="6.60904">
        <ele>1721.4</ele>
        <time>2022-02-13T10:51:54Z</time>
      </trkpt>
      <trkpt lat="46.19603" lon="6.60902">
        <ele>1721</ele>
        <time>2022-02-13T10:51:55Z</time>
      </trkpt>
      <trkpt lat="46.1961" lon="6.60905">
        <ele>1719.2</ele>
        <time>2022-02-13T10:51:58Z</time>
      </trkpt>
      <trkpt lat="46.19612" lon="6.60907">
        <ele>1717.8</ele>
        <time>2022-02-13T10:51:59Z</time>
      </trkpt>
      <trkpt lat="46.19614" lon="6.60909">
        <ele>1716.4</ele>
        <time>2022-02-13T10:52:00Z</time>
      </trkpt>
      <trkpt lat="46.19619" lon="6.60914">
        <ele>1715.2</ele>
        <time>2022-02-13T10:52:02Z</time>
      </trkpt>
      <trkpt lat="46.19624" lon="6.60919">
        <ele>1713.4</ele>
        <time>2022-02-13T10:52:04Z</time>
      </trkpt>
      <trkpt lat="46.19627" lon="6.6092">
        <ele>1713</ele>
        <time>2022-02-13T10:52:05Z</time>
      </trkpt>
      <trkpt lat="46.19629" lon="6.60922">
        <ele>1712.2</ele>
        <time>2022-02-13T10:52:06Z</time>
      </trkpt>
      <trkpt lat="46.19636" lon="6.60926">
        <ele>1710.8</ele>
        <time>2022-02-13T10:52:09Z</time>
      </trkpt>
      <trkpt lat="46.19638" lon="6.60924">
        <ele>1709.8</ele>
        <time>2022-02-13T10:52:10Z</time>
      </trkpt>
      <trkpt lat="46.19639" lon="6.60921">
        <ele>1709.2</ele>
        <time>2022-02-13T10:52:11Z</time>
      </trkpt>
      <trkpt lat="46.19639" lon="6.60917">
        <ele>1708</ele>
        <time>2022-02-13T10:52:12Z</time>
      </trkpt>
      <trkpt lat="46.19641" lon="6.60913">
        <ele>1707</ele>
        <time>2022-02-13T10:52:13Z</time>
      </trkpt>
      <trkpt lat="46.19644" lon="6.60912">
        <ele>1705.6</ele>
        <time>2022-02-13T10:52:14Z</time>
      </trkpt>
      <trkpt lat="46.19648" lon="6.60913">
        <ele>1704.2</ele>
        <time>2022-02-13T10:52:15Z</time>
      </trkpt>
      <trkpt lat="46.1965" lon="6.60914">
        <ele>1702.8</ele>
        <time>2022-02-13T10:52:16Z</time>
      </trkpt>
      <trkpt lat="46.19651" lon="6.60913">
        <ele>1701.4</ele>
        <time>2022-02-13T10:52:17Z</time>
      </trkpt>
      <trkpt lat="46.19652" lon="6.60909">
        <ele>1700.4</ele>
        <time>2022-02-13T10:52:18Z</time>
      </trkpt>
      <trkpt lat="46.1965" lon="6.60902">
        <ele>1698.6</ele>
        <time>2022-02-13T10:52:20Z</time>
      </trkpt>
      <trkpt lat="46.1965" lon="6.609">
        <ele>1697.6</ele>
        <time>2022-02-13T10:52:21Z</time>
      </trkpt>
      <trkpt lat="46.19654" lon="6.60896">
        <ele>1696.2</ele>
        <time>2022-02-13T10:52:23Z</time>
      </trkpt>
      <trkpt lat="46.19656" lon="6.60896">
        <ele>1695.6</ele>
        <time>2022-02-13T10:52:24Z</time>
      </trkpt>
      <trkpt lat="46.19657" lon="6.60894">
        <ele>1694.2</ele>
        <time>2022-02-13T10:52:25Z</time>
      </trkpt>
      <trkpt lat="46.19659" lon="6.6089">
        <ele>1692.8</ele>
        <time>2022-02-13T10:52:26Z</time>
      </trkpt>
      <trkpt lat="46.19662" lon="6.60889">
        <ele>1691.8</ele>
        <time>2022-02-13T10:52:27Z</time>
      </trkpt>
      <trkpt lat="46.19665" lon="6.60889">
        <ele>1691.2</ele>
        <time>2022-02-13T10:52:28Z</time>
      </trkpt>
      <trkpt lat="46.19667" lon="6.60889">
        <ele>1689.2</ele>
        <time>2022-02-13T10:52:29Z</time>
      </trkpt>
      <trkpt lat="46.19668" lon="6.60887">
        <ele>1687.4</ele>
        <time>2022-02-13T10:52:30Z</time>
      </trkpt>
      <trkpt lat="46.19668" lon="6.60883">
        <ele>1686.2</ele>
        <time>2022-02-13T10:52:31Z</time>
      </trkpt>
      <trkpt lat="46.19665" lon="6.60879">
        <ele>1684</ele>
        <time>2022-02-13T10:52:33Z</time>
      </trkpt>
      <trkpt lat="46.19664" lon="6.60879">
        <ele>1682.2</ele>
        <time>2022-02-13T10:52:34Z</time>
      </trkpt>
      <trkpt lat="46.19663" lon="6.60877">
        <ele>1681.6</ele>
        <time>2022-02-13T10:52:42Z</time>
      </trkpt>
      <trkpt lat="46.19663" lon="6.60878">
        <ele>1681.2</ele>
        <time>2022-02-13T10:52:52Z</time>
      </trkpt>
      <trkpt lat="46.19663" lon="6.60877">
        <ele>1681.2</ele>
        <time>2022-02-13T10:52:56Z</time>
      </trkpt>
      <trkpt lat="46.19663" lon="6.60877">
        <ele>1681.2</ele>
        <time>2022-02-13T10:53:01Z</time>
      </trkpt>
      <trkpt lat="46.19663" lon="6.60877">
        <ele>1681</ele>
        <time>2022-02-13T10:53:11Z</time>
      </trkpt>
      <trkpt lat="46.19662" lon="6.60877">
        <ele>1681</ele>
        <time>2022-02-13T10:53:14Z</time>
      </trkpt>
      <trkpt lat="46.19662" lon="6.60873">
        <ele>1680.2</ele>
        <time>2022-02-13T10:53:20Z</time>
      </trkpt>
      <trkpt lat="46.19662" lon="6.60872">
        <ele>1679.8</ele>
        <time>2022-02-13T10:53:24Z</time>
      </trkpt>
      <trkpt lat="46.19661" lon="6.60872">
        <ele>1679.8</ele>
        <time>2022-02-13T10:53:29Z</time>
      </trkpt>
      <trkpt lat="46.19662" lon="6.60872">
        <ele>1679.8</ele>
        <time>2022-02-13T10:53:31Z</time>
      </trkpt>
      <trkpt lat="46.19661" lon="6.60872">
        <ele>1679.8</ele>
        <time>2022-02-13T10:53:32Z</time>
      </trkpt>
      <trkpt lat="46.19661" lon="6.60872">
        <ele>1679.8</ele>
        <time>2022-02-13T10:53:45Z</time>
      </trkpt>
      <trkpt lat="46.19661" lon="6.60872">
        <ele>1679.8</ele>
        <time>2022-02-13T10:53:48Z</time>
      </trkpt>
      <trkpt lat="46.19661" lon="6.60872">
        <ele>1679.8</ele>
        <time>2022-02-13T10:53:57Z</time>
      </trkpt>
      <trkpt lat="46.19661" lon="6.60872">
        <ele>1680</ele>
        <time>2022-02-13T10:53:59Z</time>
      </trkpt>
      <trkpt lat="46.19661" lon="6.60872">
        <ele>1680</ele>
        <time>2022-02-13T10:54:05Z</time>
      </trkpt>
      <trkpt lat="46.19661" lon="6.60872">
        <ele>1680</ele>
        <time>2022-02-13T10:54:07Z</time>
      </trkpt>
      <trkpt lat="46.19661" lon="6.60872">
        <ele>1680</ele>
        <time>2022-02-13T10:54:10Z</time>
      </trkpt>
      <trkpt lat="46.19665" lon="6.60869">
        <ele>1679.8</ele>
        <time>2022-02-13T10:54:17Z</time>
      </trkpt>
      <trkpt lat="46.19671" lon="6.6087">
        <ele>1677.8</ele>
        <time>2022-02-13T10:54:19Z</time>
      </trkpt>
      <trkpt lat="46.19673" lon="6.60868">
        <ele>1675.6</ele>
        <time>2022-02-13T10:54:20Z</time>
      </trkpt>
      <trkpt lat="46.19674" lon="6.60864">
        <ele>1675.6</ele>
        <time>2022-02-13T10:54:21Z</time>
      </trkpt>
      <trkpt lat="46.19676" lon="6.6086">
        <ele>1674.8</ele>
        <time>2022-02-13T10:54:22Z</time>
      </trkpt>
      <trkpt lat="46.1968" lon="6.60859">
        <ele>1673.8</ele>
        <time>2022-02-13T10:54:23Z</time>
      </trkpt>
      <trkpt lat="46.19683" lon="6.60859">
        <ele>1672.8</ele>
        <time>2022-02-13T10:54:24Z</time>
      </trkpt>
      <trkpt lat="46.19686" lon="6.60858">
        <ele>1670.8</ele>
        <time>2022-02-13T10:54:25Z</time>
      </trkpt>
      <trkpt lat="46.19687" lon="6.60854">
        <ele>1669.6</ele>
        <time>2022-02-13T10:54:26Z</time>
      </trkpt>
      <trkpt lat="46.19688" lon="6.6085">
        <ele>1668.8</ele>
        <time>2022-02-13T10:54:27Z</time>
      </trkpt>
      <trkpt lat="46.19691" lon="6.60847">
        <ele>1667</ele>
        <time>2022-02-13T10:54:28Z</time>
      </trkpt>
      <trkpt lat="46.19694" lon="6.60847">
        <ele>1666</ele>
        <time>2022-02-13T10:54:29Z</time>
      </trkpt>
      <trkpt lat="46.19698" lon="6.60846">
        <ele>1664</ele>
        <time>2022-02-13T10:54:30Z</time>
      </trkpt>
      <trkpt lat="46.19699" lon="6.60843">
        <ele>1662.4</ele>
        <time>2022-02-13T10:54:31Z</time>
      </trkpt>
      <trkpt lat="46.197" lon="6.60838">
        <ele>1661.2</ele>
        <time>2022-02-13T10:54:32Z</time>
      </trkpt>
      <trkpt lat="46.19701" lon="6.60833">
        <ele>1659.4</ele>
        <time>2022-02-13T10:54:33Z</time>
      </trkpt>
      <trkpt lat="46.19704" lon="6.60831">
        <ele>1658.2</ele>
        <time>2022-02-13T10:54:34Z</time>
      </trkpt>
      <trkpt lat="46.19708" lon="6.60831">
        <ele>1657.2</ele>
        <time>2022-02-13T10:54:35Z</time>
      </trkpt>
      <trkpt lat="46.19711" lon="6.6083">
        <ele>1655</ele>
        <time>2022-02-13T10:54:36Z</time>
      </trkpt>
      <trkpt lat="46.19712" lon="6.60826">
        <ele>1653.2</ele>
        <time>2022-02-13T10:54:37Z</time>
      </trkpt>
      <trkpt lat="46.19712" lon="6.60822">
        <ele>1651.8</ele>
        <time>2022-02-13T10:54:38Z</time>
      </trkpt>
      <trkpt lat="46.19713" lon="6.60817">
        <ele>1650.4</ele>
        <time>2022-02-13T10:54:39Z</time>
      </trkpt>
      <trkpt lat="46.19716" lon="6.60814">
        <ele>1649</ele>
        <time>2022-02-13T10:54:40Z</time>
      </trkpt>
      <trkpt lat="46.19723" lon="6.60812">
        <ele>1645.8</ele>
        <time>2022-02-13T10:54:42Z</time>
      </trkpt>
      <trkpt lat="46.19724" lon="6.60807">
        <ele>1644.4</ele>
        <time>2022-02-13T10:54:43Z</time>
      </trkpt>
      <trkpt lat="46.19724" lon="6.60802">
        <ele>1643.2</ele>
        <time>2022-02-13T10:54:44Z</time>
      </trkpt>
      <trkpt lat="46.19724" lon="6.60799">
        <ele>1641.4</ele>
        <time>2022-02-13T10:54:45Z</time>
      </trkpt>
      <trkpt lat="46.19723" lon="6.60797">
        <ele>1640.2</ele>
        <time>2022-02-13T10:54:46Z</time>
      </trkpt>
      <trkpt lat="46.19723" lon="6.60796">
        <ele>1638.8</ele>
        <time>2022-02-13T10:54:48Z</time>
      </trkpt>
      <trkpt lat="46.19722" lon="6.60797">
        <ele>1637.8</ele>
        <time>2022-02-13T10:54:53Z</time>
      </trkpt>
      <trkpt lat="46.19722" lon="6.60797">
        <ele>1638</ele>
        <time>2022-02-13T10:54:54Z</time>
      </trkpt>
      <trkpt lat="46.19722" lon="6.60793">
        <ele>1638.2</ele>
        <time>2022-02-13T10:55:03Z</time>
      </trkpt>
      <trkpt lat="46.19727" lon="6.60792">
        <ele>1637.6</ele>
        <time>2022-02-13T10:55:06Z</time>
      </trkpt>
      <trkpt lat="46.19728" lon="6.60793">
        <ele>1636.6</ele>
        <time>2022-02-13T10:55:07Z</time>
      </trkpt>
      <trkpt lat="46.1973" lon="6.60795">
        <ele>1635.4</ele>
        <time>2022-02-13T10:55:08Z</time>
      </trkpt>
      <trkpt lat="46.19735" lon="6.60799">
        <ele>1634</ele>
        <time>2022-02-13T10:55:10Z</time>
      </trkpt>
      <trkpt lat="46.1974" lon="6.60802">
        <ele>1633.4</ele>
        <time>2022-02-13T10:55:12Z</time>
      </trkpt>
      <trkpt lat="46.19742" lon="6.60803">
        <ele>1632.8</ele>
        <time>2022-02-13T10:55:13Z</time>
      </trkpt>
      <trkpt lat="46.19752" lon="6.60806">
        <ele>1631.8</ele>
        <time>2022-02-13T10:55:17Z</time>
      </trkpt>
      <trkpt lat="46.19756" lon="6.60806">
        <ele>1631.4</ele>
        <time>2022-02-13T10:55:18Z</time>
      </trkpt>
      <trkpt lat="46.19762" lon="6.60805">
        <ele>1630.4</ele>
        <time>2022-02-13T10:55:20Z</time>
      </trkpt>
      <trkpt lat="46.1977" lon="6.60801">
        <ele>1629.4</ele>
        <time>2022-02-13T10:55:23Z</time>
      </trkpt>
      <trkpt lat="46.1978" lon="6.60793">
        <ele>1628.2</ele>
        <time>2022-02-13T10:55:26Z</time>
      </trkpt>
      <trkpt lat="46.19789" lon="6.60785">
        <ele>1627</ele>
        <time>2022-02-13T10:55:28Z</time>
      </trkpt>
      <trkpt lat="46.19792" lon="6.60782">
        <ele>1625.8</ele>
        <time>2022-02-13T10:55:29Z</time>
      </trkpt>
      <trkpt lat="46.19798" lon="6.60778">
        <ele>1624.8</ele>
        <time>2022-02-13T10:55:31Z</time>
      </trkpt>
      <trkpt lat="46.19803" lon="6.60775">
        <ele>1623.8</ele>
        <time>2022-02-13T10:55:36Z</time>
      </trkpt>
      <trkpt lat="46.19808" lon="6.60769">
        <ele>1624</ele>
        <time>2022-02-13T10:55:44Z</time>
      </trkpt>
      <trkpt lat="46.19809" lon="6.60768">
        <ele>1623.8</ele>
        <time>2022-02-13T10:55:45Z</time>
      </trkpt>
      <trkpt lat="46.1981" lon="6.60768">
        <ele>1623.6</ele>
        <time>2022-02-13T10:55:46Z</time>
      </trkpt>
      <trkpt lat="46.19817" lon="6.60761">
        <ele>1622.6</ele>
        <time>2022-02-13T10:55:52Z</time>
      </trkpt>
      <trkpt lat="46.19818" lon="6.6076">
        <ele>1621.8</ele>
        <time>2022-02-13T10:55:54Z</time>
      </trkpt>
      <trkpt lat="46.19818" lon="6.60759">
        <ele>1621.6</ele>
        <time>2022-02-13T10:55:55Z</time>
      </trkpt>
      <trkpt lat="46.19819" lon="6.60759">
        <ele>1621.4</ele>
        <time>2022-02-13T10:55:56Z</time>
      </trkpt>
      <trkpt lat="46.19817" lon="6.60758">
        <ele>1621</ele>
        <time>2022-02-13T10:56:03Z</time>
      </trkpt>
      <trkpt lat="46.19818" lon="6.60757">
        <ele>1621</ele>
        <time>2022-02-13T10:56:05Z</time>
      </trkpt>
      <trkpt lat="46.19818" lon="6.60757">
        <ele>1621.4</ele>
        <time>2022-02-13T10:56:07Z</time>
      </trkpt>
      <trkpt lat="46.19815" lon="6.60748">
        <ele>1620.6</ele>
        <time>2022-02-13T10:56:17Z</time>
      </trkpt>
      <trkpt lat="46.19816" lon="6.60744">
        <ele>1620.2</ele>
        <time>2022-02-13T10:56:18Z</time>
      </trkpt>
      <trkpt lat="46.1982" lon="6.60738">
        <ele>1619</ele>
        <time>2022-02-13T10:56:20Z</time>
      </trkpt>
      <trkpt lat="46.19822" lon="6.60736">
        <ele>1617.2</ele>
        <time>2022-02-13T10:56:21Z</time>
      </trkpt>
      <trkpt lat="46.19823" lon="6.60735">
        <ele>1615.6</ele>
        <time>2022-02-13T10:56:22Z</time>
      </trkpt>
      <trkpt lat="46.19824" lon="6.60735">
        <ele>1614.4</ele>
        <time>2022-02-13T10:56:23Z</time>
      </trkpt>
      <trkpt lat="46.19825" lon="6.60734">
        <ele>1613.8</ele>
        <time>2022-02-13T10:56:24Z</time>
      </trkpt>
      <trkpt lat="46.19826" lon="6.60734">
        <ele>1613.2</ele>
        <time>2022-02-13T10:56:25Z</time>
      </trkpt>
      <trkpt lat="46.19827" lon="6.60733">
        <ele>1613</ele>
        <time>2022-02-13T10:56:26Z</time>
      </trkpt>
      <trkpt lat="46.19828" lon="6.60732">
        <ele>1612.4</ele>
        <time>2022-02-13T10:56:28Z</time>
      </trkpt>
      <trkpt lat="46.19829" lon="6.60732">
        <ele>1612.2</ele>
        <time>2022-02-13T10:56:29Z</time>
      </trkpt>
      <trkpt lat="46.19831" lon="6.60731">
        <ele>1612.2</ele>
        <time>2022-02-13T10:56:30Z</time>
      </trkpt>
      <trkpt lat="46.19841" lon="6.60723">
        <ele>1611.4</ele>
        <time>2022-02-13T10:56:33Z</time>
      </trkpt>
      <trkpt lat="46.19845" lon="6.60719">
        <ele>1610.4</ele>
        <time>2022-02-13T10:56:35Z</time>
      </trkpt>
      <trkpt lat="46.19848" lon="6.60716">
        <ele>1609.4</ele>
        <time>2022-02-13T10:56:37Z</time>
      </trkpt>
      <trkpt lat="46.19849" lon="6.60715">
        <ele>1609</ele>
        <time>2022-02-13T10:56:38Z</time>
      </trkpt>
      <trkpt lat="46.19854" lon="6.60711">
        <ele>1608</ele>
        <time>2022-02-13T10:56:41Z</time>
      </trkpt>
      <trkpt lat="46.19855" lon="6.60708">
        <ele>1607</ele>
        <time>2022-02-13T10:56:43Z</time>
      </trkpt>
      <trkpt lat="46.19856" lon="6.60705">
        <ele>1606.6</ele>
        <time>2022-02-13T10:56:44Z</time>
      </trkpt>
      <trkpt lat="46.19853" lon="6.60703">
        <ele>1605.8</ele>
        <time>2022-02-13T10:56:46Z</time>
      </trkpt>
      <trkpt lat="46.19851" lon="6.60703">
        <ele>1603.8</ele>
        <time>2022-02-13T10:56:48Z</time>
      </trkpt>
      <trkpt lat="46.1985" lon="6.60704">
        <ele>1603.2</ele>
        <time>2022-02-13T10:56:49Z</time>
      </trkpt>
      <trkpt lat="46.1985" lon="6.60704">
        <ele>1602.8</ele>
        <time>2022-02-13T10:56:50Z</time>
      </trkpt>
      <trkpt lat="46.1985" lon="6.60704">
        <ele>1602.8</ele>
        <time>2022-02-13T10:56:51Z</time>
      </trkpt>
      <trkpt lat="46.19849" lon="6.60702">
        <ele>1602.8</ele>
        <time>2022-02-13T10:57:01Z</time>
      </trkpt>
      <trkpt lat="46.19849" lon="6.60702">
        <ele>1602.8</ele>
        <time>2022-02-13T10:57:02Z</time>
      </trkpt>
      <trkpt lat="46.19849" lon="6.60702">
        <ele>1602.8</ele>
        <time>2022-02-13T10:57:04Z</time>
      </trkpt>
      <trkpt lat="46.19848" lon="6.60702">
        <ele>1602.6</ele>
        <time>2022-02-13T10:57:18Z</time>
      </trkpt>
      <trkpt lat="46.19848" lon="6.60701">
        <ele>1602.8</ele>
        <time>2022-02-13T10:57:20Z</time>
      </trkpt>
      <trkpt lat="46.1985" lon="6.60691">
        <ele>1601.8</ele>
        <time>2022-02-13T10:57:27Z</time>
      </trkpt>
      <trkpt lat="46.19852" lon="6.60688">
        <ele>1600.8</ele>
        <time>2022-02-13T10:57:28Z</time>
      </trkpt>
      <trkpt lat="46.19853" lon="6.60685">
        <ele>1599.4</ele>
        <time>2022-02-13T10:57:29Z</time>
      </trkpt>
      <trkpt lat="46.19853" lon="6.60682">
        <ele>1598.6</ele>
        <time>2022-02-13T10:57:30Z</time>
      </trkpt>
      <trkpt lat="46.19852" lon="6.6068">
        <ele>1597.6</ele>
        <time>2022-02-13T10:57:31Z</time>
      </trkpt>
      <trkpt lat="46.1985" lon="6.60679">
        <ele>1597</ele>
        <time>2022-02-13T10:57:32Z</time>
      </trkpt>
      <trkpt lat="46.19848" lon="6.60677">
        <ele>1595.6</ele>
        <time>2022-02-13T10:57:33Z</time>
      </trkpt>
      <trkpt lat="46.19848" lon="6.60672">
        <ele>1594.6</ele>
        <time>2022-02-13T10:57:34Z</time>
      </trkpt>
      <trkpt lat="46.19849" lon="6.60668">
        <ele>1594</ele>
        <time>2022-02-13T10:57:35Z</time>
      </trkpt>
      <trkpt lat="46.19852" lon="6.60666">
        <ele>1593</ele>
        <time>2022-02-13T10:57:36Z</time>
      </trkpt>
      <trkpt lat="46.19854" lon="6.60664">
        <ele>1591.6</ele>
        <time>2022-02-13T10:57:37Z</time>
      </trkpt>
      <trkpt lat="46.19859" lon="6.60661">
        <ele>1589.8</ele>
        <time>2022-02-13T10:57:39Z</time>
      </trkpt>
      <trkpt lat="46.19859" lon="6.60658">
        <ele>1588.4</ele>
        <time>2022-02-13T10:57:40Z</time>
      </trkpt>
      <trkpt lat="46.19855" lon="6.60657">
        <ele>1587.2</ele>
        <time>2022-02-13T10:57:42Z</time>
      </trkpt>
      <trkpt lat="46.19854" lon="6.60658">
        <ele>1585.8</ele>
        <time>2022-02-13T10:57:43Z</time>
      </trkpt>
      <trkpt lat="46.19852" lon="6.60658">
        <ele>1584.2</ele>
        <time>2022-02-13T10:57:45Z</time>
      </trkpt>
      <trkpt lat="46.19851" lon="6.60656">
        <ele>1583.6</ele>
        <time>2022-02-13T10:57:46Z</time>
      </trkpt>
      <trkpt lat="46.19852" lon="6.60653">
        <ele>1583.2</ele>
        <time>2022-02-13T10:57:47Z</time>
      </trkpt>
      <trkpt lat="46.19856" lon="6.60646">
        <ele>1581.6</ele>
        <time>2022-02-13T10:57:49Z</time>
      </trkpt>
      <trkpt lat="46.19857" lon="6.6064">
        <ele>1580.4</ele>
        <time>2022-02-13T10:57:50Z</time>
      </trkpt>
      <trkpt lat="46.19855" lon="6.60637">
        <ele>1579.2</ele>
        <time>2022-02-13T10:57:51Z</time>
      </trkpt>
      <trkpt lat="46.19852" lon="6.60635">
        <ele>1577.8</ele>
        <time>2022-02-13T10:57:52Z</time>
      </trkpt>
      <trkpt lat="46.19848" lon="6.60633">
        <ele>1576.2</ele>
        <time>2022-02-13T10:57:53Z</time>
      </trkpt>
      <trkpt lat="46.19846" lon="6.6063">
        <ele>1574.4</ele>
        <time>2022-02-13T10:57:54Z</time>
      </trkpt>
      <trkpt lat="46.19847" lon="6.60625">
        <ele>1573</ele>
        <time>2022-02-13T10:57:55Z</time>
      </trkpt>
      <trkpt lat="46.1985" lon="6.60622">
        <ele>1571.8</ele>
        <time>2022-02-13T10:57:56Z</time>
      </trkpt>
      <trkpt lat="46.19852" lon="6.6062">
        <ele>1570.4</ele>
        <time>2022-02-13T10:57:57Z</time>
      </trkpt>
      <trkpt lat="46.19853" lon="6.60619">
        <ele>1569.4</ele>
        <time>2022-02-13T10:57:58Z</time>
      </trkpt>
      <trkpt lat="46.19853" lon="6.60619">
        <ele>1568.6</ele>
        <time>2022-02-13T10:57:59Z</time>
      </trkpt>
      <trkpt lat="46.19853" lon="6.60619">
        <ele>1568.2</ele>
        <time>2022-02-13T10:58:00Z</time>
      </trkpt>
      <trkpt lat="46.19853" lon="6.6062">
        <ele>1567.6</ele>
        <time>2022-02-13T10:58:02Z</time>
      </trkpt>
      <trkpt lat="46.19852" lon="6.6062">
        <ele>1567.6</ele>
        <time>2022-02-13T10:58:04Z</time>
      </trkpt>
      <trkpt lat="46.19853" lon="6.60618">
        <ele>1567.8</ele>
        <time>2022-02-13T10:58:11Z</time>
      </trkpt>
      <trkpt lat="46.19853" lon="6.60619">
        <ele>1567.6</ele>
        <time>2022-02-13T10:58:13Z</time>
      </trkpt>
      <trkpt lat="46.19853" lon="6.60619">
        <ele>1567.6</ele>
        <time>2022-02-13T10:58:16Z</time>
      </trkpt>
      <trkpt lat="46.19852" lon="6.6062">
        <ele>1567.4</ele>
        <time>2022-02-13T10:58:21Z</time>
      </trkpt>
      <trkpt lat="46.19852" lon="6.60623">
        <ele>1567.2</ele>
        <time>2022-02-13T10:58:31Z</time>
      </trkpt>
      <trkpt lat="46.19852" lon="6.60623">
        <ele>1567.2</ele>
        <time>2022-02-13T10:58:32Z</time>
      </trkpt>
      <trkpt lat="46.19852" lon="6.60623">
        <ele>1567.2</ele>
        <time>2022-02-13T10:58:33Z</time>
      </trkpt>
      <trkpt lat="46.19852" lon="6.60624">
        <ele>1567.2</ele>
        <time>2022-02-13T10:58:35Z</time>
      </trkpt>
      <trkpt lat="46.19852" lon="6.60625">
        <ele>1567.2</ele>
        <time>2022-02-13T10:58:42Z</time>
      </trkpt>
      <trkpt lat="46.19852" lon="6.60625">
        <ele>1567.2</ele>
        <time>2022-02-13T10:58:48Z</time>
      </trkpt>
      <trkpt lat="46.19851" lon="6.60625">
        <ele>1567.2</ele>
        <time>2022-02-13T10:58:57Z</time>
      </trkpt>
      <trkpt lat="46.19853" lon="6.60621">
        <ele>1567</ele>
        <time>2022-02-13T10:59:02Z</time>
      </trkpt>
      <trkpt lat="46.19857" lon="6.60615">
        <ele>1566.2</ele>
        <time>2022-02-13T10:59:04Z</time>
      </trkpt>
      <trkpt lat="46.19858" lon="6.60611">
        <ele>1565.6</ele>
        <time>2022-02-13T10:59:05Z</time>
      </trkpt>
      <trkpt lat="46.19858" lon="6.60607">
        <ele>1565.2</ele>
        <time>2022-02-13T10:59:06Z</time>
      </trkpt>
      <trkpt lat="46.19858" lon="6.60603">
        <ele>1565</ele>
        <time>2022-02-13T10:59:07Z</time>
      </trkpt>
      <trkpt lat="46.19855" lon="6.60594">
        <ele>1564.4</ele>
        <time>2022-02-13T10:59:09Z</time>
      </trkpt>
      <trkpt lat="46.19855" lon="6.60589">
        <ele>1563.4</ele>
        <time>2022-02-13T10:59:10Z</time>
      </trkpt>
      <trkpt lat="46.19855" lon="6.60578">
        <ele>1561.8</ele>
        <time>2022-02-13T10:59:12Z</time>
      </trkpt>
      <trkpt lat="46.19857" lon="6.60568">
        <ele>1560</ele>
        <time>2022-02-13T10:59:14Z</time>
      </trkpt>
      <trkpt lat="46.19857" lon="6.6056">
        <ele>1559</ele>
        <time>2022-02-13T10:59:16Z</time>
      </trkpt>
      <trkpt lat="46.19858" lon="6.60547">
        <ele>1558</ele>
        <time>2022-02-13T10:59:19Z</time>
      </trkpt>
      <trkpt lat="46.19858" lon="6.60541">
        <ele>1557.6</ele>
        <time>2022-02-13T10:59:20Z</time>
      </trkpt>
      <trkpt lat="46.19858" lon="6.6053">
        <ele>1557</ele>
        <time>2022-02-13T10:59:22Z</time>
      </trkpt>
      <trkpt lat="46.19857" lon="6.60523">
        <ele>1556.2</ele>
        <time>2022-02-13T10:59:24Z</time>
      </trkpt>
      <trkpt lat="46.19857" lon="6.60521">
        <ele>1555.8</ele>
        <time>2022-02-13T10:59:25Z</time>
      </trkpt>
      <trkpt lat="46.19859" lon="6.60503">
        <ele>1554.6</ele>
        <time>2022-02-13T10:59:30Z</time>
      </trkpt>
      <trkpt lat="46.1986" lon="6.60498">
        <ele>1554.4</ele>
        <time>2022-02-13T10:59:31Z</time>
      </trkpt>
      <trkpt lat="46.19861" lon="6.60488">
        <ele>1554</ele>
        <time>2022-02-13T10:59:33Z</time>
      </trkpt>
      <trkpt lat="46.19862" lon="6.60483">
        <ele>1553.6</ele>
        <time>2022-02-13T10:59:34Z</time>
      </trkpt>
      <trkpt lat="46.19862" lon="6.60467">
        <ele>1552.4</ele>
        <time>2022-02-13T10:59:37Z</time>
      </trkpt>
      <trkpt lat="46.1986" lon="6.60462">
        <ele>1552</ele>
        <time>2022-02-13T10:59:38Z</time>
      </trkpt>
      <trkpt lat="46.1986" lon="6.60449">
        <ele>1550.8</ele>
        <time>2022-02-13T10:59:40Z</time>
      </trkpt>
      <trkpt lat="46.19859" lon="6.60444">
        <ele>1549.4</ele>
        <time>2022-02-13T10:59:41Z</time>
      </trkpt>
      <trkpt lat="46.19858" lon="6.60438">
        <ele>1548.2</ele>
        <time>2022-02-13T10:59:42Z</time>
      </trkpt>
      <trkpt lat="46.19857" lon="6.60432">
        <ele>1547.6</ele>
        <time>2022-02-13T10:59:43Z</time>
      </trkpt>
      <trkpt lat="46.19857" lon="6.60428">
        <ele>1547.2</ele>
        <time>2022-02-13T10:59:44Z</time>
      </trkpt>
      <trkpt lat="46.19858" lon="6.60426">
        <ele>1546.2</ele>
        <time>2022-02-13T10:59:45Z</time>
      </trkpt>
      <trkpt lat="46.19858" lon="6.60425">
        <ele>1545.4</ele>
        <time>2022-02-13T10:59:46Z</time>
      </trkpt>
      <trkpt lat="46.19858" lon="6.60426">
        <ele>1545</ele>
        <time>2022-02-13T10:59:47Z</time>
      </trkpt>
      <trkpt lat="46.19858" lon="6.60426">
        <ele>1544.4</ele>
        <time>2022-02-13T10:59:50Z</time>
      </trkpt>
      <trkpt lat="46.19857" lon="6.60428">
        <ele>1544.2</ele>
        <time>2022-02-13T11:00:02Z</time>
      </trkpt>
      <trkpt lat="46.19857" lon="6.60419">
        <ele>1543.6</ele>
        <time>2022-02-13T11:00:10Z</time>
      </trkpt>
      <trkpt lat="46.19856" lon="6.60416">
        <ele>1543.2</ele>
        <time>2022-02-13T11:00:12Z</time>
      </trkpt>
      <trkpt lat="46.19854" lon="6.60414">
        <ele>1542</ele>
        <time>2022-02-13T11:00:17Z</time>
      </trkpt>
      <trkpt lat="46.19854" lon="6.60415">
        <ele>1542</ele>
        <time>2022-02-13T11:00:18Z</time>
      </trkpt>
      <trkpt lat="46.19854" lon="6.60414">
        <ele>1541.8</ele>
        <time>2022-02-13T11:00:25Z</time>
      </trkpt>
      <trkpt lat="46.19855" lon="6.60411">
        <ele>1541.6</ele>
        <time>2022-02-13T11:00:29Z</time>
      </trkpt>
      <trkpt lat="46.19858" lon="6.60402">
        <ele>1541.2</ele>
        <time>2022-02-13T11:00:32Z</time>
      </trkpt>
      <trkpt lat="46.19859" lon="6.60396">
        <ele>1541</ele>
        <time>2022-02-13T11:00:33Z</time>
      </trkpt>
      <trkpt lat="46.1986" lon="6.6038">
        <ele>1539.8</ele>
        <time>2022-02-13T11:00:36Z</time>
      </trkpt>
      <trkpt lat="46.19859" lon="6.60371">
        <ele>1539</ele>
        <time>2022-02-13T11:00:38Z</time>
      </trkpt>
      <trkpt lat="46.19859" lon="6.60368">
        <ele>1538.6</ele>
        <time>2022-02-13T11:00:39Z</time>
      </trkpt>
      <trkpt lat="46.19857" lon="6.60351">
        <ele>1537.8</ele>
        <time>2022-02-13T11:00:43Z</time>
      </trkpt>
      <trkpt lat="46.19857" lon="6.60347">
        <ele>1537.4</ele>
        <time>2022-02-13T11:00:44Z</time>
      </trkpt>
      <trkpt lat="46.19856" lon="6.60345">
        <ele>1537.2</ele>
        <time>2022-02-13T11:00:46Z</time>
      </trkpt>
      <trkpt lat="46.19856" lon="6.60344">
        <ele>1537.2</ele>
        <time>2022-02-13T11:00:47Z</time>
      </trkpt>
      <trkpt lat="46.19852" lon="6.6034">
        <ele>1537.6</ele>
        <time>2022-02-13T11:00:54Z</time>
      </trkpt>
      <trkpt lat="46.19845" lon="6.60339">
        <ele>1536.8</ele>
        <time>2022-02-13T11:00:57Z</time>
      </trkpt>
      <trkpt lat="46.19841" lon="6.60338">
        <ele>1536.6</ele>
        <time>2022-02-13T11:00:58Z</time>
      </trkpt>
      <trkpt lat="46.19839" lon="6.60335">
        <ele>1536</ele>
        <time>2022-02-13T11:00:59Z</time>
      </trkpt>
      <trkpt lat="46.19837" lon="6.60334">
        <ele>1535</ele>
        <time>2022-02-13T11:01:01Z</time>
      </trkpt>
      <trkpt lat="46.19836" lon="6.60334">
        <ele>1534.6</ele>
        <time>2022-02-13T11:01:02Z</time>
      </trkpt>
      <trkpt lat="46.19834" lon="6.6033">
        <ele>1533.4</ele>
        <time>2022-02-13T11:01:08Z</time>
      </trkpt>
      <trkpt lat="46.19834" lon="6.6033">
        <ele>1533.4</ele>
        <time>2022-02-13T11:01:10Z</time>
      </trkpt>
      <trkpt lat="46.19829" lon="6.60324">
        <ele>1533</ele>
        <time>2022-02-13T11:01:18Z</time>
      </trkpt>
      <trkpt lat="46.19827" lon="6.60323">
        <ele>1532.6</ele>
        <time>2022-02-13T11:01:19Z</time>
      </trkpt>
      <trkpt lat="46.19825" lon="6.60321">
        <ele>1532.4</ele>
        <time>2022-02-13T11:01:20Z</time>
      </trkpt>
      <trkpt lat="46.19821" lon="6.60315">
        <ele>1531</ele>
        <time>2022-02-13T11:01:23Z</time>
      </trkpt>
      <trkpt lat="46.1982" lon="6.60315">
        <ele>1530.6</ele>
        <time>2022-02-13T11:01:25Z</time>
      </trkpt>
      <trkpt lat="46.19816" lon="6.60312">
        <ele>1530.2</ele>
        <time>2022-02-13T11:01:29Z</time>
      </trkpt>
      <trkpt lat="46.19813" lon="6.60308">
        <ele>1529.8</ele>
        <time>2022-02-13T11:01:31Z</time>
      </trkpt>
      <trkpt lat="46.1981" lon="6.60296">
        <ele>1529.6</ele>
        <time>2022-02-13T11:01:34Z</time>
      </trkpt>
      <trkpt lat="46.19809" lon="6.60287">
        <ele>1528.6</ele>
        <time>2022-02-13T11:01:36Z</time>
      </trkpt>
      <trkpt lat="46.19807" lon="6.60278">
        <ele>1527.8</ele>
        <time>2022-02-13T11:01:38Z</time>
      </trkpt>
      <trkpt lat="46.19806" lon="6.60274">
        <ele>1527.4</ele>
        <time>2022-02-13T11:01:39Z</time>
      </trkpt>
      <trkpt lat="46.19804" lon="6.6027">
        <ele>1527.2</ele>
        <time>2022-02-13T11:01:40Z</time>
      </trkpt>
      <trkpt lat="46.198" lon="6.60259">
        <ele>1527</ele>
        <time>2022-02-13T11:01:42Z</time>
      </trkpt>
      <trkpt lat="46.19798" lon="6.60254">
        <ele>1526.4</ele>
        <time>2022-02-13T11:01:43Z</time>
      </trkpt>
      <trkpt lat="46.19797" lon="6.6025">
        <ele>1526</ele>
        <time>2022-02-13T11:01:44Z</time>
      </trkpt>
      <trkpt lat="46.19796" lon="6.60244">
        <ele>1525.6</ele>
        <time>2022-02-13T11:01:46Z</time>
      </trkpt>
      <trkpt lat="46.19796" lon="6.60243">
        <ele>1525.4</ele>
        <time>2022-02-13T11:01:48Z</time>
      </trkpt>
      <trkpt lat="46.19796" lon="6.60241">
        <ele>1525.2</ele>
        <time>2022-02-13T11:01:51Z</time>
      </trkpt>
      <trkpt lat="46.19795" lon="6.60236">
        <ele>1524.8</ele>
        <time>2022-02-13T11:01:54Z</time>
      </trkpt>
      <trkpt lat="46.19795" lon="6.60235">
        <ele>1524.8</ele>
        <time>2022-02-13T11:01:55Z</time>
      </trkpt>
      <trkpt lat="46.19795" lon="6.60226">
        <ele>1524.4</ele>
        <time>2022-02-13T11:01:58Z</time>
      </trkpt>
      <trkpt lat="46.19795" lon="6.60221">
        <ele>1524.2</ele>
        <time>2022-02-13T11:01:59Z</time>
      </trkpt>
      <trkpt lat="46.19794" lon="6.60211">
        <ele>1523.2</ele>
        <time>2022-02-13T11:02:01Z</time>
      </trkpt>
      <trkpt lat="46.19792" lon="6.60201">
        <ele>1522.2</ele>
        <time>2022-02-13T11:02:03Z</time>
      </trkpt>
      <trkpt lat="46.1979" lon="6.60195">
        <ele>1521.8</ele>
        <time>2022-02-13T11:02:04Z</time>
      </trkpt>
      <trkpt lat="46.19788" lon="6.60176">
        <ele>1521.2</ele>
        <time>2022-02-13T11:02:09Z</time>
      </trkpt>
      <trkpt lat="46.19788" lon="6.60174">
        <ele>1521.2</ele>
        <time>2022-02-13T11:02:10Z</time>
      </trkpt>
      <trkpt lat="46.19788" lon="6.60171">
        <ele>1521.2</ele>
        <time>2022-02-13T11:02:11Z</time>
      </trkpt>
      <trkpt lat="46.19788" lon="6.60167">
        <ele>1521.2</ele>
        <time>2022-02-13T11:02:13Z</time>
      </trkpt>
      <trkpt lat="46.19789" lon="6.60165">
        <ele>1521</ele>
        <time>2022-02-13T11:02:14Z</time>
      </trkpt>
      <trkpt lat="46.19788" lon="6.60164">
        <ele>1520.8</ele>
        <time>2022-02-13T11:02:16Z</time>
      </trkpt>
      <trkpt lat="46.19788" lon="6.60164">
        <ele>1520.8</ele>
        <time>2022-02-13T11:02:17Z</time>
      </trkpt>
      <trkpt lat="46.19788" lon="6.60163">
        <ele>1521</ele>
        <time>2022-02-13T11:02:19Z</time>
      </trkpt>
      <trkpt lat="46.19788" lon="6.60163">
        <ele>1521.4</ele>
        <time>2022-02-13T11:02:20Z</time>
      </trkpt>
      <trkpt lat="46.19787" lon="6.60155">
        <ele>1521.8</ele>
        <time>2022-02-13T11:02:29Z</time>
      </trkpt>
      <trkpt lat="46.19788" lon="6.60153">
        <ele>1521.8</ele>
        <time>2022-02-13T11:02:31Z</time>
      </trkpt>
      <trkpt lat="46.19787" lon="6.60153">
        <ele>1522</ele>
        <time>2022-02-13T11:02:32Z</time>
      </trkpt>
      <trkpt lat="46.19786" lon="6.6015">
        <ele>1522</ele>
        <time>2022-02-13T11:02:34Z</time>
      </trkpt>
      <trkpt lat="46.19785" lon="6.60147">
        <ele>1522.2</ele>
        <time>2022-02-13T11:02:38Z</time>
      </trkpt>
      <trkpt lat="46.19785" lon="6.60138">
        <ele>1522.2</ele>
        <time>2022-02-13T11:02:44Z</time>
      </trkpt>
      <trkpt lat="46.19784" lon="6.60135">
        <ele>1522.4</ele>
        <time>2022-02-13T11:02:46Z</time>
      </trkpt>
      <trkpt lat="46.19783" lon="6.60129">
        <ele>1522</ele>
        <time>2022-02-13T11:02:50Z</time>
      </trkpt>
      <trkpt lat="46.19784" lon="6.60124">
        <ele>1522</ele>
        <time>2022-02-13T11:02:53Z</time>
      </trkpt>
      <trkpt lat="46.19783" lon="6.60119">
        <ele>1521.6</ele>
        <time>2022-02-13T11:02:57Z</time>
      </trkpt>
      <trkpt lat="46.19782" lon="6.60113">
        <ele>1520.4</ele>
        <time>2022-02-13T11:03:00Z</time>
      </trkpt>
      <trkpt lat="46.1978" lon="6.60094">
        <ele>1519.2</ele>
        <time>2022-02-13T11:03:06Z</time>
      </trkpt>
      <trkpt lat="46.19779" lon="6.60084">
        <ele>1517.6</ele>
        <time>2022-02-13T11:03:09Z</time>
      </trkpt>
      <trkpt lat="46.19779" lon="6.60076">
        <ele>1516.6</ele>
        <time>2022-02-13T11:03:11Z</time>
      </trkpt>
      <trkpt lat="46.19777" lon="6.60063">
        <ele>1515.4</ele>
        <time>2022-02-13T11:03:15Z</time>
      </trkpt>
      <trkpt lat="46.19776" lon="6.60061">
        <ele>1515.2</ele>
        <time>2022-02-13T11:03:16Z</time>
      </trkpt>
      <trkpt lat="46.19775" lon="6.60057">
        <ele>1514.2</ele>
        <time>2022-02-13T11:03:19Z</time>
      </trkpt>
      <trkpt lat="46.19775" lon="6.60056">
        <ele>1514.2</ele>
        <time>2022-02-13T11:03:20Z</time>
      </trkpt>
      <trkpt lat="46.19774" lon="6.60056">
        <ele>1514.4</ele>
        <time>2022-02-13T11:03:22Z</time>
      </trkpt>
      <trkpt lat="46.19774" lon="6.60056">
        <ele>1514.6</ele>
        <time>2022-02-13T11:03:27Z</time>
      </trkpt>
      <trkpt lat="46.19774" lon="6.60056">
        <ele>1514.2</ele>
        <time>2022-02-13T11:03:32Z</time>
      </trkpt>
      <trkpt lat="46.19774" lon="6.60054">
        <ele>1514</ele>
        <time>2022-02-13T11:03:34Z</time>
      </trkpt>
      <trkpt lat="46.19774" lon="6.60052">
        <ele>1513.8</ele>
        <time>2022-02-13T11:03:36Z</time>
      </trkpt>
      <trkpt lat="46.19774" lon="6.60051">
        <ele>1513.2</ele>
        <time>2022-02-13T11:03:39Z</time>
      </trkpt>
      <trkpt lat="46.19774" lon="6.6005">
        <ele>1513.2</ele>
        <time>2022-02-13T11:03:41Z</time>
      </trkpt>
      <trkpt lat="46.19774" lon="6.60049">
        <ele>1513.2</ele>
        <time>2022-02-13T11:03:43Z</time>
      </trkpt>
      <trkpt lat="46.19772" lon="6.60044">
        <ele>1513</ele>
        <time>2022-02-13T11:03:46Z</time>
      </trkpt>
      <trkpt lat="46.1977" lon="6.60037">
        <ele>1512</ele>
        <time>2022-02-13T11:03:49Z</time>
      </trkpt>
      <trkpt lat="46.19769" lon="6.60033">
        <ele>1511.4</ele>
        <time>2022-02-13T11:03:51Z</time>
      </trkpt>
      <trkpt lat="46.19769" lon="6.60032">
        <ele>1510.8</ele>
        <time>2022-02-13T11:03:52Z</time>
      </trkpt>
      <trkpt lat="46.19767" lon="6.60024">
        <ele>1510</ele>
        <time>2022-02-13T11:03:57Z</time>
      </trkpt>
      <trkpt lat="46.19766" lon="6.60021">
        <ele>1509.4</ele>
        <time>2022-02-13T11:03:59Z</time>
      </trkpt>
      <trkpt lat="46.19763" lon="6.60014">
        <ele>1508.4</ele>
        <time>2022-02-13T11:04:02Z</time>
      </trkpt>
      <trkpt lat="46.19763" lon="6.60012">
        <ele>1508</ele>
        <time>2022-02-13T11:04:03Z</time>
      </trkpt>
      <trkpt lat="46.19763" lon="6.60011">
        <ele>1507.2</ele>
        <time>2022-02-13T11:04:05Z</time>
      </trkpt>
      <trkpt lat="46.19762" lon="6.60003">
        <ele>1506.2</ele>
        <time>2022-02-13T11:04:09Z</time>
      </trkpt>
      <trkpt lat="46.19762" lon="6.60001">
        <ele>1505.8</ele>
        <time>2022-02-13T11:04:10Z</time>
      </trkpt>
      <trkpt lat="46.19761" lon="6.59999">
        <ele>1505.4</ele>
        <time>2022-02-13T11:04:11Z</time>
      </trkpt>
      <trkpt lat="46.19761" lon="6.59995">
        <ele>1504.4</ele>
        <time>2022-02-13T11:04:13Z</time>
      </trkpt>
      <trkpt lat="46.1976" lon="6.59992">
        <ele>1503</ele>
        <time>2022-02-13T11:04:15Z</time>
      </trkpt>
      <trkpt lat="46.1976" lon="6.59991">
        <ele>1502.2</ele>
        <time>2022-02-13T11:04:20Z</time>
      </trkpt>
      <trkpt lat="46.1976" lon="6.59991">
        <ele>1502.2</ele>
        <time>2022-02-13T11:04:22Z</time>
      </trkpt>
      <trkpt lat="46.1976" lon="6.59991">
        <ele>1502.2</ele>
        <time>2022-02-13T11:04:23Z</time>
      </trkpt>
      <trkpt lat="46.1976" lon="6.59991">
        <ele>1502.2</ele>
        <time>2022-02-13T11:04:31Z</time>
      </trkpt>
      <trkpt lat="46.1976" lon="6.5999">
        <ele>1502.2</ele>
        <time>2022-02-13T11:04:39Z</time>
      </trkpt>
      <trkpt lat="46.1976" lon="6.59987">
        <ele>1502</ele>
        <time>2022-02-13T11:04:42Z</time>
      </trkpt>
      <trkpt lat="46.1976" lon="6.59988">
        <ele>1502</ele>
        <time>2022-02-13T11:04:43Z</time>
      </trkpt>
      <trkpt lat="46.1976" lon="6.59988">
        <ele>1501.8</ele>
        <time>2022-02-13T11:04:44Z</time>
      </trkpt>
      <trkpt lat="46.1976" lon="6.59987">
        <ele>1501.8</ele>
        <time>2022-02-13T11:04:46Z</time>
      </trkpt>
      <trkpt lat="46.19759" lon="6.59983">
        <ele>1501.2</ele>
        <time>2022-02-13T11:04:51Z</time>
      </trkpt>
      <trkpt lat="46.19759" lon="6.59983">
        <ele>1500.8</ele>
        <time>2022-02-13T11:04:52Z</time>
      </trkpt>
      <trkpt lat="46.19759" lon="6.59982">
        <ele>1500.4</ele>
        <time>2022-02-13T11:04:54Z</time>
      </trkpt>
      <trkpt lat="46.19758" lon="6.59976">
        <ele>1499.8</ele>
        <time>2022-02-13T11:04:59Z</time>
      </trkpt>
      <trkpt lat="46.19757" lon="6.59975">
        <ele>1499.6</ele>
        <time>2022-02-13T11:05:00Z</time>
      </trkpt>
      <trkpt lat="46.19756" lon="6.59974">
        <ele>1499.6</ele>
        <time>2022-02-13T11:05:01Z</time>
      </trkpt>
      <trkpt lat="46.19757" lon="6.59969">
        <ele>1499.2</ele>
        <time>2022-02-13T11:05:03Z</time>
      </trkpt>
      <trkpt lat="46.19758" lon="6.59968">
        <ele>1498.8</ele>
        <time>2022-02-13T11:05:04Z</time>
      </trkpt>
      <trkpt lat="46.19759" lon="6.59968">
        <ele>1498.4</ele>
        <time>2022-02-13T11:05:05Z</time>
      </trkpt>
      <trkpt lat="46.19761" lon="6.59969">
        <ele>1497.4</ele>
        <time>2022-02-13T11:05:06Z</time>
      </trkpt>
      <trkpt lat="46.19763" lon="6.59969">
        <ele>1495.8</ele>
        <time>2022-02-13T11:05:08Z</time>
      </trkpt>
      <trkpt lat="46.19764" lon="6.59968">
        <ele>1494.8</ele>
        <time>2022-02-13T11:05:09Z</time>
      </trkpt>
      <trkpt lat="46.19765" lon="6.59966">
        <ele>1494.2</ele>
        <time>2022-02-13T11:05:10Z</time>
      </trkpt>
      <trkpt lat="46.19765" lon="6.59961">
        <ele>1492.8</ele>
        <time>2022-02-13T11:05:12Z</time>
      </trkpt>
      <trkpt lat="46.19765" lon="6.59959">
        <ele>1492</ele>
        <time>2022-02-13T11:05:13Z</time>
      </trkpt>
      <trkpt lat="46.19767" lon="6.59957">
        <ele>1491.4</ele>
        <time>2022-02-13T11:05:14Z</time>
      </trkpt>
      <trkpt lat="46.19769" lon="6.59956">
        <ele>1490.2</ele>
        <time>2022-02-13T11:05:15Z</time>
      </trkpt>
      <trkpt lat="46.19772" lon="6.59956">
        <ele>1489.2</ele>
        <time>2022-02-13T11:05:16Z</time>
      </trkpt>
      <trkpt lat="46.19774" lon="6.59956">
        <ele>1488</ele>
        <time>2022-02-13T11:05:17Z</time>
      </trkpt>
      <trkpt lat="46.19776" lon="6.59955">
        <ele>1486.8</ele>
        <time>2022-02-13T11:05:18Z</time>
      </trkpt>
      <trkpt lat="46.19776" lon="6.59951">
        <ele>1485.6</ele>
        <time>2022-02-13T11:05:20Z</time>
      </trkpt>
      <trkpt lat="46.19774" lon="6.59948">
        <ele>1484.6</ele>
        <time>2022-02-13T11:05:22Z</time>
      </trkpt>
      <trkpt lat="46.19773" lon="6.59947">
        <ele>1483.8</ele>
        <time>2022-02-13T11:05:24Z</time>
      </trkpt>
      <trkpt lat="46.19773" lon="6.59947">
        <ele>1483.6</ele>
        <time>2022-02-13T11:05:25Z</time>
      </trkpt>
      <trkpt lat="46.19772" lon="6.59946">
        <ele>1483.4</ele>
        <time>2022-02-13T11:05:35Z</time>
      </trkpt>
      <trkpt lat="46.19777" lon="6.59942">
        <ele>1482.2</ele>
        <time>2022-02-13T11:05:44Z</time>
      </trkpt>
      <trkpt lat="46.1978" lon="6.5994">
        <ele>1480.8</ele>
        <time>2022-02-13T11:05:46Z</time>
      </trkpt>
      <trkpt lat="46.1978" lon="6.59934">
        <ele>1479.2</ele>
        <time>2022-02-13T11:05:48Z</time>
      </trkpt>
      <trkpt lat="46.19779" lon="6.59931">
        <ele>1478.2</ele>
        <time>2022-02-13T11:05:49Z</time>
      </trkpt>
      <trkpt lat="46.19778" lon="6.5993">
        <ele>1476.8</ele>
        <time>2022-02-13T11:05:51Z</time>
      </trkpt>
      <trkpt lat="46.19778" lon="6.59929">
        <ele>1476.2</ele>
        <time>2022-02-13T11:05:52Z</time>
      </trkpt>
      <trkpt lat="46.19778" lon="6.59929">
        <ele>1475.8</ele>
        <time>2022-02-13T11:05:55Z</time>
      </trkpt>
      <trkpt lat="46.19782" lon="6.59924">
        <ele>1475.6</ele>
        <time>2022-02-13T11:06:00Z</time>
      </trkpt>
      <trkpt lat="46.19784" lon="6.59923">
        <ele>1475</ele>
        <time>2022-02-13T11:06:01Z</time>
      </trkpt>
      <trkpt lat="46.19786" lon="6.59924">
        <ele>1473.8</ele>
        <time>2022-02-13T11:06:02Z</time>
      </trkpt>
      <trkpt lat="46.19788" lon="6.59924">
        <ele>1472.4</ele>
        <time>2022-02-13T11:06:04Z</time>
      </trkpt>
      <trkpt lat="46.19788" lon="6.59925">
        <ele>1471.8</ele>
        <time>2022-02-13T11:06:05Z</time>
      </trkpt>
      <trkpt lat="46.19789" lon="6.59924">
        <ele>1471.2</ele>
        <time>2022-02-13T11:06:06Z</time>
      </trkpt>
      <trkpt lat="46.19787" lon="6.59916">
        <ele>1470</ele>
        <time>2022-02-13T11:06:09Z</time>
      </trkpt>
      <trkpt lat="46.19787" lon="6.59914">
        <ele>1469.6</ele>
        <time>2022-02-13T11:06:10Z</time>
      </trkpt>
      <trkpt lat="46.19787" lon="6.59913">
        <ele>1468.8</ele>
        <time>2022-02-13T11:06:12Z</time>
      </trkpt>
      <trkpt lat="46.19786" lon="6.59913">
        <ele>1468.4</ele>
        <time>2022-02-13T11:06:16Z</time>
      </trkpt>
      <trkpt lat="46.19785" lon="6.59914">
        <ele>1468.4</ele>
        <time>2022-02-13T11:06:23Z</time>
      </trkpt>
      <trkpt lat="46.19784" lon="6.59909">
        <ele>1468</ele>
        <time>2022-02-13T11:06:30Z</time>
      </trkpt>
      <trkpt lat="46.19783" lon="6.59908">
        <ele>1467.8</ele>
        <time>2022-02-13T11:06:31Z</time>
      </trkpt>
      <trkpt lat="46.1978" lon="6.59904">
        <ele>1467.2</ele>
        <time>2022-02-13T11:06:35Z</time>
      </trkpt>
      <trkpt lat="46.19779" lon="6.59901">
        <ele>1466.6</ele>
        <time>2022-02-13T11:06:37Z</time>
      </trkpt>
      <trkpt lat="46.19777" lon="6.59896">
        <ele>1465.8</ele>
        <time>2022-02-13T11:06:39Z</time>
      </trkpt>
      <trkpt lat="46.19776" lon="6.59894">
        <ele>1465</ele>
        <time>2022-02-13T11:06:40Z</time>
      </trkpt>
      <trkpt lat="46.19775" lon="6.5989">
        <ele>1464</ele>
        <time>2022-02-13T11:06:42Z</time>
      </trkpt>
      <trkpt lat="46.19774" lon="6.59889">
        <ele>1463.4</ele>
        <time>2022-02-13T11:06:44Z</time>
      </trkpt>
      <trkpt lat="46.19776" lon="6.59888">
        <ele>1462.2</ele>
        <time>2022-02-13T11:06:47Z</time>
      </trkpt>
      <trkpt lat="46.19778" lon="6.59886">
        <ele>1461</ele>
        <time>2022-02-13T11:06:50Z</time>
      </trkpt>
      <trkpt lat="46.19776" lon="6.59883">
        <ele>1459.6</ele>
        <time>2022-02-13T11:06:53Z</time>
      </trkpt>
      <trkpt lat="46.19774" lon="6.59879">
        <ele>1458.4</ele>
        <time>2022-02-13T11:06:56Z</time>
      </trkpt>
      <trkpt lat="46.19774" lon="6.59878">
        <ele>1458</ele>
        <time>2022-02-13T11:06:57Z</time>
      </trkpt>
      <trkpt lat="46.19773" lon="6.59876">
        <ele>1457.4</ele>
        <time>2022-02-13T11:06:59Z</time>
      </trkpt>
      <trkpt lat="46.19771" lon="6.59868">
        <ele>1456.2</ele>
        <time>2022-02-13T11:07:03Z</time>
      </trkpt>
      <trkpt lat="46.1977" lon="6.59865">
        <ele>1455.8</ele>
        <time>2022-02-13T11:07:04Z</time>
      </trkpt>
      <trkpt lat="46.19768" lon="6.59863">
        <ele>1455.2</ele>
        <time>2022-02-13T11:07:05Z</time>
      </trkpt>
      <trkpt lat="46.19763" lon="6.5985">
        <ele>1454</ele>
        <time>2022-02-13T11:07:08Z</time>
      </trkpt>
      <trkpt lat="46.19761" lon="6.59847">
        <ele>1453.8</ele>
        <time>2022-02-13T11:07:09Z</time>
      </trkpt>
      <trkpt lat="46.19758" lon="6.59843">
        <ele>1453.2</ele>
        <time>2022-02-13T11:07:12Z</time>
      </trkpt>
      <trkpt lat="46.19757" lon="6.59843">
        <ele>1453</ele>
        <time>2022-02-13T11:07:13Z</time>
      </trkpt>
      <trkpt lat="46.19756" lon="6.59843">
        <ele>1453</ele>
        <time>2022-02-13T11:07:14Z</time>
      </trkpt>
      <trkpt lat="46.19757" lon="6.59841">
        <ele>1453</ele>
        <time>2022-02-13T11:07:22Z</time>
      </trkpt>
      <trkpt lat="46.1976" lon="6.59837">
        <ele>1451.4</ele>
        <time>2022-02-13T11:07:27Z</time>
      </trkpt>
      <trkpt lat="46.19761" lon="6.59835">
        <ele>1450.2</ele>
        <time>2022-02-13T11:07:29Z</time>
      </trkpt>
      <trkpt lat="46.19761" lon="6.59833">
        <ele>1449.4</ele>
        <time>2022-02-13T11:07:31Z</time>
      </trkpt>
      <trkpt lat="46.1976" lon="6.59831">
        <ele>1449</ele>
        <time>2022-02-13T11:07:32Z</time>
      </trkpt>
      <trkpt lat="46.19758" lon="6.59826">
        <ele>1447.6</ele>
        <time>2022-02-13T11:07:35Z</time>
      </trkpt>
      <trkpt lat="46.19759" lon="6.59821">
        <ele>1446</ele>
        <time>2022-02-13T11:07:39Z</time>
      </trkpt>
      <trkpt lat="46.1976" lon="6.59818">
        <ele>1445.4</ele>
        <time>2022-02-13T11:07:40Z</time>
      </trkpt>
      <trkpt lat="46.1976" lon="6.59816">
        <ele>1444.8</ele>
        <time>2022-02-13T11:07:41Z</time>
      </trkpt>
      <trkpt lat="46.1976" lon="6.59811">
        <ele>1443.8</ele>
        <time>2022-02-13T11:07:43Z</time>
      </trkpt>
      <trkpt lat="46.19762" lon="6.59806">
        <ele>1442.2</ele>
        <time>2022-02-13T11:07:45Z</time>
      </trkpt>
      <trkpt lat="46.19763" lon="6.59804">
        <ele>1440.6</ele>
        <time>2022-02-13T11:07:47Z</time>
      </trkpt>
      <trkpt lat="46.19763" lon="6.59803">
        <ele>1440</ele>
        <time>2022-02-13T11:07:48Z</time>
      </trkpt>
      <trkpt lat="46.19764" lon="6.59803">
        <ele>1439.4</ele>
        <time>2022-02-13T11:07:50Z</time>
      </trkpt>
      <trkpt lat="46.19764" lon="6.598">
        <ele>1439</ele>
        <time>2022-02-13T11:08:00Z</time>
      </trkpt>
      <trkpt lat="46.19764" lon="6.598">
        <ele>1439</ele>
        <time>2022-02-13T11:08:02Z</time>
      </trkpt>
      <trkpt lat="46.19762" lon="6.598">
        <ele>1439</ele>
        <time>2022-02-13T11:08:08Z</time>
      </trkpt>
      <trkpt lat="46.19764" lon="6.59799">
        <ele>1439.2</ele>
        <time>2022-02-13T11:08:10Z</time>
      </trkpt>
      <trkpt lat="46.19768" lon="6.59799">
        <ele>1439</ele>
        <time>2022-02-13T11:08:14Z</time>
      </trkpt>
      <trkpt lat="46.19769" lon="6.59793">
        <ele>1438.6</ele>
        <time>2022-02-13T11:08:17Z</time>
      </trkpt>
      <trkpt lat="46.19768" lon="6.5979">
        <ele>1437.6</ele>
        <time>2022-02-13T11:08:18Z</time>
      </trkpt>
      <trkpt lat="46.19767" lon="6.59787">
        <ele>1436.6</ele>
        <time>2022-02-13T11:08:20Z</time>
      </trkpt>
      <trkpt lat="46.19769" lon="6.59781">
        <ele>1435.8</ele>
        <time>2022-02-13T11:08:23Z</time>
      </trkpt>
      <trkpt lat="46.1977" lon="6.59781">
        <ele>1435.2</ele>
        <time>2022-02-13T11:08:24Z</time>
      </trkpt>
      <trkpt lat="46.19772" lon="6.59782">
        <ele>1434.6</ele>
        <time>2022-02-13T11:08:26Z</time>
      </trkpt>
      <trkpt lat="46.19772" lon="6.59782">
        <ele>1434.2</ele>
        <time>2022-02-13T11:08:27Z</time>
      </trkpt>
      <trkpt lat="46.19773" lon="6.59782">
        <ele>1434</ele>
        <time>2022-02-13T11:08:28Z</time>
      </trkpt>
      <trkpt lat="46.19773" lon="6.59782">
        <ele>1433.6</ele>
        <time>2022-02-13T11:08:30Z</time>
      </trkpt>
      <trkpt lat="46.19774" lon="6.5978">
        <ele>1433.2</ele>
        <time>2022-02-13T11:08:32Z</time>
      </trkpt>
      <trkpt lat="46.19773" lon="6.59773">
        <ele>1432.6</ele>
        <time>2022-02-13T11:08:34Z</time>
      </trkpt>
      <trkpt lat="46.19772" lon="6.5977">
        <ele>1432.2</ele>
        <time>2022-02-13T11:08:35Z</time>
      </trkpt>
      <trkpt lat="46.19772" lon="6.59767">
        <ele>1431.8</ele>
        <time>2022-02-13T11:08:36Z</time>
      </trkpt>
      <trkpt lat="46.19773" lon="6.59763">
        <ele>1430.6</ele>
        <time>2022-02-13T11:08:38Z</time>
      </trkpt>
      <trkpt lat="46.19776" lon="6.59759">
        <ele>1429.6</ele>
        <time>2022-02-13T11:08:40Z</time>
      </trkpt>
      <trkpt lat="46.19777" lon="6.59753">
        <ele>1428.4</ele>
        <time>2022-02-13T11:08:42Z</time>
      </trkpt>
      <trkpt lat="46.19776" lon="6.59749">
        <ele>1427.6</ele>
        <time>2022-02-13T11:08:43Z</time>
      </trkpt>
      <trkpt lat="46.19776" lon="6.59745">
        <ele>1426.6</ele>
        <time>2022-02-13T11:08:44Z</time>
      </trkpt>
      <trkpt lat="46.19776" lon="6.59741">
        <ele>1425.6</ele>
        <time>2022-02-13T11:08:46Z</time>
      </trkpt>
      <trkpt lat="46.19776" lon="6.5974">
        <ele>1425</ele>
        <time>2022-02-13T11:08:47Z</time>
      </trkpt>
      <trkpt lat="46.19776" lon="6.5974">
        <ele>1424.6</ele>
        <time>2022-02-13T11:08:48Z</time>
      </trkpt>
      <trkpt lat="46.19776" lon="6.5974">
        <ele>1424.2</ele>
        <time>2022-02-13T11:08:49Z</time>
      </trkpt>
      <trkpt lat="46.19775" lon="6.5974">
        <ele>1424</ele>
        <time>2022-02-13T11:08:50Z</time>
      </trkpt>
      <trkpt lat="46.19776" lon="6.5974">
        <ele>1423.8</ele>
        <time>2022-02-13T11:08:54Z</time>
      </trkpt>
      <trkpt lat="46.19776" lon="6.5974">
        <ele>1423.4</ele>
        <time>2022-02-13T11:08:58Z</time>
      </trkpt>
      <trkpt lat="46.19777" lon="6.5974">
        <ele>1423.4</ele>
        <time>2022-02-13T11:09:02Z</time>
      </trkpt>
      <trkpt lat="46.19777" lon="6.59738">
        <ele>1423.6</ele>
        <time>2022-02-13T11:09:10Z</time>
      </trkpt>
      <trkpt lat="46.19779" lon="6.59735">
        <ele>1423.4</ele>
        <time>2022-02-13T11:09:18Z</time>
      </trkpt>
      <trkpt lat="46.1978" lon="6.59726">
        <ele>1423.2</ele>
        <time>2022-02-13T11:09:25Z</time>
      </trkpt>
      <trkpt lat="46.19781" lon="6.59723">
        <ele>1422.4</ele>
        <time>2022-02-13T11:09:27Z</time>
      </trkpt>
      <trkpt lat="46.19781" lon="6.59722">
        <ele>1422</ele>
        <time>2022-02-13T11:09:28Z</time>
      </trkpt>
      <trkpt lat="46.19781" lon="6.59721">
        <ele>1421.4</ele>
        <time>2022-02-13T11:09:29Z</time>
      </trkpt>
      <trkpt lat="46.19786" lon="6.59716">
        <ele>1420.4</ele>
        <time>2022-02-13T11:09:34Z</time>
      </trkpt>
      <trkpt lat="46.19788" lon="6.59714">
        <ele>1419.8</ele>
        <time>2022-02-13T11:09:35Z</time>
      </trkpt>
      <trkpt lat="46.1979" lon="6.59712">
        <ele>1419.2</ele>
        <time>2022-02-13T11:09:36Z</time>
      </trkpt>
      <trkpt lat="46.19796" lon="6.59705">
        <ele>1418</ele>
        <time>2022-02-13T11:09:39Z</time>
      </trkpt>
      <trkpt lat="46.19797" lon="6.59702">
        <ele>1417.6</ele>
        <time>2022-02-13T11:09:40Z</time>
      </trkpt>
      <trkpt lat="46.19797" lon="6.59701">
        <ele>1416.8</ele>
        <time>2022-02-13T11:09:41Z</time>
      </trkpt>
      <trkpt lat="46.19797" lon="6.59701">
        <ele>1416</ele>
        <time>2022-02-13T11:09:44Z</time>
      </trkpt>
      <trkpt lat="46.19797" lon="6.59703">
        <ele>1415.8</ele>
        <time>2022-02-13T11:09:48Z</time>
      </trkpt>
      <trkpt lat="46.19795" lon="6.59705">
        <ele>1415.6</ele>
        <time>2022-02-13T11:09:52Z</time>
      </trkpt>
      <trkpt lat="46.19795" lon="6.59706">
        <ele>1415.6</ele>
        <time>2022-02-13T11:09:53Z</time>
      </trkpt>
      <trkpt lat="46.19794" lon="6.59705">
        <ele>1415.6</ele>
        <time>2022-02-13T11:09:56Z</time>
      </trkpt>
      <trkpt lat="46.19793" lon="6.59703">
        <ele>1415.6</ele>
        <time>2022-02-13T11:10:02Z</time>
      </trkpt>
      <trkpt lat="46.19793" lon="6.59699">
        <ele>1415.8</ele>
        <time>2022-02-13T11:10:11Z</time>
      </trkpt>
      <trkpt lat="46.19793" lon="6.59698">
        <ele>1415.6</ele>
        <time>2022-02-13T11:10:16Z</time>
      </trkpt>
      <trkpt lat="46.19795" lon="6.59695">
        <ele>1415.2</ele>
        <time>2022-02-13T11:10:20Z</time>
      </trkpt>
      <trkpt lat="46.19798" lon="6.59693">
        <ele>1415</ele>
        <time>2022-02-13T11:10:22Z</time>
      </trkpt>
      <trkpt lat="46.198" lon="6.59689">
        <ele>1414.6</ele>
        <time>2022-02-13T11:10:24Z</time>
      </trkpt>
      <trkpt lat="46.19809" lon="6.59682">
        <ele>1413.4</ele>
        <time>2022-02-13T11:10:28Z</time>
      </trkpt>
      <trkpt lat="46.1981" lon="6.5968">
        <ele>1412.8</ele>
        <time>2022-02-13T11:10:30Z</time>
      </trkpt>
      <trkpt lat="46.19809" lon="6.5968">
        <ele>1412.6</ele>
        <time>2022-02-13T11:10:31Z</time>
      </trkpt>
      <trkpt lat="46.19809" lon="6.59679">
        <ele>1412.6</ele>
        <time>2022-02-13T11:10:32Z</time>
      </trkpt>
      <trkpt lat="46.19808" lon="6.59679">
        <ele>1412.2</ele>
        <time>2022-02-13T11:10:34Z</time>
      </trkpt>
      <trkpt lat="46.19806" lon="6.5968">
        <ele>1411.6</ele>
        <time>2022-02-13T11:10:41Z</time>
      </trkpt>
      <trkpt lat="46.19807" lon="6.59679">
        <ele>1411.6</ele>
        <time>2022-02-13T11:10:42Z</time>
      </trkpt>
      <trkpt lat="46.19809" lon="6.59677">
        <ele>1411.2</ele>
        <time>2022-02-13T11:10:45Z</time>
      </trkpt>
      <trkpt lat="46.1981" lon="6.59674">
        <ele>1410.8</ele>
        <time>2022-02-13T11:10:47Z</time>
      </trkpt>
      <trkpt lat="46.19812" lon="6.5967">
        <ele>1410</ele>
        <time>2022-02-13T11:10:49Z</time>
      </trkpt>
      <trkpt lat="46.19816" lon="6.59667">
        <ele>1409</ele>
        <time>2022-02-13T11:10:51Z</time>
      </trkpt>
      <trkpt lat="46.19818" lon="6.59666">
        <ele>1408.4</ele>
        <time>2022-02-13T11:10:52Z</time>
      </trkpt>
      <trkpt lat="46.19819" lon="6.59665">
        <ele>1407.4</ele>
        <time>2022-02-13T11:10:53Z</time>
      </trkpt>
      <trkpt lat="46.19825" lon="6.5966">
        <ele>1406</ele>
        <time>2022-02-13T11:10:56Z</time>
      </trkpt>
      <trkpt lat="46.19825" lon="6.59658">
        <ele>1405.6</ele>
        <time>2022-02-13T11:10:57Z</time>
      </trkpt>
      <trkpt lat="46.19825" lon="6.59658">
        <ele>1404.8</ele>
        <time>2022-02-13T11:10:59Z</time>
      </trkpt>
      <trkpt lat="46.19822" lon="6.59655">
        <ele>1404.4</ele>
        <time>2022-02-13T11:11:03Z</time>
      </trkpt>
      <trkpt lat="46.1982" lon="6.59649">
        <ele>1404.4</ele>
        <time>2022-02-13T11:11:14Z</time>
      </trkpt>
      <trkpt lat="46.19822" lon="6.59641">
        <ele>1403.2</ele>
        <time>2022-02-13T11:11:18Z</time>
      </trkpt>
      <trkpt lat="46.19821" lon="6.59635">
        <ele>1402</ele>
        <time>2022-02-13T11:11:21Z</time>
      </trkpt>
      <trkpt lat="46.19821" lon="6.59633">
        <ele>1401</ele>
        <time>2022-02-13T11:11:22Z</time>
      </trkpt>
      <trkpt lat="46.19822" lon="6.59631">
        <ele>1399.8</ele>
        <time>2022-02-13T11:11:24Z</time>
      </trkpt>
      <trkpt lat="46.19823" lon="6.5963">
        <ele>1399.4</ele>
        <time>2022-02-13T11:11:28Z</time>
      </trkpt>
      <trkpt lat="46.1982" lon="6.59624">
        <ele>1399</ele>
        <time>2022-02-13T11:11:32Z</time>
      </trkpt>
      <trkpt lat="46.1982" lon="6.59624">
        <ele>1399</ele>
        <time>2022-02-13T11:11:34Z</time>
      </trkpt>
      <trkpt lat="46.19818" lon="6.59619">
        <ele>1398.6</ele>
        <time>2022-02-13T11:11:39Z</time>
      </trkpt>
      <trkpt lat="46.1982" lon="6.59613">
        <ele>1397.4</ele>
        <time>2022-02-13T11:11:41Z</time>
      </trkpt>
      <trkpt lat="46.19821" lon="6.5961">
        <ele>1396.6</ele>
        <time>2022-02-13T11:11:42Z</time>
      </trkpt>
      <trkpt lat="46.19822" lon="6.59608">
        <ele>1396</ele>
        <time>2022-02-13T11:11:43Z</time>
      </trkpt>
      <trkpt lat="46.19823" lon="6.59604">
        <ele>1394.8</ele>
        <time>2022-02-13T11:11:45Z</time>
      </trkpt>
      <trkpt lat="46.19825" lon="6.59599">
        <ele>1394</ele>
        <time>2022-02-13T11:11:47Z</time>
      </trkpt>
      <trkpt lat="46.19826" lon="6.59597">
        <ele>1393.6</ele>
        <time>2022-02-13T11:11:48Z</time>
      </trkpt>
      <trkpt lat="46.19826" lon="6.59597">
        <ele>1393.2</ele>
        <time>2022-02-13T11:11:50Z</time>
      </trkpt>
      <trkpt lat="46.19826" lon="6.59596">
        <ele>1393</ele>
        <time>2022-02-13T11:11:51Z</time>
      </trkpt>
      <trkpt lat="46.19825" lon="6.59593">
        <ele>1392.2</ele>
        <time>2022-02-13T11:11:54Z</time>
      </trkpt>
      <trkpt lat="46.19822" lon="6.59586">
        <ele>1391.2</ele>
        <time>2022-02-13T11:11:59Z</time>
      </trkpt>
      <trkpt lat="46.19821" lon="6.59586">
        <ele>1391</ele>
        <time>2022-02-13T11:12:00Z</time>
      </trkpt>
      <trkpt lat="46.19821" lon="6.59586">
        <ele>1389.8</ele>
        <time>2022-02-13T11:12:02Z</time>
      </trkpt>
      <trkpt lat="46.19819" lon="6.59581">
        <ele>1389.2</ele>
        <time>2022-02-13T11:12:07Z</time>
      </trkpt>
      <trkpt lat="46.19819" lon="6.59578">
        <ele>1388.8</ele>
        <time>2022-02-13T11:12:08Z</time>
      </trkpt>
      <trkpt lat="46.19819" lon="6.59577">
        <ele>1388.6</ele>
        <time>2022-02-13T11:12:09Z</time>
      </trkpt>
      <trkpt lat="46.19819" lon="6.59576">
        <ele>1387.6</ele>
        <time>2022-02-13T11:12:11Z</time>
      </trkpt>
      <trkpt lat="46.19819" lon="6.59576">
        <ele>1387.4</ele>
        <time>2022-02-13T11:12:12Z</time>
      </trkpt>
      <trkpt lat="46.19815" lon="6.59576">
        <ele>1386.8</ele>
        <time>2022-02-13T11:12:19Z</time>
      </trkpt>
      <trkpt lat="46.19814" lon="6.5957">
        <ele>1386.4</ele>
        <time>2022-02-13T11:12:21Z</time>
      </trkpt>
      <trkpt lat="46.19815" lon="6.59568">
        <ele>1385.8</ele>
        <time>2022-02-13T11:12:22Z</time>
      </trkpt>
      <trkpt lat="46.19815" lon="6.59566">
        <ele>1385</ele>
        <time>2022-02-13T11:12:23Z</time>
      </trkpt>
      <trkpt lat="46.19815" lon="6.59557">
        <ele>1383.8</ele>
        <time>2022-02-13T11:12:26Z</time>
      </trkpt>
      <trkpt lat="46.19816" lon="6.59552">
        <ele>1383</ele>
        <time>2022-02-13T11:12:28Z</time>
      </trkpt>
      <trkpt lat="46.19816" lon="6.59548">
        <ele>1382.4</ele>
        <time>2022-02-13T11:12:29Z</time>
      </trkpt>
      <trkpt lat="46.19815" lon="6.59544">
        <ele>1382</ele>
        <time>2022-02-13T11:12:30Z</time>
      </trkpt>
      <trkpt lat="46.19813" lon="6.59534">
        <ele>1380.2</ele>
        <time>2022-02-13T11:12:32Z</time>
      </trkpt>
      <trkpt lat="46.19813" lon="6.59532">
        <ele>1379</ele>
        <time>2022-02-13T11:12:33Z</time>
      </trkpt>
      <trkpt lat="46.19813" lon="6.5953">
        <ele>1378</ele>
        <time>2022-02-13T11:12:34Z</time>
      </trkpt>
      <trkpt lat="46.19813" lon="6.5953">
        <ele>1377.4</ele>
        <time>2022-02-13T11:12:35Z</time>
      </trkpt>
      <trkpt lat="46.19813" lon="6.59529">
        <ele>1377</ele>
        <time>2022-02-13T11:12:36Z</time>
      </trkpt>
      <trkpt lat="46.19814" lon="6.59528">
        <ele>1376.4</ele>
        <time>2022-02-13T11:12:41Z</time>
      </trkpt>
      <trkpt lat="46.19814" lon="6.59529">
        <ele>1376.2</ele>
        <time>2022-02-13T11:12:45Z</time>
      </trkpt>
      <trkpt lat="46.19812" lon="6.59532">
        <ele>1376.4</ele>
        <time>2022-02-13T11:12:53Z</time>
      </trkpt>
      <trkpt lat="46.19814" lon="6.59534">
        <ele>1376.6</ele>
        <time>2022-02-13T11:13:01Z</time>
      </trkpt>
      <trkpt lat="46.19814" lon="6.59533">
        <ele>1376.6</ele>
        <time>2022-02-13T11:13:02Z</time>
      </trkpt>
      <trkpt lat="46.19815" lon="6.59531">
        <ele>1376.2</ele>
        <time>2022-02-13T11:13:10Z</time>
      </trkpt>
      <trkpt lat="46.19815" lon="6.59531">
        <ele>1376.4</ele>
        <time>2022-02-13T11:13:13Z</time>
      </trkpt>
      <trkpt lat="46.19818" lon="6.59527">
        <ele>1376.8</ele>
        <time>2022-02-13T11:13:21Z</time>
      </trkpt>
      <trkpt lat="46.19819" lon="6.59519">
        <ele>1375.2</ele>
        <time>2022-02-13T11:13:25Z</time>
      </trkpt>
      <trkpt lat="46.19819" lon="6.59518">
        <ele>1375</ele>
        <time>2022-02-13T11:13:26Z</time>
      </trkpt>
      <trkpt lat="46.19824" lon="6.59516">
        <ele>1374.2</ele>
        <time>2022-02-13T11:13:31Z</time>
      </trkpt>
      <trkpt lat="46.19827" lon="6.59515">
        <ele>1373.8</ele>
        <time>2022-02-13T11:13:34Z</time>
      </trkpt>
      <trkpt lat="46.19832" lon="6.59513">
        <ele>1372.8</ele>
        <time>2022-02-13T11:13:39Z</time>
      </trkpt>
      <trkpt lat="46.19832" lon="6.59509">
        <ele>1372</ele>
        <time>2022-02-13T11:13:41Z</time>
      </trkpt>
      <trkpt lat="46.19832" lon="6.59508">
        <ele>1371.8</ele>
        <time>2022-02-13T11:13:43Z</time>
      </trkpt>
      <trkpt lat="46.19833" lon="6.59509">
        <ele>1371.8</ele>
        <time>2022-02-13T11:13:45Z</time>
      </trkpt>
      <trkpt lat="46.19836" lon="6.59509">
        <ele>1371.4</ele>
        <time>2022-02-13T11:13:47Z</time>
      </trkpt>
      <trkpt lat="46.19837" lon="6.59509">
        <ele>1371</ele>
        <time>2022-02-13T11:13:48Z</time>
      </trkpt>
      <trkpt lat="46.19838" lon="6.59509">
        <ele>1370.8</ele>
        <time>2022-02-13T11:13:49Z</time>
      </trkpt>
      <trkpt lat="46.19839" lon="6.59509">
        <ele>1370.4</ele>
        <time>2022-02-13T11:13:50Z</time>
      </trkpt>
      <trkpt lat="46.1984" lon="6.59509">
        <ele>1370</ele>
        <time>2022-02-13T11:13:52Z</time>
      </trkpt>
      <trkpt lat="46.1984" lon="6.59509">
        <ele>1369.8</ele>
        <time>2022-02-13T11:13:53Z</time>
      </trkpt>
      <trkpt lat="46.1984" lon="6.59509">
        <ele>1369.8</ele>
        <time>2022-02-13T11:13:55Z</time>
      </trkpt>
      <trkpt lat="46.19841" lon="6.59509">
        <ele>1369.8</ele>
        <time>2022-02-13T11:13:56Z</time>
      </trkpt>
      <trkpt lat="46.19841" lon="6.59509">
        <ele>1369.8</ele>
        <time>2022-02-13T11:13:59Z</time>
      </trkpt>
      <trkpt lat="46.19843" lon="6.59499">
        <ele>1368.6</ele>
        <time>2022-02-13T11:14:04Z</time>
      </trkpt>
      <trkpt lat="46.19844" lon="6.59496">
        <ele>1367.8</ele>
        <time>2022-02-13T11:14:06Z</time>
      </trkpt>
      <trkpt lat="46.19844" lon="6.59495">
        <ele>1367.4</ele>
        <time>2022-02-13T11:14:07Z</time>
      </trkpt>
      <trkpt lat="46.19846" lon="6.59493">
        <ele>1367</ele>
        <time>2022-02-13T11:14:12Z</time>
      </trkpt>
      <trkpt lat="46.19846" lon="6.59492">
        <ele>1367</ele>
        <time>2022-02-13T11:14:14Z</time>
      </trkpt>
      <trkpt lat="46.19847" lon="6.59488">
        <ele>1366.8</ele>
        <time>2022-02-13T11:14:19Z</time>
      </trkpt>
      <trkpt lat="46.19847" lon="6.59487">
        <ele>1366.8</ele>
        <time>2022-02-13T11:14:20Z</time>
      </trkpt>
      <trkpt lat="46.19846" lon="6.59481">
        <ele>1366.4</ele>
        <time>2022-02-13T11:14:24Z</time>
      </trkpt>
      <trkpt lat="46.19845" lon="6.59478">
        <ele>1366.4</ele>
        <time>2022-02-13T11:14:26Z</time>
      </trkpt>
      <trkpt lat="46.19845" lon="6.59472">
        <ele>1366.4</ele>
        <time>2022-02-13T11:14:28Z</time>
      </trkpt>
      <trkpt lat="46.19845" lon="6.59466">
        <ele>1366.4</ele>
        <time>2022-02-13T11:14:30Z</time>
      </trkpt>
      <trkpt lat="46.19845" lon="6.5946">
        <ele>1366.4</ele>
        <time>2022-02-13T11:14:32Z</time>
      </trkpt>
      <trkpt lat="46.19848" lon="6.59454">
        <ele>1366.8</ele>
        <time>2022-02-13T11:14:35Z</time>
      </trkpt>
      <trkpt lat="46.1985" lon="6.59447">
        <ele>1366.8</ele>
        <time>2022-02-13T11:14:38Z</time>
      </trkpt>
      <trkpt lat="46.19856" lon="6.59438">
        <ele>1366.2</ele>
        <time>2022-02-13T11:14:41Z</time>
      </trkpt>
      <trkpt lat="46.19862" lon="6.59428">
        <ele>1365.6</ele>
        <time>2022-02-13T11:14:44Z</time>
      </trkpt>
      <trkpt lat="46.19868" lon="6.59414">
        <ele>1365.4</ele>
        <time>2022-02-13T11:14:48Z</time>
      </trkpt>
      <trkpt lat="46.19869" lon="6.59411">
        <ele>1365.4</ele>
        <time>2022-02-13T11:14:49Z</time>
      </trkpt>
      <trkpt lat="46.1987" lon="6.59406">
        <ele>1365</ele>
        <time>2022-02-13T11:14:51Z</time>
      </trkpt>
      <trkpt lat="46.19876" lon="6.5939">
        <ele>1364.2</ele>
        <time>2022-02-13T11:14:57Z</time>
      </trkpt>
      <trkpt lat="46.19876" lon="6.59388">
        <ele>1363.8</ele>
        <time>2022-02-13T11:14:58Z</time>
      </trkpt>
      <trkpt lat="46.19875" lon="6.59382">
        <ele>1364</ele>
        <time>2022-02-13T11:15:06Z</time>
      </trkpt>
      <trkpt lat="46.19874" lon="6.59374">
        <ele>1364.6</ele>
        <time>2022-02-13T11:15:16Z</time>
      </trkpt>
      <trkpt lat="46.19875" lon="6.59372">
        <ele>1365</ele>
        <time>2022-02-13T11:15:19Z</time>
      </trkpt>
      <trkpt lat="46.19875" lon="6.5937">
        <ele>1365.2</ele>
        <time>2022-02-13T11:15:21Z</time>
      </trkpt>
      <trkpt lat="46.19878" lon="6.59365">
        <ele>1365.8</ele>
        <time>2022-02-13T11:15:28Z</time>
      </trkpt>
      <trkpt lat="46.19879" lon="6.59363">
        <ele>1366</ele>
        <time>2022-02-13T11:15:31Z</time>
      </trkpt>
      <trkpt lat="46.1988" lon="6.59363">
        <ele>1366.2</ele>
        <time>2022-02-13T11:15:32Z</time>
      </trkpt>
      <trkpt lat="46.19881" lon="6.59362">
        <ele>1366.8</ele>
        <time>2022-02-13T11:15:35Z</time>
      </trkpt>
      <trkpt lat="46.19881" lon="6.5936">
        <ele>1367.4</ele>
        <time>2022-02-13T11:15:39Z</time>
      </trkpt>
      <trkpt lat="46.19882" lon="6.59359">
        <ele>1367.6</ele>
        <time>2022-02-13T11:15:40Z</time>
      </trkpt>
      <trkpt lat="46.19883" lon="6.59359">
        <ele>1367.8</ele>
        <time>2022-02-13T11:15:44Z</time>
      </trkpt>
      <trkpt lat="46.19883" lon="6.5936">
        <ele>1368</ele>
        <time>2022-02-13T11:15:45Z</time>
      </trkpt>
      <trkpt lat="46.19886" lon="6.59358">
        <ele>1368.4</ele>
        <time>2022-02-13T11:15:49Z</time>
      </trkpt>
      <trkpt lat="46.19888" lon="6.59357">
        <ele>1368.8</ele>
        <time>2022-02-13T11:15:52Z</time>
      </trkpt>
      <trkpt lat="46.19888" lon="6.59359">
        <ele>1369</ele>
        <time>2022-02-13T11:15:54Z</time>
      </trkpt>
      <trkpt lat="46.1989" lon="6.59359">
        <ele>1369.4</ele>
        <time>2022-02-13T11:15:58Z</time>
      </trkpt>
      <trkpt lat="46.1989" lon="6.59359">
        <ele>1369.6</ele>
        <time>2022-02-13T11:15:59Z</time>
      </trkpt>
      <trkpt lat="46.1989" lon="6.59354">
        <ele>1369.6</ele>
        <time>2022-02-13T11:16:09Z</time>
      </trkpt>
      <trkpt lat="46.1989" lon="6.59354">
        <ele>1369.6</ele>
        <time>2022-02-13T11:16:10Z</time>
      </trkpt>
      <trkpt lat="46.1989" lon="6.59355">
        <ele>1369.4</ele>
        <time>2022-02-13T11:16:12Z</time>
      </trkpt>
      <trkpt lat="46.19892" lon="6.59359">
        <ele>1369.8</ele>
        <time>2022-02-13T11:16:19Z</time>
      </trkpt>
      <trkpt lat="46.19892" lon="6.59361">
        <ele>1369.6</ele>
        <time>2022-02-13T11:16:21Z</time>
      </trkpt>
      <trkpt lat="46.19887" lon="6.59365">
        <ele>1368.6</ele>
        <time>2022-02-13T11:16:25Z</time>
      </trkpt>
      <trkpt lat="46.19886" lon="6.59366">
        <ele>1368.2</ele>
        <time>2022-02-13T11:16:26Z</time>
      </trkpt>
      <trkpt lat="46.19884" lon="6.59367">
        <ele>1367.2</ele>
        <time>2022-02-13T11:16:30Z</time>
      </trkpt>
      <trkpt lat="46.19883" lon="6.59367">
        <ele>1367</ele>
        <time>2022-02-13T11:16:35Z</time>
      </trkpt>
      <trkpt lat="46.19883" lon="6.59367">
        <ele>1367</ele>
        <time>2022-02-13T11:16:36Z</time>
      </trkpt>
      <trkpt lat="46.19881" lon="6.59365">
        <ele>1367</ele>
        <time>2022-02-13T11:16:40Z</time>
      </trkpt>
      <trkpt lat="46.19881" lon="6.59365">
        <ele>1367</ele>
        <time>2022-02-13T11:16:41Z</time>
      </trkpt>
      <trkpt lat="46.19881" lon="6.59365">
        <ele>1366.4</ele>
        <time>2022-02-13T11:16:47Z</time>
      </trkpt>
      <trkpt lat="46.1988" lon="6.59366">
        <ele>1366.6</ele>
        <time>2022-02-13T11:16:52Z</time>
      </trkpt>
      <trkpt lat="46.1988" lon="6.59367">
        <ele>1366.8</ele>
        <time>2022-02-13T11:16:53Z</time>
      </trkpt>
      <trkpt lat="46.19878" lon="6.59365">
        <ele>1366</ele>
        <time>2022-02-13T11:17:06Z</time>
      </trkpt>
      <trkpt lat="46.19878" lon="6.59366">
        <ele>1365.6</ele>
        <time>2022-02-13T11:17:09Z</time>
      </trkpt>
      <trkpt lat="46.19876" lon="6.59365">
        <ele>1365.8</ele>
        <time>2022-02-13T11:17:11Z</time>
      </trkpt>
      <trkpt lat="46.19873" lon="6.59358">
        <ele>1365.8</ele>
        <time>2022-02-13T11:17:18Z</time>
      </trkpt>
      <trkpt lat="46.19873" lon="6.59357">
        <ele>1365.4</ele>
        <time>2022-02-13T11:17:23Z</time>
      </trkpt>
      <trkpt lat="46.19876" lon="6.59361">
        <ele>1366</ele>
        <time>2022-02-13T11:17:36Z</time>
      </trkpt>
      <trkpt lat="46.19876" lon="6.59365">
        <ele>1366.2</ele>
        <time>2022-02-13T11:17:38Z</time>
      </trkpt>
      <trkpt lat="46.19878" lon="6.59366">
        <ele>1365.8</ele>
        <time>2022-02-13T11:17:53Z</time>
      </trkpt>
      <trkpt lat="46.19878" lon="6.59366">
        <ele>1365.8</ele>
        <time>2022-02-13T11:17:54Z</time>
      </trkpt>
      <trkpt lat="46.19875" lon="6.59369">
        <ele>1365.6</ele>
        <time>2022-02-13T11:18:01Z</time>
      </trkpt>
      <trkpt lat="46.19874" lon="6.59368">
        <ele>1365.4</ele>
        <time>2022-02-13T11:18:03Z</time>
      </trkpt>
      <trkpt lat="46.19874" lon="6.59365">
        <ele>1365.2</ele>
        <time>2022-02-13T11:18:06Z</time>
      </trkpt>
      <trkpt lat="46.1987" lon="6.59358">
        <ele>1365</ele>
        <time>2022-02-13T11:18:17Z</time>
      </trkpt>
      <trkpt lat="46.1987" lon="6.59357">
        <ele>1364.8</ele>
        <time>2022-02-13T11:18:21Z</time>
      </trkpt>
      <trkpt lat="46.19869" lon="6.59356">
        <ele>1364.8</ele>
        <time>2022-02-13T11:18:24Z</time>
      </trkpt>
      <trkpt lat="46.1987" lon="6.59356">
        <ele>1364.6</ele>
        <time>2022-02-13T11:18:32Z</time>
      </trkpt>
      <trkpt lat="46.19866" lon="6.59355">
        <ele>1364.8</ele>
        <time>2022-02-13T11:18:43Z</time>
      </trkpt>
      <trkpt lat="46.19866" lon="6.59356">
        <ele>1364.8</ele>
        <time>2022-02-13T11:18:44Z</time>
      </trkpt>
      <trkpt lat="46.19869" lon="6.59356">
        <ele>1365.6</ele>
        <time>2022-02-13T11:18:58Z</time>
      </trkpt>
      <trkpt lat="46.19869" lon="6.59354">
        <ele>1365.6</ele>
        <time>2022-02-13T11:19:01Z</time>
      </trkpt>
      <trkpt lat="46.1987" lon="6.59353">
        <ele>1366</ele>
        <time>2022-02-13T11:19:04Z</time>
      </trkpt>
      <trkpt lat="46.1987" lon="6.59352">
        <ele>1366.2</ele>
        <time>2022-02-13T11:19:05Z</time>
      </trkpt>
      <trkpt lat="46.1987" lon="6.59354">
        <ele>1366.2</ele>
        <time>2022-02-13T11:19:08Z</time>
      </trkpt>
      <trkpt lat="46.19873" lon="6.59359">
        <ele>1365.6</ele>
        <time>2022-02-13T11:19:14Z</time>
      </trkpt>
      <trkpt lat="46.19877" lon="6.5936">
        <ele>1365.6</ele>
        <time>2022-02-13T11:19:24Z</time>
      </trkpt>
      <trkpt lat="46.19878" lon="6.59361">
        <ele>1365.6</ele>
        <time>2022-02-13T11:19:31Z</time>
      </trkpt>
      <trkpt lat="46.19879" lon="6.59363">
        <ele>1365.6</ele>
        <time>2022-02-13T11:19:48Z</time>
      </trkpt>
      <trkpt lat="46.19878" lon="6.59366">
        <ele>1365.6</ele>
        <time>2022-02-13T11:19:52Z</time>
      </trkpt>
      <trkpt lat="46.19879" lon="6.59366">
        <ele>1365.6</ele>
        <time>2022-02-13T11:20:00Z</time>
      </trkpt>
      <trkpt lat="46.19877" lon="6.59361">
        <ele>1365.6</ele>
        <time>2022-02-13T11:20:06Z</time>
      </trkpt>
      <trkpt lat="46.19876" lon="6.59362">
        <ele>1365.6</ele>
        <time>2022-02-13T11:20:11Z</time>
      </trkpt>
      <trkpt lat="46.1988" lon="6.59367">
        <ele>1365.6</ele>
        <time>2022-02-13T11:20:21Z</time>
      </trkpt>
      <trkpt lat="46.19878" lon="6.59371">
        <ele>1365.6</ele>
        <time>2022-02-13T11:20:28Z</time>
      </trkpt>
      <trkpt lat="46.19878" lon="6.59372">
        <ele>1365.6</ele>
        <time>2022-02-13T11:20:30Z</time>
      </trkpt>
      <trkpt lat="46.19877" lon="6.59373">
        <ele>1365.6</ele>
        <time>2022-02-13T11:20:33Z</time>
      </trkpt>
      <trkpt lat="46.19875" lon="6.59375">
        <ele>1365.6</ele>
        <time>2022-02-13T11:20:36Z</time>
      </trkpt>
      <trkpt lat="46.19874" lon="6.59375">
        <ele>1365.6</ele>
        <time>2022-02-13T11:20:39Z</time>
      </trkpt>
      <trkpt lat="46.19874" lon="6.59376">
        <ele>1365.6</ele>
        <time>2022-02-13T11:20:41Z</time>
      </trkpt>
      <trkpt lat="46.19875" lon="6.59377">
        <ele>1365.6</ele>
        <time>2022-02-13T11:20:45Z</time>
      </trkpt>
      <trkpt lat="46.19875" lon="6.59379">
        <ele>1365.6</ele>
        <time>2022-02-13T11:20:48Z</time>
      </trkpt>
      <trkpt lat="46.19875" lon="6.5938">
        <ele>1365.6</ele>
        <time>2022-02-13T11:20:49Z</time>
      </trkpt>
      <trkpt lat="46.19875" lon="6.59381">
        <ele>1365.6</ele>
        <time>2022-02-13T11:20:51Z</time>
      </trkpt>
      <trkpt lat="46.19873" lon="6.5938">
        <ele>1365.6</ele>
        <time>2022-02-13T11:20:54Z</time>
      </trkpt>
      <trkpt lat="46.19872" lon="6.59381">
        <ele>1365.6</ele>
        <time>2022-02-13T11:21:04Z</time>
      </trkpt>
      <trkpt lat="46.19873" lon="6.59377">
        <ele>1365.6</ele>
        <time>2022-02-13T11:21:15Z</time>
      </trkpt>
      <trkpt lat="46.19873" lon="6.59379">
        <ele>1365.6</ele>
        <time>2022-02-13T11:21:18Z</time>
      </trkpt>
      <trkpt lat="46.19873" lon="6.59379">
        <ele>1365.6</ele>
        <time>2022-02-13T11:21:22Z</time>
      </trkpt>
      <trkpt lat="46.19873" lon="6.59378">
        <ele>1365.6</ele>
        <time>2022-02-13T11:21:23Z</time>
      </trkpt>
      <trkpt lat="46.19877" lon="6.59374">
        <ele>1365.6</ele>
        <time>2022-02-13T11:21:31Z</time>
      </trkpt>
      <trkpt lat="46.19878" lon="6.59373">
        <ele>1365.6</ele>
        <time>2022-02-13T11:21:35Z</time>
      </trkpt>
      <trkpt lat="46.19881" lon="6.59371">
        <ele>1365.6</ele>
        <time>2022-02-13T11:21:42Z</time>
      </trkpt>
      <trkpt lat="46.19882" lon="6.59368">
        <ele>1365.6</ele>
        <time>2022-02-13T11:21:46Z</time>
      </trkpt>
      <trkpt lat="46.19883" lon="6.59367">
        <ele>1365.6</ele>
        <time>2022-02-13T11:21:49Z</time>
      </trkpt>
      <trkpt lat="46.19884" lon="6.59362">
        <ele>1365.6</ele>
        <time>2022-02-13T11:22:04Z</time>
      </trkpt>
      <trkpt lat="46.19883" lon="6.5936">
        <ele>1365.6</ele>
        <time>2022-02-13T11:22:07Z</time>
      </trkpt>
      <trkpt lat="46.19881" lon="6.59382">
        <ele>1365.6</ele>
        <time>2022-02-13T11:22:21Z</time>
      </trkpt>
      <trkpt lat="46.19881" lon="6.59389">
        <ele>1365.6</ele>
        <time>2022-02-13T11:22:28Z</time>
      </trkpt>
      <trkpt lat="46.19882" lon="6.5939">
        <ele>1365.6</ele>
        <time>2022-02-13T11:22:29Z</time>
      </trkpt>
      <trkpt lat="46.19884" lon="6.59391">
        <ele>1365.6</ele>
        <time>2022-02-13T11:22:35Z</time>
      </trkpt>
      <trkpt lat="46.19883" lon="6.59389">
        <ele>1365.2</ele>
        <time>2022-02-13T11:22:37Z</time>
      </trkpt>
      <trkpt lat="46.19877" lon="6.59386">
        <ele>1365.2</ele>
        <time>2022-02-13T11:22:39Z</time>
      </trkpt>
      <trkpt lat="46.19876" lon="6.59383">
        <ele>1365</ele>
        <time>2022-02-13T11:22:41Z</time>
      </trkpt>
      <trkpt lat="46.19872" lon="6.5938">
        <ele>1365</ele>
        <time>2022-02-13T11:22:47Z</time>
      </trkpt>
      <trkpt lat="46.1987" lon="6.59381">
        <ele>1365.2</ele>
        <time>2022-02-13T11:22:50Z</time>
      </trkpt>
      <trkpt lat="46.1987" lon="6.5938">
        <ele>1365.2</ele>
        <time>2022-02-13T11:22:55Z</time>
      </trkpt>
      <trkpt lat="46.1987" lon="6.59375">
        <ele>1365.4</ele>
        <time>2022-02-13T11:23:04Z</time>
      </trkpt>
      <trkpt lat="46.1987" lon="6.59374">
        <ele>1365.4</ele>
        <time>2022-02-13T11:23:05Z</time>
      </trkpt>
      <trkpt lat="46.19872" lon="6.59378">
        <ele>1365.4</ele>
        <time>2022-02-13T11:23:08Z</time>
      </trkpt>
      <trkpt lat="46.19872" lon="6.59381">
        <ele>1365.6</ele>
        <time>2022-02-13T11:23:11Z</time>
      </trkpt>
      <trkpt lat="46.19872" lon="6.59381">
        <ele>1365.4</ele>
        <time>2022-02-13T11:23:14Z</time>
      </trkpt>
      <trkpt lat="46.19872" lon="6.59381">
        <ele>1365.6</ele>
        <time>2022-02-13T11:23:21Z</time>
      </trkpt>
      <trkpt lat="46.19872" lon="6.59381">
        <ele>1365.6</ele>
        <time>2022-02-13T11:23:22Z</time>
      </trkpt>
      <trkpt lat="46.19872" lon="6.59381">
        <ele>1365.6</ele>
        <time>2022-02-13T11:23:24Z</time>
      </trkpt>
      <trkpt lat="46.19878" lon="6.59364">
        <ele>1365.6</ele>
        <time>2022-02-13T11:23:42Z</time>
      </trkpt>
      <trkpt lat="46.1988" lon="6.59366">
        <ele>1365.6</ele>
        <time>2022-02-13T11:23:48Z</time>
      </trkpt>
      <trkpt lat="46.1988" lon="6.59366">
        <ele>1365.6</ele>
        <time>2022-02-13T11:23:50Z</time>
      </trkpt>
      <trkpt lat="46.19881" lon="6.59367">
        <ele>1365.2</ele>
        <time>2022-02-13T11:23:55Z</time>
      </trkpt>
      <trkpt lat="46.19881" lon="6.59368">
        <ele>1365</ele>
        <time>2022-02-13T11:23:57Z</time>
      </trkpt>
      <trkpt lat="46.19882" lon="6.59369">
        <ele>1365.4</ele>
        <time>2022-02-13T11:24:03Z</time>
      </trkpt>
      <trkpt lat="46.19882" lon="6.59369">
        <ele>1365.4</ele>
        <time>2022-02-13T11:24:05Z</time>
      </trkpt>
      <trkpt lat="46.19886" lon="6.59371">
        <ele>1365.2</ele>
        <time>2022-02-13T11:24:10Z</time>
      </trkpt>
      <trkpt lat="46.19885" lon="6.59372">
        <ele>1365.2</ele>
        <time>2022-02-13T11:24:24Z</time>
      </trkpt>
      <trkpt lat="46.19885" lon="6.59377">
        <ele>1365.2</ele>
        <time>2022-02-13T11:24:37Z</time>
      </trkpt>
      <trkpt lat="46.19885" lon="6.59377">
        <ele>1365.6</ele>
        <time>2022-02-13T11:24:38Z</time>
      </trkpt>
      <trkpt lat="46.19884" lon="6.59377">
        <ele>1365.6</ele>
        <time>2022-02-13T11:24:43Z</time>
      </trkpt>
      <trkpt lat="46.19884" lon="6.59379">
        <ele>1365.6</ele>
        <time>2022-02-13T11:24:46Z</time>
      </trkpt>
      <trkpt lat="46.19884" lon="6.59379">
        <ele>1365.6</ele>
        <time>2022-02-13T11:24:47Z</time>
      </trkpt>
      <trkpt lat="46.19884" lon="6.59381">
        <ele>1365.6</ele>
        <time>2022-02-13T11:24:49Z</time>
      </trkpt>
      <trkpt lat="46.19884" lon="6.59382">
        <ele>1365.6</ele>
        <time>2022-02-13T11:24:51Z</time>
      </trkpt>
      <trkpt lat="46.19884" lon="6.59382">
        <ele>1365.6</ele>
        <time>2022-02-13T11:24:52Z</time>
      </trkpt>
      <trkpt lat="46.19883" lon="6.59382">
        <ele>1365.6</ele>
        <time>2022-02-13T11:24:57Z</time>
      </trkpt>
      <trkpt lat="46.1988" lon="6.59381">
        <ele>1365.6</ele>
        <time>2022-02-13T11:25:04Z</time>
      </trkpt>
      <trkpt lat="46.1988" lon="6.5938">
        <ele>1365.6</ele>
        <time>2022-02-13T11:25:07Z</time>
      </trkpt>
      <trkpt lat="46.19881" lon="6.59382">
        <ele>1365.6</ele>
        <time>2022-02-13T11:25:15Z</time>
      </trkpt>
      <trkpt lat="46.1988" lon="6.59386">
        <ele>1365.6</ele>
        <time>2022-02-13T11:25:23Z</time>
      </trkpt>
      <trkpt lat="46.1988" lon="6.59387">
        <ele>1365.6</ele>
        <time>2022-02-13T11:25:25Z</time>
      </trkpt>
      <trkpt lat="46.19876" lon="6.59383">
        <ele>1365.6</ele>
        <time>2022-02-13T11:25:33Z</time>
      </trkpt>
      <trkpt lat="46.19876" lon="6.59381">
        <ele>1365.6</ele>
        <time>2022-02-13T11:25:34Z</time>
      </trkpt>
      <trkpt lat="46.19876" lon="6.59376">
        <ele>1365.6</ele>
        <time>2022-02-13T11:25:36Z</time>
      </trkpt>
      <trkpt lat="46.19877" lon="6.59377">
        <ele>1365.6</ele>
        <time>2022-02-13T11:25:40Z</time>
      </trkpt>
      <trkpt lat="46.19877" lon="6.59378">
        <ele>1365.6</ele>
        <time>2022-02-13T11:25:41Z</time>
      </trkpt>
      <trkpt lat="46.19877" lon="6.59379">
        <ele>1365.6</ele>
        <time>2022-02-13T11:25:43Z</time>
      </trkpt>
      <trkpt lat="46.19877" lon="6.59379">
        <ele>1365.6</ele>
        <time>2022-02-13T11:25:53Z</time>
      </trkpt>
      <trkpt lat="46.19877" lon="6.59379">
        <ele>1365.6</ele>
        <time>2022-02-13T11:25:56Z</time>
      </trkpt>
      <trkpt lat="46.19878" lon="6.59379">
        <ele>1365.6</ele>
        <time>2022-02-13T11:25:59Z</time>
      </trkpt>
      <trkpt lat="46.19878" lon="6.59379">
        <ele>1365.6</ele>
        <time>2022-02-13T11:26:00Z</time>
      </trkpt>
      <trkpt lat="46.19877" lon="6.59378">
        <ele>1365.6</ele>
        <time>2022-02-13T11:26:05Z</time>
      </trkpt>
      <trkpt lat="46.19877" lon="6.59378">
        <ele>1365.6</ele>
        <time>2022-02-13T11:26:09Z</time>
      </trkpt>
      <trkpt lat="46.19879" lon="6.5938">
        <ele>1365.6</ele>
        <time>2022-02-13T11:26:21Z</time>
      </trkpt>
      <trkpt lat="46.1988" lon="6.59383">
        <ele>1365.6</ele>
        <time>2022-02-13T11:26:29Z</time>
      </trkpt>
      <trkpt lat="46.1988" lon="6.59385">
        <ele>1365.6</ele>
        <time>2022-02-13T11:26:31Z</time>
      </trkpt>
      <trkpt lat="46.19881" lon="6.59388">
        <ele>1365.6</ele>
        <time>2022-02-13T11:26:37Z</time>
      </trkpt>
      <trkpt lat="46.19882" lon="6.59391">
        <ele>1365.6</ele>
        <time>2022-02-13T11:26:41Z</time>
      </trkpt>
      <trkpt lat="46.19881" lon="6.59389">
        <ele>1365.6</ele>
        <time>2022-02-13T11:26:55Z</time>
      </trkpt>
      <trkpt lat="46.19882" lon="6.59387">
        <ele>1365.6</ele>
        <time>2022-02-13T11:27:01Z</time>
      </trkpt>
      <trkpt lat="46.19884" lon="6.59386">
        <ele>1365.6</ele>
        <time>2022-02-13T11:27:04Z</time>
      </trkpt>
      <trkpt lat="46.19885" lon="6.59385">
        <ele>1365.6</ele>
        <time>2022-02-13T11:27:06Z</time>
      </trkpt>
      <trkpt lat="46.19886" lon="6.59385">
        <ele>1365.6</ele>
        <time>2022-02-13T11:27:08Z</time>
      </trkpt>
      <trkpt lat="46.19885" lon="6.59384">
        <ele>1365.6</ele>
        <time>2022-02-13T11:27:19Z</time>
      </trkpt>
      <trkpt lat="46.19885" lon="6.59382">
        <ele>1365.6</ele>
        <time>2022-02-13T11:27:20Z</time>
      </trkpt>
      <trkpt lat="46.19881" lon="6.59378">
        <ele>1365.6</ele>
        <time>2022-02-13T11:27:24Z</time>
      </trkpt>
      <trkpt lat="46.19877" lon="6.5939">
        <ele>1365.6</ele>
        <time>2022-02-13T11:27:39Z</time>
      </trkpt>
      <trkpt lat="46.19878" lon="6.59391">
        <ele>1365.6</ele>
        <time>2022-02-13T11:27:48Z</time>
      </trkpt>
      <trkpt lat="46.19878" lon="6.594">
        <ele>1366.2</ele>
        <time>2022-02-13T11:27:55Z</time>
      </trkpt>
      <trkpt lat="46.19877" lon="6.594">
        <ele>1366.2</ele>
        <time>2022-02-13T11:27:57Z</time>
      </trkpt>
      <trkpt lat="46.19876" lon="6.59402">
        <ele>1366.4</ele>
        <time>2022-02-13T11:28:08Z</time>
      </trkpt>
      <trkpt lat="46.19875" lon="6.59401">
        <ele>1366.4</ele>
        <time>2022-02-13T11:28:11Z</time>
      </trkpt>
      <trkpt lat="46.19874" lon="6.59401">
        <ele>1366.4</ele>
        <time>2022-02-13T11:28:12Z</time>
      </trkpt>
      <trkpt lat="46.19874" lon="6.59401">
        <ele>1366.4</ele>
        <time>2022-02-13T11:28:13Z</time>
      </trkpt>
      <trkpt lat="46.19874" lon="6.594">
        <ele>1366.4</ele>
        <time>2022-02-13T11:28:14Z</time>
      </trkpt>
      <trkpt lat="46.19876" lon="6.5938">
        <ele>1366.2</ele>
        <time>2022-02-13T11:28:32Z</time>
      </trkpt>
      <trkpt lat="46.19877" lon="6.59374">
        <ele>1365.8</ele>
        <time>2022-02-13T11:28:36Z</time>
      </trkpt>
      <trkpt lat="46.19878" lon="6.59375">
        <ele>1365.8</ele>
        <time>2022-02-13T11:28:42Z</time>
      </trkpt>
      <trkpt lat="46.19881" lon="6.59376">
        <ele>1365.8</ele>
        <time>2022-02-13T11:28:46Z</time>
      </trkpt>
      <trkpt lat="46.19881" lon="6.59376">
        <ele>1365.8</ele>
        <time>2022-02-13T11:28:47Z</time>
      </trkpt>
      <trkpt lat="46.19881" lon="6.59376">
        <ele>1365.8</ele>
        <time>2022-02-13T11:28:48Z</time>
      </trkpt>
      <trkpt lat="46.19879" lon="6.59372">
        <ele>1365.8</ele>
        <time>2022-02-13T11:29:02Z</time>
      </trkpt>
      <trkpt lat="46.1988" lon="6.59372">
        <ele>1365.8</ele>
        <time>2022-02-13T11:29:09Z</time>
      </trkpt>
      <trkpt lat="46.19881" lon="6.59371">
        <ele>1365.8</ele>
        <time>2022-02-13T11:29:12Z</time>
      </trkpt>
      <trkpt lat="46.19881" lon="6.59371">
        <ele>1365.8</ele>
        <time>2022-02-13T11:29:18Z</time>
      </trkpt>
      <trkpt lat="46.1988" lon="6.59374">
        <ele>1365.8</ele>
        <time>2022-02-13T11:29:19Z</time>
      </trkpt>
      <trkpt lat="46.19879" lon="6.59376">
        <ele>1365.8</ele>
        <time>2022-02-13T11:29:26Z</time>
      </trkpt>
      <trkpt lat="46.19877" lon="6.59377">
        <ele>1365.8</ele>
        <time>2022-02-13T11:29:30Z</time>
      </trkpt>
      <trkpt lat="46.19876" lon="6.59383">
        <ele>1365.8</ele>
        <time>2022-02-13T11:29:34Z</time>
      </trkpt>
      <trkpt lat="46.19875" lon="6.59384">
        <ele>1365.8</ele>
        <time>2022-02-13T11:29:36Z</time>
      </trkpt>
      <trkpt lat="46.19875" lon="6.59384">
        <ele>1365.8</ele>
        <time>2022-02-13T11:29:38Z</time>
      </trkpt>
      <trkpt lat="46.19874" lon="6.59385">
        <ele>1365.8</ele>
        <time>2022-02-13T11:29:39Z</time>
      </trkpt>
      <trkpt lat="46.19874" lon="6.59385">
        <ele>1365.8</ele>
        <time>2022-02-13T11:29:40Z</time>
      </trkpt>
      <trkpt lat="46.19877" lon="6.59381">
        <ele>1365.8</ele>
        <time>2022-02-13T11:29:52Z</time>
      </trkpt>
      <trkpt lat="46.19877" lon="6.59381">
        <ele>1365.8</ele>
        <time>2022-02-13T11:29:54Z</time>
      </trkpt>
      <trkpt lat="46.19876" lon="6.59389">
        <ele>1365.8</ele>
        <time>2022-02-13T11:30:08Z</time>
      </trkpt>
      <trkpt lat="46.19874" lon="6.5939">
        <ele>1365.8</ele>
        <time>2022-02-13T11:30:11Z</time>
      </trkpt>
      <trkpt lat="46.19876" lon="6.59396">
        <ele>1365.8</ele>
        <time>2022-02-13T11:30:27Z</time>
      </trkpt>
      <trkpt lat="46.19876" lon="6.59401">
        <ele>1365.8</ele>
        <time>2022-02-13T11:30:45Z</time>
      </trkpt>
      <trkpt lat="46.19877" lon="6.59403">
        <ele>1365.8</ele>
        <time>2022-02-13T11:31:00Z</time>
      </trkpt>
      <trkpt lat="46.19877" lon="6.594">
        <ele>1365.8</ele>
        <time>2022-02-13T11:31:03Z</time>
      </trkpt>
      <trkpt lat="46.19876" lon="6.59397">
        <ele>1365.8</ele>
        <time>2022-02-13T11:31:14Z</time>
      </trkpt>
      <trkpt lat="46.19875" lon="6.59394">
        <ele>1365.8</ele>
        <time>2022-02-13T11:31:16Z</time>
      </trkpt>
      <trkpt lat="46.19874" lon="6.59391">
        <ele>1365.8</ele>
        <time>2022-02-13T11:31:19Z</time>
      </trkpt>
      <trkpt lat="46.19873" lon="6.59391">
        <ele>1365.8</ele>
        <time>2022-02-13T11:31:20Z</time>
      </trkpt>
      <trkpt lat="46.19871" lon="6.59389">
        <ele>1365.8</ele>
        <time>2022-02-13T11:31:24Z</time>
      </trkpt>
      <trkpt lat="46.1987" lon="6.59399">
        <ele>1365.8</ele>
        <time>2022-02-13T11:31:32Z</time>
      </trkpt>
      <trkpt lat="46.19872" lon="6.59397">
        <ele>1365.8</ele>
        <time>2022-02-13T11:31:34Z</time>
      </trkpt>
      <trkpt lat="46.19879" lon="6.59391">
        <ele>1365.8</ele>
        <time>2022-02-13T11:31:38Z</time>
      </trkpt>
      <trkpt lat="46.19885" lon="6.59387">
        <ele>1365.8</ele>
        <time>2022-02-13T11:31:45Z</time>
      </trkpt>
      <trkpt lat="46.19885" lon="6.59386">
        <ele>1365.8</ele>
        <time>2022-02-13T11:31:46Z</time>
      </trkpt>
      <trkpt lat="46.19886" lon="6.59386">
        <ele>1365.8</ele>
        <time>2022-02-13T11:31:47Z</time>
      </trkpt>
      <trkpt lat="46.19887" lon="6.59391">
        <ele>1365.8</ele>
        <time>2022-02-13T11:31:53Z</time>
      </trkpt>
      <trkpt lat="46.19887" lon="6.59395">
        <ele>1365.8</ele>
        <time>2022-02-13T11:31:57Z</time>
      </trkpt>
      <trkpt lat="46.19886" lon="6.59398">
        <ele>1365.8</ele>
        <time>2022-02-13T11:32:01Z</time>
      </trkpt>
      <trkpt lat="46.19885" lon="6.59398">
        <ele>1365.8</ele>
        <time>2022-02-13T11:32:03Z</time>
      </trkpt>
      <trkpt lat="46.19884" lon="6.59396">
        <ele>1365.8</ele>
        <time>2022-02-13T11:32:06Z</time>
      </trkpt>
      <trkpt lat="46.19884" lon="6.59389">
        <ele>1365.8</ele>
        <time>2022-02-13T11:32:12Z</time>
      </trkpt>
      <trkpt lat="46.19884" lon="6.59389">
        <ele>1365.8</ele>
        <time>2022-02-13T11:32:13Z</time>
      </trkpt>
      <trkpt lat="46.19884" lon="6.59389">
        <ele>1365.8</ele>
        <time>2022-02-13T11:32:29Z</time>
      </trkpt>
      <trkpt lat="46.19883" lon="6.59389">
        <ele>1365.8</ele>
        <time>2022-02-13T11:32:31Z</time>
      </trkpt>
      <trkpt lat="46.1988" lon="6.59391">
        <ele>1365.8</ele>
        <time>2022-02-13T11:32:48Z</time>
      </trkpt>
      <trkpt lat="46.19879" lon="6.59391">
        <ele>1365.8</ele>
        <time>2022-02-13T11:32:50Z</time>
      </trkpt>
      <trkpt lat="46.19878" lon="6.59391">
        <ele>1365.8</ele>
        <time>2022-02-13T11:32:52Z</time>
      </trkpt>
      <trkpt lat="46.19879" lon="6.59389">
        <ele>1365.8</ele>
        <time>2022-02-13T11:33:05Z</time>
      </trkpt>
      <trkpt lat="46.19879" lon="6.59387">
        <ele>1365.8</ele>
        <time>2022-02-13T11:33:08Z</time>
      </trkpt>
      <trkpt lat="46.1988" lon="6.59386">
        <ele>1365.8</ele>
        <time>2022-02-13T11:33:10Z</time>
      </trkpt>
      <trkpt lat="46.19881" lon="6.59385">
        <ele>1365.8</ele>
        <time>2022-02-13T11:33:12Z</time>
      </trkpt>
      <trkpt lat="46.19881" lon="6.59385">
        <ele>1365.8</ele>
        <time>2022-02-13T11:33:15Z</time>
      </trkpt>
      <trkpt lat="46.19881" lon="6.59385">
        <ele>1365.8</ele>
        <time>2022-02-13T11:33:29Z</time>
      </trkpt>
      <trkpt lat="46.1988" lon="6.59384">
        <ele>1365.8</ele>
        <time>2022-02-13T11:33:32Z</time>
      </trkpt>
      <trkpt lat="46.19881" lon="6.59384">
        <ele>1365.8</ele>
        <time>2022-02-13T11:33:39Z</time>
      </trkpt>
      <trkpt lat="46.19885" lon="6.59391">
        <ele>1365.8</ele>
        <time>2022-02-13T11:33:49Z</time>
      </trkpt>
      <trkpt lat="46.19885" lon="6.59391">
        <ele>1365.8</ele>
        <time>2022-02-13T11:33:51Z</time>
      </trkpt>
      <trkpt lat="46.19888" lon="6.59392">
        <ele>1365.8</ele>
        <time>2022-02-13T11:34:04Z</time>
      </trkpt>
      <trkpt lat="46.19888" lon="6.59389">
        <ele>1365.8</ele>
        <time>2022-02-13T11:34:06Z</time>
      </trkpt>
      <trkpt lat="46.19888" lon="6.59388">
        <ele>1365.8</ele>
        <time>2022-02-13T11:34:08Z</time>
      </trkpt>
      <trkpt lat="46.19887" lon="6.59397">
        <ele>1365.8</ele>
        <time>2022-02-13T11:34:28Z</time>
      </trkpt>
      <trkpt lat="46.19887" lon="6.59398">
        <ele>1365.8</ele>
        <time>2022-02-13T11:34:30Z</time>
      </trkpt>
      <trkpt lat="46.19885" lon="6.59396">
        <ele>1365.8</ele>
        <time>2022-02-13T11:34:44Z</time>
      </trkpt>
      <trkpt lat="46.19885" lon="6.59395">
        <ele>1365.8</ele>
        <time>2022-02-13T11:34:46Z</time>
      </trkpt>
      <trkpt lat="46.19885" lon="6.59394">
        <ele>1365.8</ele>
        <time>2022-02-13T11:34:47Z</time>
      </trkpt>
      <trkpt lat="46.19885" lon="6.59394">
        <ele>1365.8</ele>
        <time>2022-02-13T11:34:49Z</time>
      </trkpt>
      <trkpt lat="46.19886" lon="6.59392">
        <ele>1365.8</ele>
        <time>2022-02-13T11:35:01Z</time>
      </trkpt>
      <trkpt lat="46.19886" lon="6.59392">
        <ele>1365.8</ele>
        <time>2022-02-13T11:35:02Z</time>
      </trkpt>
      <trkpt lat="46.19886" lon="6.59391">
        <ele>1365.8</ele>
        <time>2022-02-13T11:35:05Z</time>
      </trkpt>
      <trkpt lat="46.1989" lon="6.59384">
        <ele>1365.8</ele>
        <time>2022-02-13T11:35:17Z</time>
      </trkpt>
      <trkpt lat="46.19891" lon="6.59383">
        <ele>1365.8</ele>
        <time>2022-02-13T11:35:19Z</time>
      </trkpt>
      <trkpt lat="46.19892" lon="6.59382">
        <ele>1365.8</ele>
        <time>2022-02-13T11:35:23Z</time>
      </trkpt>
      <trkpt lat="46.1989" lon="6.59383">
        <ele>1365.8</ele>
        <time>2022-02-13T11:35:29Z</time>
      </trkpt>
      <trkpt lat="46.19888" lon="6.5938">
        <ele>1365.8</ele>
        <time>2022-02-13T11:35:32Z</time>
      </trkpt>
      <trkpt lat="46.19888" lon="6.59379">
        <ele>1365.8</ele>
        <time>2022-02-13T11:35:47Z</time>
      </trkpt>
      <trkpt lat="46.19887" lon="6.59378">
        <ele>1365.8</ele>
        <time>2022-02-13T11:35:49Z</time>
      </trkpt>
      <trkpt lat="46.19887" lon="6.59377">
        <ele>1365.8</ele>
        <time>2022-02-13T11:35:52Z</time>
      </trkpt>
      <trkpt lat="46.19883" lon="6.59363">
        <ele>1365.8</ele>
        <time>2022-02-13T11:36:10Z</time>
      </trkpt>
      <trkpt lat="46.19885" lon="6.5936">
        <ele>1365.8</ele>
        <time>2022-02-13T11:36:13Z</time>
      </trkpt>
      <trkpt lat="46.19885" lon="6.59358">
        <ele>1365.8</ele>
        <time>2022-02-13T11:36:14Z</time>
      </trkpt>
      <trkpt lat="46.19885" lon="6.59356">
        <ele>1365.8</ele>
        <time>2022-02-13T11:36:22Z</time>
      </trkpt>
      <trkpt lat="46.19883" lon="6.59365">
        <ele>1365.8</ele>
        <time>2022-02-13T11:36:26Z</time>
      </trkpt>
      <trkpt lat="46.19884" lon="6.59363">
        <ele>1365.8</ele>
        <time>2022-02-13T11:36:30Z</time>
      </trkpt>
      <trkpt lat="46.19884" lon="6.59362">
        <ele>1365.8</ele>
        <time>2022-02-13T11:36:33Z</time>
      </trkpt>
      <trkpt lat="46.19884" lon="6.59362">
        <ele>1365.8</ele>
        <time>2022-02-13T11:36:40Z</time>
      </trkpt>
      <trkpt lat="46.19885" lon="6.59365">
        <ele>1365.8</ele>
        <time>2022-02-13T11:36:42Z</time>
      </trkpt>
      <trkpt lat="46.19886" lon="6.59365">
        <ele>1365.8</ele>
        <time>2022-02-13T11:36:46Z</time>
      </trkpt>
      <trkpt lat="46.19887" lon="6.59361">
        <ele>1365.8</ele>
        <time>2022-02-13T11:36:51Z</time>
      </trkpt>
      <trkpt lat="46.19885" lon="6.59364">
        <ele>1365.8</ele>
        <time>2022-02-13T11:37:00Z</time>
      </trkpt>
      <trkpt lat="46.19882" lon="6.59361">
        <ele>1365.8</ele>
        <time>2022-02-13T11:37:11Z</time>
      </trkpt>
      <trkpt lat="46.19881" lon="6.59368">
        <ele>1365.8</ele>
        <time>2022-02-13T11:37:18Z</time>
      </trkpt>
      <trkpt lat="46.19881" lon="6.5937">
        <ele>1365.8</ele>
        <time>2022-02-13T11:37:21Z</time>
      </trkpt>
      <trkpt lat="46.19879" lon="6.59372">
        <ele>1365.8</ele>
        <time>2022-02-13T11:37:25Z</time>
      </trkpt>
      <trkpt lat="46.19879" lon="6.59373">
        <ele>1365.8</ele>
        <time>2022-02-13T11:37:26Z</time>
      </trkpt>
      <trkpt lat="46.19875" lon="6.59362">
        <ele>1365.8</ele>
        <time>2022-02-13T11:37:36Z</time>
      </trkpt>
      <trkpt lat="46.19879" lon="6.59367">
        <ele>1365.8</ele>
        <time>2022-02-13T11:37:42Z</time>
      </trkpt>
      <trkpt lat="46.19879" lon="6.59369">
        <ele>1365.8</ele>
        <time>2022-02-13T11:37:44Z</time>
      </trkpt>
      <trkpt lat="46.19878" lon="6.59369">
        <ele>1365.8</ele>
        <time>2022-02-13T11:37:50Z</time>
      </trkpt>
      <trkpt lat="46.19873" lon="6.59377">
        <ele>1365.8</ele>
        <time>2022-02-13T11:38:01Z</time>
      </trkpt>
      <trkpt lat="46.19873" lon="6.59377">
        <ele>1365.8</ele>
        <time>2022-02-13T11:38:03Z</time>
      </trkpt>
      <trkpt lat="46.19872" lon="6.59379">
        <ele>1365.8</ele>
        <time>2022-02-13T11:38:04Z</time>
      </trkpt>
      <trkpt lat="46.19871" lon="6.59384">
        <ele>1365.8</ele>
        <time>2022-02-13T11:38:07Z</time>
      </trkpt>
      <trkpt lat="46.19873" lon="6.59388">
        <ele>1365.8</ele>
        <time>2022-02-13T11:38:14Z</time>
      </trkpt>
      <trkpt lat="46.19871" lon="6.59391">
        <ele>1365.8</ele>
        <time>2022-02-13T11:38:22Z</time>
      </trkpt>
      <trkpt lat="46.19867" lon="6.59391">
        <ele>1365.8</ele>
        <time>2022-02-13T11:38:35Z</time>
      </trkpt>
      <trkpt lat="46.19866" lon="6.59392">
        <ele>1365.8</ele>
        <time>2022-02-13T11:38:38Z</time>
      </trkpt>
      <trkpt lat="46.19867" lon="6.5939">
        <ele>1365.8</ele>
        <time>2022-02-13T11:38:42Z</time>
      </trkpt>
      <trkpt lat="46.19867" lon="6.59391">
        <ele>1365.8</ele>
        <time>2022-02-13T11:38:47Z</time>
      </trkpt>
      <trkpt lat="46.19868" lon="6.5939">
        <ele>1365.8</ele>
        <time>2022-02-13T11:38:56Z</time>
      </trkpt>
      <trkpt lat="46.19872" lon="6.59382">
        <ele>1365.8</ele>
        <time>2022-02-13T11:39:07Z</time>
      </trkpt>
      <trkpt lat="46.19873" lon="6.59383">
        <ele>1365.8</ele>
        <time>2022-02-13T11:39:12Z</time>
      </trkpt>
      <trkpt lat="46.19873" lon="6.59383">
        <ele>1365.8</ele>
        <time>2022-02-13T11:39:16Z</time>
      </trkpt>
      <trkpt lat="46.19874" lon="6.59382">
        <ele>1365.8</ele>
        <time>2022-02-13T11:39:22Z</time>
      </trkpt>
      <trkpt lat="46.19875" lon="6.59382">
        <ele>1365.8</ele>
        <time>2022-02-13T11:39:25Z</time>
      </trkpt>
      <trkpt lat="46.19878" lon="6.5938">
        <ele>1365.8</ele>
        <time>2022-02-13T11:39:34Z</time>
      </trkpt>
      <trkpt lat="46.1988" lon="6.59375">
        <ele>1365.8</ele>
        <time>2022-02-13T11:39:39Z</time>
      </trkpt>
      <trkpt lat="46.1988" lon="6.59374">
        <ele>1365.8</ele>
        <time>2022-02-13T11:39:43Z</time>
      </trkpt>
      <trkpt lat="46.19879" lon="6.59369">
        <ele>1365.8</ele>
        <time>2022-02-13T11:39:49Z</time>
      </trkpt>
      <trkpt lat="46.19877" lon="6.59375">
        <ele>1365.8</ele>
        <time>2022-02-13T11:39:56Z</time>
      </trkpt>
      <trkpt lat="46.19877" lon="6.59376">
        <ele>1365.8</ele>
        <time>2022-02-13T11:39:59Z</time>
      </trkpt>
      <trkpt lat="46.19876" lon="6.59376">
        <ele>1365.8</ele>
        <time>2022-02-13T11:40:10Z</time>
      </trkpt>
      <trkpt lat="46.19877" lon="6.59376">
        <ele>1365.8</ele>
        <time>2022-02-13T11:40:14Z</time>
      </trkpt>
      <trkpt lat="46.19878" lon="6.59375">
        <ele>1365.8</ele>
        <time>2022-02-13T11:40:16Z</time>
      </trkpt>
      <trkpt lat="46.19879" lon="6.59375">
        <ele>1365.8</ele>
        <time>2022-02-13T11:40:19Z</time>
      </trkpt>
      <trkpt lat="46.19883" lon="6.59366">
        <ele>1365.8</ele>
        <time>2022-02-13T11:40:28Z</time>
      </trkpt>
      <trkpt lat="46.19882" lon="6.59366">
        <ele>1365.8</ele>
        <time>2022-02-13T11:40:29Z</time>
      </trkpt>
      <trkpt lat="46.1988" lon="6.5937">
        <ele>1365.8</ele>
        <time>2022-02-13T11:40:37Z</time>
      </trkpt>
      <trkpt lat="46.1988" lon="6.59374">
        <ele>1365.8</ele>
        <time>2022-02-13T11:40:42Z</time>
      </trkpt>
      <trkpt lat="46.1988" lon="6.59373">
        <ele>1365.8</ele>
        <time>2022-02-13T11:40:44Z</time>
      </trkpt>
      <trkpt lat="46.1988" lon="6.59379">
        <ele>1365.8</ele>
        <time>2022-02-13T11:40:52Z</time>
      </trkpt>
      <trkpt lat="46.1988" lon="6.59379">
        <ele>1365.8</ele>
        <time>2022-02-13T11:40:54Z</time>
      </trkpt>
      <trkpt lat="46.19881" lon="6.59378">
        <ele>1365.8</ele>
        <time>2022-02-13T11:40:57Z</time>
      </trkpt>
      <trkpt lat="46.19882" lon="6.59374">
        <ele>1365.8</ele>
        <time>2022-02-13T11:41:09Z</time>
      </trkpt>
      <trkpt lat="46.19882" lon="6.59378">
        <ele>1365.8</ele>
        <time>2022-02-13T11:41:15Z</time>
      </trkpt>
      <trkpt lat="46.19882" lon="6.59378">
        <ele>1365.8</ele>
        <time>2022-02-13T11:41:16Z</time>
      </trkpt>
      <trkpt lat="46.19881" lon="6.59381">
        <ele>1365.8</ele>
        <time>2022-02-13T11:41:22Z</time>
      </trkpt>
      <trkpt lat="46.19881" lon="6.5938">
        <ele>1365.8</ele>
        <time>2022-02-13T11:41:25Z</time>
      </trkpt>
      <trkpt lat="46.19881" lon="6.59377">
        <ele>1365.8</ele>
        <time>2022-02-13T11:41:31Z</time>
      </trkpt>
      <trkpt lat="46.19881" lon="6.59377">
        <ele>1365.8</ele>
        <time>2022-02-13T11:41:32Z</time>
      </trkpt>
      <trkpt lat="46.19882" lon="6.59373">
        <ele>1365.8</ele>
        <time>2022-02-13T11:41:40Z</time>
      </trkpt>
      <trkpt lat="46.19885" lon="6.59369">
        <ele>1365.8</ele>
        <time>2022-02-13T11:41:49Z</time>
      </trkpt>
      <trkpt lat="46.19886" lon="6.59368">
        <ele>1365.8</ele>
        <time>2022-02-13T11:41:57Z</time>
      </trkpt>
      <trkpt lat="46.19887" lon="6.59368">
        <ele>1365.8</ele>
        <time>2022-02-13T11:41:58Z</time>
      </trkpt>
      <trkpt lat="46.19887" lon="6.59374">
        <ele>1365.8</ele>
        <time>2022-02-13T11:42:07Z</time>
      </trkpt>
      <trkpt lat="46.19886" lon="6.59382">
        <ele>1365.8</ele>
        <time>2022-02-13T11:42:11Z</time>
      </trkpt>
      <trkpt lat="46.19886" lon="6.59386">
        <ele>1365.8</ele>
        <time>2022-02-13T11:42:13Z</time>
      </trkpt>
      <trkpt lat="46.19884" lon="6.59387">
        <ele>1365.8</ele>
        <time>2022-02-13T11:42:27Z</time>
      </trkpt>
      <trkpt lat="46.19882" lon="6.5939">
        <ele>1365.8</ele>
        <time>2022-02-13T11:42:35Z</time>
      </trkpt>
      <trkpt lat="46.19882" lon="6.5939">
        <ele>1365.8</ele>
        <time>2022-02-13T11:42:39Z</time>
      </trkpt>
      <trkpt lat="46.19882" lon="6.59391">
        <ele>1365.8</ele>
        <time>2022-02-13T11:42:42Z</time>
      </trkpt>
      <trkpt lat="46.19882" lon="6.59391">
        <ele>1365.8</ele>
        <time>2022-02-13T11:42:45Z</time>
      </trkpt>
      <trkpt lat="46.19882" lon="6.59393">
        <ele>1365.8</ele>
        <time>2022-02-13T11:42:48Z</time>
      </trkpt>
      <trkpt lat="46.19879" lon="6.59389">
        <ele>1365.8</ele>
        <time>2022-02-13T11:42:57Z</time>
      </trkpt>
      <trkpt lat="46.19879" lon="6.59389">
        <ele>1365.8</ele>
        <time>2022-02-13T11:43:00Z</time>
      </trkpt>
      <trkpt lat="46.19879" lon="6.59389">
        <ele>1365.8</ele>
        <time>2022-02-13T11:43:03Z</time>
      </trkpt>
      <trkpt lat="46.19879" lon="6.59389">
        <ele>1365.8</ele>
        <time>2022-02-13T11:43:07Z</time>
      </trkpt>
      <trkpt lat="46.1988" lon="6.59392">
        <ele>1365.8</ele>
        <time>2022-02-13T11:43:13Z</time>
      </trkpt>
      <trkpt lat="46.19879" lon="6.59392">
        <ele>1365.8</ele>
        <time>2022-02-13T11:43:15Z</time>
      </trkpt>
      <trkpt lat="46.19877" lon="6.59393">
        <ele>1365.8</ele>
        <time>2022-02-13T11:43:18Z</time>
      </trkpt>
      <trkpt lat="46.19876" lon="6.5939">
        <ele>1365.8</ele>
        <time>2022-02-13T11:43:22Z</time>
      </trkpt>
      <trkpt lat="46.19874" lon="6.59389">
        <ele>1365.8</ele>
        <time>2022-02-13T11:43:28Z</time>
      </trkpt>
      <trkpt lat="46.1987" lon="6.59385">
        <ele>1365.8</ele>
        <time>2022-02-13T11:43:36Z</time>
      </trkpt>
      <trkpt lat="46.19869" lon="6.59382">
        <ele>1365.8</ele>
        <time>2022-02-13T11:43:38Z</time>
      </trkpt>
      <trkpt lat="46.1987" lon="6.59382">
        <ele>1365.8</ele>
        <time>2022-02-13T11:43:40Z</time>
      </trkpt>
      <trkpt lat="46.19873" lon="6.59378">
        <ele>1365.8</ele>
        <time>2022-02-13T11:43:41Z</time>
      </trkpt>
      <trkpt lat="46.19873" lon="6.59373">
        <ele>1365.8</ele>
        <time>2022-02-13T11:43:44Z</time>
      </trkpt>
      <trkpt lat="46.19874" lon="6.59369">
        <ele>1365.8</ele>
        <time>2022-02-13T11:43:46Z</time>
      </trkpt>
      <trkpt lat="46.19877" lon="6.59363">
        <ele>1365.8</ele>
        <time>2022-02-13T11:43:49Z</time>
      </trkpt>
      <trkpt lat="46.19876" lon="6.59358">
        <ele>1366.2</ele>
        <time>2022-02-13T11:43:59Z</time>
      </trkpt>
      <trkpt lat="46.19872" lon="6.59366">
        <ele>1366.4</ele>
        <time>2022-02-13T11:44:04Z</time>
      </trkpt>
      <trkpt lat="46.19873" lon="6.59369">
        <ele>1366.6</ele>
        <time>2022-02-13T11:44:12Z</time>
      </trkpt>
      <trkpt lat="46.19874" lon="6.59371">
        <ele>1365.4</ele>
        <time>2022-02-13T11:44:16Z</time>
      </trkpt>
      <trkpt lat="46.19876" lon="6.59374">
        <ele>1365.6</ele>
        <time>2022-02-13T11:44:26Z</time>
      </trkpt>
      <trkpt lat="46.19877" lon="6.59375">
        <ele>1365.2</ele>
        <time>2022-02-13T11:44:32Z</time>
      </trkpt>
      <trkpt lat="46.19877" lon="6.59375">
        <ele>1365</ele>
        <time>2022-02-13T11:44:33Z</time>
      </trkpt>
      <trkpt lat="46.19878" lon="6.59375">
        <ele>1365</ele>
        <time>2022-02-13T11:44:35Z</time>
      </trkpt>
      <trkpt lat="46.19879" lon="6.59378">
        <ele>1365.2</ele>
        <time>2022-02-13T11:44:42Z</time>
      </trkpt>
      <trkpt lat="46.19879" lon="6.59379">
        <ele>1365.2</ele>
        <time>2022-02-13T11:44:43Z</time>
      </trkpt>
      <trkpt lat="46.19879" lon="6.59382">
        <ele>1365</ele>
        <time>2022-02-13T11:44:46Z</time>
      </trkpt>
      <trkpt lat="46.19879" lon="6.59383">
        <ele>1365.6</ele>
        <time>2022-02-13T11:44:48Z</time>
      </trkpt>
      <trkpt lat="46.19881" lon="6.59384">
        <ele>1365.2</ele>
        <time>2022-02-13T11:44:57Z</time>
      </trkpt>
      <trkpt lat="46.19881" lon="6.59379">
        <ele>1365.2</ele>
        <time>2022-02-13T11:45:00Z</time>
      </trkpt>
      <trkpt lat="46.19881" lon="6.59377">
        <ele>1365.2</ele>
        <time>2022-02-13T11:45:02Z</time>
      </trkpt>
      <trkpt lat="46.19878" lon="6.59372">
        <ele>1365.4</ele>
        <time>2022-02-13T11:45:12Z</time>
      </trkpt>
      <trkpt lat="46.19879" lon="6.59373">
        <ele>1365.6</ele>
        <time>2022-02-13T11:45:18Z</time>
      </trkpt>
      <trkpt lat="46.19881" lon="6.59373">
        <ele>1365.8</ele>
        <time>2022-02-13T11:45:30Z</time>
      </trkpt>
      <trkpt lat="46.19883" lon="6.59373">
        <ele>1366.2</ele>
        <time>2022-02-13T11:45:40Z</time>
      </trkpt>
      <trkpt lat="46.19883" lon="6.59373">
        <ele>1366.2</ele>
        <time>2022-02-13T11:45:42Z</time>
      </trkpt>
      <trkpt lat="46.19883" lon="6.59373">
        <ele>1366.2</ele>
        <time>2022-02-13T11:45:45Z</time>
      </trkpt>
      <trkpt lat="46.19882" lon="6.59373">
        <ele>1366.4</ele>
        <time>2022-02-13T11:45:48Z</time>
      </trkpt>
      <trkpt lat="46.19883" lon="6.59376">
        <ele>1366.2</ele>
        <time>2022-02-13T11:45:53Z</time>
      </trkpt>
      <trkpt lat="46.19883" lon="6.59377">
        <ele>1366.4</ele>
        <time>2022-02-13T11:45:56Z</time>
      </trkpt>
      <trkpt lat="46.19883" lon="6.59372">
        <ele>1365.8</ele>
        <time>2022-02-13T11:46:06Z</time>
      </trkpt>
      <trkpt lat="46.19884" lon="6.59371">
        <ele>1365.8</ele>
        <time>2022-02-13T11:46:12Z</time>
      </trkpt>
      <trkpt lat="46.19883" lon="6.5937">
        <ele>1365.8</ele>
        <time>2022-02-13T11:46:15Z</time>
      </trkpt>
      <trkpt lat="46.19883" lon="6.5937">
        <ele>1365.8</ele>
        <time>2022-02-13T11:46:17Z</time>
      </trkpt>
      <trkpt lat="46.19884" lon="6.59371">
        <ele>1365.8</ele>
        <time>2022-02-13T11:46:19Z</time>
      </trkpt>
      <trkpt lat="46.19884" lon="6.59372">
        <ele>1365.8</ele>
        <time>2022-02-13T11:46:30Z</time>
      </trkpt>
      <trkpt lat="46.19886" lon="6.59374">
        <ele>1365.8</ele>
        <time>2022-02-13T11:46:36Z</time>
      </trkpt>
      <trkpt lat="46.19886" lon="6.59374">
        <ele>1365.8</ele>
        <time>2022-02-13T11:46:37Z</time>
      </trkpt>
      <trkpt lat="46.19888" lon="6.59377">
        <ele>1365.8</ele>
        <time>2022-02-13T11:46:45Z</time>
      </trkpt>
      <trkpt lat="46.19888" lon="6.59378">
        <ele>1365.8</ele>
        <time>2022-02-13T11:46:49Z</time>
      </trkpt>
      <trkpt lat="46.19888" lon="6.59378">
        <ele>1365.8</ele>
        <time>2022-02-13T11:46:51Z</time>
      </trkpt>
      <trkpt lat="46.19888" lon="6.59378">
        <ele>1365.8</ele>
        <time>2022-02-13T11:46:55Z</time>
      </trkpt>
      <trkpt lat="46.19888" lon="6.59378">
        <ele>1365.8</ele>
        <time>2022-02-13T11:46:56Z</time>
      </trkpt>
      <trkpt lat="46.19888" lon="6.59378">
        <ele>1365.8</ele>
        <time>2022-02-13T11:47:02Z</time>
      </trkpt>
      <trkpt lat="46.19888" lon="6.59379">
        <ele>1365.8</ele>
        <time>2022-02-13T11:47:05Z</time>
      </trkpt>
      <trkpt lat="46.19888" lon="6.59379">
        <ele>1365.8</ele>
        <time>2022-02-13T11:47:06Z</time>
      </trkpt>
      <trkpt lat="46.19888" lon="6.5938">
        <ele>1365.8</ele>
        <time>2022-02-13T11:47:09Z</time>
      </trkpt>
      <trkpt lat="46.19888" lon="6.5938">
        <ele>1365.8</ele>
        <time>2022-02-13T11:47:10Z</time>
      </trkpt>
      <trkpt lat="46.19888" lon="6.59379">
        <ele>1365.8</ele>
        <time>2022-02-13T11:47:16Z</time>
      </trkpt>
      <trkpt lat="46.19888" lon="6.59378">
        <ele>1365.8</ele>
        <time>2022-02-13T11:47:18Z</time>
      </trkpt>
      <trkpt lat="46.19888" lon="6.59378">
        <ele>1365.8</ele>
        <time>2022-02-13T11:47:19Z</time>
      </trkpt>
      <trkpt lat="46.19881" lon="6.59378">
        <ele>1365.8</ele>
        <time>2022-02-13T11:47:29Z</time>
      </trkpt>
      <trkpt lat="46.19875" lon="6.59372">
        <ele>1365.8</ele>
        <time>2022-02-13T11:47:35Z</time>
      </trkpt>
      <trkpt lat="46.19877" lon="6.59362">
        <ele>1365.8</ele>
        <time>2022-02-13T11:47:38Z</time>
      </trkpt>
      <trkpt lat="46.19877" lon="6.59353">
        <ele>1365.8</ele>
        <time>2022-02-13T11:47:40Z</time>
      </trkpt>
      <trkpt lat="46.19876" lon="6.59339">
        <ele>1364.8</ele>
        <time>2022-02-13T11:47:44Z</time>
      </trkpt>
      <trkpt lat="46.19876" lon="6.59336">
        <ele>1364.4</ele>
        <time>2022-02-13T11:47:45Z</time>
      </trkpt>
      <trkpt lat="46.19876" lon="6.5933">
        <ele>1363.4</ele>
        <time>2022-02-13T11:47:47Z</time>
      </trkpt>
      <trkpt lat="46.19875" lon="6.59323">
        <ele>1362</ele>
        <time>2022-02-13T11:47:49Z</time>
      </trkpt>
      <trkpt lat="46.19876" lon="6.59321">
        <ele>1361.6</ele>
        <time>2022-02-13T11:47:50Z</time>
      </trkpt>
      <trkpt lat="46.19877" lon="6.59317">
        <ele>1361.2</ele>
        <time>2022-02-13T11:47:51Z</time>
      </trkpt>
      <trkpt lat="46.19878" lon="6.59314">
        <ele>1360.4</ele>
        <time>2022-02-13T11:47:52Z</time>
      </trkpt>
      <trkpt lat="46.19881" lon="6.59308">
        <ele>1358.8</ele>
        <time>2022-02-13T11:47:54Z</time>
      </trkpt>
      <trkpt lat="46.19884" lon="6.59303">
        <ele>1357.6</ele>
        <time>2022-02-13T11:47:56Z</time>
      </trkpt>
      <trkpt lat="46.1989" lon="6.59297">
        <ele>1356</ele>
        <time>2022-02-13T11:47:59Z</time>
      </trkpt>
      <trkpt lat="46.19892" lon="6.59295">
        <ele>1355.8</ele>
        <time>2022-02-13T11:48:00Z</time>
      </trkpt>
      <trkpt lat="46.19898" lon="6.59292">
        <ele>1354.6</ele>
        <time>2022-02-13T11:48:02Z</time>
      </trkpt>
      <trkpt lat="46.19903" lon="6.59286">
        <ele>1353</ele>
        <time>2022-02-13T11:48:04Z</time>
      </trkpt>
      <trkpt lat="46.19905" lon="6.59284">
        <ele>1352.6</ele>
        <time>2022-02-13T11:48:05Z</time>
      </trkpt>
      <trkpt lat="46.19907" lon="6.59281">
        <ele>1351.8</ele>
        <time>2022-02-13T11:48:06Z</time>
      </trkpt>
      <trkpt lat="46.19917" lon="6.59269">
        <ele>1350.4</ele>
        <time>2022-02-13T11:48:09Z</time>
      </trkpt>
      <trkpt lat="46.19923" lon="6.59264">
        <ele>1349.4</ele>
        <time>2022-02-13T11:48:11Z</time>
      </trkpt>
      <trkpt lat="46.19924" lon="6.59262">
        <ele>1349</ele>
        <time>2022-02-13T11:48:12Z</time>
      </trkpt>
      <trkpt lat="46.19925" lon="6.59261">
        <ele>1349</ele>
        <time>2022-02-13T11:48:13Z</time>
      </trkpt>
      <trkpt lat="46.19925" lon="6.5926">
        <ele>1348.8</ele>
        <time>2022-02-13T11:48:14Z</time>
      </trkpt>
      <trkpt lat="46.19925" lon="6.5926">
        <ele>1348.8</ele>
        <time>2022-02-13T11:48:15Z</time>
      </trkpt>
      <trkpt lat="46.19927" lon="6.59259">
        <ele>1349</ele>
        <time>2022-02-13T11:48:18Z</time>
      </trkpt>
      <trkpt lat="46.19927" lon="6.59259">
        <ele>1349.2</ele>
        <time>2022-02-13T11:48:20Z</time>
      </trkpt>
      <trkpt lat="46.19928" lon="6.59259">
        <ele>1349.4</ele>
        <time>2022-02-13T11:48:22Z</time>
      </trkpt>
      <trkpt lat="46.1993" lon="6.59257">
        <ele>1349.4</ele>
        <time>2022-02-13T11:48:28Z</time>
      </trkpt>
      <trkpt lat="46.19931" lon="6.59257">
        <ele>1349.2</ele>
        <time>2022-02-13T11:48:29Z</time>
      </trkpt>
      <trkpt lat="46.19939" lon="6.59248">
        <ele>1348.4</ele>
        <time>2022-02-13T11:48:33Z</time>
      </trkpt>
      <trkpt lat="46.19942" lon="6.59243">
        <ele>1348.2</ele>
        <time>2022-02-13T11:48:34Z</time>
      </trkpt>
      <trkpt lat="46.19946" lon="6.59238">
        <ele>1347.6</ele>
        <time>2022-02-13T11:48:35Z</time>
      </trkpt>
      <trkpt lat="46.1995" lon="6.59233">
        <ele>1346.6</ele>
        <time>2022-02-13T11:48:36Z</time>
      </trkpt>
      <trkpt lat="46.19954" lon="6.59228">
        <ele>1345.6</ele>
        <time>2022-02-13T11:48:37Z</time>
      </trkpt>
      <trkpt lat="46.19958" lon="6.59223">
        <ele>1345</ele>
        <time>2022-02-13T11:48:38Z</time>
      </trkpt>
      <trkpt lat="46.19962" lon="6.59218">
        <ele>1344</ele>
        <time>2022-02-13T11:48:39Z</time>
      </trkpt>
      <trkpt lat="46.19966" lon="6.59212">
        <ele>1342.8</ele>
        <time>2022-02-13T11:48:40Z</time>
      </trkpt>
      <trkpt lat="46.1997" lon="6.59205">
        <ele>1342</ele>
        <time>2022-02-13T11:48:41Z</time>
      </trkpt>
      <trkpt lat="46.19974" lon="6.592">
        <ele>1340.8</ele>
        <time>2022-02-13T11:48:42Z</time>
      </trkpt>
      <trkpt lat="46.19978" lon="6.59195">
        <ele>1339.2</ele>
        <time>2022-02-13T11:48:43Z</time>
      </trkpt>
      <trkpt lat="46.19982" lon="6.59188">
        <ele>1338.2</ele>
        <time>2022-02-13T11:48:44Z</time>
      </trkpt>
      <trkpt lat="46.19985" lon="6.59182">
        <ele>1337.8</ele>
        <time>2022-02-13T11:48:45Z</time>
      </trkpt>
      <trkpt lat="46.1999" lon="6.59177">
        <ele>1336.4</ele>
        <time>2022-02-13T11:48:46Z</time>
      </trkpt>
      <trkpt lat="46.19993" lon="6.59171">
        <ele>1335.2</ele>
        <time>2022-02-13T11:48:47Z</time>
      </trkpt>
      <trkpt lat="46.19998" lon="6.59164">
        <ele>1334.4</ele>
        <time>2022-02-13T11:48:48Z</time>
      </trkpt>
      <trkpt lat="46.20002" lon="6.59157">
        <ele>1333.4</ele>
        <time>2022-02-13T11:48:49Z</time>
      </trkpt>
      <trkpt lat="46.20007" lon="6.5915">
        <ele>1332</ele>
        <time>2022-02-13T11:48:50Z</time>
      </trkpt>
      <trkpt lat="46.20012" lon="6.59142">
        <ele>1330.6</ele>
        <time>2022-02-13T11:48:51Z</time>
      </trkpt>
      <trkpt lat="46.20016" lon="6.59133">
        <ele>1329.8</ele>
        <time>2022-02-13T11:48:52Z</time>
      </trkpt>
      <trkpt lat="46.2002" lon="6.59125">
        <ele>1328.6</ele>
        <time>2022-02-13T11:48:53Z</time>
      </trkpt>
      <trkpt lat="46.20025" lon="6.59118">
        <ele>1326.4</ele>
        <time>2022-02-13T11:48:54Z</time>
      </trkpt>
      <trkpt lat="46.20029" lon="6.59111">
        <ele>1325.4</ele>
        <time>2022-02-13T11:48:55Z</time>
      </trkpt>
      <trkpt lat="46.20036" lon="6.59094">
        <ele>1323.8</ele>
        <time>2022-02-13T11:48:57Z</time>
      </trkpt>
      <trkpt lat="46.20041" lon="6.59087">
        <ele>1322.8</ele>
        <time>2022-02-13T11:48:58Z</time>
      </trkpt>
      <trkpt lat="46.20046" lon="6.59082">
        <ele>1322.2</ele>
        <time>2022-02-13T11:48:59Z</time>
      </trkpt>
      <trkpt lat="46.2005" lon="6.59076">
        <ele>1321.4</ele>
        <time>2022-02-13T11:49:00Z</time>
      </trkpt>
      <trkpt lat="46.20055" lon="6.59069">
        <ele>1320.8</ele>
        <time>2022-02-13T11:49:01Z</time>
      </trkpt>
      <trkpt lat="46.20065" lon="6.59054">
        <ele>1319.4</ele>
        <time>2022-02-13T11:49:03Z</time>
      </trkpt>
      <trkpt lat="46.20069" lon="6.59047">
        <ele>1318.6</ele>
        <time>2022-02-13T11:49:04Z</time>
      </trkpt>
      <trkpt lat="46.20079" lon="6.59034">
        <ele>1318.4</ele>
        <time>2022-02-13T11:49:06Z</time>
      </trkpt>
      <trkpt lat="46.20094" lon="6.59015">
        <ele>1317.2</ele>
        <time>2022-02-13T11:49:09Z</time>
      </trkpt>
      <trkpt lat="46.20106" lon="6.59002">
        <ele>1316.2</ele>
        <time>2022-02-13T11:49:11Z</time>
      </trkpt>
      <trkpt lat="46.20111" lon="6.58996">
        <ele>1315.6</ele>
        <time>2022-02-13T11:49:12Z</time>
      </trkpt>
      <trkpt lat="46.20116" lon="6.5899">
        <ele>1315</ele>
        <time>2022-02-13T11:49:13Z</time>
      </trkpt>
      <trkpt lat="46.20127" lon="6.58979">
        <ele>1314</ele>
        <time>2022-02-13T11:49:15Z</time>
      </trkpt>
      <trkpt lat="46.20133" lon="6.58973">
        <ele>1313.2</ele>
        <time>2022-02-13T11:49:16Z</time>
      </trkpt>
      <trkpt lat="46.20145" lon="6.58961">
        <ele>1312</ele>
        <time>2022-02-13T11:49:18Z</time>
      </trkpt>
      <trkpt lat="46.20156" lon="6.58949">
        <ele>1311.2</ele>
        <time>2022-02-13T11:49:20Z</time>
      </trkpt>
      <trkpt lat="46.20162" lon="6.58943">
        <ele>1310.8</ele>
        <time>2022-02-13T11:49:21Z</time>
      </trkpt>
      <trkpt lat="46.20176" lon="6.58927">
        <ele>1309.8</ele>
        <time>2022-02-13T11:49:24Z</time>
      </trkpt>
      <trkpt lat="46.20181" lon="6.58923">
        <ele>1309.2</ele>
        <time>2022-02-13T11:49:25Z</time>
      </trkpt>
      <trkpt lat="46.20193" lon="6.58906">
        <ele>1308.2</ele>
        <time>2022-02-13T11:49:28Z</time>
      </trkpt>
      <trkpt lat="46.20197" lon="6.589">
        <ele>1307.8</ele>
        <time>2022-02-13T11:49:29Z</time>
      </trkpt>
      <trkpt lat="46.202" lon="6.58893">
        <ele>1307.4</ele>
        <time>2022-02-13T11:49:30Z</time>
      </trkpt>
      <trkpt lat="46.20204" lon="6.58885">
        <ele>1307</ele>
        <time>2022-02-13T11:49:31Z</time>
      </trkpt>
      <trkpt lat="46.20206" lon="6.58878">
        <ele>1306.6</ele>
        <time>2022-02-13T11:49:32Z</time>
      </trkpt>
      <trkpt lat="46.2021" lon="6.58864">
        <ele>1305.8</ele>
        <time>2022-02-13T11:49:34Z</time>
      </trkpt>
      <trkpt lat="46.20211" lon="6.58857">
        <ele>1305.6</ele>
        <time>2022-02-13T11:49:35Z</time>
      </trkpt>
      <trkpt lat="46.20216" lon="6.58831">
        <ele>1305.4</ele>
        <time>2022-02-13T11:49:40Z</time>
      </trkpt>
      <trkpt lat="46.20217" lon="6.58826">
        <ele>1305.4</ele>
        <time>2022-02-13T11:49:41Z</time>
      </trkpt>
      <trkpt lat="46.20221" lon="6.58808">
        <ele>1305</ele>
        <time>2022-02-13T11:49:45Z</time>
      </trkpt>
      <trkpt lat="46.20222" lon="6.58802">
        <ele>1304.8</ele>
        <time>2022-02-13T11:49:46Z</time>
      </trkpt>
      <trkpt lat="46.20224" lon="6.58788">
        <ele>1304.2</ele>
        <time>2022-02-13T11:49:49Z</time>
      </trkpt>
      <trkpt lat="46.20224" lon="6.58783">
        <ele>1304</ele>
        <time>2022-02-13T11:49:50Z</time>
      </trkpt>
      <trkpt lat="46.20226" lon="6.58772">
        <ele>1303.6</ele>
        <time>2022-02-13T11:49:52Z</time>
      </trkpt>
      <trkpt lat="46.20228" lon="6.58758">
        <ele>1303</ele>
        <time>2022-02-13T11:49:55Z</time>
      </trkpt>
      <trkpt lat="46.20229" lon="6.58754">
        <ele>1302.8</ele>
        <time>2022-02-13T11:49:56Z</time>
      </trkpt>
      <trkpt lat="46.20231" lon="6.58749">
        <ele>1302.6</ele>
        <time>2022-02-13T11:49:57Z</time>
      </trkpt>
      <trkpt lat="46.20233" lon="6.58745">
        <ele>1302.4</ele>
        <time>2022-02-13T11:49:58Z</time>
      </trkpt>
      <trkpt lat="46.2024" lon="6.58729">
        <ele>1302</ele>
        <time>2022-02-13T11:50:02Z</time>
      </trkpt>
      <trkpt lat="46.20242" lon="6.58715">
        <ele>1301.6</ele>
        <time>2022-02-13T11:50:05Z</time>
      </trkpt>
      <trkpt lat="46.20246" lon="6.58701">
        <ele>1301</ele>
        <time>2022-02-13T11:50:08Z</time>
      </trkpt>
      <trkpt lat="46.2025" lon="6.5869">
        <ele>1300.4</ele>
        <time>2022-02-13T11:50:10Z</time>
      </trkpt>
      <trkpt lat="46.20266" lon="6.5867">
        <ele>1299.6</ele>
        <time>2022-02-13T11:50:14Z</time>
      </trkpt>
      <trkpt lat="46.20275" lon="6.58661">
        <ele>1298.6</ele>
        <time>2022-02-13T11:50:15Z</time>
      </trkpt>
      <trkpt lat="46.20285" lon="6.58651">
        <ele>1298</ele>
        <time>2022-02-13T11:50:18Z</time>
      </trkpt>
      <trkpt lat="46.2029" lon="6.58647">
        <ele>1297.4</ele>
        <time>2022-02-13T11:50:19Z</time>
      </trkpt>
      <trkpt lat="46.20295" lon="6.58642">
        <ele>1297</ele>
        <time>2022-02-13T11:50:20Z</time>
      </trkpt>
      <trkpt lat="46.20309" lon="6.58627">
        <ele>1296</ele>
        <time>2022-02-13T11:50:23Z</time>
      </trkpt>
      <trkpt lat="46.20318" lon="6.58618">
        <ele>1294.6</ele>
        <time>2022-02-13T11:50:25Z</time>
      </trkpt>
      <trkpt lat="46.20323" lon="6.58613">
        <ele>1294</ele>
        <time>2022-02-13T11:50:26Z</time>
      </trkpt>
      <trkpt lat="46.20327" lon="6.58609">
        <ele>1293.6</ele>
        <time>2022-02-13T11:50:27Z</time>
      </trkpt>
      <trkpt lat="46.20337" lon="6.58603">
        <ele>1292</ele>
        <time>2022-02-13T11:50:29Z</time>
      </trkpt>
      <trkpt lat="46.20349" lon="6.58598">
        <ele>1291.4</ele>
        <time>2022-02-13T11:50:31Z</time>
      </trkpt>
      <trkpt lat="46.20355" lon="6.58596">
        <ele>1291</ele>
        <time>2022-02-13T11:50:32Z</time>
      </trkpt>
      <trkpt lat="46.20367" lon="6.5859">
        <ele>1289.6</ele>
        <time>2022-02-13T11:50:34Z</time>
      </trkpt>
      <trkpt lat="46.20372" lon="6.58586">
        <ele>1289.2</ele>
        <time>2022-02-13T11:50:35Z</time>
      </trkpt>
      <trkpt lat="46.20381" lon="6.58576">
        <ele>1288.2</ele>
        <time>2022-02-13T11:50:37Z</time>
      </trkpt>
      <trkpt lat="46.20389" lon="6.58562">
        <ele>1286.4</ele>
        <time>2022-02-13T11:50:39Z</time>
      </trkpt>
      <trkpt lat="46.20393" lon="6.58554">
        <ele>1285.2</ele>
        <time>2022-02-13T11:50:40Z</time>
      </trkpt>
      <trkpt lat="46.20397" lon="6.58546">
        <ele>1283.8</ele>
        <time>2022-02-13T11:50:41Z</time>
      </trkpt>
      <trkpt lat="46.20402" lon="6.58539">
        <ele>1282.6</ele>
        <time>2022-02-13T11:50:42Z</time>
      </trkpt>
      <trkpt lat="46.20406" lon="6.58532">
        <ele>1281.2</ele>
        <time>2022-02-13T11:50:43Z</time>
      </trkpt>
      <trkpt lat="46.20412" lon="6.58516">
        <ele>1279.4</ele>
        <time>2022-02-13T11:50:45Z</time>
      </trkpt>
      <trkpt lat="46.20416" lon="6.5851">
        <ele>1278</ele>
        <time>2022-02-13T11:50:46Z</time>
      </trkpt>
      <trkpt lat="46.20421" lon="6.58506">
        <ele>1276.8</ele>
        <time>2022-02-13T11:50:47Z</time>
      </trkpt>
      <trkpt lat="46.20425" lon="6.58501">
        <ele>1276</ele>
        <time>2022-02-13T11:50:48Z</time>
      </trkpt>
      <trkpt lat="46.20431" lon="6.58496">
        <ele>1275.4</ele>
        <time>2022-02-13T11:50:49Z</time>
      </trkpt>
      <trkpt lat="46.20437" lon="6.58492">
        <ele>1274.6</ele>
        <time>2022-02-13T11:50:50Z</time>
      </trkpt>
      <trkpt lat="46.20444" lon="6.58489">
        <ele>1273</ele>
        <time>2022-02-13T11:50:51Z</time>
      </trkpt>
      <trkpt lat="46.20452" lon="6.58487">
        <ele>1271.2</ele>
        <time>2022-02-13T11:50:52Z</time>
      </trkpt>
      <trkpt lat="46.20459" lon="6.58483">
        <ele>1269.8</ele>
        <time>2022-02-13T11:50:53Z</time>
      </trkpt>
      <trkpt lat="46.20466" lon="6.58478">
        <ele>1268.2</ele>
        <time>2022-02-13T11:50:54Z</time>
      </trkpt>
      <trkpt lat="46.20472" lon="6.58474">
        <ele>1266.4</ele>
        <time>2022-02-13T11:50:55Z</time>
      </trkpt>
      <trkpt lat="46.20485" lon="6.58465">
        <ele>1263.6</ele>
        <time>2022-02-13T11:50:57Z</time>
      </trkpt>
      <trkpt lat="46.20494" lon="6.58447">
        <ele>1262</ele>
        <time>2022-02-13T11:50:59Z</time>
      </trkpt>
      <trkpt lat="46.20499" lon="6.5844">
        <ele>1260.8</ele>
        <time>2022-02-13T11:51:00Z</time>
      </trkpt>
      <trkpt lat="46.20501" lon="6.58431">
        <ele>1260</ele>
        <time>2022-02-13T11:51:01Z</time>
      </trkpt>
      <trkpt lat="46.20503" lon="6.58424">
        <ele>1259.4</ele>
        <time>2022-02-13T11:51:02Z</time>
      </trkpt>
      <trkpt lat="46.20506" lon="6.58417">
        <ele>1258.4</ele>
        <time>2022-02-13T11:51:03Z</time>
      </trkpt>
      <trkpt lat="46.20509" lon="6.58412">
        <ele>1257.4</ele>
        <time>2022-02-13T11:51:04Z</time>
      </trkpt>
      <trkpt lat="46.20513" lon="6.58407">
        <ele>1256.4</ele>
        <time>2022-02-13T11:51:05Z</time>
      </trkpt>
      <trkpt lat="46.20516" lon="6.58401">
        <ele>1255.6</ele>
        <time>2022-02-13T11:51:06Z</time>
      </trkpt>
      <trkpt lat="46.20519" lon="6.58395">
        <ele>1255</ele>
        <time>2022-02-13T11:51:07Z</time>
      </trkpt>
      <trkpt lat="46.20522" lon="6.58391">
        <ele>1254.4</ele>
        <time>2022-02-13T11:51:08Z</time>
      </trkpt>
      <trkpt lat="46.20531" lon="6.58387">
        <ele>1252.6</ele>
        <time>2022-02-13T11:51:10Z</time>
      </trkpt>
      <trkpt lat="46.20541" lon="6.5838">
        <ele>1251.4</ele>
        <time>2022-02-13T11:51:12Z</time>
      </trkpt>
      <trkpt lat="46.20546" lon="6.58375">
        <ele>1250.2</ele>
        <time>2022-02-13T11:51:13Z</time>
      </trkpt>
      <trkpt lat="46.20552" lon="6.58372">
        <ele>1248.8</ele>
        <time>2022-02-13T11:51:14Z</time>
      </trkpt>
      <trkpt lat="46.20559" lon="6.58368">
        <ele>1247.6</ele>
        <time>2022-02-13T11:51:15Z</time>
      </trkpt>
      <trkpt lat="46.20564" lon="6.58364">
        <ele>1246.8</ele>
        <time>2022-02-13T11:51:16Z</time>
      </trkpt>
      <trkpt lat="46.20569" lon="6.58357">
        <ele>1245.6</ele>
        <time>2022-02-13T11:51:17Z</time>
      </trkpt>
      <trkpt lat="46.20574" lon="6.58351">
        <ele>1244</ele>
        <time>2022-02-13T11:51:18Z</time>
      </trkpt>
      <trkpt lat="46.20579" lon="6.58345">
        <ele>1242.2</ele>
        <time>2022-02-13T11:51:19Z</time>
      </trkpt>
      <trkpt lat="46.20584" lon="6.58339">
        <ele>1241</ele>
        <time>2022-02-13T11:51:20Z</time>
      </trkpt>
      <trkpt lat="46.20592" lon="6.58325">
        <ele>1239</ele>
        <time>2022-02-13T11:51:22Z</time>
      </trkpt>
      <trkpt lat="46.20596" lon="6.58318">
        <ele>1237.8</ele>
        <time>2022-02-13T11:51:23Z</time>
      </trkpt>
      <trkpt lat="46.206" lon="6.58311">
        <ele>1237.2</ele>
        <time>2022-02-13T11:51:24Z</time>
      </trkpt>
      <trkpt lat="46.20604" lon="6.58304">
        <ele>1236.4</ele>
        <time>2022-02-13T11:51:25Z</time>
      </trkpt>
      <trkpt lat="46.20608" lon="6.58297">
        <ele>1235.2</ele>
        <time>2022-02-13T11:51:26Z</time>
      </trkpt>
      <trkpt lat="46.20618" lon="6.58282">
        <ele>1233.4</ele>
        <time>2022-02-13T11:51:28Z</time>
      </trkpt>
      <trkpt lat="46.20623" lon="6.58273">
        <ele>1232.2</ele>
        <time>2022-02-13T11:51:29Z</time>
      </trkpt>
      <trkpt lat="46.20629" lon="6.58266">
        <ele>1230.4</ele>
        <time>2022-02-13T11:51:30Z</time>
      </trkpt>
      <trkpt lat="46.20634" lon="6.58259">
        <ele>1228.8</ele>
        <time>2022-02-13T11:51:31Z</time>
      </trkpt>
      <trkpt lat="46.20639" lon="6.5825">
        <ele>1228</ele>
        <time>2022-02-13T11:51:32Z</time>
      </trkpt>
      <trkpt lat="46.20644" lon="6.58244">
        <ele>1227.2</ele>
        <time>2022-02-13T11:51:33Z</time>
      </trkpt>
      <trkpt lat="46.2065" lon="6.58237">
        <ele>1226</ele>
        <time>2022-02-13T11:51:34Z</time>
      </trkpt>
      <trkpt lat="46.20654" lon="6.5823">
        <ele>1225.2</ele>
        <time>2022-02-13T11:51:35Z</time>
      </trkpt>
      <trkpt lat="46.20659" lon="6.58221">
        <ele>1224.6</ele>
        <time>2022-02-13T11:51:36Z</time>
      </trkpt>
      <trkpt lat="46.20667" lon="6.58206">
        <ele>1223</ele>
        <time>2022-02-13T11:51:38Z</time>
      </trkpt>
      <trkpt lat="46.20674" lon="6.58189">
        <ele>1221.6</ele>
        <time>2022-02-13T11:51:40Z</time>
      </trkpt>
      <trkpt lat="46.20679" lon="6.58181">
        <ele>1220.4</ele>
        <time>2022-02-13T11:51:41Z</time>
      </trkpt>
      <trkpt lat="46.20684" lon="6.58173">
        <ele>1219.2</ele>
        <time>2022-02-13T11:51:42Z</time>
      </trkpt>
      <trkpt lat="46.20689" lon="6.58164">
        <ele>1218.4</ele>
        <time>2022-02-13T11:51:43Z</time>
      </trkpt>
      <trkpt lat="46.20694" lon="6.58155">
        <ele>1217.8</ele>
        <time>2022-02-13T11:51:44Z</time>
      </trkpt>
      <trkpt lat="46.207" lon="6.58148">
        <ele>1216.8</ele>
        <time>2022-02-13T11:51:45Z</time>
      </trkpt>
      <trkpt lat="46.20705" lon="6.5814">
        <ele>1215.6</ele>
        <time>2022-02-13T11:51:46Z</time>
      </trkpt>
      <trkpt lat="46.20709" lon="6.58132">
        <ele>1214.8</ele>
        <time>2022-02-13T11:51:47Z</time>
      </trkpt>
      <trkpt lat="46.20713" lon="6.58124">
        <ele>1214.4</ele>
        <time>2022-02-13T11:51:48Z</time>
      </trkpt>
      <trkpt lat="46.20717" lon="6.58117">
        <ele>1213.2</ele>
        <time>2022-02-13T11:51:49Z</time>
      </trkpt>
      <trkpt lat="46.20725" lon="6.58101">
        <ele>1212</ele>
        <time>2022-02-13T11:51:51Z</time>
      </trkpt>
      <trkpt lat="46.20734" lon="6.58083">
        <ele>1211</ele>
        <time>2022-02-13T11:51:53Z</time>
      </trkpt>
      <trkpt lat="46.20739" lon="6.58075">
        <ele>1210.8</ele>
        <time>2022-02-13T11:51:54Z</time>
      </trkpt>
      <trkpt lat="46.2075" lon="6.58057">
        <ele>1209.6</ele>
        <time>2022-02-13T11:51:56Z</time>
      </trkpt>
      <trkpt lat="46.20761" lon="6.5804">
        <ele>1208.4</ele>
        <time>2022-02-13T11:51:58Z</time>
      </trkpt>
      <trkpt lat="46.20766" lon="6.58033">
        <ele>1207.8</ele>
        <time>2022-02-13T11:51:59Z</time>
      </trkpt>
      <trkpt lat="46.20772" lon="6.58027">
        <ele>1206.4</ele>
        <time>2022-02-13T11:52:00Z</time>
      </trkpt>
      <trkpt lat="46.20781" lon="6.58013">
        <ele>1204.2</ele>
        <time>2022-02-13T11:52:02Z</time>
      </trkpt>
      <trkpt lat="46.20786" lon="6.58006">
        <ele>1202.2</ele>
        <time>2022-02-13T11:52:03Z</time>
      </trkpt>
      <trkpt lat="46.208" lon="6.57986">
        <ele>1201.4</ele>
        <time>2022-02-13T11:52:06Z</time>
      </trkpt>
      <trkpt lat="46.20806" lon="6.5798">
        <ele>1200.2</ele>
        <time>2022-02-13T11:52:07Z</time>
      </trkpt>
      <trkpt lat="46.20813" lon="6.57974">
        <ele>1199.2</ele>
        <time>2022-02-13T11:52:08Z</time>
      </trkpt>
      <trkpt lat="46.20819" lon="6.57967">
        <ele>1197.6</ele>
        <time>2022-02-13T11:52:09Z</time>
      </trkpt>
      <trkpt lat="46.20826" lon="6.5796">
        <ele>1195.8</ele>
        <time>2022-02-13T11:52:10Z</time>
      </trkpt>
      <trkpt lat="46.20839" lon="6.57945">
        <ele>1193.6</ele>
        <time>2022-02-13T11:52:12Z</time>
      </trkpt>
      <trkpt lat="46.20846" lon="6.57936">
        <ele>1192.4</ele>
        <time>2022-02-13T11:52:13Z</time>
      </trkpt>
      <trkpt lat="46.20857" lon="6.57918">
        <ele>1191.2</ele>
        <time>2022-02-13T11:52:15Z</time>
      </trkpt>
      <trkpt lat="46.20866" lon="6.579">
        <ele>1189.2</ele>
        <time>2022-02-13T11:52:17Z</time>
      </trkpt>
      <trkpt lat="46.20875" lon="6.57872">
        <ele>1188</ele>
        <time>2022-02-13T11:52:20Z</time>
      </trkpt>
      <trkpt lat="46.20881" lon="6.57852">
        <ele>1187.2</ele>
        <time>2022-02-13T11:52:22Z</time>
      </trkpt>
      <trkpt lat="46.20883" lon="6.57842">
        <ele>1187</ele>
        <time>2022-02-13T11:52:23Z</time>
      </trkpt>
      <trkpt lat="46.20885" lon="6.57831">
        <ele>1186.8</ele>
        <time>2022-02-13T11:52:24Z</time>
      </trkpt>
      <trkpt lat="46.20886" lon="6.57819">
        <ele>1186.2</ele>
        <time>2022-02-13T11:52:25Z</time>
      </trkpt>
      <trkpt lat="46.20888" lon="6.57808">
        <ele>1185.2</ele>
        <time>2022-02-13T11:52:26Z</time>
      </trkpt>
      <trkpt lat="46.20889" lon="6.57797">
        <ele>1183.8</ele>
        <time>2022-02-13T11:52:27Z</time>
      </trkpt>
      <trkpt lat="46.20893" lon="6.57775">
        <ele>1182.2</ele>
        <time>2022-02-13T11:52:29Z</time>
      </trkpt>
      <trkpt lat="46.20899" lon="6.57756">
        <ele>1181</ele>
        <time>2022-02-13T11:52:31Z</time>
      </trkpt>
      <trkpt lat="46.20903" lon="6.57748">
        <ele>1179.8</ele>
        <time>2022-02-13T11:52:32Z</time>
      </trkpt>
      <trkpt lat="46.20906" lon="6.57739">
        <ele>1179</ele>
        <time>2022-02-13T11:52:33Z</time>
      </trkpt>
      <trkpt lat="46.20909" lon="6.5773">
        <ele>1178.6</ele>
        <time>2022-02-13T11:52:34Z</time>
      </trkpt>
      <trkpt lat="46.20911" lon="6.57721">
        <ele>1178.4</ele>
        <time>2022-02-13T11:52:35Z</time>
      </trkpt>
      <trkpt lat="46.20914" lon="6.57711">
        <ele>1177.8</ele>
        <time>2022-02-13T11:52:36Z</time>
      </trkpt>
      <trkpt lat="46.20917" lon="6.57703">
        <ele>1177</ele>
        <time>2022-02-13T11:52:37Z</time>
      </trkpt>
      <trkpt lat="46.20921" lon="6.57696">
        <ele>1176.6</ele>
        <time>2022-02-13T11:52:38Z</time>
      </trkpt>
      <trkpt lat="46.20925" lon="6.57691">
        <ele>1176.2</ele>
        <time>2022-02-13T11:52:39Z</time>
      </trkpt>
      <trkpt lat="46.20931" lon="6.5768">
        <ele>1175.8</ele>
        <time>2022-02-13T11:52:41Z</time>
      </trkpt>
      <trkpt lat="46.20933" lon="6.57667">
        <ele>1175</ele>
        <time>2022-02-13T11:52:43Z</time>
      </trkpt>
      <trkpt lat="46.20929" lon="6.57651">
        <ele>1173</ele>
        <time>2022-02-13T11:52:46Z</time>
      </trkpt>
      <trkpt lat="46.20928" lon="6.57645">
        <ele>1172.2</ele>
        <time>2022-02-13T11:52:48Z</time>
      </trkpt>
      <trkpt lat="46.20927" lon="6.57643">
        <ele>1171.8</ele>
        <time>2022-02-13T11:52:49Z</time>
      </trkpt>
      <trkpt lat="46.20923" lon="6.57638">
        <ele>1171</ele>
        <time>2022-02-13T11:52:51Z</time>
      </trkpt>
      <trkpt lat="46.20923" lon="6.57635">
        <ele>1170.6</ele>
        <time>2022-02-13T11:52:52Z</time>
      </trkpt>
      <trkpt lat="46.20924" lon="6.57632">
        <ele>1170</ele>
        <time>2022-02-13T11:52:55Z</time>
      </trkpt>
      <trkpt lat="46.20924" lon="6.57632">
        <ele>1169.8</ele>
        <time>2022-02-13T11:52:56Z</time>
      </trkpt>
      <trkpt lat="46.20924" lon="6.57633">
        <ele>1169.6</ele>
        <time>2022-02-13T11:53:00Z</time>
      </trkpt>
      <trkpt lat="46.20924" lon="6.57633">
        <ele>1169.6</ele>
        <time>2022-02-13T11:53:01Z</time>
      </trkpt>
      <trkpt lat="46.20924" lon="6.57633">
        <ele>1169.8</ele>
        <time>2022-02-13T11:53:05Z</time>
      </trkpt>
      <trkpt lat="46.20924" lon="6.57634">
        <ele>1169.8</ele>
        <time>2022-02-13T11:53:13Z</time>
      </trkpt>
      <trkpt lat="46.20924" lon="6.57634">
        <ele>1169.4</ele>
        <time>2022-02-13T11:53:20Z</time>
      </trkpt>
      <trkpt lat="46.20924" lon="6.57635">
        <ele>1169</ele>
        <time>2022-02-13T11:53:22Z</time>
      </trkpt>
      <trkpt lat="46.20924" lon="6.57635">
        <ele>1168.8</ele>
        <time>2022-02-13T11:53:25Z</time>
      </trkpt>
      <trkpt lat="46.20925" lon="6.57635">
        <ele>1169.4</ele>
        <time>2022-02-13T11:53:35Z</time>
      </trkpt>
      <trkpt lat="46.20925" lon="6.57635">
        <ele>1169.4</ele>
        <time>2022-02-13T11:53:36Z</time>
      </trkpt>
      <trkpt lat="46.20926" lon="6.57635">
        <ele>1169.4</ele>
        <time>2022-02-13T11:53:39Z</time>
      </trkpt>
      <trkpt lat="46.20926" lon="6.57635">
        <ele>1169.4</ele>
        <time>2022-02-13T11:53:43Z</time>
      </trkpt>
      <trkpt lat="46.20926" lon="6.57635">
        <ele>1169.2</ele>
        <time>2022-02-13T11:53:46Z</time>
      </trkpt>
      <trkpt lat="46.20926" lon="6.57634">
        <ele>1169.6</ele>
        <time>2022-02-13T11:53:52Z</time>
      </trkpt>
      <trkpt lat="46.20922" lon="6.57626">
        <ele>1169.6</ele>
        <time>2022-02-13T11:54:01Z</time>
      </trkpt>
      <trkpt lat="46.20922" lon="6.57626">
        <ele>1169.4</ele>
        <time>2022-02-13T11:54:02Z</time>
      </trkpt>
      <trkpt lat="46.2092" lon="6.57622">
        <ele>1169.2</ele>
        <time>2022-02-13T11:54:09Z</time>
      </trkpt>
      <trkpt lat="46.2092" lon="6.5762">
        <ele>1169</ele>
        <time>2022-02-13T11:54:11Z</time>
      </trkpt>
      <trkpt lat="46.20921" lon="6.57618">
        <ele>1168.6</ele>
        <time>2022-02-13T11:54:17Z</time>
      </trkpt>
      <trkpt lat="46.20921" lon="6.57618">
        <ele>1168.6</ele>
        <time>2022-02-13T11:54:18Z</time>
      </trkpt>
      <trkpt lat="46.20921" lon="6.57619">
        <ele>1168.4</ele>
        <time>2022-02-13T11:54:21Z</time>
      </trkpt>
      <trkpt lat="46.20921" lon="6.5762">
        <ele>1168.6</ele>
        <time>2022-02-13T11:54:27Z</time>
      </trkpt>
      <trkpt lat="46.20921" lon="6.5762">
        <ele>1168.8</ele>
        <time>2022-02-13T11:54:36Z</time>
      </trkpt>
      <trkpt lat="46.20921" lon="6.5762">
        <ele>1168.6</ele>
        <time>2022-02-13T11:54:45Z</time>
      </trkpt>
      <trkpt lat="46.20921" lon="6.5762">
        <ele>1169</ele>
        <time>2022-02-13T11:54:53Z</time>
      </trkpt>
      <trkpt lat="46.20921" lon="6.57619">
        <ele>1168.6</ele>
        <time>2022-02-13T11:54:58Z</time>
      </trkpt>
      <trkpt lat="46.20921" lon="6.57619">
        <ele>1169.2</ele>
        <time>2022-02-13T11:55:02Z</time>
      </trkpt>
      <trkpt lat="46.2092" lon="6.57619">
        <ele>1169.2</ele>
        <time>2022-02-13T11:55:04Z</time>
      </trkpt>
      <trkpt lat="46.2092" lon="6.57619">
        <ele>1169.2</ele>
        <time>2022-02-13T11:55:12Z</time>
      </trkpt>
      <trkpt lat="46.20921" lon="6.57618">
        <ele>1169.2</ele>
        <time>2022-02-13T11:55:18Z</time>
      </trkpt>
      <trkpt lat="46.20921" lon="6.57618">
        <ele>1169.2</ele>
        <time>2022-02-13T11:55:19Z</time>
      </trkpt>
      <trkpt lat="46.20921" lon="6.57618">
        <ele>1169.2</ele>
        <time>2022-02-13T11:55:20Z</time>
      </trkpt>
      <trkpt lat="46.20921" lon="6.57619">
        <ele>1169.2</ele>
        <time>2022-02-13T11:55:24Z</time>
      </trkpt>
      <trkpt lat="46.20921" lon="6.57618">
        <ele>1169.2</ele>
        <time>2022-02-13T11:55:30Z</time>
      </trkpt>
      <trkpt lat="46.2092" lon="6.57619">
        <ele>1169.2</ele>
        <time>2022-02-13T11:55:34Z</time>
      </trkpt>
      <trkpt lat="46.20919" lon="6.57621">
        <ele>1169.2</ele>
        <time>2022-02-13T11:55:46Z</time>
      </trkpt>
      <trkpt lat="46.2092" lon="6.5762">
        <ele>1169.2</ele>
        <time>2022-02-13T11:55:47Z</time>
      </trkpt>
      <trkpt lat="46.2092" lon="6.57622">
        <ele>1169.2</ele>
        <time>2022-02-13T11:55:53Z</time>
      </trkpt>
      <trkpt lat="46.2092" lon="6.57622">
        <ele>1169.2</ele>
        <time>2022-02-13T11:55:56Z</time>
      </trkpt>
      <trkpt lat="46.2092" lon="6.57623">
        <ele>1169.2</ele>
        <time>2022-02-13T11:55:58Z</time>
      </trkpt>
      <trkpt lat="46.20922" lon="6.57624">
        <ele>1169.2</ele>
        <time>2022-02-13T11:56:08Z</time>
      </trkpt>
      <trkpt lat="46.20922" lon="6.57625">
        <ele>1169.2</ele>
        <time>2022-02-13T11:56:09Z</time>
      </trkpt>
      <trkpt lat="46.20923" lon="6.57629">
        <ele>1169.2</ele>
        <time>2022-02-13T11:56:13Z</time>
      </trkpt>
      <trkpt lat="46.20926" lon="6.57633">
        <ele>1169.2</ele>
        <time>2022-02-13T11:56:23Z</time>
      </trkpt>
      <trkpt lat="46.20927" lon="6.57633">
        <ele>1169.2</ele>
        <time>2022-02-13T11:56:37Z</time>
      </trkpt>
      <trkpt lat="46.20927" lon="6.57633">
        <ele>1169.2</ele>
        <time>2022-02-13T11:56:39Z</time>
      </trkpt>
      <trkpt lat="46.20927" lon="6.57633">
        <ele>1169.2</ele>
        <time>2022-02-13T11:56:41Z</time>
      </trkpt>
      <trkpt lat="46.20926" lon="6.57635">
        <ele>1169.2</ele>
        <time>2022-02-13T11:56:47Z</time>
      </trkpt>
      <trkpt lat="46.20926" lon="6.57635">
        <ele>1169.2</ele>
        <time>2022-02-13T11:56:52Z</time>
      </trkpt>
      <trkpt lat="46.20926" lon="6.57635">
        <ele>1169.2</ele>
        <time>2022-02-13T11:56:53Z</time>
      </trkpt>
      <trkpt lat="46.20926" lon="6.57635">
        <ele>1169.2</ele>
        <time>2022-02-13T11:56:56Z</time>
      </trkpt>
      <trkpt lat="46.20926" lon="6.57634">
        <ele>1169.2</ele>
        <time>2022-02-13T11:57:01Z</time>
      </trkpt>
      <trkpt lat="46.20926" lon="6.57634">
        <ele>1169.2</ele>
        <time>2022-02-13T11:57:02Z</time>
      </trkpt>
      <trkpt lat="46.20926" lon="6.57634">
        <ele>1169.2</ele>
        <time>2022-02-13T11:57:03Z</time>
      </trkpt>
      <trkpt lat="46.20926" lon="6.57634">
        <ele>1169.2</ele>
        <time>2022-02-13T11:57:08Z</time>
      </trkpt>
      <trkpt lat="46.20926" lon="6.57634">
        <ele>1169.2</ele>
        <time>2022-02-13T11:57:12Z</time>
      </trkpt>
      <trkpt lat="46.20926" lon="6.57634">
        <ele>1169.2</ele>
        <time>2022-02-13T11:57:15Z</time>
      </trkpt>
      <trkpt lat="46.20926" lon="6.57635">
        <ele>1169.2</ele>
        <time>2022-02-13T11:57:19Z</time>
      </trkpt>
      <trkpt lat="46.20925" lon="6.57634">
        <ele>1169.2</ele>
        <time>2022-02-13T11:57:22Z</time>
      </trkpt>
      <trkpt lat="46.20925" lon="6.57633">
        <ele>1169.2</ele>
        <time>2022-02-13T11:57:28Z</time>
      </trkpt>
      <trkpt lat="46.20925" lon="6.57633">
        <ele>1169.2</ele>
        <time>2022-02-13T11:57:29Z</time>
      </trkpt>
      <trkpt lat="46.20925" lon="6.57633">
        <ele>1169.2</ele>
        <time>2022-02-13T11:57:30Z</time>
      </trkpt>
      <trkpt lat="46.20925" lon="6.57634">
        <ele>1169.2</ele>
        <time>2022-02-13T11:57:42Z</time>
      </trkpt>
      <trkpt lat="46.20924" lon="6.57634">
        <ele>1169.2</ele>
        <time>2022-02-13T11:57:52Z</time>
      </trkpt>
      <trkpt lat="46.20923" lon="6.57634">
        <ele>1169.2</ele>
        <time>2022-02-13T11:58:03Z</time>
      </trkpt>
      <trkpt lat="46.20922" lon="6.5763">
        <ele>1169.2</ele>
        <time>2022-02-13T11:58:14Z</time>
      </trkpt>
      <trkpt lat="46.20921" lon="6.57629">
        <ele>1169.2</ele>
        <time>2022-02-13T11:58:16Z</time>
      </trkpt>
      <trkpt lat="46.2092" lon="6.57624">
        <ele>1169.2</ele>
        <time>2022-02-13T11:58:20Z</time>
      </trkpt>
      <trkpt lat="46.2092" lon="6.57623">
        <ele>1169.2</ele>
        <time>2022-02-13T11:58:22Z</time>
      </trkpt>
      <trkpt lat="46.20921" lon="6.5762">
        <ele>1169.2</ele>
        <time>2022-02-13T11:58:27Z</time>
      </trkpt>
      <trkpt lat="46.20921" lon="6.5762">
        <ele>1169</ele>
        <time>2022-02-13T11:58:28Z</time>
      </trkpt>
      <trkpt lat="46.20921" lon="6.57619">
        <ele>1168.6</ele>
        <time>2022-02-13T11:58:35Z</time>
      </trkpt>
      <trkpt lat="46.20919" lon="6.57621">
        <ele>1169.2</ele>
        <time>2022-02-13T11:58:42Z</time>
      </trkpt>
      <trkpt lat="46.20919" lon="6.57621">
        <ele>1169.2</ele>
        <time>2022-02-13T11:58:43Z</time>
      </trkpt>
      <trkpt lat="46.20918" lon="6.5762">
        <ele>1169</ele>
        <time>2022-02-13T11:58:50Z</time>
      </trkpt>
      <trkpt lat="46.20918" lon="6.57621">
        <ele>1168.8</ele>
        <time>2022-02-13T11:58:53Z</time>
      </trkpt>
      <trkpt lat="46.20917" lon="6.57621">
        <ele>1168.8</ele>
        <time>2022-02-13T11:58:58Z</time>
      </trkpt>
      <trkpt lat="46.20919" lon="6.5762">
        <ele>1169.6</ele>
        <time>2022-02-13T11:59:11Z</time>
      </trkpt>
      <trkpt lat="46.20919" lon="6.5762">
        <ele>1169.8</ele>
        <time>2022-02-13T11:59:12Z</time>
      </trkpt>
      <trkpt lat="46.20922" lon="6.5762">
        <ele>1170</ele>
        <time>2022-02-13T11:59:29Z</time>
      </trkpt>
      <trkpt lat="46.20922" lon="6.57619">
        <ele>1169.8</ele>
        <time>2022-02-13T11:59:30Z</time>
      </trkpt>
      <trkpt lat="46.20922" lon="6.5762">
        <ele>1169.4</ele>
        <time>2022-02-13T11:59:32Z</time>
      </trkpt>
      <trkpt lat="46.20923" lon="6.57619">
        <ele>1169.2</ele>
        <time>2022-02-13T11:59:34Z</time>
      </trkpt>
      <trkpt lat="46.20923" lon="6.57619">
        <ele>1169</ele>
        <time>2022-02-13T11:59:36Z</time>
      </trkpt>
      <trkpt lat="46.20923" lon="6.5762">
        <ele>1169.2</ele>
        <time>2022-02-13T11:59:42Z</time>
      </trkpt>
      <trkpt lat="46.20922" lon="6.5762">
        <ele>1169.2</ele>
        <time>2022-02-13T11:59:47Z</time>
      </trkpt>
      <trkpt lat="46.20922" lon="6.57619">
        <ele>1169.2</ele>
        <time>2022-02-13T11:59:48Z</time>
      </trkpt>
      <trkpt lat="46.20922" lon="6.5762">
        <ele>1169.2</ele>
        <time>2022-02-13T11:59:52Z</time>
      </trkpt>
      <trkpt lat="46.20921" lon="6.5762">
        <ele>1169.8</ele>
        <time>2022-02-13T11:59:55Z</time>
      </trkpt>
      <trkpt lat="46.20921" lon="6.57621">
        <ele>1170.2</ele>
        <time>2022-02-13T11:59:58Z</time>
      </trkpt>
      <trkpt lat="46.20921" lon="6.57621">
        <ele>1170.6</ele>
        <time>2022-02-13T12:00:06Z</time>
      </trkpt>
      <trkpt lat="46.20921" lon="6.57621">
        <ele>1170.6</ele>
        <time>2022-02-13T12:00:07Z</time>
      </trkpt>
      <trkpt lat="46.2092" lon="6.5762">
        <ele>1170.6</ele>
        <time>2022-02-13T12:00:12Z</time>
      </trkpt>
      <trkpt lat="46.2092" lon="6.57621">
        <ele>1170.4</ele>
        <time>2022-02-13T12:00:17Z</time>
      </trkpt>
      <trkpt lat="46.2092" lon="6.57621">
        <ele>1170.4</ele>
        <time>2022-02-13T12:00:19Z</time>
      </trkpt>
      <trkpt lat="46.2092" lon="6.57621">
        <ele>1170.4</ele>
        <time>2022-02-13T12:00:20Z</time>
      </trkpt>
      <trkpt lat="46.2092" lon="6.57621">
        <ele>1170.4</ele>
        <time>2022-02-13T12:00:22Z</time>
      </trkpt>
      <trkpt lat="46.2092" lon="6.57621">
        <ele>1170.4</ele>
        <time>2022-02-13T12:00:23Z</time>
      </trkpt>
      <trkpt lat="46.2092" lon="6.57621">
        <ele>1170.6</ele>
        <time>2022-02-13T12:00:28Z</time>
      </trkpt>
      <trkpt lat="46.2092" lon="6.57621">
        <ele>1170.6</ele>
        <time>2022-02-13T12:00:29Z</time>
      </trkpt>
    </trkseg>
  </trk>
</gpx>